<?xml version="1.0" encoding="UTF-8" standalone="no" ?>
<gpx xmlns="http://www.topografix.com/GPX/1/1" xmlns:xsi="http://www.w3.org/2001/XMLSchema-instance" xsi:schemaLocation="http://www.topografix.com/GPX/1/1 http://www.topografix.com/GPX/1/1/gpx.xsd" version="1.1" creator="VisuGPX - https://www.visugpx.com">
  <metadata>
    <name>St denis / trainou</name>
  </metadata>
  <trk>
    <name><![CDATA[St denis / trainou_1]]></name>
    <trkseg>
      <trkpt lat="47.87256" lon="2.12686">
        <ele>114</ele>
      </trkpt>
      <trkpt lat="47.87748" lon="2.10614">
        <ele>115.9</ele>
      </trkpt>
      <trkpt lat="47.87973" lon="2.10747">
        <ele>115</ele>
      </trkpt>
      <trkpt lat="47.88197" lon="2.10717">
        <ele>115</ele>
      </trkpt>
      <trkpt lat="47.88364" lon="2.10511">
        <ele>116</ele>
      </trkpt>
      <trkpt lat="47.8879" lon="2.10226">
        <ele>117</ele>
      </trkpt>
      <trkpt lat="47.89269" lon="2.09761">
        <ele>116.4</ele>
      </trkpt>
      <trkpt lat="47.88936" lon="2.09497">
        <ele>115</ele>
      </trkpt>
      <trkpt lat="47.88936" lon="2.09471">
        <ele>115</ele>
      </trkpt>
      <trkpt lat="47.88997" lon="2.09433">
        <ele>115</ele>
      </trkpt>
      <trkpt lat="47.89457" lon="2.08347">
        <ele>115.7</ele>
      </trkpt>
      <trkpt lat="47.89801" lon="2.08182">
        <ele>113</ele>
      </trkpt>
      <trkpt lat="47.90077" lon="2.08218">
        <ele>102.2</ele>
      </trkpt>
      <trkpt lat="47.90089" lon="2.0825">
        <ele>102</ele>
      </trkpt>
      <trkpt lat="47.90253" lon="2.08167">
        <ele>102</ele>
      </trkpt>
      <trkpt lat="47.90355" lon="2.08552">
        <ele>100.8</ele>
      </trkpt>
      <trkpt lat="47.90417" lon="2.08665">
        <ele>101</ele>
      </trkpt>
      <trkpt lat="47.90576" lon="2.08987">
        <ele>104.6</ele>
        <time>2021-07-11T07:09:17</time>
      </trkpt>
      <trkpt lat="47.90578" lon="2.08995">
        <ele>104.6</ele>
        <time>2021-07-11T07:09:18</time>
      </trkpt>
      <trkpt lat="47.90581" lon="2.09003">
        <ele>104.8</ele>
        <time>2021-07-11T07:09:19</time>
      </trkpt>
      <trkpt lat="47.90584" lon="2.0901">
        <ele>104.8</ele>
        <time>2021-07-11T07:09:20</time>
      </trkpt>
      <trkpt lat="47.90588" lon="2.09018">
        <ele>104.6</ele>
        <time>2021-07-11T07:09:21</time>
      </trkpt>
      <trkpt lat="47.90591" lon="2.09026">
        <ele>104.6</ele>
        <time>2021-07-11T07:09:22</time>
      </trkpt>
      <trkpt lat="47.90594" lon="2.09034">
        <ele>104.6</ele>
        <time>2021-07-11T07:09:23</time>
      </trkpt>
      <trkpt lat="47.90597" lon="2.09042">
        <ele>104.6</ele>
        <time>2021-07-11T07:09:24</time>
      </trkpt>
      <trkpt lat="47.90601" lon="2.09051">
        <ele>104.6</ele>
        <time>2021-07-11T07:09:25</time>
      </trkpt>
      <trkpt lat="47.90604" lon="2.09059">
        <ele>104.6</ele>
        <time>2021-07-11T07:09:26</time>
      </trkpt>
      <trkpt lat="47.90607" lon="2.09068">
        <ele>104.6</ele>
        <time>2021-07-11T07:09:27</time>
      </trkpt>
      <trkpt lat="47.90611" lon="2.09076">
        <ele>104.6</ele>
        <time>2021-07-11T07:09:28</time>
      </trkpt>
      <trkpt lat="47.90614" lon="2.09084">
        <ele>104.6</ele>
        <time>2021-07-11T07:09:29</time>
      </trkpt>
      <trkpt lat="47.90618" lon="2.09093">
        <ele>104.6</ele>
        <time>2021-07-11T07:09:30</time>
      </trkpt>
      <trkpt lat="47.90621" lon="2.09101">
        <ele>104.6</ele>
        <time>2021-07-11T07:09:31</time>
      </trkpt>
      <trkpt lat="47.90624" lon="2.09109">
        <ele>104.6</ele>
        <time>2021-07-11T07:09:32</time>
      </trkpt>
      <trkpt lat="47.90627" lon="2.09117">
        <ele>104.6</ele>
        <time>2021-07-11T07:09:33</time>
      </trkpt>
      <trkpt lat="47.9063" lon="2.09124">
        <ele>104.6</ele>
        <time>2021-07-11T07:09:34</time>
      </trkpt>
      <trkpt lat="47.90632" lon="2.09133">
        <ele>104.6</ele>
        <time>2021-07-11T07:09:35</time>
      </trkpt>
      <trkpt lat="47.90635" lon="2.09141">
        <ele>104.6</ele>
        <time>2021-07-11T07:09:36</time>
      </trkpt>
      <trkpt lat="47.90638" lon="2.09149">
        <ele>104.6</ele>
        <time>2021-07-11T07:09:37</time>
      </trkpt>
      <trkpt lat="47.90641" lon="2.09157">
        <ele>104.6</ele>
        <time>2021-07-11T07:09:38</time>
      </trkpt>
      <trkpt lat="47.90645" lon="2.09165">
        <ele>104.6</ele>
        <time>2021-07-11T07:09:39</time>
      </trkpt>
      <trkpt lat="47.90647" lon="2.09174">
        <ele>104.6</ele>
        <time>2021-07-11T07:09:40</time>
      </trkpt>
      <trkpt lat="47.9065" lon="2.09182">
        <ele>104.6</ele>
        <time>2021-07-11T07:09:41</time>
      </trkpt>
      <trkpt lat="47.90654" lon="2.09189">
        <ele>104.8</ele>
        <time>2021-07-11T07:09:42</time>
      </trkpt>
      <trkpt lat="47.90658" lon="2.09197">
        <ele>104.8</ele>
        <time>2021-07-11T07:09:43</time>
      </trkpt>
      <trkpt lat="47.90661" lon="2.09204">
        <ele>104.8</ele>
        <time>2021-07-11T07:09:44</time>
      </trkpt>
      <trkpt lat="47.90665" lon="2.09212">
        <ele>104.8</ele>
        <time>2021-07-11T07:09:45</time>
      </trkpt>
      <trkpt lat="47.90667" lon="2.0922">
        <ele>104.6</ele>
        <time>2021-07-11T07:09:46</time>
      </trkpt>
      <trkpt lat="47.90671" lon="2.09229">
        <ele>104.6</ele>
        <time>2021-07-11T07:09:47</time>
      </trkpt>
      <trkpt lat="47.90674" lon="2.09237">
        <ele>104.6</ele>
        <time>2021-07-11T07:09:48</time>
      </trkpt>
      <trkpt lat="47.90676" lon="2.09248">
        <ele>104.6</ele>
        <time>2021-07-11T07:09:49</time>
      </trkpt>
      <trkpt lat="47.90678" lon="2.09257">
        <ele>104.6</ele>
        <time>2021-07-11T07:09:50</time>
      </trkpt>
      <trkpt lat="47.90682" lon="2.09264">
        <ele>104.8</ele>
        <time>2021-07-11T07:09:51</time>
      </trkpt>
      <trkpt lat="47.90686" lon="2.09272">
        <ele>104.8</ele>
        <time>2021-07-11T07:09:52</time>
      </trkpt>
      <trkpt lat="47.90689" lon="2.0928">
        <ele>104.8</ele>
        <time>2021-07-11T07:09:53</time>
      </trkpt>
      <trkpt lat="47.90693" lon="2.09288">
        <ele>104.8</ele>
        <time>2021-07-11T07:09:54</time>
      </trkpt>
      <trkpt lat="47.90696" lon="2.09295">
        <ele>104.8</ele>
        <time>2021-07-11T07:09:55</time>
      </trkpt>
      <trkpt lat="47.90699" lon="2.09303">
        <ele>104.6</ele>
        <time>2021-07-11T07:09:56</time>
      </trkpt>
      <trkpt lat="47.90703" lon="2.09311">
        <ele>104.8</ele>
        <time>2021-07-11T07:09:57</time>
      </trkpt>
      <trkpt lat="47.90707" lon="2.09318">
        <ele>104.6</ele>
        <time>2021-07-11T07:09:58</time>
      </trkpt>
      <trkpt lat="47.90709" lon="2.09326">
        <ele>104.6</ele>
        <time>2021-07-11T07:09:59</time>
      </trkpt>
      <trkpt lat="47.90713" lon="2.09334">
        <ele>104.8</ele>
        <time>2021-07-11T07:10:00</time>
      </trkpt>
      <trkpt lat="47.90716" lon="2.09343">
        <ele>104.8</ele>
        <time>2021-07-11T07:10:01</time>
      </trkpt>
      <trkpt lat="47.90719" lon="2.09352">
        <ele>104.8</ele>
        <time>2021-07-11T07:10:02</time>
      </trkpt>
      <trkpt lat="47.90722" lon="2.09361">
        <ele>104.8</ele>
        <time>2021-07-11T07:10:03</time>
      </trkpt>
      <trkpt lat="47.90726" lon="2.09369">
        <ele>104.8</ele>
        <time>2021-07-11T07:10:04</time>
      </trkpt>
      <trkpt lat="47.90729" lon="2.09377">
        <ele>104.8</ele>
        <time>2021-07-11T07:10:05</time>
      </trkpt>
      <trkpt lat="47.90732" lon="2.09385">
        <ele>104.8</ele>
        <time>2021-07-11T07:10:06</time>
      </trkpt>
      <trkpt lat="47.90735" lon="2.09394">
        <ele>105</ele>
        <time>2021-07-11T07:10:07</time>
      </trkpt>
      <trkpt lat="47.90738" lon="2.09402">
        <ele>105</ele>
        <time>2021-07-11T07:10:08</time>
      </trkpt>
      <trkpt lat="47.90741" lon="2.0941">
        <ele>104.8</ele>
        <time>2021-07-11T07:10:09</time>
      </trkpt>
      <trkpt lat="47.90744" lon="2.09418">
        <ele>104.8</ele>
        <time>2021-07-11T07:10:10</time>
      </trkpt>
      <trkpt lat="47.90748" lon="2.09425">
        <ele>104.8</ele>
        <time>2021-07-11T07:10:11</time>
      </trkpt>
      <trkpt lat="47.90752" lon="2.09432">
        <ele>105</ele>
        <time>2021-07-11T07:10:12</time>
      </trkpt>
      <trkpt lat="47.90756" lon="2.09439">
        <ele>105</ele>
        <time>2021-07-11T07:10:13</time>
      </trkpt>
      <trkpt lat="47.90759" lon="2.09448">
        <ele>105</ele>
        <time>2021-07-11T07:10:14</time>
      </trkpt>
      <trkpt lat="47.90762" lon="2.09456">
        <ele>105</ele>
        <time>2021-07-11T07:10:15</time>
      </trkpt>
      <trkpt lat="47.90765" lon="2.09463">
        <ele>105</ele>
        <time>2021-07-11T07:10:16</time>
      </trkpt>
      <trkpt lat="47.90769" lon="2.09471">
        <ele>105</ele>
        <time>2021-07-11T07:10:17</time>
      </trkpt>
      <trkpt lat="47.90772" lon="2.09479">
        <ele>105</ele>
        <time>2021-07-11T07:10:18</time>
      </trkpt>
      <trkpt lat="47.90775" lon="2.09487">
        <ele>105</ele>
        <time>2021-07-11T07:10:19</time>
      </trkpt>
      <trkpt lat="47.90779" lon="2.09495">
        <ele>105.2</ele>
        <time>2021-07-11T07:10:20</time>
      </trkpt>
      <trkpt lat="47.90782" lon="2.09502">
        <ele>105</ele>
        <time>2021-07-11T07:10:21</time>
      </trkpt>
      <trkpt lat="47.90785" lon="2.0951">
        <ele>105</ele>
        <time>2021-07-11T07:10:22</time>
      </trkpt>
      <trkpt lat="47.90788" lon="2.09518">
        <ele>105</ele>
        <time>2021-07-11T07:10:23</time>
      </trkpt>
      <trkpt lat="47.90791" lon="2.09525">
        <ele>105</ele>
        <time>2021-07-11T07:10:24</time>
      </trkpt>
      <trkpt lat="47.90795" lon="2.09533">
        <ele>105</ele>
        <time>2021-07-11T07:10:25</time>
      </trkpt>
      <trkpt lat="47.90798" lon="2.0954">
        <ele>105</ele>
        <time>2021-07-11T07:10:26</time>
      </trkpt>
      <trkpt lat="47.90802" lon="2.09548">
        <ele>105</ele>
        <time>2021-07-11T07:10:27</time>
      </trkpt>
      <trkpt lat="47.90805" lon="2.09555">
        <ele>105</ele>
        <time>2021-07-11T07:10:28</time>
      </trkpt>
      <trkpt lat="47.90808" lon="2.09563">
        <ele>105</ele>
        <time>2021-07-11T07:10:29</time>
      </trkpt>
      <trkpt lat="47.90811" lon="2.0957">
        <ele>105</ele>
        <time>2021-07-11T07:10:30</time>
      </trkpt>
      <trkpt lat="47.90814" lon="2.09576">
        <ele>105.2</ele>
        <time>2021-07-11T07:10:31</time>
      </trkpt>
      <trkpt lat="47.90816" lon="2.09583">
        <ele>105.2</ele>
        <time>2021-07-11T07:10:32</time>
      </trkpt>
      <trkpt lat="47.90818" lon="2.0959">
        <ele>105.2</ele>
        <time>2021-07-11T07:10:33</time>
      </trkpt>
      <trkpt lat="47.9082" lon="2.09598">
        <ele>105.2</ele>
        <time>2021-07-11T07:10:34</time>
      </trkpt>
      <trkpt lat="47.90823" lon="2.09605">
        <ele>105</ele>
        <time>2021-07-11T07:10:35</time>
      </trkpt>
      <trkpt lat="47.90826" lon="2.09612">
        <ele>105.2</ele>
        <time>2021-07-11T07:10:36</time>
      </trkpt>
      <trkpt lat="47.90829" lon="2.0962">
        <ele>105.2</ele>
        <time>2021-07-11T07:10:37</time>
      </trkpt>
      <trkpt lat="47.90832" lon="2.09628">
        <ele>105.2</ele>
        <time>2021-07-11T07:10:38</time>
      </trkpt>
      <trkpt lat="47.90835" lon="2.09636">
        <ele>105.2</ele>
        <time>2021-07-11T07:10:39</time>
      </trkpt>
      <trkpt lat="47.90838" lon="2.09643">
        <ele>105.2</ele>
        <time>2021-07-11T07:10:40</time>
      </trkpt>
      <trkpt lat="47.90841" lon="2.09651">
        <ele>105</ele>
        <time>2021-07-11T07:10:41</time>
      </trkpt>
      <trkpt lat="47.90843" lon="2.09659">
        <ele>105.2</ele>
        <time>2021-07-11T07:10:42</time>
      </trkpt>
      <trkpt lat="47.90846" lon="2.09667">
        <ele>105.2</ele>
        <time>2021-07-11T07:10:43</time>
      </trkpt>
      <trkpt lat="47.90849" lon="2.09675">
        <ele>105</ele>
        <time>2021-07-11T07:10:44</time>
      </trkpt>
      <trkpt lat="47.90852" lon="2.09683">
        <ele>105</ele>
        <time>2021-07-11T07:10:45</time>
      </trkpt>
      <trkpt lat="47.90855" lon="2.09691">
        <ele>105</ele>
        <time>2021-07-11T07:10:46</time>
      </trkpt>
      <trkpt lat="47.90859" lon="2.09699">
        <ele>105</ele>
        <time>2021-07-11T07:10:47</time>
      </trkpt>
      <trkpt lat="47.90862" lon="2.09706">
        <ele>105</ele>
        <time>2021-07-11T07:10:48</time>
      </trkpt>
      <trkpt lat="47.90865" lon="2.09714">
        <ele>105.2</ele>
        <time>2021-07-11T07:10:49</time>
      </trkpt>
      <trkpt lat="47.90868" lon="2.09721">
        <ele>105.2</ele>
        <time>2021-07-11T07:10:50</time>
      </trkpt>
      <trkpt lat="47.9087" lon="2.09729">
        <ele>105.2</ele>
        <time>2021-07-11T07:10:51</time>
      </trkpt>
      <trkpt lat="47.90873" lon="2.09737">
        <ele>105.2</ele>
        <time>2021-07-11T07:10:52</time>
      </trkpt>
      <trkpt lat="47.90876" lon="2.09744">
        <ele>105.2</ele>
        <time>2021-07-11T07:10:53</time>
      </trkpt>
      <trkpt lat="47.90879" lon="2.09752">
        <ele>105.2</ele>
        <time>2021-07-11T07:10:54</time>
      </trkpt>
      <trkpt lat="47.90881" lon="2.0976">
        <ele>105.2</ele>
        <time>2021-07-11T07:10:55</time>
      </trkpt>
      <trkpt lat="47.90884" lon="2.09767">
        <ele>105.2</ele>
        <time>2021-07-11T07:10:56</time>
      </trkpt>
      <trkpt lat="47.90886" lon="2.09775">
        <ele>105.2</ele>
        <time>2021-07-11T07:10:57</time>
      </trkpt>
      <trkpt lat="47.90889" lon="2.09782">
        <ele>105.2</ele>
        <time>2021-07-11T07:10:58</time>
      </trkpt>
      <trkpt lat="47.90893" lon="2.09789">
        <ele>105.4</ele>
        <time>2021-07-11T07:10:59</time>
      </trkpt>
      <trkpt lat="47.90895" lon="2.09797">
        <ele>105.4</ele>
        <time>2021-07-11T07:11:00</time>
      </trkpt>
      <trkpt lat="47.90898" lon="2.09804">
        <ele>105.4</ele>
        <time>2021-07-11T07:11:01</time>
      </trkpt>
      <trkpt lat="47.90901" lon="2.09812">
        <ele>105.4</ele>
        <time>2021-07-11T07:11:02</time>
      </trkpt>
      <trkpt lat="47.90904" lon="2.09819">
        <ele>105.4</ele>
        <time>2021-07-11T07:11:04</time>
      </trkpt>
      <trkpt lat="47.90912" lon="2.09832">
        <ele>105.4</ele>
        <time>2021-07-11T07:11:05</time>
      </trkpt>
      <trkpt lat="47.90915" lon="2.09839">
        <ele>105.4</ele>
        <time>2021-07-11T07:11:06</time>
      </trkpt>
      <trkpt lat="47.90919" lon="2.09846">
        <ele>105.4</ele>
        <time>2021-07-11T07:11:07</time>
      </trkpt>
      <trkpt lat="47.90923" lon="2.09851">
        <ele>105.4</ele>
        <time>2021-07-11T07:11:09</time>
      </trkpt>
      <trkpt lat="47.90932" lon="2.09864">
        <ele>105.4</ele>
        <time>2021-07-11T07:11:10</time>
      </trkpt>
      <trkpt lat="47.90937" lon="2.09871">
        <ele>105.6</ele>
        <time>2021-07-11T07:11:11</time>
      </trkpt>
      <trkpt lat="47.90941" lon="2.09877">
        <ele>105.6</ele>
        <time>2021-07-11T07:11:12</time>
      </trkpt>
      <trkpt lat="47.90945" lon="2.09884">
        <ele>105.6</ele>
        <time>2021-07-11T07:11:13</time>
      </trkpt>
      <trkpt lat="47.90949" lon="2.0989">
        <ele>105.6</ele>
        <time>2021-07-11T07:11:14</time>
      </trkpt>
      <trkpt lat="47.90952" lon="2.09896">
        <ele>105.6</ele>
        <time>2021-07-11T07:11:15</time>
      </trkpt>
      <trkpt lat="47.90956" lon="2.09902">
        <ele>105.6</ele>
        <time>2021-07-11T07:11:16</time>
      </trkpt>
      <trkpt lat="47.9096" lon="2.09909">
        <ele>105.6</ele>
        <time>2021-07-11T07:11:17</time>
      </trkpt>
      <trkpt lat="47.90964" lon="2.09914">
        <ele>105.6</ele>
        <time>2021-07-11T07:11:18</time>
      </trkpt>
      <trkpt lat="47.90969" lon="2.09919">
        <ele>105.6</ele>
        <time>2021-07-11T07:11:19</time>
      </trkpt>
      <trkpt lat="47.90975" lon="2.09923">
        <ele>105.6</ele>
        <time>2021-07-11T07:11:20</time>
      </trkpt>
      <trkpt lat="47.90979" lon="2.09926">
        <ele>105.6</ele>
        <time>2021-07-11T07:11:21</time>
      </trkpt>
      <trkpt lat="47.90983" lon="2.09931">
        <ele>105.6</ele>
        <time>2021-07-11T07:11:22</time>
      </trkpt>
      <trkpt lat="47.90988" lon="2.09935">
        <ele>105.6</ele>
        <time>2021-07-11T07:11:23</time>
      </trkpt>
      <trkpt lat="47.90992" lon="2.09939">
        <ele>105.6</ele>
        <time>2021-07-11T07:11:24</time>
      </trkpt>
      <trkpt lat="47.90997" lon="2.09944">
        <ele>105.6</ele>
        <time>2021-07-11T07:11:25</time>
      </trkpt>
      <trkpt lat="47.90999" lon="2.09948">
        <ele>105.6</ele>
        <time>2021-07-11T07:11:26</time>
      </trkpt>
      <trkpt lat="47.91004" lon="2.09952">
        <ele>105.8</ele>
        <time>2021-07-11T07:11:27</time>
      </trkpt>
      <trkpt lat="47.91009" lon="2.09956">
        <ele>105.8</ele>
        <time>2021-07-11T07:11:28</time>
      </trkpt>
      <trkpt lat="47.91013" lon="2.09961">
        <ele>105.6</ele>
        <time>2021-07-11T07:11:29</time>
      </trkpt>
      <trkpt lat="47.91018" lon="2.09964">
        <ele>105.6</ele>
        <time>2021-07-11T07:11:30</time>
      </trkpt>
      <trkpt lat="47.91022" lon="2.09966">
        <ele>105.6</ele>
        <time>2021-07-11T07:11:31</time>
      </trkpt>
      <trkpt lat="47.91026" lon="2.0997">
        <ele>105.6</ele>
        <time>2021-07-11T07:11:32</time>
      </trkpt>
      <trkpt lat="47.91031" lon="2.09973">
        <ele>105.6</ele>
        <time>2021-07-11T07:11:33</time>
      </trkpt>
      <trkpt lat="47.91036" lon="2.09977">
        <ele>105.6</ele>
        <time>2021-07-11T07:11:34</time>
      </trkpt>
      <trkpt lat="47.91042" lon="2.09981">
        <ele>105.6</ele>
        <time>2021-07-11T07:11:35</time>
      </trkpt>
      <trkpt lat="47.91048" lon="2.09985">
        <ele>105.6</ele>
        <time>2021-07-11T07:11:36</time>
      </trkpt>
      <trkpt lat="47.91055" lon="2.09989">
        <ele>105.6</ele>
        <time>2021-07-11T07:11:37</time>
      </trkpt>
      <trkpt lat="47.9106" lon="2.09994">
        <ele>105.6</ele>
        <time>2021-07-11T07:11:38</time>
      </trkpt>
      <trkpt lat="47.91066" lon="2.09997">
        <ele>105.6</ele>
        <time>2021-07-11T07:11:39</time>
      </trkpt>
      <trkpt lat="47.91072" lon="2.1">
        <ele>105.6</ele>
        <time>2021-07-11T07:11:40</time>
      </trkpt>
      <trkpt lat="47.91078" lon="2.10004">
        <ele>105.6</ele>
        <time>2021-07-11T07:11:41</time>
      </trkpt>
      <trkpt lat="47.91083" lon="2.10005">
        <ele>105.6</ele>
        <time>2021-07-11T07:11:42</time>
      </trkpt>
      <trkpt lat="47.91088" lon="2.10006">
        <ele>105.6</ele>
        <time>2021-07-11T07:11:43</time>
      </trkpt>
      <trkpt lat="47.91094" lon="2.10008">
        <ele>105.6</ele>
        <time>2021-07-11T07:11:44</time>
      </trkpt>
      <trkpt lat="47.911" lon="2.1001">
        <ele>105.8</ele>
        <time>2021-07-11T07:11:45</time>
      </trkpt>
      <trkpt lat="47.91105" lon="2.10011">
        <ele>105.8</ele>
        <time>2021-07-11T07:11:46</time>
      </trkpt>
      <trkpt lat="47.91111" lon="2.10013">
        <ele>105.8</ele>
        <time>2021-07-11T07:11:47</time>
      </trkpt>
      <trkpt lat="47.91117" lon="2.10016">
        <ele>105.8</ele>
        <time>2021-07-11T07:11:48</time>
      </trkpt>
      <trkpt lat="47.91123" lon="2.10018">
        <ele>105.8</ele>
        <time>2021-07-11T07:11:49</time>
      </trkpt>
      <trkpt lat="47.91129" lon="2.10021">
        <ele>105.8</ele>
        <time>2021-07-11T07:11:50</time>
      </trkpt>
      <trkpt lat="47.91136" lon="2.10024">
        <ele>105.6</ele>
        <time>2021-07-11T07:11:51</time>
      </trkpt>
      <trkpt lat="47.91142" lon="2.10026">
        <ele>105.6</ele>
        <time>2021-07-11T07:11:52</time>
      </trkpt>
      <trkpt lat="47.91149" lon="2.10027">
        <ele>105.6</ele>
        <time>2021-07-11T07:11:53</time>
      </trkpt>
      <trkpt lat="47.91156" lon="2.10029">
        <ele>105.4</ele>
        <time>2021-07-11T07:11:54</time>
      </trkpt>
      <trkpt lat="47.91161" lon="2.10031">
        <ele>105.4</ele>
        <time>2021-07-11T07:11:55</time>
      </trkpt>
      <trkpt lat="47.91167" lon="2.10034">
        <ele>105.4</ele>
        <time>2021-07-11T07:11:56</time>
      </trkpt>
      <trkpt lat="47.91174" lon="2.10036">
        <ele>105.2</ele>
        <time>2021-07-11T07:11:57</time>
      </trkpt>
      <trkpt lat="47.91178" lon="2.10037">
        <ele>105.2</ele>
        <time>2021-07-11T07:11:58</time>
      </trkpt>
      <trkpt lat="47.91183" lon="2.10039">
        <ele>105.2</ele>
        <time>2021-07-11T07:11:59</time>
      </trkpt>
      <trkpt lat="47.9119" lon="2.10043">
        <ele>105.4</ele>
        <time>2021-07-11T07:12:00</time>
      </trkpt>
      <trkpt lat="47.91196" lon="2.10044">
        <ele>105.4</ele>
        <time>2021-07-11T07:12:01</time>
      </trkpt>
      <trkpt lat="47.91202" lon="2.10047">
        <ele>105.2</ele>
        <time>2021-07-11T07:12:02</time>
      </trkpt>
      <trkpt lat="47.91206" lon="2.10048">
        <ele>105.2</ele>
        <time>2021-07-11T07:12:03</time>
      </trkpt>
      <trkpt lat="47.91211" lon="2.10049">
        <ele>105.4</ele>
        <time>2021-07-11T07:12:04</time>
      </trkpt>
      <trkpt lat="47.91218" lon="2.10051">
        <ele>105.4</ele>
        <time>2021-07-11T07:12:05</time>
      </trkpt>
      <trkpt lat="47.91225" lon="2.10053">
        <ele>105.4</ele>
        <time>2021-07-11T07:12:06</time>
      </trkpt>
      <trkpt lat="47.91232" lon="2.10056">
        <ele>105.2</ele>
        <time>2021-07-11T07:12:07</time>
      </trkpt>
      <trkpt lat="47.9124" lon="2.10059">
        <ele>105.2</ele>
        <time>2021-07-11T07:12:08</time>
      </trkpt>
      <trkpt lat="47.91245" lon="2.10061">
        <ele>105.4</ele>
        <time>2021-07-11T07:12:09</time>
      </trkpt>
      <trkpt lat="47.9125" lon="2.10064">
        <ele>105.4</ele>
        <time>2021-07-11T07:12:10</time>
      </trkpt>
      <trkpt lat="47.91256" lon="2.10066">
        <ele>105.4</ele>
        <time>2021-07-11T07:12:11</time>
      </trkpt>
      <trkpt lat="47.91263" lon="2.10068">
        <ele>105.4</ele>
        <time>2021-07-11T07:12:12</time>
      </trkpt>
      <trkpt lat="47.91269" lon="2.10071">
        <ele>105.4</ele>
        <time>2021-07-11T07:12:13</time>
      </trkpt>
      <trkpt lat="47.91273" lon="2.10073">
        <ele>105.6</ele>
        <time>2021-07-11T07:12:14</time>
      </trkpt>
      <trkpt lat="47.91277" lon="2.10073">
        <ele>105.6</ele>
        <time>2021-07-11T07:12:15</time>
      </trkpt>
      <trkpt lat="47.91282" lon="2.10076">
        <ele>105.6</ele>
        <time>2021-07-11T07:12:16</time>
      </trkpt>
      <trkpt lat="47.91287" lon="2.10079">
        <ele>105.6</ele>
        <time>2021-07-11T07:12:17</time>
      </trkpt>
      <trkpt lat="47.91293" lon="2.10085">
        <ele>105.6</ele>
        <time>2021-07-11T07:12:18</time>
      </trkpt>
      <trkpt lat="47.91301" lon="2.10091">
        <ele>105.6</ele>
        <time>2021-07-11T07:12:19</time>
      </trkpt>
      <trkpt lat="47.9131" lon="2.10099">
        <ele>105.4</ele>
        <time>2021-07-11T07:12:20</time>
      </trkpt>
      <trkpt lat="47.91315" lon="2.10105">
        <ele>105.4</ele>
        <time>2021-07-11T07:12:21</time>
      </trkpt>
      <trkpt lat="47.9132" lon="2.10111">
        <ele>105.4</ele>
        <time>2021-07-11T07:12:22</time>
      </trkpt>
      <trkpt lat="47.91325" lon="2.10117">
        <ele>105.6</ele>
        <time>2021-07-11T07:12:23</time>
      </trkpt>
      <trkpt lat="47.91331" lon="2.10124">
        <ele>105.6</ele>
        <time>2021-07-11T07:12:24</time>
      </trkpt>
      <trkpt lat="47.91337" lon="2.10132">
        <ele>105.6</ele>
        <time>2021-07-11T07:12:25</time>
      </trkpt>
      <trkpt lat="47.91342" lon="2.10138">
        <ele>105.4</ele>
        <time>2021-07-11T07:12:26</time>
      </trkpt>
      <trkpt lat="47.91346" lon="2.10144">
        <ele>105.4</ele>
        <time>2021-07-11T07:12:27</time>
      </trkpt>
      <trkpt lat="47.91352" lon="2.10151">
        <ele>105.6</ele>
        <time>2021-07-11T07:12:28</time>
      </trkpt>
      <trkpt lat="47.91356" lon="2.10158">
        <ele>105.4</ele>
        <time>2021-07-11T07:12:29</time>
      </trkpt>
      <trkpt lat="47.9136" lon="2.10164">
        <ele>105.6</ele>
        <time>2021-07-11T07:12:30</time>
      </trkpt>
      <trkpt lat="47.91365" lon="2.1017">
        <ele>105.6</ele>
        <time>2021-07-11T07:12:31</time>
      </trkpt>
      <trkpt lat="47.9137" lon="2.10176">
        <ele>105.6</ele>
        <time>2021-07-11T07:12:32</time>
      </trkpt>
      <trkpt lat="47.91375" lon="2.10183">
        <ele>105.6</ele>
        <time>2021-07-11T07:12:33</time>
      </trkpt>
      <trkpt lat="47.9138" lon="2.1019">
        <ele>105.6</ele>
        <time>2021-07-11T07:12:34</time>
      </trkpt>
      <trkpt lat="47.91384" lon="2.10197">
        <ele>105.6</ele>
        <time>2021-07-11T07:12:35</time>
      </trkpt>
      <trkpt lat="47.91388" lon="2.10203">
        <ele>105.6</ele>
        <time>2021-07-11T07:12:36</time>
      </trkpt>
      <trkpt lat="47.91393" lon="2.10209">
        <ele>105.8</ele>
        <time>2021-07-11T07:12:37</time>
      </trkpt>
      <trkpt lat="47.91396" lon="2.10216">
        <ele>105.8</ele>
        <time>2021-07-11T07:12:38</time>
      </trkpt>
      <trkpt lat="47.914" lon="2.10223">
        <ele>105.8</ele>
        <time>2021-07-11T07:12:39</time>
      </trkpt>
      <trkpt lat="47.91404" lon="2.1023">
        <ele>105.8</ele>
        <time>2021-07-11T07:12:40</time>
      </trkpt>
      <trkpt lat="47.91408" lon="2.10236">
        <ele>105.8</ele>
        <time>2021-07-11T07:12:41</time>
      </trkpt>
      <trkpt lat="47.91413" lon="2.10244">
        <ele>105.8</ele>
        <time>2021-07-11T07:12:42</time>
      </trkpt>
      <trkpt lat="47.91417" lon="2.10251">
        <ele>106</ele>
        <time>2021-07-11T07:12:43</time>
      </trkpt>
      <trkpt lat="47.9142" lon="2.10257">
        <ele>106</ele>
        <time>2021-07-11T07:12:44</time>
      </trkpt>
      <trkpt lat="47.91424" lon="2.10264">
        <ele>106.2</ele>
        <time>2021-07-11T07:12:45</time>
      </trkpt>
      <trkpt lat="47.91427" lon="2.1027">
        <ele>106.4</ele>
        <time>2021-07-11T07:12:46</time>
      </trkpt>
      <trkpt lat="47.91431" lon="2.10276">
        <ele>106.6</ele>
        <time>2021-07-11T07:12:47</time>
      </trkpt>
      <trkpt lat="47.91434" lon="2.10282">
        <ele>106.8</ele>
        <time>2021-07-11T07:12:48</time>
      </trkpt>
      <trkpt lat="47.91437" lon="2.10288">
        <ele>107</ele>
        <time>2021-07-11T07:12:49</time>
      </trkpt>
      <trkpt lat="47.9144" lon="2.10293">
        <ele>107.4</ele>
        <time>2021-07-11T07:12:50</time>
      </trkpt>
      <trkpt lat="47.91444" lon="2.10297">
        <ele>107.6</ele>
        <time>2021-07-11T07:12:51</time>
      </trkpt>
      <trkpt lat="47.91447" lon="2.10302">
        <ele>107.8</ele>
        <time>2021-07-11T07:12:52</time>
      </trkpt>
      <trkpt lat="47.9145" lon="2.10305">
        <ele>108</ele>
        <time>2021-07-11T07:12:53</time>
      </trkpt>
      <trkpt lat="47.91452" lon="2.10309">
        <ele>108</ele>
        <time>2021-07-11T07:12:54</time>
      </trkpt>
      <trkpt lat="47.91453" lon="2.10313">
        <ele>108.4</ele>
        <time>2021-07-11T07:12:55</time>
      </trkpt>
      <trkpt lat="47.91453" lon="2.10316">
        <ele>108.4</ele>
        <time>2021-07-11T07:12:56</time>
      </trkpt>
      <trkpt lat="47.91451" lon="2.10318">
        <ele>108.4</ele>
        <time>2021-07-11T07:12:57</time>
      </trkpt>
      <trkpt lat="47.91456" lon="2.10323">
        <ele>108.2</ele>
        <time>2021-07-11T07:15:29</time>
      </trkpt>
      <trkpt lat="47.91461" lon="2.1032">
        <ele>108.4</ele>
        <time>2021-07-11T07:15:30</time>
      </trkpt>
      <trkpt lat="47.91466" lon="2.10317">
        <ele>108.6</ele>
        <time>2021-07-11T07:15:31</time>
      </trkpt>
      <trkpt lat="47.91472" lon="2.10313">
        <ele>108.8</ele>
        <time>2021-07-11T07:15:32</time>
      </trkpt>
      <trkpt lat="47.91477" lon="2.10309">
        <ele>108.8</ele>
        <time>2021-07-11T07:15:33</time>
      </trkpt>
      <trkpt lat="47.91482" lon="2.10305">
        <ele>108.8</ele>
        <time>2021-07-11T07:15:34</time>
      </trkpt>
      <trkpt lat="47.91488" lon="2.10302">
        <ele>108.8</ele>
        <time>2021-07-11T07:15:35</time>
      </trkpt>
      <trkpt lat="47.91494" lon="2.10298">
        <ele>108.4</ele>
        <time>2021-07-11T07:15:36</time>
      </trkpt>
      <trkpt lat="47.915" lon="2.10294">
        <ele>108.2</ele>
        <time>2021-07-11T07:15:37</time>
      </trkpt>
      <trkpt lat="47.91506" lon="2.1029">
        <ele>108</ele>
        <time>2021-07-11T07:15:38</time>
      </trkpt>
      <trkpt lat="47.91512" lon="2.10285">
        <ele>107.8</ele>
        <time>2021-07-11T07:15:39</time>
      </trkpt>
      <trkpt lat="47.91517" lon="2.1028">
        <ele>107.8</ele>
        <time>2021-07-11T07:15:40</time>
      </trkpt>
      <trkpt lat="47.91522" lon="2.10276">
        <ele>107.6</ele>
        <time>2021-07-11T07:15:41</time>
      </trkpt>
      <trkpt lat="47.91528" lon="2.10273">
        <ele>107.4</ele>
        <time>2021-07-11T07:15:42</time>
      </trkpt>
      <trkpt lat="47.91534" lon="2.10271">
        <ele>107.6</ele>
        <time>2021-07-11T07:15:43</time>
      </trkpt>
      <trkpt lat="47.91538" lon="2.10267">
        <ele>107.8</ele>
        <time>2021-07-11T07:15:44</time>
      </trkpt>
      <trkpt lat="47.91541" lon="2.1026">
        <ele>107.8</ele>
        <time>2021-07-11T07:15:45</time>
      </trkpt>
      <trkpt lat="47.91543" lon="2.10252">
        <ele>107.8</ele>
        <time>2021-07-11T07:15:46</time>
      </trkpt>
      <trkpt lat="47.91545" lon="2.10244">
        <ele>107.8</ele>
        <time>2021-07-11T07:15:47</time>
      </trkpt>
      <trkpt lat="47.91547" lon="2.10236">
        <ele>108</ele>
        <time>2021-07-11T07:15:48</time>
      </trkpt>
      <trkpt lat="47.91547" lon="2.10228">
        <ele>108</ele>
        <time>2021-07-11T07:15:49</time>
      </trkpt>
      <trkpt lat="47.91565" lon="2.10125">
        <ele>105.7</ele>
      </trkpt>
      <trkpt lat="47.91599" lon="2.10006">
        <ele>107.9</ele>
      </trkpt>
      <trkpt lat="47.91685" lon="2.09808">
        <ele>112</ele>
      </trkpt>
      <trkpt lat="47.91703" lon="2.09768">
        <ele>111.9</ele>
      </trkpt>
      <trkpt lat="47.91743" lon="2.09734">
        <ele>111</ele>
      </trkpt>
      <trkpt lat="47.91913" lon="2.09339">
        <ele>109.2</ele>
        <time>2021-07-11T07:21:43</time>
      </trkpt>
      <trkpt lat="47.91916" lon="2.09345">
        <ele>109.4</ele>
        <time>2021-07-11T07:21:44</time>
      </trkpt>
      <trkpt lat="47.91919" lon="2.09351">
        <ele>109.4</ele>
        <time>2021-07-11T07:21:45</time>
      </trkpt>
      <trkpt lat="47.91921" lon="2.09358">
        <ele>109.4</ele>
        <time>2021-07-11T07:21:46</time>
      </trkpt>
      <trkpt lat="47.91924" lon="2.09364">
        <ele>109.4</ele>
        <time>2021-07-11T07:21:47</time>
      </trkpt>
      <trkpt lat="47.91927" lon="2.0937">
        <ele>109.4</ele>
        <time>2021-07-11T07:21:48</time>
      </trkpt>
      <trkpt lat="47.9193" lon="2.09377">
        <ele>109.2</ele>
        <time>2021-07-11T07:21:49</time>
      </trkpt>
      <trkpt lat="47.91934" lon="2.09383">
        <ele>109.2</ele>
        <time>2021-07-11T07:21:50</time>
      </trkpt>
      <trkpt lat="47.91937" lon="2.0939">
        <ele>109.2</ele>
        <time>2021-07-11T07:21:51</time>
      </trkpt>
      <trkpt lat="47.9194" lon="2.09396">
        <ele>109.4</ele>
        <time>2021-07-11T07:21:52</time>
      </trkpt>
      <trkpt lat="47.91943" lon="2.09403">
        <ele>109.2</ele>
        <time>2021-07-11T07:21:53</time>
      </trkpt>
      <trkpt lat="47.91947" lon="2.09409">
        <ele>109.4</ele>
        <time>2021-07-11T07:21:54</time>
      </trkpt>
      <trkpt lat="47.9195" lon="2.09415">
        <ele>109.4</ele>
        <time>2021-07-11T07:21:55</time>
      </trkpt>
      <trkpt lat="47.91953" lon="2.09421">
        <ele>109.4</ele>
        <time>2021-07-11T07:21:56</time>
      </trkpt>
      <trkpt lat="47.91957" lon="2.09427">
        <ele>109.4</ele>
        <time>2021-07-11T07:21:57</time>
      </trkpt>
      <trkpt lat="47.9196" lon="2.09433">
        <ele>109.4</ele>
        <time>2021-07-11T07:21:58</time>
      </trkpt>
      <trkpt lat="47.91964" lon="2.09439">
        <ele>109.4</ele>
        <time>2021-07-11T07:21:59</time>
      </trkpt>
      <trkpt lat="47.91967" lon="2.09445">
        <ele>109.4</ele>
        <time>2021-07-11T07:22:00</time>
      </trkpt>
      <trkpt lat="47.91971" lon="2.09451">
        <ele>109.4</ele>
        <time>2021-07-11T07:22:01</time>
      </trkpt>
      <trkpt lat="47.91975" lon="2.09457">
        <ele>109.4</ele>
        <time>2021-07-11T07:22:02</time>
      </trkpt>
      <trkpt lat="47.91979" lon="2.09463">
        <ele>109.4</ele>
        <time>2021-07-11T07:22:03</time>
      </trkpt>
      <trkpt lat="47.91983" lon="2.09468">
        <ele>109.4</ele>
        <time>2021-07-11T07:22:04</time>
      </trkpt>
      <trkpt lat="47.91987" lon="2.09474">
        <ele>109.6</ele>
        <time>2021-07-11T07:22:05</time>
      </trkpt>
      <trkpt lat="47.91991" lon="2.0948">
        <ele>109.6</ele>
        <time>2021-07-11T07:22:06</time>
      </trkpt>
      <trkpt lat="47.91995" lon="2.09485">
        <ele>109.6</ele>
        <time>2021-07-11T07:22:07</time>
      </trkpt>
      <trkpt lat="47.91999" lon="2.09491">
        <ele>109.6</ele>
        <time>2021-07-11T07:22:08</time>
      </trkpt>
      <trkpt lat="47.92003" lon="2.09496">
        <ele>109.6</ele>
        <time>2021-07-11T07:22:09</time>
      </trkpt>
      <trkpt lat="47.92007" lon="2.09501">
        <ele>109.6</ele>
        <time>2021-07-11T07:22:10</time>
      </trkpt>
      <trkpt lat="47.9201" lon="2.09507">
        <ele>109.6</ele>
        <time>2021-07-11T07:22:11</time>
      </trkpt>
      <trkpt lat="47.92014" lon="2.09512">
        <ele>109.6</ele>
        <time>2021-07-11T07:22:12</time>
      </trkpt>
      <trkpt lat="47.92019" lon="2.09517">
        <ele>109.8</ele>
        <time>2021-07-11T07:22:13</time>
      </trkpt>
      <trkpt lat="47.92023" lon="2.09522">
        <ele>109.8</ele>
        <time>2021-07-11T07:22:14</time>
      </trkpt>
      <trkpt lat="47.92027" lon="2.09527">
        <ele>109.8</ele>
        <time>2021-07-11T07:22:15</time>
      </trkpt>
      <trkpt lat="47.92031" lon="2.09532">
        <ele>109.8</ele>
        <time>2021-07-11T07:22:16</time>
      </trkpt>
      <trkpt lat="47.92035" lon="2.09537">
        <ele>109.8</ele>
        <time>2021-07-11T07:22:17</time>
      </trkpt>
      <trkpt lat="47.92039" lon="2.09541">
        <ele>109.8</ele>
        <time>2021-07-11T07:22:18</time>
      </trkpt>
      <trkpt lat="47.92043" lon="2.09546">
        <ele>109.8</ele>
        <time>2021-07-11T07:22:19</time>
      </trkpt>
      <trkpt lat="47.92048" lon="2.09551">
        <ele>109.8</ele>
        <time>2021-07-11T07:22:20</time>
      </trkpt>
      <trkpt lat="47.92052" lon="2.09556">
        <ele>110</ele>
        <time>2021-07-11T07:22:21</time>
      </trkpt>
      <trkpt lat="47.92056" lon="2.0956">
        <ele>110</ele>
        <time>2021-07-11T07:22:22</time>
      </trkpt>
      <trkpt lat="47.9206" lon="2.09565">
        <ele>110</ele>
        <time>2021-07-11T07:22:23</time>
      </trkpt>
      <trkpt lat="47.92064" lon="2.09569">
        <ele>110</ele>
        <time>2021-07-11T07:22:24</time>
      </trkpt>
      <trkpt lat="47.92068" lon="2.09574">
        <ele>110.2</ele>
        <time>2021-07-11T07:22:25</time>
      </trkpt>
      <trkpt lat="47.92073" lon="2.09579">
        <ele>110.2</ele>
        <time>2021-07-11T07:22:26</time>
      </trkpt>
      <trkpt lat="47.92077" lon="2.09583">
        <ele>110.2</ele>
        <time>2021-07-11T07:22:27</time>
      </trkpt>
      <trkpt lat="47.9208" lon="2.09588">
        <ele>110.4</ele>
        <time>2021-07-11T07:22:28</time>
      </trkpt>
      <trkpt lat="47.92084" lon="2.09592">
        <ele>110.4</ele>
        <time>2021-07-11T07:22:29</time>
      </trkpt>
      <trkpt lat="47.92088" lon="2.09596">
        <ele>110.4</ele>
        <time>2021-07-11T07:22:30</time>
      </trkpt>
      <trkpt lat="47.92092" lon="2.096">
        <ele>110.4</ele>
        <time>2021-07-11T07:22:31</time>
      </trkpt>
      <trkpt lat="47.92096" lon="2.09605">
        <ele>110.6</ele>
        <time>2021-07-11T07:22:32</time>
      </trkpt>
      <trkpt lat="47.921" lon="2.09609">
        <ele>110.6</ele>
        <time>2021-07-11T07:22:33</time>
      </trkpt>
      <trkpt lat="47.92104" lon="2.09614">
        <ele>110.8</ele>
        <time>2021-07-11T07:22:34</time>
      </trkpt>
      <trkpt lat="47.92108" lon="2.09618">
        <ele>110.8</ele>
        <time>2021-07-11T07:22:35</time>
      </trkpt>
      <trkpt lat="47.92112" lon="2.09622">
        <ele>110.8</ele>
        <time>2021-07-11T07:22:36</time>
      </trkpt>
      <trkpt lat="47.92116" lon="2.09625">
        <ele>111</ele>
        <time>2021-07-11T07:22:37</time>
      </trkpt>
      <trkpt lat="47.9212" lon="2.09627">
        <ele>111.2</ele>
        <time>2021-07-11T07:22:38</time>
      </trkpt>
      <trkpt lat="47.92125" lon="2.09626">
        <ele>111.2</ele>
        <time>2021-07-11T07:22:39</time>
      </trkpt>
      <trkpt lat="47.92128" lon="2.09622">
        <ele>111.4</ele>
        <time>2021-07-11T07:22:40</time>
      </trkpt>
      <trkpt lat="47.92131" lon="2.09617">
        <ele>111.4</ele>
        <time>2021-07-11T07:22:41</time>
      </trkpt>
      <trkpt lat="47.92133" lon="2.09611">
        <ele>111.6</ele>
        <time>2021-07-11T07:22:42</time>
      </trkpt>
      <trkpt lat="47.92136" lon="2.09605">
        <ele>111.6</ele>
        <time>2021-07-11T07:22:43</time>
      </trkpt>
      <trkpt lat="47.92138" lon="2.09599">
        <ele>111.6</ele>
        <time>2021-07-11T07:22:44</time>
      </trkpt>
      <trkpt lat="47.9214" lon="2.09593">
        <ele>111.8</ele>
        <time>2021-07-11T07:22:45</time>
      </trkpt>
      <trkpt lat="47.92143" lon="2.09587">
        <ele>111.8</ele>
        <time>2021-07-11T07:22:46</time>
      </trkpt>
      <trkpt lat="47.92145" lon="2.0958">
        <ele>112</ele>
        <time>2021-07-11T07:22:47</time>
      </trkpt>
      <trkpt lat="47.92147" lon="2.09574">
        <ele>112</ele>
        <time>2021-07-11T07:22:48</time>
      </trkpt>
      <trkpt lat="47.92148" lon="2.09567">
        <ele>112.2</ele>
        <time>2021-07-11T07:22:49</time>
      </trkpt>
      <trkpt lat="47.92149" lon="2.09559">
        <ele>112.2</ele>
        <time>2021-07-11T07:22:50</time>
      </trkpt>
      <trkpt lat="47.9215" lon="2.09552">
        <ele>112.2</ele>
        <time>2021-07-11T07:22:51</time>
      </trkpt>
      <trkpt lat="47.92151" lon="2.09545">
        <ele>112.4</ele>
        <time>2021-07-11T07:22:52</time>
      </trkpt>
      <trkpt lat="47.92152" lon="2.09538">
        <ele>112.6</ele>
        <time>2021-07-11T07:22:53</time>
      </trkpt>
      <trkpt lat="47.92152" lon="2.0953">
        <ele>112.6</ele>
        <time>2021-07-11T07:22:54</time>
      </trkpt>
      <trkpt lat="47.92152" lon="2.09522">
        <ele>112.8</ele>
        <time>2021-07-11T07:22:55</time>
      </trkpt>
      <trkpt lat="47.92153" lon="2.09515">
        <ele>112.8</ele>
        <time>2021-07-11T07:22:56</time>
      </trkpt>
      <trkpt lat="47.92154" lon="2.09508">
        <ele>113</ele>
        <time>2021-07-11T07:22:57</time>
      </trkpt>
      <trkpt lat="47.92154" lon="2.09501">
        <ele>113.2</ele>
        <time>2021-07-11T07:22:58</time>
      </trkpt>
      <trkpt lat="47.92155" lon="2.09494">
        <ele>113.4</ele>
        <time>2021-07-11T07:22:59</time>
      </trkpt>
      <trkpt lat="47.92156" lon="2.09487">
        <ele>113.6</ele>
        <time>2021-07-11T07:23:00</time>
      </trkpt>
      <trkpt lat="47.92158" lon="2.0948">
        <ele>113.6</ele>
        <time>2021-07-11T07:23:01</time>
      </trkpt>
      <trkpt lat="47.9216" lon="2.09474">
        <ele>113.8</ele>
        <time>2021-07-11T07:23:02</time>
      </trkpt>
      <trkpt lat="47.92163" lon="2.09469">
        <ele>114</ele>
        <time>2021-07-11T07:23:03</time>
      </trkpt>
      <trkpt lat="47.92167" lon="2.09464">
        <ele>114.2</ele>
        <time>2021-07-11T07:23:04</time>
      </trkpt>
      <trkpt lat="47.9217" lon="2.0946">
        <ele>114.4</ele>
        <time>2021-07-11T07:23:05</time>
      </trkpt>
      <trkpt lat="47.92174" lon="2.09457">
        <ele>114.8</ele>
        <time>2021-07-11T07:23:06</time>
      </trkpt>
      <trkpt lat="47.92178" lon="2.09455">
        <ele>115</ele>
        <time>2021-07-11T07:23:07</time>
      </trkpt>
      <trkpt lat="47.92181" lon="2.09453">
        <ele>115</ele>
        <time>2021-07-11T07:23:08</time>
      </trkpt>
      <trkpt lat="47.92185" lon="2.0945">
        <ele>114.8</ele>
        <time>2021-07-11T07:23:09</time>
      </trkpt>
      <trkpt lat="47.92189" lon="2.09446">
        <ele>114.6</ele>
        <time>2021-07-11T07:23:10</time>
      </trkpt>
      <trkpt lat="47.92193" lon="2.09442">
        <ele>114.6</ele>
        <time>2021-07-11T07:23:11</time>
      </trkpt>
      <trkpt lat="47.92197" lon="2.09438">
        <ele>114.6</ele>
        <time>2021-07-11T07:23:12</time>
      </trkpt>
      <trkpt lat="47.92201" lon="2.09434">
        <ele>114.4</ele>
        <time>2021-07-11T07:23:13</time>
      </trkpt>
      <trkpt lat="47.92206" lon="2.0943">
        <ele>114.4</ele>
        <time>2021-07-11T07:23:14</time>
      </trkpt>
      <trkpt lat="47.9221" lon="2.09426">
        <ele>114.2</ele>
        <time>2021-07-11T07:23:15</time>
      </trkpt>
      <trkpt lat="47.92215" lon="2.09421">
        <ele>114.2</ele>
        <time>2021-07-11T07:23:16</time>
      </trkpt>
      <trkpt lat="47.92219" lon="2.09417">
        <ele>114.4</ele>
        <time>2021-07-11T07:23:17</time>
      </trkpt>
      <trkpt lat="47.92224" lon="2.09412">
        <ele>114.2</ele>
        <time>2021-07-11T07:23:18</time>
      </trkpt>
      <trkpt lat="47.92229" lon="2.09407">
        <ele>114.4</ele>
        <time>2021-07-11T07:23:19</time>
      </trkpt>
      <trkpt lat="47.92233" lon="2.09403">
        <ele>114.2</ele>
        <time>2021-07-11T07:23:20</time>
      </trkpt>
      <trkpt lat="47.92238" lon="2.09399">
        <ele>114.2</ele>
        <time>2021-07-11T07:23:21</time>
      </trkpt>
      <trkpt lat="47.92243" lon="2.09394">
        <ele>114.4</ele>
        <time>2021-07-11T07:23:22</time>
      </trkpt>
      <trkpt lat="47.92247" lon="2.0939">
        <ele>114.4</ele>
        <time>2021-07-11T07:23:23</time>
      </trkpt>
      <trkpt lat="47.92252" lon="2.09386">
        <ele>114.4</ele>
        <time>2021-07-11T07:23:24</time>
      </trkpt>
      <trkpt lat="47.92257" lon="2.09381">
        <ele>114.4</ele>
        <time>2021-07-11T07:23:25</time>
      </trkpt>
      <trkpt lat="47.92262" lon="2.09377">
        <ele>114.6</ele>
        <time>2021-07-11T07:23:26</time>
      </trkpt>
      <trkpt lat="47.92266" lon="2.09372">
        <ele>114.8</ele>
        <time>2021-07-11T07:23:27</time>
      </trkpt>
      <trkpt lat="47.92271" lon="2.09368">
        <ele>114.8</ele>
        <time>2021-07-11T07:23:28</time>
      </trkpt>
      <trkpt lat="47.92276" lon="2.09364">
        <ele>115</ele>
        <time>2021-07-11T07:23:29</time>
      </trkpt>
      <trkpt lat="47.9228" lon="2.09359">
        <ele>115</ele>
        <time>2021-07-11T07:23:30</time>
      </trkpt>
      <trkpt lat="47.92285" lon="2.09355">
        <ele>115.2</ele>
        <time>2021-07-11T07:23:31</time>
      </trkpt>
      <trkpt lat="47.92289" lon="2.09351">
        <ele>115.2</ele>
        <time>2021-07-11T07:23:32</time>
      </trkpt>
      <trkpt lat="47.92293" lon="2.09347">
        <ele>115.4</ele>
        <time>2021-07-11T07:23:33</time>
      </trkpt>
      <trkpt lat="47.92297" lon="2.09343">
        <ele>115.6</ele>
        <time>2021-07-11T07:23:34</time>
      </trkpt>
      <trkpt lat="47.92302" lon="2.09339">
        <ele>115.6</ele>
        <time>2021-07-11T07:23:35</time>
      </trkpt>
      <trkpt lat="47.92306" lon="2.09335">
        <ele>115.8</ele>
        <time>2021-07-11T07:23:36</time>
      </trkpt>
      <trkpt lat="47.9231" lon="2.09331">
        <ele>116</ele>
        <time>2021-07-11T07:23:37</time>
      </trkpt>
      <trkpt lat="47.92314" lon="2.09327">
        <ele>116.2</ele>
        <time>2021-07-11T07:23:38</time>
      </trkpt>
      <trkpt lat="47.92317" lon="2.09323">
        <ele>116.4</ele>
        <time>2021-07-11T07:23:39</time>
      </trkpt>
      <trkpt lat="47.92321" lon="2.09319">
        <ele>116.4</ele>
        <time>2021-07-11T07:23:40</time>
      </trkpt>
      <trkpt lat="47.92325" lon="2.09316">
        <ele>116.6</ele>
        <time>2021-07-11T07:23:41</time>
      </trkpt>
      <trkpt lat="47.92329" lon="2.09312">
        <ele>116.8</ele>
        <time>2021-07-11T07:23:42</time>
      </trkpt>
      <trkpt lat="47.92333" lon="2.0931">
        <ele>117</ele>
        <time>2021-07-11T07:23:43</time>
      </trkpt>
      <trkpt lat="47.92336" lon="2.09306">
        <ele>117</ele>
        <time>2021-07-11T07:23:44</time>
      </trkpt>
      <trkpt lat="47.92341" lon="2.09303">
        <ele>117.2</ele>
        <time>2021-07-11T07:23:45</time>
      </trkpt>
      <trkpt lat="47.92345" lon="2.09299">
        <ele>117.2</ele>
        <time>2021-07-11T07:23:46</time>
      </trkpt>
      <trkpt lat="47.92349" lon="2.09295">
        <ele>117.4</ele>
        <time>2021-07-11T07:23:47</time>
      </trkpt>
      <trkpt lat="47.92354" lon="2.09292">
        <ele>117.4</ele>
        <time>2021-07-11T07:23:48</time>
      </trkpt>
      <trkpt lat="47.92359" lon="2.09289">
        <ele>117.4</ele>
        <time>2021-07-11T07:23:49</time>
      </trkpt>
      <trkpt lat="47.92364" lon="2.09286">
        <ele>117.6</ele>
        <time>2021-07-11T07:23:50</time>
      </trkpt>
      <trkpt lat="47.92369" lon="2.09284">
        <ele>117.6</ele>
        <time>2021-07-11T07:23:51</time>
      </trkpt>
      <trkpt lat="47.92374" lon="2.09282">
        <ele>117.6</ele>
        <time>2021-07-11T07:23:52</time>
      </trkpt>
      <trkpt lat="47.92379" lon="2.0928">
        <ele>117.6</ele>
        <time>2021-07-11T07:23:53</time>
      </trkpt>
      <trkpt lat="47.92384" lon="2.09278">
        <ele>117.6</ele>
        <time>2021-07-11T07:23:54</time>
      </trkpt>
      <trkpt lat="47.92389" lon="2.09276">
        <ele>117.6</ele>
        <time>2021-07-11T07:23:55</time>
      </trkpt>
      <trkpt lat="47.92394" lon="2.09274">
        <ele>117.8</ele>
        <time>2021-07-11T07:23:56</time>
      </trkpt>
      <trkpt lat="47.92399" lon="2.09272">
        <ele>117.8</ele>
        <time>2021-07-11T07:23:57</time>
      </trkpt>
      <trkpt lat="47.92404" lon="2.0927">
        <ele>117.6</ele>
        <time>2021-07-11T07:23:58</time>
      </trkpt>
      <trkpt lat="47.9241" lon="2.09268">
        <ele>117.6</ele>
        <time>2021-07-11T07:23:59</time>
      </trkpt>
      <trkpt lat="47.92415" lon="2.09267">
        <ele>117.8</ele>
        <time>2021-07-11T07:24:00</time>
      </trkpt>
      <trkpt lat="47.9242" lon="2.09265">
        <ele>117.6</ele>
        <time>2021-07-11T07:24:01</time>
      </trkpt>
      <trkpt lat="47.92425" lon="2.09263">
        <ele>117.6</ele>
        <time>2021-07-11T07:24:02</time>
      </trkpt>
      <trkpt lat="47.9243" lon="2.0926">
        <ele>117.6</ele>
        <time>2021-07-11T07:24:03</time>
      </trkpt>
      <trkpt lat="47.92434" lon="2.09257">
        <ele>117.6</ele>
        <time>2021-07-11T07:24:04</time>
      </trkpt>
      <trkpt lat="47.92438" lon="2.09253">
        <ele>117.8</ele>
        <time>2021-07-11T07:24:05</time>
      </trkpt>
      <trkpt lat="47.92441" lon="2.09247">
        <ele>117.8</ele>
        <time>2021-07-11T07:24:06</time>
      </trkpt>
      <trkpt lat="47.92444" lon="2.09241">
        <ele>117.8</ele>
        <time>2021-07-11T07:24:07</time>
      </trkpt>
      <trkpt lat="47.92448" lon="2.09235">
        <ele>117.8</ele>
        <time>2021-07-11T07:24:08</time>
      </trkpt>
      <trkpt lat="47.92451" lon="2.09229">
        <ele>117.6</ele>
        <time>2021-07-11T07:24:09</time>
      </trkpt>
      <trkpt lat="47.92456" lon="2.09224">
        <ele>117.6</ele>
        <time>2021-07-11T07:24:10</time>
      </trkpt>
      <trkpt lat="47.92461" lon="2.09221">
        <ele>117.4</ele>
        <time>2021-07-11T07:24:11</time>
      </trkpt>
      <trkpt lat="47.92467" lon="2.09219">
        <ele>117.4</ele>
        <time>2021-07-11T07:24:12</time>
      </trkpt>
      <trkpt lat="47.92472" lon="2.0922">
        <ele>117.4</ele>
        <time>2021-07-11T07:24:13</time>
      </trkpt>
      <trkpt lat="47.92478" lon="2.09222">
        <ele>117.4</ele>
        <time>2021-07-11T07:24:14</time>
      </trkpt>
      <trkpt lat="47.92482" lon="2.09226">
        <ele>117.4</ele>
        <time>2021-07-11T07:24:15</time>
      </trkpt>
      <trkpt lat="47.92487" lon="2.09232">
        <ele>117.4</ele>
        <time>2021-07-11T07:24:16</time>
      </trkpt>
      <trkpt lat="47.9249" lon="2.09239">
        <ele>117.4</ele>
        <time>2021-07-11T07:24:17</time>
      </trkpt>
      <trkpt lat="47.92493" lon="2.09246">
        <ele>117.4</ele>
        <time>2021-07-11T07:24:18</time>
      </trkpt>
      <trkpt lat="47.92496" lon="2.09253">
        <ele>117.6</ele>
        <time>2021-07-11T07:24:19</time>
      </trkpt>
      <trkpt lat="47.92499" lon="2.09259">
        <ele>117.6</ele>
        <time>2021-07-11T07:24:20</time>
      </trkpt>
      <trkpt lat="47.92501" lon="2.09266">
        <ele>117.8</ele>
        <time>2021-07-11T07:24:21</time>
      </trkpt>
      <trkpt lat="47.92504" lon="2.09272">
        <ele>117.8</ele>
        <time>2021-07-11T07:24:22</time>
      </trkpt>
      <trkpt lat="47.92507" lon="2.09279">
        <ele>117.8</ele>
        <time>2021-07-11T07:24:23</time>
      </trkpt>
      <trkpt lat="47.9251" lon="2.09285">
        <ele>118</ele>
        <time>2021-07-11T07:24:24</time>
      </trkpt>
      <trkpt lat="47.92512" lon="2.09292">
        <ele>118</ele>
        <time>2021-07-11T07:24:25</time>
      </trkpt>
      <trkpt lat="47.92515" lon="2.09298">
        <ele>118</ele>
        <time>2021-07-11T07:24:26</time>
      </trkpt>
      <trkpt lat="47.92518" lon="2.09305">
        <ele>118.2</ele>
        <time>2021-07-11T07:24:27</time>
      </trkpt>
      <trkpt lat="47.92521" lon="2.09312">
        <ele>118.2</ele>
        <time>2021-07-11T07:24:28</time>
      </trkpt>
      <trkpt lat="47.92524" lon="2.09318">
        <ele>118.2</ele>
        <time>2021-07-11T07:24:29</time>
      </trkpt>
      <trkpt lat="47.92527" lon="2.09325">
        <ele>118.4</ele>
        <time>2021-07-11T07:24:30</time>
      </trkpt>
      <trkpt lat="47.9253" lon="2.09332">
        <ele>118.6</ele>
        <time>2021-07-11T07:24:31</time>
      </trkpt>
      <trkpt lat="47.92532" lon="2.09338">
        <ele>118.6</ele>
        <time>2021-07-11T07:24:32</time>
      </trkpt>
      <trkpt lat="47.92535" lon="2.09345">
        <ele>118.8</ele>
        <time>2021-07-11T07:24:33</time>
      </trkpt>
      <trkpt lat="47.92538" lon="2.09351">
        <ele>118.8</ele>
        <time>2021-07-11T07:24:34</time>
      </trkpt>
      <trkpt lat="47.9254" lon="2.09358">
        <ele>119</ele>
        <time>2021-07-11T07:24:35</time>
      </trkpt>
      <trkpt lat="47.92543" lon="2.09364">
        <ele>119</ele>
        <time>2021-07-11T07:24:36</time>
      </trkpt>
      <trkpt lat="47.92546" lon="2.0937">
        <ele>119</ele>
        <time>2021-07-11T07:24:37</time>
      </trkpt>
      <trkpt lat="47.92549" lon="2.09376">
        <ele>119.2</ele>
        <time>2021-07-11T07:24:38</time>
      </trkpt>
      <trkpt lat="47.92551" lon="2.09383">
        <ele>119.2</ele>
        <time>2021-07-11T07:24:39</time>
      </trkpt>
      <trkpt lat="47.92554" lon="2.09389">
        <ele>119.2</ele>
        <time>2021-07-11T07:24:40</time>
      </trkpt>
      <trkpt lat="47.92557" lon="2.09396">
        <ele>119.2</ele>
        <time>2021-07-11T07:24:41</time>
      </trkpt>
      <trkpt lat="47.9256" lon="2.09403">
        <ele>119.2</ele>
        <time>2021-07-11T07:24:42</time>
      </trkpt>
      <trkpt lat="47.92562" lon="2.0941">
        <ele>119.2</ele>
        <time>2021-07-11T07:24:43</time>
      </trkpt>
      <trkpt lat="47.92565" lon="2.09417">
        <ele>119.4</ele>
        <time>2021-07-11T07:24:44</time>
      </trkpt>
      <trkpt lat="47.92567" lon="2.09424">
        <ele>119.4</ele>
        <time>2021-07-11T07:24:45</time>
      </trkpt>
      <trkpt lat="47.92569" lon="2.09431">
        <ele>119.6</ele>
        <time>2021-07-11T07:24:46</time>
      </trkpt>
      <trkpt lat="47.9257" lon="2.09439">
        <ele>119.6</ele>
        <time>2021-07-11T07:24:47</time>
      </trkpt>
      <trkpt lat="47.92571" lon="2.09447">
        <ele>119.6</ele>
        <time>2021-07-11T07:24:48</time>
      </trkpt>
      <trkpt lat="47.92572" lon="2.09455">
        <ele>119.6</ele>
        <time>2021-07-11T07:24:49</time>
      </trkpt>
      <trkpt lat="47.92572" lon="2.09464">
        <ele>119.6</ele>
        <time>2021-07-11T07:24:50</time>
      </trkpt>
      <trkpt lat="47.92573" lon="2.09472">
        <ele>119.6</ele>
        <time>2021-07-11T07:24:51</time>
      </trkpt>
      <trkpt lat="47.92573" lon="2.0948">
        <ele>119.6</ele>
        <time>2021-07-11T07:24:52</time>
      </trkpt>
      <trkpt lat="47.92574" lon="2.09488">
        <ele>119.6</ele>
        <time>2021-07-11T07:24:53</time>
      </trkpt>
      <trkpt lat="47.92574" lon="2.09496">
        <ele>119.6</ele>
        <time>2021-07-11T07:24:54</time>
      </trkpt>
      <trkpt lat="47.92575" lon="2.09504">
        <ele>119.6</ele>
        <time>2021-07-11T07:24:55</time>
      </trkpt>
      <trkpt lat="47.92576" lon="2.09512">
        <ele>119.6</ele>
        <time>2021-07-11T07:24:56</time>
      </trkpt>
      <trkpt lat="47.92578" lon="2.0952">
        <ele>119.6</ele>
        <time>2021-07-11T07:24:57</time>
      </trkpt>
      <trkpt lat="47.92579" lon="2.09528">
        <ele>119.6</ele>
        <time>2021-07-11T07:24:58</time>
      </trkpt>
      <trkpt lat="47.9258" lon="2.09536">
        <ele>119.6</ele>
        <time>2021-07-11T07:24:59</time>
      </trkpt>
      <trkpt lat="47.92581" lon="2.09543">
        <ele>119.6</ele>
        <time>2021-07-11T07:25:00</time>
      </trkpt>
      <trkpt lat="47.92583" lon="2.09551">
        <ele>119.8</ele>
        <time>2021-07-11T07:25:01</time>
      </trkpt>
      <trkpt lat="47.92584" lon="2.09558">
        <ele>119.8</ele>
        <time>2021-07-11T07:25:02</time>
      </trkpt>
      <trkpt lat="47.92586" lon="2.09565">
        <ele>119.8</ele>
        <time>2021-07-11T07:25:03</time>
      </trkpt>
      <trkpt lat="47.92587" lon="2.09573">
        <ele>119.8</ele>
        <time>2021-07-11T07:25:04</time>
      </trkpt>
      <trkpt lat="47.92589" lon="2.0958">
        <ele>120</ele>
        <time>2021-07-11T07:25:05</time>
      </trkpt>
      <trkpt lat="47.92591" lon="2.09587">
        <ele>120</ele>
        <time>2021-07-11T07:25:06</time>
      </trkpt>
      <trkpt lat="47.92592" lon="2.09595">
        <ele>120</ele>
        <time>2021-07-11T07:25:07</time>
      </trkpt>
      <trkpt lat="47.92594" lon="2.09603">
        <ele>120.2</ele>
        <time>2021-07-11T07:25:08</time>
      </trkpt>
      <trkpt lat="47.92596" lon="2.09611">
        <ele>120.2</ele>
        <time>2021-07-11T07:25:09</time>
      </trkpt>
      <trkpt lat="47.92597" lon="2.09619">
        <ele>120.2</ele>
        <time>2021-07-11T07:25:10</time>
      </trkpt>
      <trkpt lat="47.92599" lon="2.09626">
        <ele>120.4</ele>
        <time>2021-07-11T07:25:11</time>
      </trkpt>
      <trkpt lat="47.92601" lon="2.09634">
        <ele>120.4</ele>
        <time>2021-07-11T07:25:12</time>
      </trkpt>
      <trkpt lat="47.92602" lon="2.09642">
        <ele>120.4</ele>
        <time>2021-07-11T07:25:13</time>
      </trkpt>
      <trkpt lat="47.92604" lon="2.0965">
        <ele>120.4</ele>
        <time>2021-07-11T07:25:14</time>
      </trkpt>
      <trkpt lat="47.92607" lon="2.09657">
        <ele>120.4</ele>
        <time>2021-07-11T07:25:15</time>
      </trkpt>
      <trkpt lat="47.92609" lon="2.09665">
        <ele>120.4</ele>
        <time>2021-07-11T07:25:16</time>
      </trkpt>
      <trkpt lat="47.92612" lon="2.09672">
        <ele>120.6</ele>
        <time>2021-07-11T07:25:17</time>
      </trkpt>
      <trkpt lat="47.92614" lon="2.09678">
        <ele>120.6</ele>
        <time>2021-07-11T07:25:18</time>
      </trkpt>
      <trkpt lat="47.92617" lon="2.09685">
        <ele>120.8</ele>
        <time>2021-07-11T07:25:19</time>
      </trkpt>
      <trkpt lat="47.92621" lon="2.09691">
        <ele>120.8</ele>
        <time>2021-07-11T07:25:20</time>
      </trkpt>
      <trkpt lat="47.92624" lon="2.09698">
        <ele>121</ele>
        <time>2021-07-11T07:25:21</time>
      </trkpt>
      <trkpt lat="47.92627" lon="2.09704">
        <ele>121</ele>
        <time>2021-07-11T07:25:22</time>
      </trkpt>
      <trkpt lat="47.9263" lon="2.0971">
        <ele>121.2</ele>
        <time>2021-07-11T07:25:23</time>
      </trkpt>
      <trkpt lat="47.92634" lon="2.09717">
        <ele>121.2</ele>
        <time>2021-07-11T07:25:24</time>
      </trkpt>
      <trkpt lat="47.92637" lon="2.09723">
        <ele>121.4</ele>
        <time>2021-07-11T07:25:25</time>
      </trkpt>
      <trkpt lat="47.9264" lon="2.09728">
        <ele>121.4</ele>
        <time>2021-07-11T07:25:26</time>
      </trkpt>
      <trkpt lat="47.92643" lon="2.09734">
        <ele>121.4</ele>
        <time>2021-07-11T07:25:27</time>
      </trkpt>
      <trkpt lat="47.92646" lon="2.09739">
        <ele>121.4</ele>
        <time>2021-07-11T07:25:28</time>
      </trkpt>
      <trkpt lat="47.92649" lon="2.09744">
        <ele>121.4</ele>
        <time>2021-07-11T07:25:29</time>
      </trkpt>
      <trkpt lat="47.92652" lon="2.09749">
        <ele>121.4</ele>
        <time>2021-07-11T07:25:30</time>
      </trkpt>
      <trkpt lat="47.92655" lon="2.09754">
        <ele>121.4</ele>
        <time>2021-07-11T07:25:31</time>
      </trkpt>
      <trkpt lat="47.92658" lon="2.09758">
        <ele>121.4</ele>
        <time>2021-07-11T07:25:32</time>
      </trkpt>
      <trkpt lat="47.92661" lon="2.09762">
        <ele>121.6</ele>
        <time>2021-07-11T07:25:33</time>
      </trkpt>
      <trkpt lat="47.92663" lon="2.09766">
        <ele>121.6</ele>
        <time>2021-07-11T07:25:34</time>
      </trkpt>
      <trkpt lat="47.92666" lon="2.09771">
        <ele>121.6</ele>
        <time>2021-07-11T07:25:35</time>
      </trkpt>
      <trkpt lat="47.92668" lon="2.09775">
        <ele>121.6</ele>
        <time>2021-07-11T07:25:36</time>
      </trkpt>
      <trkpt lat="47.92671" lon="2.0978">
        <ele>121.6</ele>
        <time>2021-07-11T07:25:37</time>
      </trkpt>
      <trkpt lat="47.92674" lon="2.09785">
        <ele>121.6</ele>
        <time>2021-07-11T07:25:38</time>
      </trkpt>
      <trkpt lat="47.92677" lon="2.0979">
        <ele>121.6</ele>
        <time>2021-07-11T07:25:39</time>
      </trkpt>
      <trkpt lat="47.9268" lon="2.09795">
        <ele>121.6</ele>
        <time>2021-07-11T07:25:40</time>
      </trkpt>
      <trkpt lat="47.92682" lon="2.098">
        <ele>121.6</ele>
        <time>2021-07-11T07:25:41</time>
      </trkpt>
      <trkpt lat="47.92685" lon="2.09804">
        <ele>121.6</ele>
        <time>2021-07-11T07:25:42</time>
      </trkpt>
      <trkpt lat="47.92688" lon="2.09809">
        <ele>121.6</ele>
        <time>2021-07-11T07:25:43</time>
      </trkpt>
      <trkpt lat="47.92691" lon="2.09814">
        <ele>121.6</ele>
        <time>2021-07-11T07:25:44</time>
      </trkpt>
      <trkpt lat="47.92694" lon="2.09819">
        <ele>121.6</ele>
        <time>2021-07-11T07:25:45</time>
      </trkpt>
      <trkpt lat="47.92696" lon="2.09824">
        <ele>121.6</ele>
        <time>2021-07-11T07:25:46</time>
      </trkpt>
      <trkpt lat="47.92699" lon="2.09829">
        <ele>121.6</ele>
        <time>2021-07-11T07:25:47</time>
      </trkpt>
      <trkpt lat="47.92702" lon="2.09834">
        <ele>121.6</ele>
        <time>2021-07-11T07:25:48</time>
      </trkpt>
      <trkpt lat="47.92704" lon="2.09839">
        <ele>121.6</ele>
        <time>2021-07-11T07:25:49</time>
      </trkpt>
      <trkpt lat="47.92707" lon="2.09844">
        <ele>121.6</ele>
        <time>2021-07-11T07:25:50</time>
      </trkpt>
      <trkpt lat="47.92709" lon="2.09849">
        <ele>121.8</ele>
        <time>2021-07-11T07:25:51</time>
      </trkpt>
      <trkpt lat="47.92712" lon="2.09854">
        <ele>121.6</ele>
        <time>2021-07-11T07:25:52</time>
      </trkpt>
      <trkpt lat="47.92714" lon="2.09859">
        <ele>121.6</ele>
        <time>2021-07-11T07:25:53</time>
      </trkpt>
      <trkpt lat="47.92717" lon="2.09864">
        <ele>121.6</ele>
        <time>2021-07-11T07:25:54</time>
      </trkpt>
      <trkpt lat="47.92719" lon="2.09868">
        <ele>121.8</ele>
        <time>2021-07-11T07:25:55</time>
      </trkpt>
      <trkpt lat="47.92722" lon="2.09874">
        <ele>121.8</ele>
        <time>2021-07-11T07:25:56</time>
      </trkpt>
      <trkpt lat="47.92725" lon="2.09879">
        <ele>121.8</ele>
        <time>2021-07-11T07:25:57</time>
      </trkpt>
      <trkpt lat="47.92727" lon="2.09884">
        <ele>121.8</ele>
        <time>2021-07-11T07:25:58</time>
      </trkpt>
      <trkpt lat="47.9273" lon="2.09889">
        <ele>121.8</ele>
        <time>2021-07-11T07:25:59</time>
      </trkpt>
      <trkpt lat="47.92732" lon="2.09895">
        <ele>121.8</ele>
        <time>2021-07-11T07:26:00</time>
      </trkpt>
      <trkpt lat="47.92735" lon="2.099">
        <ele>121.8</ele>
        <time>2021-07-11T07:26:01</time>
      </trkpt>
      <trkpt lat="47.92738" lon="2.09905">
        <ele>121.8</ele>
        <time>2021-07-11T07:26:02</time>
      </trkpt>
      <trkpt lat="47.92741" lon="2.09911">
        <ele>121.8</ele>
        <time>2021-07-11T07:26:03</time>
      </trkpt>
      <trkpt lat="47.92744" lon="2.09917">
        <ele>121.8</ele>
        <time>2021-07-11T07:26:04</time>
      </trkpt>
      <trkpt lat="47.92748" lon="2.09922">
        <ele>121.8</ele>
        <time>2021-07-11T07:26:05</time>
      </trkpt>
      <trkpt lat="47.92751" lon="2.09928">
        <ele>121.8</ele>
        <time>2021-07-11T07:26:06</time>
      </trkpt>
      <trkpt lat="47.92754" lon="2.09933">
        <ele>121.8</ele>
        <time>2021-07-11T07:26:07</time>
      </trkpt>
      <trkpt lat="47.92757" lon="2.09939">
        <ele>121.8</ele>
        <time>2021-07-11T07:26:08</time>
      </trkpt>
      <trkpt lat="47.9276" lon="2.09945">
        <ele>121.8</ele>
        <time>2021-07-11T07:26:09</time>
      </trkpt>
      <trkpt lat="47.92764" lon="2.0995">
        <ele>121.8</ele>
        <time>2021-07-11T07:26:10</time>
      </trkpt>
      <trkpt lat="47.92767" lon="2.09956">
        <ele>121.8</ele>
        <time>2021-07-11T07:26:11</time>
      </trkpt>
      <trkpt lat="47.9277" lon="2.09963">
        <ele>121.6</ele>
        <time>2021-07-11T07:26:12</time>
      </trkpt>
      <trkpt lat="47.92772" lon="2.09969">
        <ele>121.6</ele>
        <time>2021-07-11T07:26:13</time>
      </trkpt>
      <trkpt lat="47.92775" lon="2.09976">
        <ele>121.6</ele>
        <time>2021-07-11T07:26:14</time>
      </trkpt>
      <trkpt lat="47.92778" lon="2.09983">
        <ele>121.6</ele>
        <time>2021-07-11T07:26:15</time>
      </trkpt>
      <trkpt lat="47.92781" lon="2.0999">
        <ele>121.4</ele>
        <time>2021-07-11T07:26:16</time>
      </trkpt>
      <trkpt lat="47.92784" lon="2.09997">
        <ele>121.4</ele>
        <time>2021-07-11T07:26:17</time>
      </trkpt>
      <trkpt lat="47.92787" lon="2.10004">
        <ele>121.4</ele>
        <time>2021-07-11T07:26:18</time>
      </trkpt>
      <trkpt lat="47.92789" lon="2.10011">
        <ele>121.4</ele>
        <time>2021-07-11T07:26:19</time>
      </trkpt>
      <trkpt lat="47.92792" lon="2.10018">
        <ele>121.2</ele>
        <time>2021-07-11T07:26:20</time>
      </trkpt>
      <trkpt lat="47.92795" lon="2.10025">
        <ele>121.2</ele>
        <time>2021-07-11T07:26:21</time>
      </trkpt>
      <trkpt lat="47.92798" lon="2.10032">
        <ele>121</ele>
        <time>2021-07-11T07:26:22</time>
      </trkpt>
      <trkpt lat="47.92801" lon="2.10039">
        <ele>121</ele>
        <time>2021-07-11T07:26:23</time>
      </trkpt>
      <trkpt lat="47.92803" lon="2.10047">
        <ele>121</ele>
        <time>2021-07-11T07:26:24</time>
      </trkpt>
      <trkpt lat="47.92806" lon="2.10054">
        <ele>121</ele>
        <time>2021-07-11T07:26:25</time>
      </trkpt>
      <trkpt lat="47.92809" lon="2.10061">
        <ele>121</ele>
        <time>2021-07-11T07:26:26</time>
      </trkpt>
      <trkpt lat="47.92812" lon="2.10068">
        <ele>121</ele>
        <time>2021-07-11T07:26:27</time>
      </trkpt>
      <trkpt lat="47.92815" lon="2.10075">
        <ele>121</ele>
        <time>2021-07-11T07:26:28</time>
      </trkpt>
      <trkpt lat="47.92817" lon="2.10083">
        <ele>121</ele>
        <time>2021-07-11T07:26:29</time>
      </trkpt>
      <trkpt lat="47.9282" lon="2.1009">
        <ele>121</ele>
        <time>2021-07-11T07:26:30</time>
      </trkpt>
      <trkpt lat="47.92823" lon="2.10097">
        <ele>121</ele>
        <time>2021-07-11T07:26:31</time>
      </trkpt>
      <trkpt lat="47.92826" lon="2.10105">
        <ele>121</ele>
        <time>2021-07-11T07:26:32</time>
      </trkpt>
      <trkpt lat="47.92829" lon="2.10112">
        <ele>121.2</ele>
        <time>2021-07-11T07:26:33</time>
      </trkpt>
      <trkpt lat="47.92831" lon="2.10119">
        <ele>121.2</ele>
        <time>2021-07-11T07:26:34</time>
      </trkpt>
      <trkpt lat="47.92834" lon="2.10126">
        <ele>121.2</ele>
        <time>2021-07-11T07:26:35</time>
      </trkpt>
      <trkpt lat="47.92837" lon="2.10133">
        <ele>121.2</ele>
        <time>2021-07-11T07:26:36</time>
      </trkpt>
      <trkpt lat="47.9284" lon="2.10141">
        <ele>121.2</ele>
        <time>2021-07-11T07:26:37</time>
      </trkpt>
      <trkpt lat="47.92842" lon="2.10147">
        <ele>121.2</ele>
        <time>2021-07-11T07:26:38</time>
      </trkpt>
      <trkpt lat="47.92845" lon="2.10154">
        <ele>121.2</ele>
        <time>2021-07-11T07:26:39</time>
      </trkpt>
      <trkpt lat="47.92848" lon="2.10161">
        <ele>121.4</ele>
        <time>2021-07-11T07:26:40</time>
      </trkpt>
      <trkpt lat="47.92851" lon="2.10168">
        <ele>121.4</ele>
        <time>2021-07-11T07:26:41</time>
      </trkpt>
      <trkpt lat="47.92853" lon="2.10175">
        <ele>121.4</ele>
        <time>2021-07-11T07:26:42</time>
      </trkpt>
      <trkpt lat="47.92856" lon="2.10182">
        <ele>121.6</ele>
        <time>2021-07-11T07:26:43</time>
      </trkpt>
      <trkpt lat="47.92858" lon="2.10189">
        <ele>121.6</ele>
        <time>2021-07-11T07:26:44</time>
      </trkpt>
      <trkpt lat="47.92861" lon="2.10196">
        <ele>121.6</ele>
        <time>2021-07-11T07:26:45</time>
      </trkpt>
      <trkpt lat="47.92864" lon="2.10203">
        <ele>121.6</ele>
        <time>2021-07-11T07:26:46</time>
      </trkpt>
      <trkpt lat="47.92866" lon="2.10209">
        <ele>121.8</ele>
        <time>2021-07-11T07:26:47</time>
      </trkpt>
      <trkpt lat="47.92869" lon="2.10216">
        <ele>121.8</ele>
        <time>2021-07-11T07:26:48</time>
      </trkpt>
      <trkpt lat="47.92871" lon="2.10223">
        <ele>122</ele>
        <time>2021-07-11T07:26:49</time>
      </trkpt>
      <trkpt lat="47.92874" lon="2.10229">
        <ele>122</ele>
        <time>2021-07-11T07:26:50</time>
      </trkpt>
      <trkpt lat="47.92876" lon="2.10236">
        <ele>122.2</ele>
        <time>2021-07-11T07:26:51</time>
      </trkpt>
      <trkpt lat="47.92879" lon="2.10242">
        <ele>122.2</ele>
        <time>2021-07-11T07:26:52</time>
      </trkpt>
      <trkpt lat="47.92881" lon="2.10249">
        <ele>122.4</ele>
        <time>2021-07-11T07:26:53</time>
      </trkpt>
      <trkpt lat="47.92884" lon="2.10256">
        <ele>122.4</ele>
        <time>2021-07-11T07:26:54</time>
      </trkpt>
      <trkpt lat="47.92886" lon="2.10263">
        <ele>122.4</ele>
        <time>2021-07-11T07:26:55</time>
      </trkpt>
      <trkpt lat="47.92889" lon="2.1027">
        <ele>122.6</ele>
        <time>2021-07-11T07:26:56</time>
      </trkpt>
      <trkpt lat="47.92891" lon="2.10276">
        <ele>122.6</ele>
        <time>2021-07-11T07:26:57</time>
      </trkpt>
      <trkpt lat="47.92893" lon="2.10283">
        <ele>122.6</ele>
        <time>2021-07-11T07:26:58</time>
      </trkpt>
      <trkpt lat="47.92896" lon="2.1029">
        <ele>122.8</ele>
        <time>2021-07-11T07:26:59</time>
      </trkpt>
      <trkpt lat="47.92898" lon="2.10297">
        <ele>122.8</ele>
        <time>2021-07-11T07:27:00</time>
      </trkpt>
      <trkpt lat="47.929" lon="2.10304">
        <ele>122.8</ele>
        <time>2021-07-11T07:27:01</time>
      </trkpt>
      <trkpt lat="47.92903" lon="2.10311">
        <ele>123</ele>
        <time>2021-07-11T07:27:02</time>
      </trkpt>
      <trkpt lat="47.92905" lon="2.10318">
        <ele>123</ele>
        <time>2021-07-11T07:27:03</time>
      </trkpt>
      <trkpt lat="47.92907" lon="2.10325">
        <ele>123</ele>
        <time>2021-07-11T07:27:04</time>
      </trkpt>
      <trkpt lat="47.9291" lon="2.10333">
        <ele>123</ele>
        <time>2021-07-11T07:27:05</time>
      </trkpt>
      <trkpt lat="47.92912" lon="2.1034">
        <ele>123</ele>
        <time>2021-07-11T07:27:06</time>
      </trkpt>
      <trkpt lat="47.92914" lon="2.10348">
        <ele>123</ele>
        <time>2021-07-11T07:27:07</time>
      </trkpt>
      <trkpt lat="47.92916" lon="2.10355">
        <ele>123</ele>
        <time>2021-07-11T07:27:08</time>
      </trkpt>
      <trkpt lat="47.92918" lon="2.10363">
        <ele>123.2</ele>
        <time>2021-07-11T07:27:09</time>
      </trkpt>
      <trkpt lat="47.92919" lon="2.1037">
        <ele>123.2</ele>
        <time>2021-07-11T07:27:10</time>
      </trkpt>
      <trkpt lat="47.92921" lon="2.10378">
        <ele>123.2</ele>
        <time>2021-07-11T07:27:11</time>
      </trkpt>
      <trkpt lat="47.92923" lon="2.10385">
        <ele>123.2</ele>
        <time>2021-07-11T07:27:12</time>
      </trkpt>
      <trkpt lat="47.92925" lon="2.10393">
        <ele>123.2</ele>
        <time>2021-07-11T07:27:13</time>
      </trkpt>
      <trkpt lat="47.92927" lon="2.10401">
        <ele>123.2</ele>
        <time>2021-07-11T07:27:14</time>
      </trkpt>
      <trkpt lat="47.92928" lon="2.10408">
        <ele>123.2</ele>
        <time>2021-07-11T07:27:15</time>
      </trkpt>
      <trkpt lat="47.9293" lon="2.10416">
        <ele>123.4</ele>
        <time>2021-07-11T07:27:16</time>
      </trkpt>
      <trkpt lat="47.92931" lon="2.10422">
        <ele>123.4</ele>
        <time>2021-07-11T07:27:17</time>
      </trkpt>
      <trkpt lat="47.92932" lon="2.10428">
        <ele>123.4</ele>
        <time>2021-07-11T07:27:18</time>
      </trkpt>
      <trkpt lat="47.92933" lon="2.10433">
        <ele>123.6</ele>
        <time>2021-07-11T07:27:19</time>
      </trkpt>
      <trkpt lat="47.92934" lon="2.10437">
        <ele>123.6</ele>
        <time>2021-07-11T07:27:20</time>
      </trkpt>
      <trkpt lat="47.92935" lon="2.1044">
        <ele>123.6</ele>
        <time>2021-07-11T07:27:21</time>
      </trkpt>
      <trkpt lat="47.92935" lon="2.10443">
        <ele>123.6</ele>
        <time>2021-07-11T07:27:22</time>
      </trkpt>
      <trkpt lat="47.92936" lon="2.10445">
        <ele>123.6</ele>
        <time>2021-07-11T07:27:23</time>
      </trkpt>
      <trkpt lat="47.92937" lon="2.10448">
        <ele>123.6</ele>
        <time>2021-07-11T07:27:24</time>
      </trkpt>
      <trkpt lat="47.92938" lon="2.1045">
        <ele>123.8</ele>
        <time>2021-07-11T07:27:25</time>
      </trkpt>
      <trkpt lat="47.92939" lon="2.10453">
        <ele>123.8</ele>
        <time>2021-07-11T07:27:26</time>
      </trkpt>
      <trkpt lat="47.92941" lon="2.10456">
        <ele>124</ele>
        <time>2021-07-11T07:27:27</time>
      </trkpt>
      <trkpt lat="47.92942" lon="2.1046">
        <ele>124</ele>
        <time>2021-07-11T07:27:28</time>
      </trkpt>
      <trkpt lat="47.92944" lon="2.10463">
        <ele>124</ele>
        <time>2021-07-11T07:27:29</time>
      </trkpt>
      <trkpt lat="47.92946" lon="2.10467">
        <ele>124</ele>
        <time>2021-07-11T07:27:30</time>
      </trkpt>
      <trkpt lat="47.92949" lon="2.10472">
        <ele>124</ele>
        <time>2021-07-11T07:27:31</time>
      </trkpt>
      <trkpt lat="47.92952" lon="2.10476">
        <ele>124</ele>
        <time>2021-07-11T07:27:32</time>
      </trkpt>
      <trkpt lat="47.92955" lon="2.1048">
        <ele>124</ele>
        <time>2021-07-11T07:27:33</time>
      </trkpt>
      <trkpt lat="47.92957" lon="2.10484">
        <ele>124</ele>
        <time>2021-07-11T07:27:34</time>
      </trkpt>
      <trkpt lat="47.9296" lon="2.10489">
        <ele>124</ele>
        <time>2021-07-11T07:27:35</time>
      </trkpt>
      <trkpt lat="47.92963" lon="2.10493">
        <ele>124.2</ele>
        <time>2021-07-11T07:27:36</time>
      </trkpt>
      <trkpt lat="47.92967" lon="2.10497">
        <ele>124.2</ele>
        <time>2021-07-11T07:27:37</time>
      </trkpt>
      <trkpt lat="47.9297" lon="2.10502">
        <ele>124.2</ele>
        <time>2021-07-11T07:27:38</time>
      </trkpt>
      <trkpt lat="47.92973" lon="2.10507">
        <ele>124.4</ele>
        <time>2021-07-11T07:27:39</time>
      </trkpt>
      <trkpt lat="47.92977" lon="2.10511">
        <ele>124.4</ele>
        <time>2021-07-11T07:27:40</time>
      </trkpt>
      <trkpt lat="47.9298" lon="2.10516">
        <ele>124.6</ele>
        <time>2021-07-11T07:27:41</time>
      </trkpt>
      <trkpt lat="47.92984" lon="2.10521">
        <ele>124.6</ele>
        <time>2021-07-11T07:27:42</time>
      </trkpt>
      <trkpt lat="47.92987" lon="2.10526">
        <ele>124.8</ele>
        <time>2021-07-11T07:27:43</time>
      </trkpt>
      <trkpt lat="47.9299" lon="2.10531">
        <ele>124.8</ele>
        <time>2021-07-11T07:27:44</time>
      </trkpt>
      <trkpt lat="47.92994" lon="2.10536">
        <ele>124.8</ele>
        <time>2021-07-11T07:27:45</time>
      </trkpt>
      <trkpt lat="47.92997" lon="2.1054">
        <ele>125</ele>
        <time>2021-07-11T07:27:46</time>
      </trkpt>
      <trkpt lat="47.93" lon="2.10544">
        <ele>125</ele>
        <time>2021-07-11T07:27:47</time>
      </trkpt>
      <trkpt lat="47.93003" lon="2.10548">
        <ele>125</ele>
        <time>2021-07-11T07:27:48</time>
      </trkpt>
      <trkpt lat="47.93006" lon="2.10552">
        <ele>125.2</ele>
        <time>2021-07-11T07:27:49</time>
      </trkpt>
      <trkpt lat="47.93009" lon="2.10557">
        <ele>125.2</ele>
        <time>2021-07-11T07:27:50</time>
      </trkpt>
      <trkpt lat="47.93012" lon="2.10561">
        <ele>125.2</ele>
        <time>2021-07-11T07:27:51</time>
      </trkpt>
      <trkpt lat="47.93015" lon="2.10566">
        <ele>125.2</ele>
        <time>2021-07-11T07:27:52</time>
      </trkpt>
      <trkpt lat="47.93019" lon="2.1057">
        <ele>125.4</ele>
        <time>2021-07-11T07:27:53</time>
      </trkpt>
      <trkpt lat="47.93022" lon="2.10575">
        <ele>125.4</ele>
        <time>2021-07-11T07:27:54</time>
      </trkpt>
      <trkpt lat="47.93025" lon="2.1058">
        <ele>125.4</ele>
        <time>2021-07-11T07:27:55</time>
      </trkpt>
      <trkpt lat="47.93029" lon="2.10585">
        <ele>125.6</ele>
        <time>2021-07-11T07:27:56</time>
      </trkpt>
      <trkpt lat="47.93032" lon="2.1059">
        <ele>125.6</ele>
        <time>2021-07-11T07:27:57</time>
      </trkpt>
      <trkpt lat="47.93036" lon="2.10595">
        <ele>125.8</ele>
        <time>2021-07-11T07:27:58</time>
      </trkpt>
      <trkpt lat="47.93039" lon="2.106">
        <ele>125.8</ele>
        <time>2021-07-11T07:27:59</time>
      </trkpt>
      <trkpt lat="47.93043" lon="2.10605">
        <ele>126</ele>
        <time>2021-07-11T07:28:00</time>
      </trkpt>
      <trkpt lat="47.93047" lon="2.1061">
        <ele>126</ele>
        <time>2021-07-11T07:28:01</time>
      </trkpt>
      <trkpt lat="47.9305" lon="2.10615">
        <ele>126</ele>
        <time>2021-07-11T07:28:02</time>
      </trkpt>
      <trkpt lat="47.93054" lon="2.10621">
        <ele>126.2</ele>
        <time>2021-07-11T07:28:03</time>
      </trkpt>
      <trkpt lat="47.93058" lon="2.10626">
        <ele>126.2</ele>
        <time>2021-07-11T07:28:04</time>
      </trkpt>
      <trkpt lat="47.93062" lon="2.10631">
        <ele>126.2</ele>
        <time>2021-07-11T07:28:05</time>
      </trkpt>
      <trkpt lat="47.93065" lon="2.10636">
        <ele>126.2</ele>
        <time>2021-07-11T07:28:06</time>
      </trkpt>
      <trkpt lat="47.93068" lon="2.10642">
        <ele>126.4</ele>
        <time>2021-07-11T07:28:07</time>
      </trkpt>
      <trkpt lat="47.93072" lon="2.10646">
        <ele>126.4</ele>
        <time>2021-07-11T07:28:08</time>
      </trkpt>
      <trkpt lat="47.93076" lon="2.10651">
        <ele>126.4</ele>
        <time>2021-07-11T07:28:09</time>
      </trkpt>
      <trkpt lat="47.93079" lon="2.10656">
        <ele>126.4</ele>
        <time>2021-07-11T07:28:10</time>
      </trkpt>
      <trkpt lat="47.93083" lon="2.10661">
        <ele>126.6</ele>
        <time>2021-07-11T07:28:11</time>
      </trkpt>
      <trkpt lat="47.93086" lon="2.10666">
        <ele>126.6</ele>
        <time>2021-07-11T07:28:12</time>
      </trkpt>
      <trkpt lat="47.9309" lon="2.10671">
        <ele>126.6</ele>
        <time>2021-07-11T07:28:13</time>
      </trkpt>
      <trkpt lat="47.93093" lon="2.10676">
        <ele>126.8</ele>
        <time>2021-07-11T07:28:14</time>
      </trkpt>
      <trkpt lat="47.93097" lon="2.10681">
        <ele>126.8</ele>
        <time>2021-07-11T07:28:15</time>
      </trkpt>
      <trkpt lat="47.93101" lon="2.10686">
        <ele>126.8</ele>
        <time>2021-07-11T07:28:16</time>
      </trkpt>
      <trkpt lat="47.93104" lon="2.10691">
        <ele>126.8</ele>
        <time>2021-07-11T07:28:17</time>
      </trkpt>
      <trkpt lat="47.93108" lon="2.10697">
        <ele>126.8</ele>
        <time>2021-07-11T07:28:18</time>
      </trkpt>
      <trkpt lat="47.93112" lon="2.10702">
        <ele>126.8</ele>
        <time>2021-07-11T07:28:19</time>
      </trkpt>
      <trkpt lat="47.93116" lon="2.10707">
        <ele>126.8</ele>
        <time>2021-07-11T07:28:20</time>
      </trkpt>
      <trkpt lat="47.9312" lon="2.10712">
        <ele>126.8</ele>
        <time>2021-07-11T07:28:21</time>
      </trkpt>
      <trkpt lat="47.93124" lon="2.10718">
        <ele>126.8</ele>
        <time>2021-07-11T07:28:22</time>
      </trkpt>
      <trkpt lat="47.93127" lon="2.10723">
        <ele>127</ele>
        <time>2021-07-11T07:28:23</time>
      </trkpt>
      <trkpt lat="47.93131" lon="2.10728">
        <ele>127</ele>
        <time>2021-07-11T07:28:24</time>
      </trkpt>
      <trkpt lat="47.93135" lon="2.10733">
        <ele>127</ele>
        <time>2021-07-11T07:28:25</time>
      </trkpt>
      <trkpt lat="47.93139" lon="2.10738">
        <ele>127</ele>
        <time>2021-07-11T07:28:26</time>
      </trkpt>
      <trkpt lat="47.93143" lon="2.10743">
        <ele>127.2</ele>
        <time>2021-07-11T07:28:27</time>
      </trkpt>
      <trkpt lat="47.93147" lon="2.10748">
        <ele>127</ele>
        <time>2021-07-11T07:28:28</time>
      </trkpt>
      <trkpt lat="47.93151" lon="2.10753">
        <ele>127.2</ele>
        <time>2021-07-11T07:28:29</time>
      </trkpt>
      <trkpt lat="47.93155" lon="2.10757">
        <ele>127.2</ele>
        <time>2021-07-11T07:28:30</time>
      </trkpt>
      <trkpt lat="47.93159" lon="2.10762">
        <ele>127.2</ele>
        <time>2021-07-11T07:28:31</time>
      </trkpt>
      <trkpt lat="47.93164" lon="2.10767">
        <ele>127.2</ele>
        <time>2021-07-11T07:28:32</time>
      </trkpt>
      <trkpt lat="47.93168" lon="2.10771">
        <ele>127.2</ele>
        <time>2021-07-11T07:28:33</time>
      </trkpt>
      <trkpt lat="47.93172" lon="2.10776">
        <ele>127.2</ele>
        <time>2021-07-11T07:28:34</time>
      </trkpt>
      <trkpt lat="47.93176" lon="2.1078">
        <ele>127.2</ele>
        <time>2021-07-11T07:28:35</time>
      </trkpt>
      <trkpt lat="47.9318" lon="2.10783">
        <ele>127.2</ele>
        <time>2021-07-11T07:28:36</time>
      </trkpt>
      <trkpt lat="47.93184" lon="2.10787">
        <ele>127.2</ele>
        <time>2021-07-11T07:28:37</time>
      </trkpt>
      <trkpt lat="47.93189" lon="2.1079">
        <ele>127.2</ele>
        <time>2021-07-11T07:28:38</time>
      </trkpt>
      <trkpt lat="47.93193" lon="2.10793">
        <ele>126.8</ele>
        <time>2021-07-11T07:28:39</time>
      </trkpt>
      <trkpt lat="47.93198" lon="2.10798">
        <ele>126.6</ele>
        <time>2021-07-11T07:28:40</time>
      </trkpt>
      <trkpt lat="47.93202" lon="2.10802">
        <ele>126.6</ele>
        <time>2021-07-11T07:28:41</time>
      </trkpt>
      <trkpt lat="47.93206" lon="2.10806">
        <ele>126.6</ele>
        <time>2021-07-11T07:28:42</time>
      </trkpt>
      <trkpt lat="47.9321" lon="2.10811">
        <ele>126.4</ele>
        <time>2021-07-11T07:28:43</time>
      </trkpt>
      <trkpt lat="47.93213" lon="2.10815">
        <ele>126.4</ele>
        <time>2021-07-11T07:28:44</time>
      </trkpt>
      <trkpt lat="47.93217" lon="2.10819">
        <ele>126.4</ele>
        <time>2021-07-11T07:28:45</time>
      </trkpt>
      <trkpt lat="47.9322" lon="2.10823">
        <ele>126.2</ele>
        <time>2021-07-11T07:28:46</time>
      </trkpt>
      <trkpt lat="47.93224" lon="2.10827">
        <ele>126.2</ele>
        <time>2021-07-11T07:28:47</time>
      </trkpt>
      <trkpt lat="47.93228" lon="2.10831">
        <ele>126.2</ele>
        <time>2021-07-11T07:28:48</time>
      </trkpt>
      <trkpt lat="47.93233" lon="2.10835">
        <ele>126.2</ele>
        <time>2021-07-11T07:28:49</time>
      </trkpt>
      <trkpt lat="47.93236" lon="2.10839">
        <ele>126.2</ele>
        <time>2021-07-11T07:28:50</time>
      </trkpt>
      <trkpt lat="47.9324" lon="2.10843">
        <ele>126.2</ele>
        <time>2021-07-11T07:28:51</time>
      </trkpt>
      <trkpt lat="47.93244" lon="2.10846">
        <ele>126.4</ele>
        <time>2021-07-11T07:28:52</time>
      </trkpt>
      <trkpt lat="47.93247" lon="2.10849">
        <ele>126.2</ele>
        <time>2021-07-11T07:28:53</time>
      </trkpt>
      <trkpt lat="47.9325" lon="2.10854">
        <ele>126.4</ele>
        <time>2021-07-11T07:28:54</time>
      </trkpt>
      <trkpt lat="47.93254" lon="2.10857">
        <ele>126.2</ele>
        <time>2021-07-11T07:28:55</time>
      </trkpt>
      <trkpt lat="47.93258" lon="2.10861">
        <ele>126.4</ele>
        <time>2021-07-11T07:28:56</time>
      </trkpt>
      <trkpt lat="47.93261" lon="2.10865">
        <ele>126.4</ele>
        <time>2021-07-11T07:28:57</time>
      </trkpt>
      <trkpt lat="47.93263" lon="2.10868">
        <ele>126.4</ele>
        <time>2021-07-11T07:28:58</time>
      </trkpt>
      <trkpt lat="47.93266" lon="2.10871">
        <ele>126.2</ele>
        <time>2021-07-11T07:28:59</time>
      </trkpt>
      <trkpt lat="47.9327" lon="2.10875">
        <ele>126.2</ele>
        <time>2021-07-11T07:29:00</time>
      </trkpt>
      <trkpt lat="47.93274" lon="2.10881">
        <ele>126.2</ele>
        <time>2021-07-11T07:29:01</time>
      </trkpt>
      <trkpt lat="47.93278" lon="2.10885">
        <ele>126.2</ele>
        <time>2021-07-11T07:29:02</time>
      </trkpt>
      <trkpt lat="47.93282" lon="2.1089">
        <ele>126.2</ele>
        <time>2021-07-11T07:29:03</time>
      </trkpt>
      <trkpt lat="47.93286" lon="2.10894">
        <ele>126.2</ele>
        <time>2021-07-11T07:29:04</time>
      </trkpt>
      <trkpt lat="47.93289" lon="2.10898">
        <ele>126.2</ele>
        <time>2021-07-11T07:29:05</time>
      </trkpt>
      <trkpt lat="47.93292" lon="2.10902">
        <ele>126</ele>
        <time>2021-07-11T07:29:06</time>
      </trkpt>
      <trkpt lat="47.93296" lon="2.10906">
        <ele>126.2</ele>
        <time>2021-07-11T07:29:07</time>
      </trkpt>
      <trkpt lat="47.933" lon="2.10909">
        <ele>126</ele>
        <time>2021-07-11T07:29:08</time>
      </trkpt>
      <trkpt lat="47.93303" lon="2.10912">
        <ele>126</ele>
        <time>2021-07-11T07:29:09</time>
      </trkpt>
      <trkpt lat="47.93307" lon="2.10916">
        <ele>126</ele>
        <time>2021-07-11T07:29:10</time>
      </trkpt>
      <trkpt lat="47.93312" lon="2.10921">
        <ele>126</ele>
        <time>2021-07-11T07:29:11</time>
      </trkpt>
      <trkpt lat="47.93316" lon="2.10925">
        <ele>126</ele>
        <time>2021-07-11T07:29:12</time>
      </trkpt>
      <trkpt lat="47.9332" lon="2.1093">
        <ele>126</ele>
        <time>2021-07-11T07:29:13</time>
      </trkpt>
      <trkpt lat="47.93325" lon="2.10932">
        <ele>126</ele>
        <time>2021-07-11T07:29:14</time>
      </trkpt>
      <trkpt lat="47.93329" lon="2.10934">
        <ele>126</ele>
        <time>2021-07-11T07:29:15</time>
      </trkpt>
      <trkpt lat="47.93334" lon="2.10939">
        <ele>126</ele>
        <time>2021-07-11T07:29:16</time>
      </trkpt>
      <trkpt lat="47.93338" lon="2.10943">
        <ele>126</ele>
        <time>2021-07-11T07:29:17</time>
      </trkpt>
      <trkpt lat="47.93342" lon="2.10947">
        <ele>126</ele>
        <time>2021-07-11T07:29:18</time>
      </trkpt>
      <trkpt lat="47.93347" lon="2.10952">
        <ele>126</ele>
        <time>2021-07-11T07:29:19</time>
      </trkpt>
      <trkpt lat="47.93353" lon="2.10956">
        <ele>126</ele>
        <time>2021-07-11T07:29:20</time>
      </trkpt>
      <trkpt lat="47.93358" lon="2.10961">
        <ele>126</ele>
        <time>2021-07-11T07:29:21</time>
      </trkpt>
      <trkpt lat="47.93363" lon="2.10966">
        <ele>126</ele>
        <time>2021-07-11T07:29:22</time>
      </trkpt>
      <trkpt lat="47.93368" lon="2.10972">
        <ele>126</ele>
        <time>2021-07-11T07:29:23</time>
      </trkpt>
      <trkpt lat="47.93373" lon="2.10978">
        <ele>126</ele>
        <time>2021-07-11T07:29:24</time>
      </trkpt>
      <trkpt lat="47.93378" lon="2.10985">
        <ele>126</ele>
        <time>2021-07-11T07:29:25</time>
      </trkpt>
      <trkpt lat="47.93382" lon="2.10991">
        <ele>126</ele>
        <time>2021-07-11T07:29:26</time>
      </trkpt>
      <trkpt lat="47.93386" lon="2.10997">
        <ele>126</ele>
        <time>2021-07-11T07:29:27</time>
      </trkpt>
      <trkpt lat="47.9339" lon="2.11002">
        <ele>126</ele>
        <time>2021-07-11T07:29:28</time>
      </trkpt>
      <trkpt lat="47.93395" lon="2.11006">
        <ele>126</ele>
        <time>2021-07-11T07:29:29</time>
      </trkpt>
      <trkpt lat="47.93399" lon="2.11009">
        <ele>126</ele>
        <time>2021-07-11T07:29:30</time>
      </trkpt>
      <trkpt lat="47.93403" lon="2.11013">
        <ele>126</ele>
        <time>2021-07-11T07:29:31</time>
      </trkpt>
      <trkpt lat="47.93406" lon="2.11016">
        <ele>126</ele>
        <time>2021-07-11T07:29:32</time>
      </trkpt>
      <trkpt lat="47.9341" lon="2.11019">
        <ele>125.8</ele>
        <time>2021-07-11T07:29:33</time>
      </trkpt>
      <trkpt lat="47.93414" lon="2.11022">
        <ele>125.8</ele>
        <time>2021-07-11T07:29:34</time>
      </trkpt>
      <trkpt lat="47.93419" lon="2.11027">
        <ele>125.8</ele>
        <time>2021-07-11T07:29:35</time>
      </trkpt>
      <trkpt lat="47.93423" lon="2.11031">
        <ele>125.8</ele>
        <time>2021-07-11T07:29:36</time>
      </trkpt>
      <trkpt lat="47.93427" lon="2.11035">
        <ele>125.8</ele>
        <time>2021-07-11T07:29:37</time>
      </trkpt>
      <trkpt lat="47.93431" lon="2.11039">
        <ele>125.6</ele>
        <time>2021-07-11T07:29:38</time>
      </trkpt>
      <trkpt lat="47.93436" lon="2.11043">
        <ele>125.6</ele>
        <time>2021-07-11T07:29:39</time>
      </trkpt>
      <trkpt lat="47.9344" lon="2.11047">
        <ele>125.4</ele>
        <time>2021-07-11T07:29:40</time>
      </trkpt>
      <trkpt lat="47.93445" lon="2.11053">
        <ele>125.4</ele>
        <time>2021-07-11T07:29:41</time>
      </trkpt>
      <trkpt lat="47.9345" lon="2.11056">
        <ele>125.2</ele>
        <time>2021-07-11T07:29:42</time>
      </trkpt>
      <trkpt lat="47.93453" lon="2.1106">
        <ele>125</ele>
        <time>2021-07-11T07:29:43</time>
      </trkpt>
      <trkpt lat="47.93457" lon="2.11062">
        <ele>125</ele>
        <time>2021-07-11T07:29:44</time>
      </trkpt>
      <trkpt lat="47.93462" lon="2.11065">
        <ele>124.8</ele>
        <time>2021-07-11T07:29:45</time>
      </trkpt>
      <trkpt lat="47.93466" lon="2.11067">
        <ele>124.8</ele>
        <time>2021-07-11T07:29:46</time>
      </trkpt>
      <trkpt lat="47.93469" lon="2.1107">
        <ele>124.6</ele>
        <time>2021-07-11T07:29:47</time>
      </trkpt>
      <trkpt lat="47.93474" lon="2.11073">
        <ele>124.4</ele>
        <time>2021-07-11T07:29:48</time>
      </trkpt>
      <trkpt lat="47.93479" lon="2.11075">
        <ele>124.2</ele>
        <time>2021-07-11T07:29:49</time>
      </trkpt>
      <trkpt lat="47.93484" lon="2.11077">
        <ele>124.2</ele>
        <time>2021-07-11T07:29:50</time>
      </trkpt>
      <trkpt lat="47.93488" lon="2.11079">
        <ele>124</ele>
        <time>2021-07-11T07:29:51</time>
      </trkpt>
      <trkpt lat="47.93492" lon="2.11081">
        <ele>123.8</ele>
        <time>2021-07-11T07:29:52</time>
      </trkpt>
      <trkpt lat="47.93495" lon="2.11083">
        <ele>123.8</ele>
        <time>2021-07-11T07:29:53</time>
      </trkpt>
      <trkpt lat="47.93497" lon="2.11084">
        <ele>123.8</ele>
        <time>2021-07-11T07:29:54</time>
      </trkpt>
      <trkpt lat="47.93499" lon="2.11085">
        <ele>123.6</ele>
        <time>2021-07-11T07:29:55</time>
      </trkpt>
      <trkpt lat="47.93502" lon="2.11087">
        <ele>123.6</ele>
        <time>2021-07-11T07:29:56</time>
      </trkpt>
      <trkpt lat="47.93504" lon="2.11087">
        <ele>123.6</ele>
        <time>2021-07-11T07:29:57</time>
      </trkpt>
      <trkpt lat="47.93505" lon="2.11087">
        <ele>123.6</ele>
        <time>2021-07-11T07:29:58</time>
      </trkpt>
      <trkpt lat="47.93506" lon="2.11087">
        <ele>123.6</ele>
        <time>2021-07-11T07:29:59</time>
      </trkpt>
      <trkpt lat="47.93508" lon="2.11088">
        <ele>123.6</ele>
        <time>2021-07-11T07:30:00</time>
      </trkpt>
      <trkpt lat="47.93509" lon="2.11089">
        <ele>123.6</ele>
        <time>2021-07-11T07:30:01</time>
      </trkpt>
      <trkpt lat="47.93511" lon="2.1109">
        <ele>123.6</ele>
        <time>2021-07-11T07:30:02</time>
      </trkpt>
      <trkpt lat="47.93512" lon="2.11091">
        <ele>123.6</ele>
        <time>2021-07-11T07:30:03</time>
      </trkpt>
      <trkpt lat="47.93514" lon="2.11092">
        <ele>123.6</ele>
        <time>2021-07-11T07:30:04</time>
      </trkpt>
      <trkpt lat="47.93515" lon="2.11092">
        <ele>123.6</ele>
        <time>2021-07-11T07:30:05</time>
      </trkpt>
      <trkpt lat="47.93543" lon="2.11115">
        <ele>123.2</ele>
        <time>2021-07-11T07:30:20</time>
      </trkpt>
      <trkpt lat="47.93544" lon="2.11116">
        <ele>123.2</ele>
        <time>2021-07-11T07:30:21</time>
      </trkpt>
      <trkpt lat="47.93547" lon="2.11118">
        <ele>123.2</ele>
        <time>2021-07-11T07:30:22</time>
      </trkpt>
      <trkpt lat="47.93549" lon="2.11119">
        <ele>123.2</ele>
        <time>2021-07-11T07:30:23</time>
      </trkpt>
      <trkpt lat="47.93552" lon="2.1112">
        <ele>123.2</ele>
        <time>2021-07-11T07:30:24</time>
      </trkpt>
      <trkpt lat="47.93555" lon="2.11122">
        <ele>123.4</ele>
        <time>2021-07-11T07:30:25</time>
      </trkpt>
      <trkpt lat="47.93557" lon="2.11123">
        <ele>123.4</ele>
        <time>2021-07-11T07:30:26</time>
      </trkpt>
      <trkpt lat="47.9356" lon="2.11123">
        <ele>123.6</ele>
        <time>2021-07-11T07:30:27</time>
      </trkpt>
      <trkpt lat="47.93563" lon="2.11123">
        <ele>123.6</ele>
        <time>2021-07-11T07:30:28</time>
      </trkpt>
      <trkpt lat="47.93567" lon="2.11123">
        <ele>123.8</ele>
        <time>2021-07-11T07:30:29</time>
      </trkpt>
      <trkpt lat="47.93571" lon="2.11123">
        <ele>124</ele>
        <time>2021-07-11T07:30:30</time>
      </trkpt>
      <trkpt lat="47.93574" lon="2.11124">
        <ele>124</ele>
        <time>2021-07-11T07:30:31</time>
      </trkpt>
      <trkpt lat="47.93577" lon="2.11124">
        <ele>124.2</ele>
        <time>2021-07-11T07:30:32</time>
      </trkpt>
      <trkpt lat="47.93582" lon="2.11123">
        <ele>124.2</ele>
        <time>2021-07-11T07:30:33</time>
      </trkpt>
      <trkpt lat="47.93585" lon="2.11123">
        <ele>124.4</ele>
        <time>2021-07-11T07:30:34</time>
      </trkpt>
      <trkpt lat="47.9359" lon="2.11123">
        <ele>124.4</ele>
        <time>2021-07-11T07:30:35</time>
      </trkpt>
      <trkpt lat="47.93594" lon="2.11123">
        <ele>124.6</ele>
        <time>2021-07-11T07:30:36</time>
      </trkpt>
      <trkpt lat="47.93598" lon="2.11122">
        <ele>124.6</ele>
        <time>2021-07-11T07:30:37</time>
      </trkpt>
      <trkpt lat="47.93603" lon="2.1112">
        <ele>124.6</ele>
        <time>2021-07-11T07:30:38</time>
      </trkpt>
      <trkpt lat="47.93608" lon="2.11119">
        <ele>124.6</ele>
        <time>2021-07-11T07:30:39</time>
      </trkpt>
      <trkpt lat="47.93613" lon="2.11116">
        <ele>124.6</ele>
        <time>2021-07-11T07:30:40</time>
      </trkpt>
      <trkpt lat="47.93618" lon="2.11115">
        <ele>124.6</ele>
        <time>2021-07-11T07:30:41</time>
      </trkpt>
      <trkpt lat="47.93624" lon="2.11114">
        <ele>124.6</ele>
        <time>2021-07-11T07:30:42</time>
      </trkpt>
      <trkpt lat="47.93629" lon="2.11112">
        <ele>124.6</ele>
        <time>2021-07-11T07:30:43</time>
      </trkpt>
      <trkpt lat="47.93634" lon="2.11111">
        <ele>124.4</ele>
        <time>2021-07-11T07:30:44</time>
      </trkpt>
      <trkpt lat="47.93639" lon="2.11109">
        <ele>124.4</ele>
        <time>2021-07-11T07:30:45</time>
      </trkpt>
      <trkpt lat="47.93644" lon="2.11108">
        <ele>124.2</ele>
        <time>2021-07-11T07:30:46</time>
      </trkpt>
      <trkpt lat="47.9365" lon="2.11105">
        <ele>124.2</ele>
        <time>2021-07-11T07:30:47</time>
      </trkpt>
      <trkpt lat="47.93655" lon="2.11104">
        <ele>124.2</ele>
        <time>2021-07-11T07:30:48</time>
      </trkpt>
      <trkpt lat="47.93661" lon="2.11102">
        <ele>124</ele>
        <time>2021-07-11T07:30:49</time>
      </trkpt>
      <trkpt lat="47.93667" lon="2.11101">
        <ele>124</ele>
        <time>2021-07-11T07:30:50</time>
      </trkpt>
      <trkpt lat="47.93673" lon="2.11101">
        <ele>124</ele>
        <time>2021-07-11T07:30:51</time>
      </trkpt>
      <trkpt lat="47.93679" lon="2.11101">
        <ele>124</ele>
        <time>2021-07-11T07:30:52</time>
      </trkpt>
      <trkpt lat="47.93684" lon="2.11101">
        <ele>124</ele>
        <time>2021-07-11T07:30:53</time>
      </trkpt>
      <trkpt lat="47.93691" lon="2.11101">
        <ele>124</ele>
        <time>2021-07-11T07:30:54</time>
      </trkpt>
      <trkpt lat="47.93697" lon="2.11101">
        <ele>124.2</ele>
        <time>2021-07-11T07:30:55</time>
      </trkpt>
      <trkpt lat="47.93702" lon="2.11102">
        <ele>124.2</ele>
        <time>2021-07-11T07:30:56</time>
      </trkpt>
      <trkpt lat="47.93708" lon="2.11101">
        <ele>124.2</ele>
        <time>2021-07-11T07:30:57</time>
      </trkpt>
      <trkpt lat="47.93714" lon="2.11101">
        <ele>124.4</ele>
        <time>2021-07-11T07:30:58</time>
      </trkpt>
      <trkpt lat="47.9372" lon="2.111">
        <ele>124.4</ele>
        <time>2021-07-11T07:30:59</time>
      </trkpt>
      <trkpt lat="47.93726" lon="2.11099">
        <ele>124.4</ele>
        <time>2021-07-11T07:31:00</time>
      </trkpt>
      <trkpt lat="47.93732" lon="2.11098">
        <ele>124.6</ele>
        <time>2021-07-11T07:31:01</time>
      </trkpt>
      <trkpt lat="47.93738" lon="2.11097">
        <ele>124.6</ele>
        <time>2021-07-11T07:31:02</time>
      </trkpt>
      <trkpt lat="47.93744" lon="2.11097">
        <ele>124.6</ele>
        <time>2021-07-11T07:31:03</time>
      </trkpt>
      <trkpt lat="47.93749" lon="2.11096">
        <ele>124.6</ele>
        <time>2021-07-11T07:31:04</time>
      </trkpt>
      <trkpt lat="47.93754" lon="2.11096">
        <ele>124.8</ele>
        <time>2021-07-11T07:31:05</time>
      </trkpt>
      <trkpt lat="47.9376" lon="2.11094">
        <ele>124.8</ele>
        <time>2021-07-11T07:31:06</time>
      </trkpt>
      <trkpt lat="47.93765" lon="2.11093">
        <ele>124.8</ele>
        <time>2021-07-11T07:31:07</time>
      </trkpt>
      <trkpt lat="47.93771" lon="2.11093">
        <ele>125</ele>
        <time>2021-07-11T07:31:08</time>
      </trkpt>
      <trkpt lat="47.93777" lon="2.11093">
        <ele>125</ele>
        <time>2021-07-11T07:31:09</time>
      </trkpt>
      <trkpt lat="47.93783" lon="2.11093">
        <ele>125</ele>
        <time>2021-07-11T07:31:10</time>
      </trkpt>
      <trkpt lat="47.93789" lon="2.11093">
        <ele>125</ele>
        <time>2021-07-11T07:31:11</time>
      </trkpt>
      <trkpt lat="47.93794" lon="2.11093">
        <ele>125</ele>
        <time>2021-07-11T07:31:12</time>
      </trkpt>
      <trkpt lat="47.938" lon="2.11093">
        <ele>125</ele>
        <time>2021-07-11T07:31:13</time>
      </trkpt>
      <trkpt lat="47.93805" lon="2.11093">
        <ele>124.8</ele>
        <time>2021-07-11T07:31:14</time>
      </trkpt>
      <trkpt lat="47.93811" lon="2.11093">
        <ele>124.6</ele>
        <time>2021-07-11T07:31:15</time>
      </trkpt>
      <trkpt lat="47.93816" lon="2.11093">
        <ele>124.4</ele>
        <time>2021-07-11T07:31:16</time>
      </trkpt>
      <trkpt lat="47.93821" lon="2.11093">
        <ele>124</ele>
        <time>2021-07-11T07:31:17</time>
      </trkpt>
      <trkpt lat="47.93827" lon="2.11092">
        <ele>124</ele>
        <time>2021-07-11T07:31:18</time>
      </trkpt>
      <trkpt lat="47.93834" lon="2.11092">
        <ele>123.6</ele>
        <time>2021-07-11T07:31:19</time>
      </trkpt>
      <trkpt lat="47.93841" lon="2.11092">
        <ele>123.4</ele>
        <time>2021-07-11T07:31:20</time>
      </trkpt>
      <trkpt lat="47.93847" lon="2.11091">
        <ele>123.4</ele>
        <time>2021-07-11T07:31:21</time>
      </trkpt>
      <trkpt lat="47.93853" lon="2.1109">
        <ele>123.2</ele>
        <time>2021-07-11T07:31:22</time>
      </trkpt>
      <trkpt lat="47.93859" lon="2.11088">
        <ele>123</ele>
        <time>2021-07-11T07:31:23</time>
      </trkpt>
      <trkpt lat="47.93866" lon="2.11086">
        <ele>122.8</ele>
        <time>2021-07-11T07:31:24</time>
      </trkpt>
      <trkpt lat="47.93872" lon="2.11086">
        <ele>122.6</ele>
        <time>2021-07-11T07:31:25</time>
      </trkpt>
      <trkpt lat="47.93878" lon="2.11085">
        <ele>122.4</ele>
        <time>2021-07-11T07:31:26</time>
      </trkpt>
      <trkpt lat="47.93884" lon="2.11083">
        <ele>122.2</ele>
        <time>2021-07-11T07:31:27</time>
      </trkpt>
      <trkpt lat="47.93888" lon="2.11081">
        <ele>122.2</ele>
        <time>2021-07-11T07:31:28</time>
      </trkpt>
      <trkpt lat="47.93892" lon="2.11079">
        <ele>122</ele>
        <time>2021-07-11T07:31:29</time>
      </trkpt>
      <trkpt lat="47.93897" lon="2.11077">
        <ele>122</ele>
        <time>2021-07-11T07:31:30</time>
      </trkpt>
      <trkpt lat="47.93901" lon="2.11076">
        <ele>122</ele>
        <time>2021-07-11T07:31:31</time>
      </trkpt>
      <trkpt lat="47.93905" lon="2.11075">
        <ele>121.8</ele>
        <time>2021-07-11T07:31:32</time>
      </trkpt>
      <trkpt lat="47.93909" lon="2.11077">
        <ele>121.8</ele>
        <time>2021-07-11T07:31:33</time>
      </trkpt>
      <trkpt lat="47.93915" lon="2.11077">
        <ele>121.8</ele>
        <time>2021-07-11T07:31:34</time>
      </trkpt>
      <trkpt lat="47.9392" lon="2.11076">
        <ele>121.8</ele>
        <time>2021-07-11T07:31:35</time>
      </trkpt>
      <trkpt lat="47.93925" lon="2.11076">
        <ele>121.8</ele>
        <time>2021-07-11T07:31:36</time>
      </trkpt>
      <trkpt lat="47.9393" lon="2.11076">
        <ele>121.6</ele>
        <time>2021-07-11T07:31:37</time>
      </trkpt>
      <trkpt lat="47.93935" lon="2.11076">
        <ele>121.6</ele>
        <time>2021-07-11T07:31:38</time>
      </trkpt>
      <trkpt lat="47.93938" lon="2.11075">
        <ele>121.6</ele>
        <time>2021-07-11T07:31:39</time>
      </trkpt>
      <trkpt lat="47.93943" lon="2.11074">
        <ele>121.6</ele>
        <time>2021-07-11T07:31:40</time>
      </trkpt>
      <trkpt lat="47.93947" lon="2.11074">
        <ele>121.6</ele>
        <time>2021-07-11T07:31:41</time>
      </trkpt>
      <trkpt lat="47.9395" lon="2.11074">
        <ele>121.6</ele>
        <time>2021-07-11T07:31:42</time>
      </trkpt>
      <trkpt lat="47.93954" lon="2.11073">
        <ele>121.6</ele>
        <time>2021-07-11T07:31:43</time>
      </trkpt>
      <trkpt lat="47.93957" lon="2.11073">
        <ele>121.6</ele>
        <time>2021-07-11T07:31:44</time>
      </trkpt>
      <trkpt lat="47.93961" lon="2.11073">
        <ele>121.8</ele>
        <time>2021-07-11T07:31:45</time>
      </trkpt>
      <trkpt lat="47.93964" lon="2.11073">
        <ele>121.6</ele>
        <time>2021-07-11T07:31:46</time>
      </trkpt>
      <trkpt lat="47.93967" lon="2.11072">
        <ele>121.6</ele>
        <time>2021-07-11T07:31:47</time>
      </trkpt>
      <trkpt lat="47.9397" lon="2.11072">
        <ele>121.4</ele>
        <time>2021-07-11T07:31:48</time>
      </trkpt>
      <trkpt lat="47.93973" lon="2.11072">
        <ele>121.4</ele>
        <time>2021-07-11T07:31:49</time>
      </trkpt>
      <trkpt lat="47.93974" lon="2.11071">
        <ele>121.6</ele>
        <time>2021-07-11T07:31:50</time>
      </trkpt>
      <trkpt lat="47.93975" lon="2.11071">
        <ele>121.6</ele>
        <time>2021-07-11T07:31:51</time>
      </trkpt>
      <trkpt lat="47.93976" lon="2.11071">
        <ele>121.6</ele>
        <time>2021-07-11T07:31:52</time>
      </trkpt>
      <trkpt lat="47.93977" lon="2.11072">
        <ele>121.6</ele>
        <time>2021-07-11T07:31:53</time>
      </trkpt>
      <trkpt lat="47.93978" lon="2.11072">
        <ele>121.6</ele>
        <time>2021-07-11T07:31:54</time>
      </trkpt>
      <trkpt lat="47.9398" lon="2.11072">
        <ele>121.8</ele>
        <time>2021-07-11T07:31:55</time>
      </trkpt>
      <trkpt lat="47.93981" lon="2.11072">
        <ele>121.8</ele>
        <time>2021-07-11T07:31:56</time>
      </trkpt>
      <trkpt lat="47.93982" lon="2.11072">
        <ele>121.8</ele>
        <time>2021-07-11T07:31:57</time>
      </trkpt>
      <trkpt lat="47.93983" lon="2.11071">
        <ele>121.8</ele>
        <time>2021-07-11T07:31:58</time>
      </trkpt>
      <trkpt lat="47.9401" lon="2.11067">
        <ele>121.8</ele>
        <time>2021-07-11T07:32:19</time>
      </trkpt>
      <trkpt lat="47.94011" lon="2.11067">
        <ele>121.6</ele>
        <time>2021-07-11T07:32:20</time>
      </trkpt>
      <trkpt lat="47.94012" lon="2.11067">
        <ele>121.6</ele>
        <time>2021-07-11T07:32:21</time>
      </trkpt>
      <trkpt lat="47.94012" lon="2.11067">
        <ele>121.6</ele>
        <time>2021-07-11T07:32:22</time>
      </trkpt>
      <trkpt lat="47.94013" lon="2.11067">
        <ele>121.6</ele>
        <time>2021-07-11T07:32:23</time>
      </trkpt>
      <trkpt lat="47.94013" lon="2.11067">
        <ele>121.8</ele>
        <time>2021-07-11T07:32:24</time>
      </trkpt>
      <trkpt lat="47.94014" lon="2.11067">
        <ele>121.8</ele>
        <time>2021-07-11T07:32:25</time>
      </trkpt>
      <trkpt lat="47.94015" lon="2.11067">
        <ele>121.8</ele>
        <time>2021-07-11T07:32:26</time>
      </trkpt>
      <trkpt lat="47.94016" lon="2.11067">
        <ele>122</ele>
        <time>2021-07-11T07:32:27</time>
      </trkpt>
      <trkpt lat="47.9404" lon="2.11065">
        <ele>122</ele>
        <time>2021-07-11T07:32:53</time>
      </trkpt>
      <trkpt lat="47.94041" lon="2.11065">
        <ele>122</ele>
        <time>2021-07-11T07:32:54</time>
      </trkpt>
      <trkpt lat="47.94042" lon="2.11065">
        <ele>122</ele>
        <time>2021-07-11T07:32:55</time>
      </trkpt>
      <trkpt lat="47.94043" lon="2.11064">
        <ele>122</ele>
        <time>2021-07-11T07:32:56</time>
      </trkpt>
      <trkpt lat="47.94045" lon="2.11064">
        <ele>121.8</ele>
        <time>2021-07-11T07:32:57</time>
      </trkpt>
      <trkpt lat="47.94046" lon="2.11064">
        <ele>121.8</ele>
        <time>2021-07-11T07:32:58</time>
      </trkpt>
      <trkpt lat="47.94046" lon="2.11064">
        <ele>121.8</ele>
        <time>2021-07-11T07:32:59</time>
      </trkpt>
      <trkpt lat="47.94048" lon="2.11063">
        <ele>121.8</ele>
        <time>2021-07-11T07:33:00</time>
      </trkpt>
      <trkpt lat="47.94049" lon="2.11063">
        <ele>121.8</ele>
        <time>2021-07-11T07:33:01</time>
      </trkpt>
      <trkpt lat="47.94049" lon="2.11063">
        <ele>121.8</ele>
        <time>2021-07-11T07:33:02</time>
      </trkpt>
      <trkpt lat="47.94097" lon="2.11059">
        <ele>122.2</ele>
        <time>2021-07-11T07:33:42</time>
      </trkpt>
      <trkpt lat="47.941" lon="2.11059">
        <ele>122.2</ele>
        <time>2021-07-11T07:33:43</time>
      </trkpt>
      <trkpt lat="47.94102" lon="2.11059">
        <ele>122.2</ele>
        <time>2021-07-11T07:33:44</time>
      </trkpt>
      <trkpt lat="47.94105" lon="2.11059">
        <ele>122.2</ele>
        <time>2021-07-11T07:33:45</time>
      </trkpt>
      <trkpt lat="47.94107" lon="2.11059">
        <ele>122.2</ele>
        <time>2021-07-11T07:33:46</time>
      </trkpt>
      <trkpt lat="47.9411" lon="2.11058">
        <ele>122.2</ele>
        <time>2021-07-11T07:33:47</time>
      </trkpt>
      <trkpt lat="47.94112" lon="2.11057">
        <ele>122.2</ele>
        <time>2021-07-11T07:33:48</time>
      </trkpt>
      <trkpt lat="47.94114" lon="2.11055">
        <ele>122.2</ele>
        <time>2021-07-11T07:33:49</time>
      </trkpt>
      <trkpt lat="47.94117" lon="2.11054">
        <ele>122.2</ele>
        <time>2021-07-11T07:33:50</time>
      </trkpt>
      <trkpt lat="47.9412" lon="2.11054">
        <ele>122.2</ele>
        <time>2021-07-11T07:33:51</time>
      </trkpt>
      <trkpt lat="47.94124" lon="2.11054">
        <ele>122.2</ele>
        <time>2021-07-11T07:33:52</time>
      </trkpt>
      <trkpt lat="47.94127" lon="2.11055">
        <ele>122.2</ele>
        <time>2021-07-11T07:33:53</time>
      </trkpt>
      <trkpt lat="47.94131" lon="2.11054">
        <ele>122.2</ele>
        <time>2021-07-11T07:33:54</time>
      </trkpt>
      <trkpt lat="47.94134" lon="2.11054">
        <ele>122</ele>
        <time>2021-07-11T07:33:55</time>
      </trkpt>
      <trkpt lat="47.94137" lon="2.11054">
        <ele>122.2</ele>
        <time>2021-07-11T07:33:56</time>
      </trkpt>
      <trkpt lat="47.9414" lon="2.11055">
        <ele>122.2</ele>
        <time>2021-07-11T07:33:57</time>
      </trkpt>
      <trkpt lat="47.94143" lon="2.11054">
        <ele>122.2</ele>
        <time>2021-07-11T07:33:58</time>
      </trkpt>
      <trkpt lat="47.94146" lon="2.11054">
        <ele>122.2</ele>
        <time>2021-07-11T07:33:59</time>
      </trkpt>
      <trkpt lat="47.94149" lon="2.11055">
        <ele>122.2</ele>
        <time>2021-07-11T07:34:00</time>
      </trkpt>
      <trkpt lat="47.94152" lon="2.11055">
        <ele>122.2</ele>
        <time>2021-07-11T07:34:01</time>
      </trkpt>
      <trkpt lat="47.94156" lon="2.11056">
        <ele>122</ele>
        <time>2021-07-11T07:34:02</time>
      </trkpt>
      <trkpt lat="47.94158" lon="2.11056">
        <ele>122</ele>
        <time>2021-07-11T07:34:03</time>
      </trkpt>
      <trkpt lat="47.9416" lon="2.11057">
        <ele>122</ele>
        <time>2021-07-11T07:34:04</time>
      </trkpt>
      <trkpt lat="47.94162" lon="2.11056">
        <ele>122.2</ele>
        <time>2021-07-11T07:34:05</time>
      </trkpt>
      <trkpt lat="47.94165" lon="2.11056">
        <ele>122.2</ele>
        <time>2021-07-11T07:34:06</time>
      </trkpt>
      <trkpt lat="47.94168" lon="2.11055">
        <ele>122.2</ele>
        <time>2021-07-11T07:34:07</time>
      </trkpt>
      <trkpt lat="47.94171" lon="2.11055">
        <ele>122.2</ele>
        <time>2021-07-11T07:34:08</time>
      </trkpt>
      <trkpt lat="47.94174" lon="2.11054">
        <ele>122.2</ele>
        <time>2021-07-11T07:34:09</time>
      </trkpt>
      <trkpt lat="47.94178" lon="2.11054">
        <ele>122.2</ele>
        <time>2021-07-11T07:34:10</time>
      </trkpt>
      <trkpt lat="47.94181" lon="2.11053">
        <ele>122.2</ele>
        <time>2021-07-11T07:34:11</time>
      </trkpt>
      <trkpt lat="47.94184" lon="2.11053">
        <ele>122.4</ele>
        <time>2021-07-11T07:34:12</time>
      </trkpt>
      <trkpt lat="47.94188" lon="2.11053">
        <ele>122.2</ele>
        <time>2021-07-11T07:34:13</time>
      </trkpt>
      <trkpt lat="47.94191" lon="2.11053">
        <ele>122.2</ele>
        <time>2021-07-11T07:34:14</time>
      </trkpt>
      <trkpt lat="47.94195" lon="2.11052">
        <ele>122.2</ele>
        <time>2021-07-11T07:34:15</time>
      </trkpt>
      <trkpt lat="47.94197" lon="2.11052">
        <ele>122.2</ele>
        <time>2021-07-11T07:34:16</time>
      </trkpt>
      <trkpt lat="47.942" lon="2.11051">
        <ele>122.4</ele>
        <time>2021-07-11T07:34:17</time>
      </trkpt>
      <trkpt lat="47.94203" lon="2.11051">
        <ele>122.4</ele>
        <time>2021-07-11T07:34:18</time>
      </trkpt>
      <trkpt lat="47.94206" lon="2.11051">
        <ele>122.4</ele>
        <time>2021-07-11T07:34:19</time>
      </trkpt>
      <trkpt lat="47.94209" lon="2.11051">
        <ele>122.4</ele>
        <time>2021-07-11T07:34:20</time>
      </trkpt>
      <trkpt lat="47.94213" lon="2.1105">
        <ele>122.4</ele>
        <time>2021-07-11T07:34:21</time>
      </trkpt>
      <trkpt lat="47.94216" lon="2.1105">
        <ele>122.6</ele>
        <time>2021-07-11T07:34:22</time>
      </trkpt>
      <trkpt lat="47.9422" lon="2.1105">
        <ele>122.6</ele>
        <time>2021-07-11T07:34:23</time>
      </trkpt>
      <trkpt lat="47.94224" lon="2.11049">
        <ele>122.6</ele>
        <time>2021-07-11T07:34:24</time>
      </trkpt>
      <trkpt lat="47.94227" lon="2.11049">
        <ele>122.6</ele>
        <time>2021-07-11T07:34:25</time>
      </trkpt>
      <trkpt lat="47.9423" lon="2.11048">
        <ele>122.6</ele>
        <time>2021-07-11T07:34:26</time>
      </trkpt>
      <trkpt lat="47.94233" lon="2.11048">
        <ele>122.6</ele>
        <time>2021-07-11T07:34:27</time>
      </trkpt>
      <trkpt lat="47.94236" lon="2.11047">
        <ele>122.8</ele>
        <time>2021-07-11T07:34:28</time>
      </trkpt>
      <trkpt lat="47.94238" lon="2.11046">
        <ele>122.8</ele>
        <time>2021-07-11T07:34:29</time>
      </trkpt>
      <trkpt lat="47.9424" lon="2.11046">
        <ele>122.8</ele>
        <time>2021-07-11T07:34:30</time>
      </trkpt>
      <trkpt lat="47.94244" lon="2.11045">
        <ele>122.6</ele>
        <time>2021-07-11T07:34:31</time>
      </trkpt>
      <trkpt lat="47.94246" lon="2.11043">
        <ele>122.6</ele>
        <time>2021-07-11T07:34:32</time>
      </trkpt>
      <trkpt lat="47.94249" lon="2.11043">
        <ele>122.6</ele>
        <time>2021-07-11T07:34:33</time>
      </trkpt>
      <trkpt lat="47.94251" lon="2.11042">
        <ele>122.6</ele>
        <time>2021-07-11T07:34:34</time>
      </trkpt>
      <trkpt lat="47.94255" lon="2.11041">
        <ele>122.6</ele>
        <time>2021-07-11T07:34:35</time>
      </trkpt>
      <trkpt lat="47.94258" lon="2.11042">
        <ele>122.8</ele>
        <time>2021-07-11T07:34:36</time>
      </trkpt>
      <trkpt lat="47.94261" lon="2.11043">
        <ele>122.8</ele>
        <time>2021-07-11T07:34:37</time>
      </trkpt>
      <trkpt lat="47.94265" lon="2.11043">
        <ele>122.8</ele>
        <time>2021-07-11T07:34:38</time>
      </trkpt>
      <trkpt lat="47.94269" lon="2.11043">
        <ele>122.8</ele>
        <time>2021-07-11T07:34:39</time>
      </trkpt>
      <trkpt lat="47.94272" lon="2.11043">
        <ele>123</ele>
        <time>2021-07-11T07:34:40</time>
      </trkpt>
      <trkpt lat="47.94276" lon="2.11044">
        <ele>123.2</ele>
        <time>2021-07-11T07:34:41</time>
      </trkpt>
      <trkpt lat="47.9428" lon="2.11044">
        <ele>123.2</ele>
        <time>2021-07-11T07:34:42</time>
      </trkpt>
      <trkpt lat="47.94283" lon="2.11045">
        <ele>123.4</ele>
        <time>2021-07-11T07:34:43</time>
      </trkpt>
      <trkpt lat="47.94288" lon="2.11045">
        <ele>123.4</ele>
        <time>2021-07-11T07:34:44</time>
      </trkpt>
      <trkpt lat="47.94293" lon="2.11044">
        <ele>123.4</ele>
        <time>2021-07-11T07:34:45</time>
      </trkpt>
      <trkpt lat="47.94298" lon="2.11044">
        <ele>123.6</ele>
        <time>2021-07-11T07:34:46</time>
      </trkpt>
      <trkpt lat="47.94302" lon="2.11043">
        <ele>123.6</ele>
        <time>2021-07-11T07:34:47</time>
      </trkpt>
      <trkpt lat="47.94307" lon="2.11043">
        <ele>123.8</ele>
        <time>2021-07-11T07:34:48</time>
      </trkpt>
      <trkpt lat="47.94311" lon="2.11043">
        <ele>123.8</ele>
        <time>2021-07-11T07:34:49</time>
      </trkpt>
      <trkpt lat="47.94315" lon="2.11043">
        <ele>124</ele>
        <time>2021-07-11T07:34:50</time>
      </trkpt>
      <trkpt lat="47.94319" lon="2.11043">
        <ele>124</ele>
        <time>2021-07-11T07:34:51</time>
      </trkpt>
      <trkpt lat="47.94324" lon="2.11043">
        <ele>124</ele>
        <time>2021-07-11T07:34:52</time>
      </trkpt>
      <trkpt lat="47.94328" lon="2.11043">
        <ele>124.2</ele>
        <time>2021-07-11T07:34:53</time>
      </trkpt>
      <trkpt lat="47.94332" lon="2.11042">
        <ele>124.2</ele>
        <time>2021-07-11T07:34:54</time>
      </trkpt>
      <trkpt lat="47.94336" lon="2.11042">
        <ele>124.4</ele>
        <time>2021-07-11T07:34:55</time>
      </trkpt>
      <trkpt lat="47.94341" lon="2.11042">
        <ele>124.6</ele>
        <time>2021-07-11T07:34:56</time>
      </trkpt>
      <trkpt lat="47.94346" lon="2.1104">
        <ele>124.6</ele>
        <time>2021-07-11T07:34:57</time>
      </trkpt>
      <trkpt lat="47.94351" lon="2.1104">
        <ele>124.6</ele>
        <time>2021-07-11T07:34:58</time>
      </trkpt>
      <trkpt lat="47.94356" lon="2.11039">
        <ele>124.8</ele>
        <time>2021-07-11T07:34:59</time>
      </trkpt>
      <trkpt lat="47.9436" lon="2.11039">
        <ele>124.8</ele>
        <time>2021-07-11T07:35:00</time>
      </trkpt>
      <trkpt lat="47.94365" lon="2.11039">
        <ele>125</ele>
        <time>2021-07-11T07:35:01</time>
      </trkpt>
      <trkpt lat="47.94369" lon="2.11038">
        <ele>125</ele>
        <time>2021-07-11T07:35:02</time>
      </trkpt>
      <trkpt lat="47.94374" lon="2.11037">
        <ele>125</ele>
        <time>2021-07-11T07:35:03</time>
      </trkpt>
      <trkpt lat="47.94379" lon="2.11036">
        <ele>125.2</ele>
        <time>2021-07-11T07:35:04</time>
      </trkpt>
      <trkpt lat="47.94383" lon="2.11035">
        <ele>125.2</ele>
        <time>2021-07-11T07:35:05</time>
      </trkpt>
      <trkpt lat="47.94387" lon="2.11034">
        <ele>125.4</ele>
        <time>2021-07-11T07:35:06</time>
      </trkpt>
      <trkpt lat="47.94391" lon="2.11033">
        <ele>125.6</ele>
        <time>2021-07-11T07:35:07</time>
      </trkpt>
      <trkpt lat="47.94396" lon="2.11032">
        <ele>125.8</ele>
        <time>2021-07-11T07:35:08</time>
      </trkpt>
      <trkpt lat="47.94401" lon="2.1103">
        <ele>126</ele>
        <time>2021-07-11T07:35:09</time>
      </trkpt>
      <trkpt lat="47.94406" lon="2.1103">
        <ele>126</ele>
        <time>2021-07-11T07:35:10</time>
      </trkpt>
      <trkpt lat="47.9441" lon="2.1103">
        <ele>126.2</ele>
        <time>2021-07-11T07:35:11</time>
      </trkpt>
      <trkpt lat="47.94415" lon="2.11029">
        <ele>126.2</ele>
        <time>2021-07-11T07:35:12</time>
      </trkpt>
      <trkpt lat="47.94419" lon="2.11028">
        <ele>126.4</ele>
        <time>2021-07-11T07:35:13</time>
      </trkpt>
      <trkpt lat="47.94424" lon="2.11027">
        <ele>126.4</ele>
        <time>2021-07-11T07:35:14</time>
      </trkpt>
      <trkpt lat="47.9443" lon="2.11027">
        <ele>126.4</ele>
        <time>2021-07-11T07:35:15</time>
      </trkpt>
      <trkpt lat="47.94434" lon="2.11026">
        <ele>126.6</ele>
        <time>2021-07-11T07:35:16</time>
      </trkpt>
      <trkpt lat="47.94439" lon="2.11025">
        <ele>126.8</ele>
        <time>2021-07-11T07:35:17</time>
      </trkpt>
      <trkpt lat="47.94444" lon="2.11025">
        <ele>126.6</ele>
        <time>2021-07-11T07:35:18</time>
      </trkpt>
      <trkpt lat="47.94449" lon="2.11024">
        <ele>126.6</ele>
        <time>2021-07-11T07:35:19</time>
      </trkpt>
      <trkpt lat="47.94453" lon="2.11024">
        <ele>126.8</ele>
        <time>2021-07-11T07:35:20</time>
      </trkpt>
      <trkpt lat="47.94458" lon="2.11024">
        <ele>126.8</ele>
        <time>2021-07-11T07:35:21</time>
      </trkpt>
      <trkpt lat="47.94463" lon="2.11024">
        <ele>126.8</ele>
        <time>2021-07-11T07:35:22</time>
      </trkpt>
      <trkpt lat="47.94467" lon="2.11024">
        <ele>126.8</ele>
        <time>2021-07-11T07:35:23</time>
      </trkpt>
      <trkpt lat="47.94471" lon="2.11024">
        <ele>126.8</ele>
        <time>2021-07-11T07:35:24</time>
      </trkpt>
      <trkpt lat="47.94476" lon="2.11023">
        <ele>126.8</ele>
        <time>2021-07-11T07:35:25</time>
      </trkpt>
      <trkpt lat="47.94482" lon="2.11023">
        <ele>126.6</ele>
        <time>2021-07-11T07:35:26</time>
      </trkpt>
      <trkpt lat="47.94487" lon="2.11022">
        <ele>126.6</ele>
        <time>2021-07-11T07:35:27</time>
      </trkpt>
      <trkpt lat="47.94492" lon="2.11021">
        <ele>126.6</ele>
        <time>2021-07-11T07:35:28</time>
      </trkpt>
      <trkpt lat="47.94497" lon="2.11021">
        <ele>126.4</ele>
        <time>2021-07-11T07:35:29</time>
      </trkpt>
      <trkpt lat="47.94503" lon="2.1102">
        <ele>126.2</ele>
        <time>2021-07-11T07:35:30</time>
      </trkpt>
      <trkpt lat="47.94509" lon="2.1102">
        <ele>126.2</ele>
        <time>2021-07-11T07:35:31</time>
      </trkpt>
      <trkpt lat="47.94514" lon="2.1102">
        <ele>126</ele>
        <time>2021-07-11T07:35:32</time>
      </trkpt>
      <trkpt lat="47.94519" lon="2.1102">
        <ele>125.8</ele>
        <time>2021-07-11T07:35:33</time>
      </trkpt>
      <trkpt lat="47.94524" lon="2.11019">
        <ele>125.6</ele>
        <time>2021-07-11T07:35:34</time>
      </trkpt>
      <trkpt lat="47.94529" lon="2.11017">
        <ele>125.6</ele>
        <time>2021-07-11T07:35:35</time>
      </trkpt>
      <trkpt lat="47.94535" lon="2.11015">
        <ele>125.4</ele>
        <time>2021-07-11T07:35:36</time>
      </trkpt>
      <trkpt lat="47.94541" lon="2.11014">
        <ele>125.2</ele>
        <time>2021-07-11T07:35:37</time>
      </trkpt>
      <trkpt lat="47.94546" lon="2.11014">
        <ele>125.2</ele>
        <time>2021-07-11T07:35:38</time>
      </trkpt>
      <trkpt lat="47.94551" lon="2.11014">
        <ele>125</ele>
        <time>2021-07-11T07:35:39</time>
      </trkpt>
      <trkpt lat="47.94556" lon="2.11013">
        <ele>124.8</ele>
        <time>2021-07-11T07:35:40</time>
      </trkpt>
      <trkpt lat="47.94562" lon="2.11014">
        <ele>124.8</ele>
        <time>2021-07-11T07:35:41</time>
      </trkpt>
      <trkpt lat="47.94568" lon="2.11014">
        <ele>124.8</ele>
        <time>2021-07-11T07:35:42</time>
      </trkpt>
      <trkpt lat="47.94574" lon="2.11014">
        <ele>124.6</ele>
        <time>2021-07-11T07:35:43</time>
      </trkpt>
      <trkpt lat="47.94579" lon="2.11013">
        <ele>124.6</ele>
        <time>2021-07-11T07:35:44</time>
      </trkpt>
      <trkpt lat="47.94584" lon="2.11012">
        <ele>124.4</ele>
        <time>2021-07-11T07:35:45</time>
      </trkpt>
      <trkpt lat="47.94589" lon="2.1101">
        <ele>124.4</ele>
        <time>2021-07-11T07:35:46</time>
      </trkpt>
      <trkpt lat="47.94594" lon="2.11009">
        <ele>124.2</ele>
        <time>2021-07-11T07:35:47</time>
      </trkpt>
      <trkpt lat="47.94599" lon="2.11008">
        <ele>124.2</ele>
        <time>2021-07-11T07:35:48</time>
      </trkpt>
      <trkpt lat="47.94604" lon="2.11007">
        <ele>124.4</ele>
        <time>2021-07-11T07:35:49</time>
      </trkpt>
      <trkpt lat="47.94608" lon="2.11007">
        <ele>124.2</ele>
        <time>2021-07-11T07:35:50</time>
      </trkpt>
      <trkpt lat="47.94611" lon="2.11007">
        <ele>124.2</ele>
        <time>2021-07-11T07:35:51</time>
      </trkpt>
      <trkpt lat="47.94614" lon="2.11006">
        <ele>124.2</ele>
        <time>2021-07-11T07:35:52</time>
      </trkpt>
      <trkpt lat="47.94616" lon="2.11008">
        <ele>124.2</ele>
        <time>2021-07-11T07:35:53</time>
      </trkpt>
      <trkpt lat="47.94618" lon="2.11008">
        <ele>124.2</ele>
        <time>2021-07-11T07:35:54</time>
      </trkpt>
      <trkpt lat="47.9462" lon="2.11008">
        <ele>124.2</ele>
        <time>2021-07-11T07:35:55</time>
      </trkpt>
      <trkpt lat="47.94622" lon="2.11009">
        <ele>124.2</ele>
        <time>2021-07-11T07:35:56</time>
      </trkpt>
      <trkpt lat="47.94624" lon="2.1101">
        <ele>124.2</ele>
        <time>2021-07-11T07:35:57</time>
      </trkpt>
      <trkpt lat="47.94627" lon="2.1101">
        <ele>124.2</ele>
        <time>2021-07-11T07:35:58</time>
      </trkpt>
      <trkpt lat="47.9463" lon="2.1101">
        <ele>124.2</ele>
        <time>2021-07-11T07:35:59</time>
      </trkpt>
      <trkpt lat="47.94634" lon="2.1101">
        <ele>124.2</ele>
        <time>2021-07-11T07:36:00</time>
      </trkpt>
      <trkpt lat="47.94637" lon="2.1101">
        <ele>124.2</ele>
        <time>2021-07-11T07:36:01</time>
      </trkpt>
      <trkpt lat="47.9464" lon="2.1101">
        <ele>124.2</ele>
        <time>2021-07-11T07:36:02</time>
      </trkpt>
      <trkpt lat="47.94643" lon="2.1101">
        <ele>124</ele>
        <time>2021-07-11T07:36:03</time>
      </trkpt>
      <trkpt lat="47.94647" lon="2.1101">
        <ele>124</ele>
        <time>2021-07-11T07:36:04</time>
      </trkpt>
      <trkpt lat="47.94651" lon="2.11009">
        <ele>124</ele>
        <time>2021-07-11T07:36:05</time>
      </trkpt>
      <trkpt lat="47.94653" lon="2.1101">
        <ele>124</ele>
        <time>2021-07-11T07:36:06</time>
      </trkpt>
      <trkpt lat="47.94657" lon="2.1101">
        <ele>124</ele>
        <time>2021-07-11T07:36:07</time>
      </trkpt>
      <trkpt lat="47.94662" lon="2.11008">
        <ele>124.2</ele>
        <time>2021-07-11T07:36:08</time>
      </trkpt>
      <trkpt lat="47.94667" lon="2.11008">
        <ele>124.2</ele>
        <time>2021-07-11T07:36:09</time>
      </trkpt>
      <trkpt lat="47.94671" lon="2.11007">
        <ele>124.2</ele>
        <time>2021-07-11T07:36:10</time>
      </trkpt>
      <trkpt lat="47.94675" lon="2.11007">
        <ele>124.2</ele>
        <time>2021-07-11T07:36:11</time>
      </trkpt>
      <trkpt lat="47.94681" lon="2.11008">
        <ele>124.2</ele>
        <time>2021-07-11T07:36:12</time>
      </trkpt>
      <trkpt lat="47.94686" lon="2.11008">
        <ele>124</ele>
        <time>2021-07-11T07:36:13</time>
      </trkpt>
      <trkpt lat="47.9469" lon="2.11007">
        <ele>124.2</ele>
        <time>2021-07-11T07:36:14</time>
      </trkpt>
      <trkpt lat="47.94694" lon="2.11006">
        <ele>124</ele>
        <time>2021-07-11T07:36:15</time>
      </trkpt>
      <trkpt lat="47.94699" lon="2.11005">
        <ele>124</ele>
        <time>2021-07-11T07:36:16</time>
      </trkpt>
      <trkpt lat="47.94705" lon="2.11004">
        <ele>124</ele>
        <time>2021-07-11T07:36:17</time>
      </trkpt>
      <trkpt lat="47.94709" lon="2.11003">
        <ele>124</ele>
        <time>2021-07-11T07:36:18</time>
      </trkpt>
      <trkpt lat="47.94715" lon="2.11002">
        <ele>123.8</ele>
        <time>2021-07-11T07:36:19</time>
      </trkpt>
      <trkpt lat="47.9472" lon="2.11001">
        <ele>123.8</ele>
        <time>2021-07-11T07:36:20</time>
      </trkpt>
      <trkpt lat="47.94724" lon="2.11001">
        <ele>123.8</ele>
        <time>2021-07-11T07:36:21</time>
      </trkpt>
      <trkpt lat="47.94728" lon="2.11001">
        <ele>123.8</ele>
        <time>2021-07-11T07:36:22</time>
      </trkpt>
      <trkpt lat="47.94733" lon="2.11001">
        <ele>123.6</ele>
        <time>2021-07-11T07:36:23</time>
      </trkpt>
      <trkpt lat="47.94737" lon="2.11001">
        <ele>123.6</ele>
        <time>2021-07-11T07:36:24</time>
      </trkpt>
      <trkpt lat="47.94741" lon="2.11001">
        <ele>123.6</ele>
        <time>2021-07-11T07:36:25</time>
      </trkpt>
      <trkpt lat="47.94746" lon="2.11001">
        <ele>123.6</ele>
        <time>2021-07-11T07:36:26</time>
      </trkpt>
      <trkpt lat="47.94751" lon="2.11001">
        <ele>123.6</ele>
        <time>2021-07-11T07:36:27</time>
      </trkpt>
      <trkpt lat="47.94756" lon="2.11001">
        <ele>123.6</ele>
        <time>2021-07-11T07:36:28</time>
      </trkpt>
      <trkpt lat="47.94761" lon="2.11001">
        <ele>123.6</ele>
        <time>2021-07-11T07:36:29</time>
      </trkpt>
      <trkpt lat="47.94766" lon="2.11">
        <ele>123.6</ele>
        <time>2021-07-11T07:36:30</time>
      </trkpt>
      <trkpt lat="47.94772" lon="2.10998">
        <ele>123.6</ele>
        <time>2021-07-11T07:36:31</time>
      </trkpt>
      <trkpt lat="47.94777" lon="2.10996">
        <ele>123.6</ele>
        <time>2021-07-11T07:36:32</time>
      </trkpt>
      <trkpt lat="47.94781" lon="2.10995">
        <ele>123.6</ele>
        <time>2021-07-11T07:36:33</time>
      </trkpt>
      <trkpt lat="47.94784" lon="2.10994">
        <ele>123.6</ele>
        <time>2021-07-11T07:36:34</time>
      </trkpt>
      <trkpt lat="47.94789" lon="2.10992">
        <ele>123.6</ele>
        <time>2021-07-11T07:36:35</time>
      </trkpt>
      <trkpt lat="47.94793" lon="2.10992">
        <ele>123.6</ele>
        <time>2021-07-11T07:36:36</time>
      </trkpt>
      <trkpt lat="47.94797" lon="2.10991">
        <ele>123.6</ele>
        <time>2021-07-11T07:36:37</time>
      </trkpt>
      <trkpt lat="47.94801" lon="2.1099">
        <ele>123.8</ele>
        <time>2021-07-11T07:36:38</time>
      </trkpt>
      <trkpt lat="47.94805" lon="2.10989">
        <ele>124</ele>
        <time>2021-07-11T07:36:39</time>
      </trkpt>
      <trkpt lat="47.9481" lon="2.10989">
        <ele>124</ele>
        <time>2021-07-11T07:36:40</time>
      </trkpt>
      <trkpt lat="47.94814" lon="2.10989">
        <ele>124.2</ele>
        <time>2021-07-11T07:36:41</time>
      </trkpt>
      <trkpt lat="47.94818" lon="2.10989">
        <ele>124.2</ele>
        <time>2021-07-11T07:36:42</time>
      </trkpt>
      <trkpt lat="47.94822" lon="2.10988">
        <ele>124.4</ele>
        <time>2021-07-11T07:36:43</time>
      </trkpt>
      <trkpt lat="47.94826" lon="2.10987">
        <ele>124.4</ele>
        <time>2021-07-11T07:36:44</time>
      </trkpt>
      <trkpt lat="47.94831" lon="2.10985">
        <ele>124.6</ele>
        <time>2021-07-11T07:36:45</time>
      </trkpt>
      <trkpt lat="47.94833" lon="2.10981">
        <ele>124.8</ele>
        <time>2021-07-11T07:36:46</time>
      </trkpt>
      <trkpt lat="47.94833" lon="2.10976">
        <ele>124.8</ele>
        <time>2021-07-11T07:36:47</time>
      </trkpt>
      <trkpt lat="47.94833" lon="2.1097">
        <ele>124.8</ele>
        <time>2021-07-11T07:36:48</time>
      </trkpt>
      <trkpt lat="47.94833" lon="2.10964">
        <ele>124.8</ele>
        <time>2021-07-11T07:36:49</time>
      </trkpt>
      <trkpt lat="47.94833" lon="2.10958">
        <ele>124.8</ele>
        <time>2021-07-11T07:36:50</time>
      </trkpt>
      <trkpt lat="47.94833" lon="2.10952">
        <ele>125</ele>
        <time>2021-07-11T07:36:51</time>
      </trkpt>
      <trkpt lat="47.94833" lon="2.10946">
        <ele>125</ele>
        <time>2021-07-11T07:36:52</time>
      </trkpt>
      <trkpt lat="47.94834" lon="2.10939">
        <ele>124.8</ele>
        <time>2021-07-11T07:36:53</time>
      </trkpt>
      <trkpt lat="47.94834" lon="2.10933">
        <ele>125</ele>
        <time>2021-07-11T07:36:54</time>
      </trkpt>
      <trkpt lat="47.94834" lon="2.10926">
        <ele>125</ele>
        <time>2021-07-11T07:36:55</time>
      </trkpt>
      <trkpt lat="47.94834" lon="2.1092">
        <ele>125</ele>
        <time>2021-07-11T07:36:56</time>
      </trkpt>
      <trkpt lat="47.94834" lon="2.10913">
        <ele>125</ele>
        <time>2021-07-11T07:36:57</time>
      </trkpt>
      <trkpt lat="47.94834" lon="2.10907">
        <ele>125</ele>
        <time>2021-07-11T07:36:58</time>
      </trkpt>
      <trkpt lat="47.94834" lon="2.109">
        <ele>125</ele>
        <time>2021-07-11T07:36:59</time>
      </trkpt>
      <trkpt lat="47.94834" lon="2.10893">
        <ele>125.2</ele>
        <time>2021-07-11T07:37:00</time>
      </trkpt>
      <trkpt lat="47.94834" lon="2.10886">
        <ele>125.4</ele>
        <time>2021-07-11T07:37:01</time>
      </trkpt>
      <trkpt lat="47.94833" lon="2.1088">
        <ele>125.4</ele>
        <time>2021-07-11T07:37:02</time>
      </trkpt>
      <trkpt lat="47.94833" lon="2.10872">
        <ele>125.4</ele>
        <time>2021-07-11T07:37:03</time>
      </trkpt>
      <trkpt lat="47.94833" lon="2.10865">
        <ele>125.4</ele>
        <time>2021-07-11T07:37:04</time>
      </trkpt>
      <trkpt lat="47.94833" lon="2.10858">
        <ele>125.4</ele>
        <time>2021-07-11T07:37:05</time>
      </trkpt>
      <trkpt lat="47.94832" lon="2.10851">
        <ele>125.6</ele>
        <time>2021-07-11T07:37:06</time>
      </trkpt>
      <trkpt lat="47.94832" lon="2.10844">
        <ele>125.4</ele>
        <time>2021-07-11T07:37:07</time>
      </trkpt>
      <trkpt lat="47.94832" lon="2.10837">
        <ele>125.6</ele>
        <time>2021-07-11T07:37:08</time>
      </trkpt>
      <trkpt lat="47.94832" lon="2.1083">
        <ele>125.6</ele>
        <time>2021-07-11T07:37:09</time>
      </trkpt>
      <trkpt lat="47.94832" lon="2.10823">
        <ele>125.6</ele>
        <time>2021-07-11T07:37:10</time>
      </trkpt>
      <trkpt lat="47.94831" lon="2.10816">
        <ele>125.6</ele>
        <time>2021-07-11T07:37:11</time>
      </trkpt>
      <trkpt lat="47.94831" lon="2.10809">
        <ele>125.6</ele>
        <time>2021-07-11T07:37:12</time>
      </trkpt>
      <trkpt lat="47.94831" lon="2.10801">
        <ele>125.6</ele>
        <time>2021-07-11T07:37:13</time>
      </trkpt>
      <trkpt lat="47.94831" lon="2.10794">
        <ele>125.8</ele>
        <time>2021-07-11T07:37:14</time>
      </trkpt>
      <trkpt lat="47.94831" lon="2.10787">
        <ele>125.8</ele>
        <time>2021-07-11T07:37:15</time>
      </trkpt>
      <trkpt lat="47.94831" lon="2.1078">
        <ele>126</ele>
        <time>2021-07-11T07:37:16</time>
      </trkpt>
      <trkpt lat="47.9483" lon="2.10774">
        <ele>126</ele>
        <time>2021-07-11T07:37:17</time>
      </trkpt>
      <trkpt lat="47.9483" lon="2.10767">
        <ele>126.2</ele>
        <time>2021-07-11T07:37:18</time>
      </trkpt>
      <trkpt lat="47.9483" lon="2.1076">
        <ele>126.2</ele>
        <time>2021-07-11T07:37:19</time>
      </trkpt>
      <trkpt lat="47.94829" lon="2.10753">
        <ele>126.4</ele>
        <time>2021-07-11T07:37:20</time>
      </trkpt>
      <trkpt lat="47.94829" lon="2.10746">
        <ele>126.4</ele>
        <time>2021-07-11T07:37:21</time>
      </trkpt>
      <trkpt lat="47.94829" lon="2.10739">
        <ele>126.6</ele>
        <time>2021-07-11T07:37:22</time>
      </trkpt>
      <trkpt lat="47.94829" lon="2.10733">
        <ele>126.6</ele>
        <time>2021-07-11T07:37:23</time>
      </trkpt>
      <trkpt lat="47.94828" lon="2.10726">
        <ele>126.8</ele>
        <time>2021-07-11T07:37:24</time>
      </trkpt>
      <trkpt lat="47.94828" lon="2.10719">
        <ele>126.8</ele>
        <time>2021-07-11T07:37:25</time>
      </trkpt>
      <trkpt lat="47.94828" lon="2.10712">
        <ele>126.8</ele>
        <time>2021-07-11T07:37:26</time>
      </trkpt>
      <trkpt lat="47.94828" lon="2.10706">
        <ele>127</ele>
        <time>2021-07-11T07:37:27</time>
      </trkpt>
      <trkpt lat="47.94827" lon="2.10699">
        <ele>127.2</ele>
        <time>2021-07-11T07:37:28</time>
      </trkpt>
      <trkpt lat="47.94827" lon="2.10693">
        <ele>127.4</ele>
        <time>2021-07-11T07:37:29</time>
      </trkpt>
      <trkpt lat="47.94827" lon="2.10686">
        <ele>127.4</ele>
        <time>2021-07-11T07:37:30</time>
      </trkpt>
      <trkpt lat="47.94826" lon="2.10679">
        <ele>127.4</ele>
        <time>2021-07-11T07:37:31</time>
      </trkpt>
      <trkpt lat="47.94826" lon="2.10673">
        <ele>127.4</ele>
        <time>2021-07-11T07:37:32</time>
      </trkpt>
      <trkpt lat="47.94826" lon="2.10666">
        <ele>127.4</ele>
        <time>2021-07-11T07:37:33</time>
      </trkpt>
      <trkpt lat="47.94825" lon="2.10659">
        <ele>127.4</ele>
        <time>2021-07-11T07:37:34</time>
      </trkpt>
      <trkpt lat="47.94825" lon="2.10652">
        <ele>127.2</ele>
        <time>2021-07-11T07:37:35</time>
      </trkpt>
      <trkpt lat="47.94825" lon="2.10645">
        <ele>127.2</ele>
        <time>2021-07-11T07:37:36</time>
      </trkpt>
      <trkpt lat="47.94825" lon="2.10638">
        <ele>127</ele>
        <time>2021-07-11T07:37:37</time>
      </trkpt>
      <trkpt lat="47.94824" lon="2.10631">
        <ele>127</ele>
        <time>2021-07-11T07:37:38</time>
      </trkpt>
      <trkpt lat="47.94824" lon="2.10624">
        <ele>126.8</ele>
        <time>2021-07-11T07:37:39</time>
      </trkpt>
      <trkpt lat="47.94824" lon="2.10617">
        <ele>126.6</ele>
        <time>2021-07-11T07:37:40</time>
      </trkpt>
      <trkpt lat="47.94824" lon="2.1061">
        <ele>126.6</ele>
        <time>2021-07-11T07:37:41</time>
      </trkpt>
      <trkpt lat="47.94823" lon="2.10604">
        <ele>126.4</ele>
        <time>2021-07-11T07:37:42</time>
      </trkpt>
      <trkpt lat="47.94823" lon="2.10596">
        <ele>126.2</ele>
        <time>2021-07-11T07:37:43</time>
      </trkpt>
      <trkpt lat="47.94823" lon="2.10589">
        <ele>126</ele>
        <time>2021-07-11T07:37:44</time>
      </trkpt>
      <trkpt lat="47.94822" lon="2.10582">
        <ele>125.8</ele>
        <time>2021-07-11T07:37:45</time>
      </trkpt>
      <trkpt lat="47.94822" lon="2.10575">
        <ele>125.6</ele>
        <time>2021-07-11T07:37:46</time>
      </trkpt>
      <trkpt lat="47.94822" lon="2.10567">
        <ele>125.4</ele>
        <time>2021-07-11T07:37:47</time>
      </trkpt>
      <trkpt lat="47.94822" lon="2.1056">
        <ele>125.2</ele>
        <time>2021-07-11T07:37:48</time>
      </trkpt>
      <trkpt lat="47.94821" lon="2.10553">
        <ele>125.2</ele>
        <time>2021-07-11T07:37:49</time>
      </trkpt>
      <trkpt lat="47.94821" lon="2.10545">
        <ele>125</ele>
        <time>2021-07-11T07:37:50</time>
      </trkpt>
      <trkpt lat="47.94821" lon="2.10538">
        <ele>124.6</ele>
        <time>2021-07-11T07:37:51</time>
      </trkpt>
      <trkpt lat="47.9482" lon="2.10531">
        <ele>124.6</ele>
        <time>2021-07-11T07:37:52</time>
      </trkpt>
      <trkpt lat="47.9482" lon="2.10524">
        <ele>124.4</ele>
        <time>2021-07-11T07:37:53</time>
      </trkpt>
      <trkpt lat="47.9482" lon="2.10517">
        <ele>124.2</ele>
        <time>2021-07-11T07:37:54</time>
      </trkpt>
      <trkpt lat="47.94819" lon="2.10509">
        <ele>124.2</ele>
        <time>2021-07-11T07:37:55</time>
      </trkpt>
      <trkpt lat="47.94819" lon="2.10502">
        <ele>123.8</ele>
        <time>2021-07-11T07:37:56</time>
      </trkpt>
      <trkpt lat="47.94819" lon="2.10495">
        <ele>123.8</ele>
        <time>2021-07-11T07:37:57</time>
      </trkpt>
      <trkpt lat="47.94818" lon="2.10488">
        <ele>123.8</ele>
        <time>2021-07-11T07:37:58</time>
      </trkpt>
      <trkpt lat="47.94818" lon="2.10481">
        <ele>123.6</ele>
        <time>2021-07-11T07:37:59</time>
      </trkpt>
      <trkpt lat="47.94818" lon="2.10474">
        <ele>123.4</ele>
        <time>2021-07-11T07:38:00</time>
      </trkpt>
      <trkpt lat="47.94817" lon="2.10466">
        <ele>123.2</ele>
        <time>2021-07-11T07:38:01</time>
      </trkpt>
      <trkpt lat="47.94817" lon="2.10458">
        <ele>123</ele>
        <time>2021-07-11T07:38:02</time>
      </trkpt>
      <trkpt lat="47.94817" lon="2.10451">
        <ele>122.6</ele>
        <time>2021-07-11T07:38:03</time>
      </trkpt>
      <trkpt lat="47.94816" lon="2.10443">
        <ele>122.6</ele>
        <time>2021-07-11T07:38:04</time>
      </trkpt>
      <trkpt lat="47.94816" lon="2.10435">
        <ele>122.4</ele>
        <time>2021-07-11T07:38:05</time>
      </trkpt>
      <trkpt lat="47.94816" lon="2.10428">
        <ele>122.2</ele>
        <time>2021-07-11T07:38:06</time>
      </trkpt>
      <trkpt lat="47.94815" lon="2.1042">
        <ele>122.2</ele>
        <time>2021-07-11T07:38:07</time>
      </trkpt>
      <trkpt lat="47.94815" lon="2.10412">
        <ele>122</ele>
        <time>2021-07-11T07:38:08</time>
      </trkpt>
      <trkpt lat="47.94815" lon="2.10405">
        <ele>121.8</ele>
        <time>2021-07-11T07:38:09</time>
      </trkpt>
      <trkpt lat="47.94815" lon="2.10398">
        <ele>121.8</ele>
        <time>2021-07-11T07:38:10</time>
      </trkpt>
      <trkpt lat="47.94814" lon="2.1039">
        <ele>121.8</ele>
        <time>2021-07-11T07:38:11</time>
      </trkpt>
      <trkpt lat="47.94814" lon="2.10383">
        <ele>121.6</ele>
        <time>2021-07-11T07:38:12</time>
      </trkpt>
      <trkpt lat="47.94813" lon="2.10376">
        <ele>121.6</ele>
        <time>2021-07-11T07:38:13</time>
      </trkpt>
      <trkpt lat="47.94813" lon="2.10369">
        <ele>121.6</ele>
        <time>2021-07-11T07:38:14</time>
      </trkpt>
      <trkpt lat="47.94812" lon="2.10361">
        <ele>121.6</ele>
        <time>2021-07-11T07:38:15</time>
      </trkpt>
      <trkpt lat="47.94812" lon="2.10354">
        <ele>121.4</ele>
        <time>2021-07-11T07:38:16</time>
      </trkpt>
      <trkpt lat="47.94812" lon="2.10346">
        <ele>121.2</ele>
        <time>2021-07-11T07:38:17</time>
      </trkpt>
      <trkpt lat="47.94811" lon="2.10339">
        <ele>121.2</ele>
        <time>2021-07-11T07:38:18</time>
      </trkpt>
      <trkpt lat="47.94811" lon="2.10331">
        <ele>121.2</ele>
        <time>2021-07-11T07:38:19</time>
      </trkpt>
      <trkpt lat="47.9481" lon="2.10324">
        <ele>121.2</ele>
        <time>2021-07-11T07:38:20</time>
      </trkpt>
      <trkpt lat="47.9481" lon="2.10317">
        <ele>121</ele>
        <time>2021-07-11T07:38:21</time>
      </trkpt>
      <trkpt lat="47.9481" lon="2.1031">
        <ele>120.8</ele>
        <time>2021-07-11T07:38:22</time>
      </trkpt>
      <trkpt lat="47.94809" lon="2.10303">
        <ele>120.8</ele>
        <time>2021-07-11T07:38:23</time>
      </trkpt>
      <trkpt lat="47.94809" lon="2.10296">
        <ele>120.6</ele>
        <time>2021-07-11T07:38:24</time>
      </trkpt>
      <trkpt lat="47.94809" lon="2.10289">
        <ele>120.6</ele>
        <time>2021-07-11T07:38:25</time>
      </trkpt>
      <trkpt lat="47.94809" lon="2.10282">
        <ele>120.6</ele>
        <time>2021-07-11T07:38:26</time>
      </trkpt>
      <trkpt lat="47.94809" lon="2.10275">
        <ele>120.4</ele>
        <time>2021-07-11T07:38:27</time>
      </trkpt>
      <trkpt lat="47.94808" lon="2.10267">
        <ele>120.4</ele>
        <time>2021-07-11T07:38:28</time>
      </trkpt>
      <trkpt lat="47.94808" lon="2.1026">
        <ele>120.4</ele>
        <time>2021-07-11T07:38:29</time>
      </trkpt>
      <trkpt lat="47.94808" lon="2.10253">
        <ele>120.2</ele>
        <time>2021-07-11T07:38:30</time>
      </trkpt>
      <trkpt lat="47.94807" lon="2.10246">
        <ele>120.2</ele>
        <time>2021-07-11T07:38:31</time>
      </trkpt>
      <trkpt lat="47.94807" lon="2.1024">
        <ele>120.2</ele>
        <time>2021-07-11T07:38:32</time>
      </trkpt>
      <trkpt lat="47.94807" lon="2.10233">
        <ele>120</ele>
        <time>2021-07-11T07:38:33</time>
      </trkpt>
      <trkpt lat="47.94806" lon="2.10226">
        <ele>120</ele>
        <time>2021-07-11T07:38:34</time>
      </trkpt>
      <trkpt lat="47.94806" lon="2.10219">
        <ele>119.8</ele>
        <time>2021-07-11T07:38:35</time>
      </trkpt>
      <trkpt lat="47.94806" lon="2.10212">
        <ele>119.8</ele>
        <time>2021-07-11T07:38:36</time>
      </trkpt>
      <trkpt lat="47.94806" lon="2.10205">
        <ele>119.8</ele>
        <time>2021-07-11T07:38:37</time>
      </trkpt>
      <trkpt lat="47.94806" lon="2.10198">
        <ele>119.6</ele>
        <time>2021-07-11T07:38:38</time>
      </trkpt>
      <trkpt lat="47.94806" lon="2.10191">
        <ele>119.6</ele>
        <time>2021-07-11T07:38:39</time>
      </trkpt>
      <trkpt lat="47.94806" lon="2.10185">
        <ele>119.4</ele>
        <time>2021-07-11T07:38:40</time>
      </trkpt>
      <trkpt lat="47.94806" lon="2.10178">
        <ele>119.4</ele>
        <time>2021-07-11T07:38:41</time>
      </trkpt>
      <trkpt lat="47.94805" lon="2.10171">
        <ele>119.4</ele>
        <time>2021-07-11T07:38:42</time>
      </trkpt>
      <trkpt lat="47.94805" lon="2.10164">
        <ele>119.2</ele>
        <time>2021-07-11T07:38:43</time>
      </trkpt>
      <trkpt lat="47.94804" lon="2.10157">
        <ele>119.2</ele>
        <time>2021-07-11T07:38:44</time>
      </trkpt>
      <trkpt lat="47.94804" lon="2.1015">
        <ele>119.2</ele>
        <time>2021-07-11T07:38:45</time>
      </trkpt>
      <trkpt lat="47.94803" lon="2.10143">
        <ele>119.2</ele>
        <time>2021-07-11T07:38:46</time>
      </trkpt>
      <trkpt lat="47.94802" lon="2.10136">
        <ele>119.2</ele>
        <time>2021-07-11T07:38:47</time>
      </trkpt>
      <trkpt lat="47.94802" lon="2.1013">
        <ele>119</ele>
        <time>2021-07-11T07:38:48</time>
      </trkpt>
      <trkpt lat="47.94801" lon="2.10122">
        <ele>119</ele>
        <time>2021-07-11T07:38:49</time>
      </trkpt>
      <trkpt lat="47.94801" lon="2.10116">
        <ele>119</ele>
        <time>2021-07-11T07:38:50</time>
      </trkpt>
      <trkpt lat="47.94801" lon="2.10108">
        <ele>119</ele>
        <time>2021-07-11T07:38:51</time>
      </trkpt>
      <trkpt lat="47.94801" lon="2.10101">
        <ele>119</ele>
        <time>2021-07-11T07:38:52</time>
      </trkpt>
      <trkpt lat="47.948" lon="2.10094">
        <ele>119.2</ele>
        <time>2021-07-11T07:38:53</time>
      </trkpt>
      <trkpt lat="47.948" lon="2.10088">
        <ele>119.2</ele>
        <time>2021-07-11T07:38:54</time>
      </trkpt>
      <trkpt lat="47.948" lon="2.10082">
        <ele>119</ele>
        <time>2021-07-11T07:38:55</time>
      </trkpt>
      <trkpt lat="47.94799" lon="2.10076">
        <ele>119.2</ele>
        <time>2021-07-11T07:38:56</time>
      </trkpt>
      <trkpt lat="47.94799" lon="2.1007">
        <ele>119</ele>
        <time>2021-07-11T07:38:57</time>
      </trkpt>
      <trkpt lat="47.94799" lon="2.10063">
        <ele>119</ele>
        <time>2021-07-11T07:38:58</time>
      </trkpt>
      <trkpt lat="47.94798" lon="2.10057">
        <ele>119</ele>
        <time>2021-07-11T07:38:59</time>
      </trkpt>
      <trkpt lat="47.94798" lon="2.10051">
        <ele>119</ele>
        <time>2021-07-11T07:39:00</time>
      </trkpt>
      <trkpt lat="47.94798" lon="2.10045">
        <ele>119</ele>
        <time>2021-07-11T07:39:01</time>
      </trkpt>
      <trkpt lat="47.94798" lon="2.10038">
        <ele>119</ele>
        <time>2021-07-11T07:39:02</time>
      </trkpt>
      <trkpt lat="47.94796" lon="2.10032">
        <ele>119</ele>
        <time>2021-07-11T07:39:03</time>
      </trkpt>
      <trkpt lat="47.94796" lon="2.10026">
        <ele>119</ele>
        <time>2021-07-11T07:39:04</time>
      </trkpt>
      <trkpt lat="47.94795" lon="2.10019">
        <ele>119</ele>
        <time>2021-07-11T07:39:05</time>
      </trkpt>
      <trkpt lat="47.94795" lon="2.10012">
        <ele>119</ele>
        <time>2021-07-11T07:39:06</time>
      </trkpt>
      <trkpt lat="47.94794" lon="2.10006">
        <ele>119</ele>
        <time>2021-07-11T07:39:07</time>
      </trkpt>
      <trkpt lat="47.94794" lon="2.09999">
        <ele>118.8</ele>
        <time>2021-07-11T07:39:08</time>
      </trkpt>
      <trkpt lat="47.94794" lon="2.09992">
        <ele>118.8</ele>
        <time>2021-07-11T07:39:09</time>
      </trkpt>
      <trkpt lat="47.94794" lon="2.09986">
        <ele>118.8</ele>
        <time>2021-07-11T07:39:10</time>
      </trkpt>
      <trkpt lat="47.94793" lon="2.09979">
        <ele>118.6</ele>
        <time>2021-07-11T07:39:11</time>
      </trkpt>
      <trkpt lat="47.94793" lon="2.09973">
        <ele>118.8</ele>
        <time>2021-07-11T07:39:12</time>
      </trkpt>
      <trkpt lat="47.94793" lon="2.09966">
        <ele>118.8</ele>
        <time>2021-07-11T07:39:13</time>
      </trkpt>
      <trkpt lat="47.94793" lon="2.0996">
        <ele>118.6</ele>
        <time>2021-07-11T07:39:14</time>
      </trkpt>
      <trkpt lat="47.94793" lon="2.09954">
        <ele>118.6</ele>
        <time>2021-07-11T07:39:15</time>
      </trkpt>
      <trkpt lat="47.94793" lon="2.09947">
        <ele>118.4</ele>
        <time>2021-07-11T07:39:16</time>
      </trkpt>
      <trkpt lat="47.94792" lon="2.09941">
        <ele>118.4</ele>
        <time>2021-07-11T07:39:17</time>
      </trkpt>
      <trkpt lat="47.94792" lon="2.09935">
        <ele>118</ele>
        <time>2021-07-11T07:39:18</time>
      </trkpt>
      <trkpt lat="47.94792" lon="2.09928">
        <ele>117.8</ele>
        <time>2021-07-11T07:39:19</time>
      </trkpt>
      <trkpt lat="47.94791" lon="2.09922">
        <ele>117.6</ele>
        <time>2021-07-11T07:39:20</time>
      </trkpt>
      <trkpt lat="47.94791" lon="2.09917">
        <ele>117.6</ele>
        <time>2021-07-11T07:39:21</time>
      </trkpt>
      <trkpt lat="47.94791" lon="2.09911">
        <ele>117.6</ele>
        <time>2021-07-11T07:39:22</time>
      </trkpt>
      <trkpt lat="47.9479" lon="2.09906">
        <ele>117.4</ele>
        <time>2021-07-11T07:39:23</time>
      </trkpt>
      <trkpt lat="47.9479" lon="2.09902">
        <ele>117.4</ele>
        <time>2021-07-11T07:39:24</time>
      </trkpt>
      <trkpt lat="47.94787" lon="2.09899">
        <ele>117.6</ele>
        <time>2021-07-11T07:39:25</time>
      </trkpt>
      <trkpt lat="47.94785" lon="2.09898">
        <ele>117.4</ele>
        <time>2021-07-11T07:39:26</time>
      </trkpt>
      <trkpt lat="47.94781" lon="2.09897">
        <ele>117.4</ele>
        <time>2021-07-11T07:39:27</time>
      </trkpt>
      <trkpt lat="47.94778" lon="2.09896">
        <ele>117.2</ele>
        <time>2021-07-11T07:39:28</time>
      </trkpt>
      <trkpt lat="47.94775" lon="2.09895">
        <ele>117.2</ele>
        <time>2021-07-11T07:39:29</time>
      </trkpt>
      <trkpt lat="47.94772" lon="2.09894">
        <ele>117.2</ele>
        <time>2021-07-11T07:39:30</time>
      </trkpt>
      <trkpt lat="47.9477" lon="2.09892">
        <ele>117.2</ele>
        <time>2021-07-11T07:39:31</time>
      </trkpt>
      <trkpt lat="47.94767" lon="2.09891">
        <ele>117.2</ele>
        <time>2021-07-11T07:39:32</time>
      </trkpt>
      <trkpt lat="47.94764" lon="2.0989">
        <ele>117.2</ele>
        <time>2021-07-11T07:39:33</time>
      </trkpt>
      <trkpt lat="47.94761" lon="2.09889">
        <ele>117.2</ele>
        <time>2021-07-11T07:39:34</time>
      </trkpt>
      <trkpt lat="47.94758" lon="2.09888">
        <ele>117.2</ele>
        <time>2021-07-11T07:39:35</time>
      </trkpt>
      <trkpt lat="47.94755" lon="2.09888">
        <ele>117.2</ele>
        <time>2021-07-11T07:39:36</time>
      </trkpt>
      <trkpt lat="47.94751" lon="2.09886">
        <ele>117</ele>
        <time>2021-07-11T07:39:37</time>
      </trkpt>
      <trkpt lat="47.94748" lon="2.09885">
        <ele>117</ele>
        <time>2021-07-11T07:39:38</time>
      </trkpt>
      <trkpt lat="47.94745" lon="2.09884">
        <ele>117</ele>
        <time>2021-07-11T07:39:39</time>
      </trkpt>
      <trkpt lat="47.94741" lon="2.09883">
        <ele>117</ele>
        <time>2021-07-11T07:39:40</time>
      </trkpt>
      <trkpt lat="47.94737" lon="2.09882">
        <ele>117.2</ele>
        <time>2021-07-11T07:39:41</time>
      </trkpt>
      <trkpt lat="47.94734" lon="2.09881">
        <ele>117</ele>
        <time>2021-07-11T07:39:42</time>
      </trkpt>
      <trkpt lat="47.9473" lon="2.09881">
        <ele>117.2</ele>
        <time>2021-07-11T07:39:43</time>
      </trkpt>
      <trkpt lat="47.94727" lon="2.0988">
        <ele>117</ele>
        <time>2021-07-11T07:39:44</time>
      </trkpt>
      <trkpt lat="47.94723" lon="2.09879">
        <ele>117</ele>
        <time>2021-07-11T07:39:45</time>
      </trkpt>
      <trkpt lat="47.94719" lon="2.09878">
        <ele>117.2</ele>
        <time>2021-07-11T07:39:46</time>
      </trkpt>
      <trkpt lat="47.94716" lon="2.09877">
        <ele>117.2</ele>
        <time>2021-07-11T07:39:47</time>
      </trkpt>
      <trkpt lat="47.94712" lon="2.09875">
        <ele>117</ele>
        <time>2021-07-11T07:39:48</time>
      </trkpt>
      <trkpt lat="47.94708" lon="2.09874">
        <ele>116.8</ele>
        <time>2021-07-11T07:39:49</time>
      </trkpt>
      <trkpt lat="47.94704" lon="2.09874">
        <ele>116.8</ele>
        <time>2021-07-11T07:39:50</time>
      </trkpt>
      <trkpt lat="47.947" lon="2.09873">
        <ele>116.8</ele>
        <time>2021-07-11T07:39:51</time>
      </trkpt>
      <trkpt lat="47.94696" lon="2.09872">
        <ele>116.8</ele>
        <time>2021-07-11T07:39:52</time>
      </trkpt>
      <trkpt lat="47.94692" lon="2.09871">
        <ele>116.8</ele>
        <time>2021-07-11T07:39:53</time>
      </trkpt>
      <trkpt lat="47.94688" lon="2.0987">
        <ele>116.8</ele>
        <time>2021-07-11T07:39:54</time>
      </trkpt>
      <trkpt lat="47.94684" lon="2.09869">
        <ele>116.6</ele>
        <time>2021-07-11T07:39:55</time>
      </trkpt>
      <trkpt lat="47.9468" lon="2.09868">
        <ele>116.6</ele>
        <time>2021-07-11T07:39:56</time>
      </trkpt>
      <trkpt lat="47.94676" lon="2.09867">
        <ele>116.6</ele>
        <time>2021-07-11T07:39:57</time>
      </trkpt>
      <trkpt lat="47.94672" lon="2.09866">
        <ele>116.6</ele>
        <time>2021-07-11T07:39:58</time>
      </trkpt>
      <trkpt lat="47.94668" lon="2.09866">
        <ele>116.6</ele>
        <time>2021-07-11T07:39:59</time>
      </trkpt>
      <trkpt lat="47.94664" lon="2.09865">
        <ele>116.6</ele>
        <time>2021-07-11T07:40:00</time>
      </trkpt>
      <trkpt lat="47.9466" lon="2.09864">
        <ele>116.6</ele>
        <time>2021-07-11T07:40:01</time>
      </trkpt>
      <trkpt lat="47.94655" lon="2.09864">
        <ele>116.6</ele>
        <time>2021-07-11T07:40:02</time>
      </trkpt>
      <trkpt lat="47.94651" lon="2.09863">
        <ele>116.6</ele>
        <time>2021-07-11T07:40:03</time>
      </trkpt>
      <trkpt lat="47.94648" lon="2.09862">
        <ele>116.6</ele>
        <time>2021-07-11T07:40:04</time>
      </trkpt>
      <trkpt lat="47.94644" lon="2.09861">
        <ele>116.6</ele>
        <time>2021-07-11T07:40:05</time>
      </trkpt>
      <trkpt lat="47.9464" lon="2.0986">
        <ele>116.6</ele>
        <time>2021-07-11T07:40:06</time>
      </trkpt>
      <trkpt lat="47.94636" lon="2.0986">
        <ele>116.6</ele>
        <time>2021-07-11T07:40:07</time>
      </trkpt>
      <trkpt lat="47.94632" lon="2.09859">
        <ele>116.6</ele>
        <time>2021-07-11T07:40:08</time>
      </trkpt>
      <trkpt lat="47.94628" lon="2.09858">
        <ele>116.6</ele>
        <time>2021-07-11T07:40:09</time>
      </trkpt>
      <trkpt lat="47.94624" lon="2.09857">
        <ele>116.6</ele>
        <time>2021-07-11T07:40:10</time>
      </trkpt>
      <trkpt lat="47.9462" lon="2.09856">
        <ele>116.6</ele>
        <time>2021-07-11T07:40:11</time>
      </trkpt>
      <trkpt lat="47.94616" lon="2.09855">
        <ele>116.6</ele>
        <time>2021-07-11T07:40:12</time>
      </trkpt>
      <trkpt lat="47.94613" lon="2.09855">
        <ele>116.6</ele>
        <time>2021-07-11T07:40:13</time>
      </trkpt>
      <trkpt lat="47.94609" lon="2.09854">
        <ele>116.6</ele>
        <time>2021-07-11T07:40:14</time>
      </trkpt>
      <trkpt lat="47.94605" lon="2.09854">
        <ele>116.6</ele>
        <time>2021-07-11T07:40:15</time>
      </trkpt>
      <trkpt lat="47.94601" lon="2.09853">
        <ele>116.6</ele>
        <time>2021-07-11T07:40:16</time>
      </trkpt>
      <trkpt lat="47.94597" lon="2.09852">
        <ele>116.6</ele>
        <time>2021-07-11T07:40:17</time>
      </trkpt>
      <trkpt lat="47.94593" lon="2.09851">
        <ele>116.6</ele>
        <time>2021-07-11T07:40:18</time>
      </trkpt>
      <trkpt lat="47.9459" lon="2.0985">
        <ele>116.6</ele>
        <time>2021-07-11T07:40:19</time>
      </trkpt>
      <trkpt lat="47.94586" lon="2.0985">
        <ele>116.6</ele>
        <time>2021-07-11T07:40:20</time>
      </trkpt>
      <trkpt lat="47.94582" lon="2.09849">
        <ele>116.6</ele>
        <time>2021-07-11T07:40:21</time>
      </trkpt>
      <trkpt lat="47.94578" lon="2.09848">
        <ele>116.6</ele>
        <time>2021-07-11T07:40:22</time>
      </trkpt>
      <trkpt lat="47.94574" lon="2.09846">
        <ele>116.6</ele>
        <time>2021-07-11T07:40:23</time>
      </trkpt>
      <trkpt lat="47.94571" lon="2.09845">
        <ele>116.6</ele>
        <time>2021-07-11T07:40:24</time>
      </trkpt>
      <trkpt lat="47.94567" lon="2.09843">
        <ele>116.6</ele>
        <time>2021-07-11T07:40:25</time>
      </trkpt>
      <trkpt lat="47.94563" lon="2.09842">
        <ele>116.6</ele>
        <time>2021-07-11T07:40:26</time>
      </trkpt>
      <trkpt lat="47.94559" lon="2.0984">
        <ele>116.4</ele>
        <time>2021-07-11T07:40:27</time>
      </trkpt>
      <trkpt lat="47.94556" lon="2.09838">
        <ele>116.4</ele>
        <time>2021-07-11T07:40:28</time>
      </trkpt>
      <trkpt lat="47.94552" lon="2.09836">
        <ele>116.6</ele>
        <time>2021-07-11T07:40:29</time>
      </trkpt>
      <trkpt lat="47.94548" lon="2.09834">
        <ele>116.6</ele>
        <time>2021-07-11T07:40:30</time>
      </trkpt>
      <trkpt lat="47.94544" lon="2.09832">
        <ele>116.6</ele>
        <time>2021-07-11T07:40:31</time>
      </trkpt>
      <trkpt lat="47.94541" lon="2.09831">
        <ele>116.4</ele>
        <time>2021-07-11T07:40:32</time>
      </trkpt>
      <trkpt lat="47.94537" lon="2.09829">
        <ele>116.4</ele>
        <time>2021-07-11T07:40:33</time>
      </trkpt>
      <trkpt lat="47.94533" lon="2.09827">
        <ele>116.4</ele>
        <time>2021-07-11T07:40:34</time>
      </trkpt>
      <trkpt lat="47.94529" lon="2.09825">
        <ele>116.2</ele>
        <time>2021-07-11T07:40:35</time>
      </trkpt>
      <trkpt lat="47.94525" lon="2.09823">
        <ele>116.4</ele>
        <time>2021-07-11T07:40:36</time>
      </trkpt>
      <trkpt lat="47.94521" lon="2.09822">
        <ele>116.4</ele>
        <time>2021-07-11T07:40:37</time>
      </trkpt>
      <trkpt lat="47.94517" lon="2.0982">
        <ele>116.4</ele>
        <time>2021-07-11T07:40:38</time>
      </trkpt>
      <trkpt lat="47.94513" lon="2.09818">
        <ele>116.4</ele>
        <time>2021-07-11T07:40:39</time>
      </trkpt>
      <trkpt lat="47.94509" lon="2.09816">
        <ele>116.4</ele>
        <time>2021-07-11T07:40:40</time>
      </trkpt>
      <trkpt lat="47.94505" lon="2.09814">
        <ele>116.2</ele>
        <time>2021-07-11T07:40:41</time>
      </trkpt>
      <trkpt lat="47.94501" lon="2.09812">
        <ele>116.2</ele>
        <time>2021-07-11T07:40:42</time>
      </trkpt>
      <trkpt lat="47.94498" lon="2.09811">
        <ele>116</ele>
        <time>2021-07-11T07:40:43</time>
      </trkpt>
      <trkpt lat="47.94494" lon="2.09809">
        <ele>116.2</ele>
        <time>2021-07-11T07:40:44</time>
      </trkpt>
      <trkpt lat="47.9449" lon="2.09807">
        <ele>116.2</ele>
        <time>2021-07-11T07:40:45</time>
      </trkpt>
      <trkpt lat="47.94486" lon="2.09806">
        <ele>116.2</ele>
        <time>2021-07-11T07:40:46</time>
      </trkpt>
      <trkpt lat="47.94482" lon="2.09804">
        <ele>116.2</ele>
        <time>2021-07-11T07:40:47</time>
      </trkpt>
      <trkpt lat="47.94479" lon="2.09803">
        <ele>116.2</ele>
        <time>2021-07-11T07:40:48</time>
      </trkpt>
      <trkpt lat="47.94475" lon="2.09801">
        <ele>116.2</ele>
        <time>2021-07-11T07:40:49</time>
      </trkpt>
      <trkpt lat="47.94472" lon="2.098">
        <ele>116</ele>
        <time>2021-07-11T07:40:50</time>
      </trkpt>
      <trkpt lat="47.94468" lon="2.09799">
        <ele>116</ele>
        <time>2021-07-11T07:40:51</time>
      </trkpt>
      <trkpt lat="47.94465" lon="2.09798">
        <ele>116</ele>
        <time>2021-07-11T07:40:52</time>
      </trkpt>
      <trkpt lat="47.94463" lon="2.09797">
        <ele>116.2</ele>
        <time>2021-07-11T07:40:53</time>
      </trkpt>
      <trkpt lat="47.94462" lon="2.09795">
        <ele>116.2</ele>
        <time>2021-07-11T07:40:54</time>
      </trkpt>
      <trkpt lat="47.94461" lon="2.09793">
        <ele>116.4</ele>
        <time>2021-07-11T07:40:55</time>
      </trkpt>
      <trkpt lat="47.94462" lon="2.09791">
        <ele>116.4</ele>
        <time>2021-07-11T07:40:56</time>
      </trkpt>
      <trkpt lat="47.94462" lon="2.09789">
        <ele>116.4</ele>
        <time>2021-07-11T07:40:57</time>
      </trkpt>
      <trkpt lat="47.94462" lon="2.09787">
        <ele>116.2</ele>
        <time>2021-07-11T07:40:58</time>
      </trkpt>
      <trkpt lat="47.94462" lon="2.09784">
        <ele>116.2</ele>
        <time>2021-07-11T07:40:59</time>
      </trkpt>
      <trkpt lat="47.94463" lon="2.09782">
        <ele>116.4</ele>
        <time>2021-07-11T07:41:00</time>
      </trkpt>
      <trkpt lat="47.94463" lon="2.09779">
        <ele>116.2</ele>
        <time>2021-07-11T07:41:01</time>
      </trkpt>
      <trkpt lat="47.94464" lon="2.09777">
        <ele>116.2</ele>
        <time>2021-07-11T07:41:02</time>
      </trkpt>
      <trkpt lat="47.94464" lon="2.09774">
        <ele>116.2</ele>
        <time>2021-07-11T07:41:03</time>
      </trkpt>
      <trkpt lat="47.94464" lon="2.09771">
        <ele>116.2</ele>
        <time>2021-07-11T07:41:04</time>
      </trkpt>
      <trkpt lat="47.94464" lon="2.09768">
        <ele>116.2</ele>
        <time>2021-07-11T07:41:05</time>
      </trkpt>
      <trkpt lat="47.94465" lon="2.09766">
        <ele>116.2</ele>
        <time>2021-07-11T07:41:06</time>
      </trkpt>
      <trkpt lat="47.94465" lon="2.09763">
        <ele>116.2</ele>
        <time>2021-07-11T07:41:07</time>
      </trkpt>
      <trkpt lat="47.94466" lon="2.0976">
        <ele>116.2</ele>
        <time>2021-07-11T07:41:08</time>
      </trkpt>
      <trkpt lat="47.94466" lon="2.09758">
        <ele>116.2</ele>
        <time>2021-07-11T07:41:09</time>
      </trkpt>
      <trkpt lat="47.94467" lon="2.09755">
        <ele>116.2</ele>
        <time>2021-07-11T07:41:10</time>
      </trkpt>
      <trkpt lat="47.94467" lon="2.09752">
        <ele>116.4</ele>
        <time>2021-07-11T07:41:11</time>
      </trkpt>
      <trkpt lat="47.94467" lon="2.09749">
        <ele>116.4</ele>
        <time>2021-07-11T07:41:12</time>
      </trkpt>
      <trkpt lat="47.94468" lon="2.09746">
        <ele>116.4</ele>
        <time>2021-07-11T07:41:13</time>
      </trkpt>
      <trkpt lat="47.94468" lon="2.09743">
        <ele>116.4</ele>
        <time>2021-07-11T07:41:14</time>
      </trkpt>
      <trkpt lat="47.94469" lon="2.09739">
        <ele>116.4</ele>
        <time>2021-07-11T07:41:15</time>
      </trkpt>
      <trkpt lat="47.94469" lon="2.09735">
        <ele>116.4</ele>
        <time>2021-07-11T07:41:16</time>
      </trkpt>
      <trkpt lat="47.9447" lon="2.09731">
        <ele>116.6</ele>
        <time>2021-07-11T07:41:17</time>
      </trkpt>
      <trkpt lat="47.94471" lon="2.09726">
        <ele>116.6</ele>
        <time>2021-07-11T07:41:18</time>
      </trkpt>
      <trkpt lat="47.94471" lon="2.09721">
        <ele>116.6</ele>
        <time>2021-07-11T07:41:19</time>
      </trkpt>
      <trkpt lat="47.94472" lon="2.09716">
        <ele>116.6</ele>
        <time>2021-07-11T07:41:20</time>
      </trkpt>
      <trkpt lat="47.94473" lon="2.09712">
        <ele>116.8</ele>
        <time>2021-07-11T07:41:21</time>
      </trkpt>
      <trkpt lat="47.94473" lon="2.09707">
        <ele>117</ele>
        <time>2021-07-11T07:41:22</time>
      </trkpt>
      <trkpt lat="47.94474" lon="2.09702">
        <ele>117</ele>
        <time>2021-07-11T07:41:23</time>
      </trkpt>
      <trkpt lat="47.94475" lon="2.09697">
        <ele>117</ele>
        <time>2021-07-11T07:41:24</time>
      </trkpt>
      <trkpt lat="47.94476" lon="2.09692">
        <ele>117.2</ele>
        <time>2021-07-11T07:41:25</time>
      </trkpt>
      <trkpt lat="47.94477" lon="2.09687">
        <ele>117.4</ele>
        <time>2021-07-11T07:41:26</time>
      </trkpt>
      <trkpt lat="47.94478" lon="2.09682">
        <ele>117.4</ele>
        <time>2021-07-11T07:41:27</time>
      </trkpt>
      <trkpt lat="47.94479" lon="2.09676">
        <ele>117.6</ele>
        <time>2021-07-11T07:41:28</time>
      </trkpt>
      <trkpt lat="47.94479" lon="2.09671">
        <ele>117.6</ele>
        <time>2021-07-11T07:41:29</time>
      </trkpt>
      <trkpt lat="47.9448" lon="2.09666">
        <ele>117.8</ele>
        <time>2021-07-11T07:41:30</time>
      </trkpt>
      <trkpt lat="47.94481" lon="2.09661">
        <ele>117.8</ele>
        <time>2021-07-11T07:41:31</time>
      </trkpt>
      <trkpt lat="47.94482" lon="2.09656">
        <ele>118</ele>
        <time>2021-07-11T07:41:32</time>
      </trkpt>
      <trkpt lat="47.94482" lon="2.0965">
        <ele>118</ele>
        <time>2021-07-11T07:41:33</time>
      </trkpt>
      <trkpt lat="47.94483" lon="2.09645">
        <ele>118.2</ele>
        <time>2021-07-11T07:41:34</time>
      </trkpt>
      <trkpt lat="47.94484" lon="2.09639">
        <ele>118.4</ele>
        <time>2021-07-11T07:41:35</time>
      </trkpt>
      <trkpt lat="47.94485" lon="2.09633">
        <ele>118.4</ele>
        <time>2021-07-11T07:41:36</time>
      </trkpt>
      <trkpt lat="47.94486" lon="2.09628">
        <ele>118.4</ele>
        <time>2021-07-11T07:41:37</time>
      </trkpt>
      <trkpt lat="47.94487" lon="2.09622">
        <ele>118.4</ele>
        <time>2021-07-11T07:41:38</time>
      </trkpt>
      <trkpt lat="47.94488" lon="2.09616">
        <ele>118.4</ele>
        <time>2021-07-11T07:41:39</time>
      </trkpt>
      <trkpt lat="47.94489" lon="2.0961">
        <ele>118.6</ele>
        <time>2021-07-11T07:41:40</time>
      </trkpt>
      <trkpt lat="47.9449" lon="2.09604">
        <ele>118.6</ele>
        <time>2021-07-11T07:41:41</time>
      </trkpt>
      <trkpt lat="47.94491" lon="2.09598">
        <ele>118.8</ele>
        <time>2021-07-11T07:41:42</time>
      </trkpt>
      <trkpt lat="47.94492" lon="2.09592">
        <ele>118.8</ele>
        <time>2021-07-11T07:41:43</time>
      </trkpt>
      <trkpt lat="47.94493" lon="2.09586">
        <ele>118.8</ele>
        <time>2021-07-11T07:41:44</time>
      </trkpt>
      <trkpt lat="47.94494" lon="2.09581">
        <ele>118.8</ele>
        <time>2021-07-11T07:41:45</time>
      </trkpt>
      <trkpt lat="47.94495" lon="2.09575">
        <ele>118.8</ele>
        <time>2021-07-11T07:41:46</time>
      </trkpt>
      <trkpt lat="47.94496" lon="2.09569">
        <ele>119</ele>
        <time>2021-07-11T07:41:47</time>
      </trkpt>
      <trkpt lat="47.94497" lon="2.09564">
        <ele>119</ele>
        <time>2021-07-11T07:41:48</time>
      </trkpt>
      <trkpt lat="47.94497" lon="2.09558">
        <ele>118.8</ele>
        <time>2021-07-11T07:41:49</time>
      </trkpt>
      <trkpt lat="47.94498" lon="2.09552">
        <ele>118.8</ele>
        <time>2021-07-11T07:41:50</time>
      </trkpt>
      <trkpt lat="47.94499" lon="2.09546">
        <ele>118.8</ele>
        <time>2021-07-11T07:41:51</time>
      </trkpt>
      <trkpt lat="47.945" lon="2.09541">
        <ele>119</ele>
        <time>2021-07-11T07:41:52</time>
      </trkpt>
      <trkpt lat="47.94501" lon="2.09536">
        <ele>119</ele>
        <time>2021-07-11T07:41:53</time>
      </trkpt>
      <trkpt lat="47.94503" lon="2.09531">
        <ele>119</ele>
        <time>2021-07-11T07:41:54</time>
      </trkpt>
      <trkpt lat="47.94505" lon="2.09526">
        <ele>119</ele>
        <time>2021-07-11T07:41:55</time>
      </trkpt>
      <trkpt lat="47.94508" lon="2.09521">
        <ele>119.2</ele>
        <time>2021-07-11T07:41:56</time>
      </trkpt>
      <trkpt lat="47.9451" lon="2.09516">
        <ele>119.2</ele>
        <time>2021-07-11T07:41:57</time>
      </trkpt>
      <trkpt lat="47.94513" lon="2.09511">
        <ele>119.2</ele>
        <time>2021-07-11T07:41:58</time>
      </trkpt>
      <trkpt lat="47.94515" lon="2.09506">
        <ele>119.4</ele>
        <time>2021-07-11T07:41:59</time>
      </trkpt>
      <trkpt lat="47.94518" lon="2.09501">
        <ele>119.4</ele>
        <time>2021-07-11T07:42:00</time>
      </trkpt>
      <trkpt lat="47.9452" lon="2.09496">
        <ele>119.4</ele>
        <time>2021-07-11T07:42:01</time>
      </trkpt>
      <trkpt lat="47.94522" lon="2.09491">
        <ele>119.4</ele>
        <time>2021-07-11T07:42:02</time>
      </trkpt>
      <trkpt lat="47.94524" lon="2.09485">
        <ele>119.6</ele>
        <time>2021-07-11T07:42:03</time>
      </trkpt>
      <trkpt lat="47.94527" lon="2.0948">
        <ele>119.6</ele>
        <time>2021-07-11T07:42:04</time>
      </trkpt>
      <trkpt lat="47.94529" lon="2.09474">
        <ele>119.8</ele>
        <time>2021-07-11T07:42:05</time>
      </trkpt>
      <trkpt lat="47.94531" lon="2.09468">
        <ele>119.8</ele>
        <time>2021-07-11T07:42:06</time>
      </trkpt>
      <trkpt lat="47.94533" lon="2.09463">
        <ele>119.8</ele>
        <time>2021-07-11T07:42:07</time>
      </trkpt>
      <trkpt lat="47.94535" lon="2.09457">
        <ele>120</ele>
        <time>2021-07-11T07:42:08</time>
      </trkpt>
      <trkpt lat="47.94538" lon="2.09451">
        <ele>120</ele>
        <time>2021-07-11T07:42:09</time>
      </trkpt>
      <trkpt lat="47.9454" lon="2.09446">
        <ele>120.2</ele>
        <time>2021-07-11T07:42:10</time>
      </trkpt>
      <trkpt lat="47.94543" lon="2.09441">
        <ele>120.2</ele>
        <time>2021-07-11T07:42:11</time>
      </trkpt>
      <trkpt lat="47.94545" lon="2.09435">
        <ele>120.4</ele>
        <time>2021-07-11T07:42:12</time>
      </trkpt>
      <trkpt lat="47.94548" lon="2.0943">
        <ele>120.4</ele>
        <time>2021-07-11T07:42:13</time>
      </trkpt>
      <trkpt lat="47.94551" lon="2.09426">
        <ele>120.4</ele>
        <time>2021-07-11T07:42:14</time>
      </trkpt>
      <trkpt lat="47.94555" lon="2.09421">
        <ele>120.6</ele>
        <time>2021-07-11T07:42:15</time>
      </trkpt>
      <trkpt lat="47.94558" lon="2.09417">
        <ele>120.6</ele>
        <time>2021-07-11T07:42:16</time>
      </trkpt>
      <trkpt lat="47.94561" lon="2.09412">
        <ele>120.6</ele>
        <time>2021-07-11T07:42:17</time>
      </trkpt>
      <trkpt lat="47.94563" lon="2.09407">
        <ele>121</ele>
        <time>2021-07-11T07:42:18</time>
      </trkpt>
      <trkpt lat="47.94565" lon="2.09401">
        <ele>121.2</ele>
        <time>2021-07-11T07:42:19</time>
      </trkpt>
      <trkpt lat="47.94565" lon="2.09395">
        <ele>121.2</ele>
        <time>2021-07-11T07:42:20</time>
      </trkpt>
      <trkpt lat="47.94566" lon="2.09388">
        <ele>121.2</ele>
        <time>2021-07-11T07:42:21</time>
      </trkpt>
      <trkpt lat="47.94567" lon="2.09382">
        <ele>121.4</ele>
        <time>2021-07-11T07:42:22</time>
      </trkpt>
      <trkpt lat="47.94569" lon="2.09376">
        <ele>121.4</ele>
        <time>2021-07-11T07:42:23</time>
      </trkpt>
      <trkpt lat="47.9457" lon="2.09369">
        <ele>121.6</ele>
        <time>2021-07-11T07:42:24</time>
      </trkpt>
      <trkpt lat="47.94571" lon="2.09363">
        <ele>121.6</ele>
        <time>2021-07-11T07:42:25</time>
      </trkpt>
      <trkpt lat="47.94572" lon="2.09356">
        <ele>121.6</ele>
        <time>2021-07-11T07:42:26</time>
      </trkpt>
      <trkpt lat="47.94572" lon="2.09349">
        <ele>121.6</ele>
        <time>2021-07-11T07:42:27</time>
      </trkpt>
      <trkpt lat="47.94574" lon="2.09342">
        <ele>121.6</ele>
        <time>2021-07-11T07:42:28</time>
      </trkpt>
      <trkpt lat="47.94575" lon="2.09336">
        <ele>121.6</ele>
        <time>2021-07-11T07:42:29</time>
      </trkpt>
      <trkpt lat="47.94576" lon="2.09329">
        <ele>121.8</ele>
        <time>2021-07-11T07:42:30</time>
      </trkpt>
      <trkpt lat="47.94577" lon="2.09322">
        <ele>121.8</ele>
        <time>2021-07-11T07:42:31</time>
      </trkpt>
      <trkpt lat="47.94578" lon="2.09315">
        <ele>121.8</ele>
        <time>2021-07-11T07:42:32</time>
      </trkpt>
      <trkpt lat="47.9458" lon="2.09308">
        <ele>121.8</ele>
        <time>2021-07-11T07:42:33</time>
      </trkpt>
      <trkpt lat="47.94582" lon="2.09295">
        <ele>122</ele>
        <time>2021-07-11T07:42:34</time>
      </trkpt>
      <trkpt lat="47.94583" lon="2.09288">
        <ele>122</ele>
        <time>2021-07-11T07:42:36</time>
      </trkpt>
      <trkpt lat="47.94585" lon="2.09281">
        <ele>122</ele>
        <time>2021-07-11T07:42:37</time>
      </trkpt>
      <trkpt lat="47.94586" lon="2.09275">
        <ele>122</ele>
        <time>2021-07-11T07:42:38</time>
      </trkpt>
      <trkpt lat="47.94587" lon="2.09268">
        <ele>122</ele>
        <time>2021-07-11T07:42:39</time>
      </trkpt>
      <trkpt lat="47.94588" lon="2.09261">
        <ele>122</ele>
        <time>2021-07-11T07:42:40</time>
      </trkpt>
      <trkpt lat="47.94589" lon="2.09254">
        <ele>121.8</ele>
        <time>2021-07-11T07:42:41</time>
      </trkpt>
      <trkpt lat="47.9459" lon="2.09247">
        <ele>121.8</ele>
        <time>2021-07-11T07:42:42</time>
      </trkpt>
      <trkpt lat="47.94591" lon="2.0924">
        <ele>121.6</ele>
        <time>2021-07-11T07:42:43</time>
      </trkpt>
      <trkpt lat="47.94592" lon="2.09233">
        <ele>121.6</ele>
        <time>2021-07-11T07:42:44</time>
      </trkpt>
      <trkpt lat="47.94593" lon="2.09225">
        <ele>121.4</ele>
        <time>2021-07-11T07:42:45</time>
      </trkpt>
      <trkpt lat="47.94595" lon="2.09218">
        <ele>121.4</ele>
        <time>2021-07-11T07:42:46</time>
      </trkpt>
      <trkpt lat="47.94596" lon="2.09211">
        <ele>121.4</ele>
        <time>2021-07-11T07:42:47</time>
      </trkpt>
      <trkpt lat="47.94598" lon="2.09204">
        <ele>121.4</ele>
        <time>2021-07-11T07:42:48</time>
      </trkpt>
      <trkpt lat="47.94599" lon="2.09197">
        <ele>121.4</ele>
        <time>2021-07-11T07:42:49</time>
      </trkpt>
      <trkpt lat="47.94601" lon="2.09189">
        <ele>121.2</ele>
        <time>2021-07-11T07:42:50</time>
      </trkpt>
      <trkpt lat="47.94602" lon="2.09182">
        <ele>121.4</ele>
        <time>2021-07-11T07:42:51</time>
      </trkpt>
      <trkpt lat="47.94603" lon="2.09175">
        <ele>121.4</ele>
        <time>2021-07-11T07:42:52</time>
      </trkpt>
      <trkpt lat="47.94604" lon="2.09168">
        <ele>121.4</ele>
        <time>2021-07-11T07:42:53</time>
      </trkpt>
      <trkpt lat="47.94605" lon="2.09161">
        <ele>121.4</ele>
        <time>2021-07-11T07:42:54</time>
      </trkpt>
      <trkpt lat="47.94606" lon="2.09153">
        <ele>121.6</ele>
        <time>2021-07-11T07:42:55</time>
      </trkpt>
      <trkpt lat="47.94608" lon="2.09146">
        <ele>121.6</ele>
        <time>2021-07-11T07:42:56</time>
      </trkpt>
      <trkpt lat="47.94609" lon="2.09139">
        <ele>121.6</ele>
        <time>2021-07-11T07:42:57</time>
      </trkpt>
      <trkpt lat="47.9461" lon="2.09131">
        <ele>121.6</ele>
        <time>2021-07-11T07:42:58</time>
      </trkpt>
      <trkpt lat="47.94611" lon="2.09124">
        <ele>121.6</ele>
        <time>2021-07-11T07:42:59</time>
      </trkpt>
      <trkpt lat="47.94612" lon="2.09117">
        <ele>121.8</ele>
        <time>2021-07-11T07:43:00</time>
      </trkpt>
      <trkpt lat="47.94613" lon="2.09111">
        <ele>121.8</ele>
        <time>2021-07-11T07:43:01</time>
      </trkpt>
      <trkpt lat="47.94614" lon="2.09104">
        <ele>121.8</ele>
        <time>2021-07-11T07:43:02</time>
      </trkpt>
      <trkpt lat="47.94616" lon="2.09096">
        <ele>121.8</ele>
        <time>2021-07-11T07:43:03</time>
      </trkpt>
      <trkpt lat="47.94617" lon="2.09089">
        <ele>122</ele>
        <time>2021-07-11T07:43:04</time>
      </trkpt>
      <trkpt lat="47.94618" lon="2.09082">
        <ele>122</ele>
        <time>2021-07-11T07:43:05</time>
      </trkpt>
      <trkpt lat="47.94619" lon="2.09075">
        <ele>122.2</ele>
        <time>2021-07-11T07:43:06</time>
      </trkpt>
      <trkpt lat="47.94621" lon="2.09068">
        <ele>122.2</ele>
        <time>2021-07-11T07:43:07</time>
      </trkpt>
      <trkpt lat="47.94622" lon="2.09061">
        <ele>122.4</ele>
        <time>2021-07-11T07:43:08</time>
      </trkpt>
      <trkpt lat="47.94624" lon="2.09055">
        <ele>122.6</ele>
        <time>2021-07-11T07:43:09</time>
      </trkpt>
      <trkpt lat="47.94625" lon="2.09048">
        <ele>122.6</ele>
        <time>2021-07-11T07:43:10</time>
      </trkpt>
      <trkpt lat="47.94626" lon="2.09042">
        <ele>122.6</ele>
        <time>2021-07-11T07:43:11</time>
      </trkpt>
      <trkpt lat="47.94627" lon="2.09035">
        <ele>122.6</ele>
        <time>2021-07-11T07:43:12</time>
      </trkpt>
      <trkpt lat="47.94629" lon="2.09028">
        <ele>122.6</ele>
        <time>2021-07-11T07:43:13</time>
      </trkpt>
      <trkpt lat="47.9463" lon="2.09022">
        <ele>122.8</ele>
        <time>2021-07-11T07:43:14</time>
      </trkpt>
      <trkpt lat="47.94631" lon="2.09014">
        <ele>122.8</ele>
        <time>2021-07-11T07:43:15</time>
      </trkpt>
      <trkpt lat="47.94632" lon="2.09007">
        <ele>123</ele>
        <time>2021-07-11T07:43:16</time>
      </trkpt>
      <trkpt lat="47.94633" lon="2.09001">
        <ele>123.2</ele>
        <time>2021-07-11T07:43:17</time>
      </trkpt>
      <trkpt lat="47.94635" lon="2.08994">
        <ele>123.4</ele>
        <time>2021-07-11T07:43:18</time>
      </trkpt>
      <trkpt lat="47.94636" lon="2.08988">
        <ele>123.4</ele>
        <time>2021-07-11T07:43:19</time>
      </trkpt>
      <trkpt lat="47.94637" lon="2.08981">
        <ele>123.6</ele>
        <time>2021-07-11T07:43:20</time>
      </trkpt>
      <trkpt lat="47.94639" lon="2.08975">
        <ele>123.8</ele>
        <time>2021-07-11T07:43:21</time>
      </trkpt>
      <trkpt lat="47.94641" lon="2.0897">
        <ele>123.8</ele>
        <time>2021-07-11T07:43:22</time>
      </trkpt>
      <trkpt lat="47.94643" lon="2.08966">
        <ele>124</ele>
        <time>2021-07-11T07:43:23</time>
      </trkpt>
      <trkpt lat="47.94644" lon="2.08962">
        <ele>124.2</ele>
        <time>2021-07-11T07:43:24</time>
      </trkpt>
      <trkpt lat="47.94645" lon="2.08958">
        <ele>124.4</ele>
        <time>2021-07-11T07:43:25</time>
      </trkpt>
      <trkpt lat="47.94645" lon="2.08956">
        <ele>124.6</ele>
        <time>2021-07-11T07:43:26</time>
      </trkpt>
      <trkpt lat="47.94645" lon="2.08953">
        <ele>124.8</ele>
        <time>2021-07-11T07:43:27</time>
      </trkpt>
      <trkpt lat="47.94644" lon="2.0895">
        <ele>124.8</ele>
        <time>2021-07-11T07:43:28</time>
      </trkpt>
      <trkpt lat="47.94645" lon="2.08946">
        <ele>124.8</ele>
        <time>2021-07-11T07:43:29</time>
      </trkpt>
      <trkpt lat="47.94646" lon="2.08941">
        <ele>124.8</ele>
        <time>2021-07-11T07:43:30</time>
      </trkpt>
      <trkpt lat="47.94646" lon="2.08937">
        <ele>125</ele>
        <time>2021-07-11T07:43:31</time>
      </trkpt>
      <trkpt lat="47.94648" lon="2.08934">
        <ele>125</ele>
        <time>2021-07-11T07:43:32</time>
      </trkpt>
      <trkpt lat="47.94649" lon="2.08931">
        <ele>125</ele>
        <time>2021-07-11T07:43:33</time>
      </trkpt>
      <trkpt lat="47.94651" lon="2.08927">
        <ele>125.2</ele>
        <time>2021-07-11T07:43:34</time>
      </trkpt>
      <trkpt lat="47.94653" lon="2.08923">
        <ele>125.4</ele>
        <time>2021-07-11T07:43:35</time>
      </trkpt>
      <trkpt lat="47.94655" lon="2.08918">
        <ele>125.4</ele>
        <time>2021-07-11T07:43:36</time>
      </trkpt>
      <trkpt lat="47.94657" lon="2.08913">
        <ele>125.4</ele>
        <time>2021-07-11T07:43:37</time>
      </trkpt>
      <trkpt lat="47.94659" lon="2.08909">
        <ele>125.4</ele>
        <time>2021-07-11T07:43:38</time>
      </trkpt>
      <trkpt lat="47.9466" lon="2.08904">
        <ele>125.4</ele>
        <time>2021-07-11T07:43:39</time>
      </trkpt>
      <trkpt lat="47.94662" lon="2.08899">
        <ele>125.6</ele>
        <time>2021-07-11T07:43:40</time>
      </trkpt>
      <trkpt lat="47.94664" lon="2.08894">
        <ele>125.6</ele>
        <time>2021-07-11T07:43:41</time>
      </trkpt>
      <trkpt lat="47.94666" lon="2.0889">
        <ele>125.8</ele>
        <time>2021-07-11T07:43:42</time>
      </trkpt>
      <trkpt lat="47.94668" lon="2.08885">
        <ele>126</ele>
        <time>2021-07-11T07:43:43</time>
      </trkpt>
      <trkpt lat="47.9467" lon="2.08881">
        <ele>126</ele>
        <time>2021-07-11T07:43:44</time>
      </trkpt>
      <trkpt lat="47.94671" lon="2.08876">
        <ele>126.2</ele>
        <time>2021-07-11T07:43:45</time>
      </trkpt>
      <trkpt lat="47.94673" lon="2.08872">
        <ele>126.2</ele>
        <time>2021-07-11T07:43:46</time>
      </trkpt>
      <trkpt lat="47.94674" lon="2.08867">
        <ele>126.4</ele>
        <time>2021-07-11T07:43:47</time>
      </trkpt>
      <trkpt lat="47.94676" lon="2.08862">
        <ele>126.6</ele>
        <time>2021-07-11T07:43:48</time>
      </trkpt>
      <trkpt lat="47.94677" lon="2.08857">
        <ele>126.8</ele>
        <time>2021-07-11T07:43:49</time>
      </trkpt>
      <trkpt lat="47.94679" lon="2.08853">
        <ele>127</ele>
        <time>2021-07-11T07:43:50</time>
      </trkpt>
      <trkpt lat="47.94681" lon="2.08848">
        <ele>127</ele>
        <time>2021-07-11T07:43:51</time>
      </trkpt>
      <trkpt lat="47.94682" lon="2.08843">
        <ele>127.2</ele>
        <time>2021-07-11T07:43:52</time>
      </trkpt>
      <trkpt lat="47.94684" lon="2.08837">
        <ele>127.4</ele>
        <time>2021-07-11T07:43:53</time>
      </trkpt>
      <trkpt lat="47.94686" lon="2.08832">
        <ele>127.4</ele>
        <time>2021-07-11T07:43:54</time>
      </trkpt>
      <trkpt lat="47.94688" lon="2.08827">
        <ele>127.6</ele>
        <time>2021-07-11T07:43:55</time>
      </trkpt>
      <trkpt lat="47.94691" lon="2.08822">
        <ele>127.8</ele>
        <time>2021-07-11T07:43:56</time>
      </trkpt>
      <trkpt lat="47.94693" lon="2.08817">
        <ele>127.8</ele>
        <time>2021-07-11T07:43:57</time>
      </trkpt>
      <trkpt lat="47.94695" lon="2.08812">
        <ele>128</ele>
        <time>2021-07-11T07:43:58</time>
      </trkpt>
      <trkpt lat="47.94697" lon="2.08807">
        <ele>128.2</ele>
        <time>2021-07-11T07:43:59</time>
      </trkpt>
      <trkpt lat="47.94699" lon="2.08801">
        <ele>128.2</ele>
        <time>2021-07-11T07:44:00</time>
      </trkpt>
      <trkpt lat="47.947" lon="2.08796">
        <ele>128.2</ele>
        <time>2021-07-11T07:44:01</time>
      </trkpt>
      <trkpt lat="47.94702" lon="2.08791">
        <ele>128.4</ele>
        <time>2021-07-11T07:44:02</time>
      </trkpt>
      <trkpt lat="47.94705" lon="2.08785">
        <ele>128.4</ele>
        <time>2021-07-11T07:44:03</time>
      </trkpt>
      <trkpt lat="47.94706" lon="2.08781">
        <ele>128.6</ele>
        <time>2021-07-11T07:44:04</time>
      </trkpt>
      <trkpt lat="47.94708" lon="2.08776">
        <ele>128.8</ele>
        <time>2021-07-11T07:44:05</time>
      </trkpt>
      <trkpt lat="47.9471" lon="2.08771">
        <ele>128.8</ele>
        <time>2021-07-11T07:44:06</time>
      </trkpt>
      <trkpt lat="47.94711" lon="2.08766">
        <ele>128.8</ele>
        <time>2021-07-11T07:44:07</time>
      </trkpt>
      <trkpt lat="47.94713" lon="2.08761">
        <ele>129</ele>
        <time>2021-07-11T07:44:08</time>
      </trkpt>
      <trkpt lat="47.94715" lon="2.08756">
        <ele>129</ele>
        <time>2021-07-11T07:44:09</time>
      </trkpt>
      <trkpt lat="47.94717" lon="2.08752">
        <ele>129</ele>
        <time>2021-07-11T07:44:10</time>
      </trkpt>
      <trkpt lat="47.9472" lon="2.08746">
        <ele>129</ele>
        <time>2021-07-11T07:44:11</time>
      </trkpt>
      <trkpt lat="47.94721" lon="2.08741">
        <ele>129.2</ele>
        <time>2021-07-11T07:44:12</time>
      </trkpt>
      <trkpt lat="47.94726" lon="2.0873">
        <ele>129.2</ele>
        <time>2021-07-11T07:44:13</time>
      </trkpt>
      <trkpt lat="47.94728" lon="2.08725">
        <ele>129.2</ele>
        <time>2021-07-11T07:44:15</time>
      </trkpt>
      <trkpt lat="47.94729" lon="2.08719">
        <ele>129.2</ele>
        <time>2021-07-11T07:44:16</time>
      </trkpt>
      <trkpt lat="47.94731" lon="2.08713">
        <ele>129.2</ele>
        <time>2021-07-11T07:44:17</time>
      </trkpt>
      <trkpt lat="47.94732" lon="2.08707">
        <ele>129.2</ele>
        <time>2021-07-11T07:44:18</time>
      </trkpt>
      <trkpt lat="47.94733" lon="2.08701">
        <ele>129.2</ele>
        <time>2021-07-11T07:44:19</time>
      </trkpt>
      <trkpt lat="47.94732" lon="2.08694">
        <ele>129.2</ele>
        <time>2021-07-11T07:44:20</time>
      </trkpt>
      <trkpt lat="47.94731" lon="2.08688">
        <ele>129.2</ele>
        <time>2021-07-11T07:44:21</time>
      </trkpt>
      <trkpt lat="47.9473" lon="2.08682">
        <ele>129.2</ele>
        <time>2021-07-11T07:44:22</time>
      </trkpt>
      <trkpt lat="47.94729" lon="2.08677">
        <ele>129.2</ele>
        <time>2021-07-11T07:44:23</time>
      </trkpt>
      <trkpt lat="47.94727" lon="2.08671">
        <ele>129</ele>
        <time>2021-07-11T07:44:24</time>
      </trkpt>
      <trkpt lat="47.94726" lon="2.08666">
        <ele>129</ele>
        <time>2021-07-11T07:44:25</time>
      </trkpt>
      <trkpt lat="47.94723" lon="2.08661">
        <ele>129</ele>
        <time>2021-07-11T07:44:26</time>
      </trkpt>
      <trkpt lat="47.94721" lon="2.08655">
        <ele>129</ele>
        <time>2021-07-11T07:44:27</time>
      </trkpt>
      <trkpt lat="47.9472" lon="2.08649">
        <ele>128.8</ele>
        <time>2021-07-11T07:44:28</time>
      </trkpt>
      <trkpt lat="47.94719" lon="2.08643">
        <ele>128.8</ele>
        <time>2021-07-11T07:44:29</time>
      </trkpt>
      <trkpt lat="47.94718" lon="2.08636">
        <ele>128.6</ele>
        <time>2021-07-11T07:44:30</time>
      </trkpt>
      <trkpt lat="47.94718" lon="2.08629">
        <ele>128.6</ele>
        <time>2021-07-11T07:44:31</time>
      </trkpt>
      <trkpt lat="47.94718" lon="2.08622">
        <ele>128.6</ele>
        <time>2021-07-11T07:44:32</time>
      </trkpt>
      <trkpt lat="47.94719" lon="2.08615">
        <ele>128.6</ele>
        <time>2021-07-11T07:44:33</time>
      </trkpt>
      <trkpt lat="47.94719" lon="2.08608">
        <ele>128.4</ele>
        <time>2021-07-11T07:44:34</time>
      </trkpt>
      <trkpt lat="47.94719" lon="2.086">
        <ele>128.4</ele>
        <time>2021-07-11T07:44:35</time>
      </trkpt>
      <trkpt lat="47.94719" lon="2.08591">
        <ele>128.4</ele>
        <time>2021-07-11T07:44:36</time>
      </trkpt>
      <trkpt lat="47.94719" lon="2.08583">
        <ele>128.2</ele>
        <time>2021-07-11T07:44:37</time>
      </trkpt>
      <trkpt lat="47.94719" lon="2.08575">
        <ele>128.2</ele>
        <time>2021-07-11T07:44:38</time>
      </trkpt>
      <trkpt lat="47.94717" lon="2.08567">
        <ele>128</ele>
        <time>2021-07-11T07:44:39</time>
      </trkpt>
      <trkpt lat="47.94716" lon="2.08559">
        <ele>128</ele>
        <time>2021-07-11T07:44:40</time>
      </trkpt>
      <trkpt lat="47.94714" lon="2.08551">
        <ele>128</ele>
        <time>2021-07-11T07:44:41</time>
      </trkpt>
      <trkpt lat="47.94712" lon="2.08543">
        <ele>128</ele>
        <time>2021-07-11T07:44:42</time>
      </trkpt>
      <trkpt lat="47.9471" lon="2.08536">
        <ele>128</ele>
        <time>2021-07-11T07:44:43</time>
      </trkpt>
      <trkpt lat="47.94707" lon="2.08528">
        <ele>128</ele>
        <time>2021-07-11T07:44:44</time>
      </trkpt>
      <trkpt lat="47.94705" lon="2.0852">
        <ele>128</ele>
        <time>2021-07-11T07:44:45</time>
      </trkpt>
      <trkpt lat="47.94702" lon="2.08513">
        <ele>128</ele>
        <time>2021-07-11T07:44:46</time>
      </trkpt>
      <trkpt lat="47.94699" lon="2.08506">
        <ele>128</ele>
        <time>2021-07-11T07:44:47</time>
      </trkpt>
      <trkpt lat="47.94696" lon="2.08499">
        <ele>128</ele>
        <time>2021-07-11T07:44:48</time>
      </trkpt>
      <trkpt lat="47.94693" lon="2.08492">
        <ele>128</ele>
        <time>2021-07-11T07:44:49</time>
      </trkpt>
      <trkpt lat="47.9469" lon="2.08485">
        <ele>128</ele>
        <time>2021-07-11T07:44:50</time>
      </trkpt>
      <trkpt lat="47.94687" lon="2.08478">
        <ele>127.8</ele>
        <time>2021-07-11T07:44:51</time>
      </trkpt>
      <trkpt lat="47.94685" lon="2.08471">
        <ele>127.8</ele>
        <time>2021-07-11T07:44:52</time>
      </trkpt>
      <trkpt lat="47.94683" lon="2.08464">
        <ele>127.8</ele>
        <time>2021-07-11T07:44:53</time>
      </trkpt>
      <trkpt lat="47.94682" lon="2.08456">
        <ele>127.8</ele>
        <time>2021-07-11T07:44:54</time>
      </trkpt>
      <trkpt lat="47.94681" lon="2.08448">
        <ele>127.8</ele>
        <time>2021-07-11T07:44:55</time>
      </trkpt>
      <trkpt lat="47.9468" lon="2.0844">
        <ele>127.8</ele>
        <time>2021-07-11T07:44:56</time>
      </trkpt>
      <trkpt lat="47.94679" lon="2.08432">
        <ele>127.6</ele>
        <time>2021-07-11T07:44:57</time>
      </trkpt>
      <trkpt lat="47.94678" lon="2.08424">
        <ele>127.6</ele>
        <time>2021-07-11T07:44:58</time>
      </trkpt>
      <trkpt lat="47.94677" lon="2.08416">
        <ele>127.4</ele>
        <time>2021-07-11T07:44:59</time>
      </trkpt>
      <trkpt lat="47.94676" lon="2.08409">
        <ele>127.4</ele>
        <time>2021-07-11T07:45:00</time>
      </trkpt>
      <trkpt lat="47.94675" lon="2.08401">
        <ele>127.4</ele>
        <time>2021-07-11T07:45:01</time>
      </trkpt>
      <trkpt lat="47.94675" lon="2.08395">
        <ele>127.2</ele>
        <time>2021-07-11T07:45:02</time>
      </trkpt>
      <trkpt lat="47.94676" lon="2.08389">
        <ele>127</ele>
        <time>2021-07-11T07:45:03</time>
      </trkpt>
      <trkpt lat="47.94679" lon="2.08385">
        <ele>127</ele>
        <time>2021-07-11T07:45:04</time>
      </trkpt>
      <trkpt lat="47.94682" lon="2.08382">
        <ele>126.8</ele>
        <time>2021-07-11T07:45:05</time>
      </trkpt>
      <trkpt lat="47.94686" lon="2.08383">
        <ele>126.6</ele>
        <time>2021-07-11T07:45:06</time>
      </trkpt>
      <trkpt lat="47.94691" lon="2.08385">
        <ele>126.6</ele>
        <time>2021-07-11T07:45:07</time>
      </trkpt>
      <trkpt lat="47.94695" lon="2.08388">
        <ele>126.4</ele>
        <time>2021-07-11T07:45:08</time>
      </trkpt>
      <trkpt lat="47.947" lon="2.0839">
        <ele>126.4</ele>
        <time>2021-07-11T07:45:09</time>
      </trkpt>
      <trkpt lat="47.94705" lon="2.08393">
        <ele>126.4</ele>
        <time>2021-07-11T07:45:10</time>
      </trkpt>
      <trkpt lat="47.9471" lon="2.08395">
        <ele>126.2</ele>
        <time>2021-07-11T07:45:11</time>
      </trkpt>
      <trkpt lat="47.94715" lon="2.08397">
        <ele>126</ele>
        <time>2021-07-11T07:45:12</time>
      </trkpt>
      <trkpt lat="47.94721" lon="2.08399">
        <ele>126</ele>
        <time>2021-07-11T07:45:13</time>
      </trkpt>
      <trkpt lat="47.94727" lon="2.08402">
        <ele>125.8</ele>
        <time>2021-07-11T07:45:14</time>
      </trkpt>
      <trkpt lat="47.94733" lon="2.08404">
        <ele>125.8</ele>
        <time>2021-07-11T07:45:15</time>
      </trkpt>
      <trkpt lat="47.94738" lon="2.08406">
        <ele>125.8</ele>
        <time>2021-07-11T07:45:16</time>
      </trkpt>
      <trkpt lat="47.94744" lon="2.08409">
        <ele>125.8</ele>
        <time>2021-07-11T07:45:17</time>
      </trkpt>
      <trkpt lat="47.94749" lon="2.08412">
        <ele>125.6</ele>
        <time>2021-07-11T07:45:18</time>
      </trkpt>
      <trkpt lat="47.94755" lon="2.08415">
        <ele>125.4</ele>
        <time>2021-07-11T07:45:19</time>
      </trkpt>
      <trkpt lat="47.94761" lon="2.08418">
        <ele>125.4</ele>
        <time>2021-07-11T07:45:20</time>
      </trkpt>
      <trkpt lat="47.94766" lon="2.0842">
        <ele>125.2</ele>
        <time>2021-07-11T07:45:21</time>
      </trkpt>
      <trkpt lat="47.94772" lon="2.08424">
        <ele>125.2</ele>
        <time>2021-07-11T07:45:22</time>
      </trkpt>
      <trkpt lat="47.94779" lon="2.08426">
        <ele>125.2</ele>
        <time>2021-07-11T07:45:23</time>
      </trkpt>
      <trkpt lat="47.94784" lon="2.08429">
        <ele>125</ele>
        <time>2021-07-11T07:45:24</time>
      </trkpt>
      <trkpt lat="47.9479" lon="2.08432">
        <ele>125</ele>
        <time>2021-07-11T07:45:25</time>
      </trkpt>
      <trkpt lat="47.94796" lon="2.08436">
        <ele>125</ele>
        <time>2021-07-11T07:45:26</time>
      </trkpt>
      <trkpt lat="47.94802" lon="2.08439">
        <ele>124.8</ele>
        <time>2021-07-11T07:45:27</time>
      </trkpt>
      <trkpt lat="47.94808" lon="2.08442">
        <ele>124.8</ele>
        <time>2021-07-11T07:45:28</time>
      </trkpt>
      <trkpt lat="47.94814" lon="2.08444">
        <ele>125</ele>
        <time>2021-07-11T07:45:29</time>
      </trkpt>
      <trkpt lat="47.94819" lon="2.08447">
        <ele>125</ele>
        <time>2021-07-11T07:45:30</time>
      </trkpt>
      <trkpt lat="47.94824" lon="2.08451">
        <ele>125</ele>
        <time>2021-07-11T07:45:31</time>
      </trkpt>
      <trkpt lat="47.9483" lon="2.08455">
        <ele>125</ele>
        <time>2021-07-11T07:45:32</time>
      </trkpt>
      <trkpt lat="47.94835" lon="2.08458">
        <ele>125</ele>
        <time>2021-07-11T07:45:33</time>
      </trkpt>
      <trkpt lat="47.94839" lon="2.08463">
        <ele>125.2</ele>
        <time>2021-07-11T07:45:34</time>
      </trkpt>
      <trkpt lat="47.94841" lon="2.08468">
        <ele>125.2</ele>
        <time>2021-07-11T07:45:35</time>
      </trkpt>
      <trkpt lat="47.94844" lon="2.08473">
        <ele>125.2</ele>
        <time>2021-07-11T07:45:36</time>
      </trkpt>
      <trkpt lat="47.94847" lon="2.08479">
        <ele>125.4</ele>
        <time>2021-07-11T07:45:37</time>
      </trkpt>
      <trkpt lat="47.94851" lon="2.08485">
        <ele>125.4</ele>
        <time>2021-07-11T07:45:38</time>
      </trkpt>
      <trkpt lat="47.94854" lon="2.08492">
        <ele>125.4</ele>
        <time>2021-07-11T07:45:39</time>
      </trkpt>
      <trkpt lat="47.94858" lon="2.08498">
        <ele>125.6</ele>
        <time>2021-07-11T07:45:40</time>
      </trkpt>
      <trkpt lat="47.94861" lon="2.08504">
        <ele>125.8</ele>
        <time>2021-07-11T07:45:41</time>
      </trkpt>
      <trkpt lat="47.94865" lon="2.0851">
        <ele>125.8</ele>
        <time>2021-07-11T07:45:42</time>
      </trkpt>
      <trkpt lat="47.94869" lon="2.08516">
        <ele>126</ele>
        <time>2021-07-11T07:45:43</time>
      </trkpt>
      <trkpt lat="47.94873" lon="2.08521">
        <ele>126</ele>
        <time>2021-07-11T07:45:44</time>
      </trkpt>
      <trkpt lat="47.94876" lon="2.08528">
        <ele>126.2</ele>
        <time>2021-07-11T07:45:45</time>
      </trkpt>
      <trkpt lat="47.9488" lon="2.08533">
        <ele>126.2</ele>
        <time>2021-07-11T07:45:46</time>
      </trkpt>
      <trkpt lat="47.94885" lon="2.08537">
        <ele>126.4</ele>
        <time>2021-07-11T07:45:47</time>
      </trkpt>
      <trkpt lat="47.94889" lon="2.0854">
        <ele>126.4</ele>
        <time>2021-07-11T07:45:48</time>
      </trkpt>
      <trkpt lat="47.94894" lon="2.08544">
        <ele>126.4</ele>
        <time>2021-07-11T07:45:49</time>
      </trkpt>
      <trkpt lat="47.94899" lon="2.08546">
        <ele>126.4</ele>
        <time>2021-07-11T07:45:50</time>
      </trkpt>
      <trkpt lat="47.94904" lon="2.08548">
        <ele>126.6</ele>
        <time>2021-07-11T07:45:51</time>
      </trkpt>
      <trkpt lat="47.94909" lon="2.08549">
        <ele>126.6</ele>
        <time>2021-07-11T07:45:52</time>
      </trkpt>
      <trkpt lat="47.94914" lon="2.08551">
        <ele>126.6</ele>
        <time>2021-07-11T07:45:53</time>
      </trkpt>
      <trkpt lat="47.94918" lon="2.08553">
        <ele>126.6</ele>
        <time>2021-07-11T07:45:54</time>
      </trkpt>
      <trkpt lat="47.94924" lon="2.08555">
        <ele>126.6</ele>
        <time>2021-07-11T07:45:55</time>
      </trkpt>
      <trkpt lat="47.94929" lon="2.08557">
        <ele>126.6</ele>
        <time>2021-07-11T07:45:56</time>
      </trkpt>
      <trkpt lat="47.94934" lon="2.08562">
        <ele>126.8</ele>
        <time>2021-07-11T07:45:57</time>
      </trkpt>
      <trkpt lat="47.94939" lon="2.08565">
        <ele>126.8</ele>
        <time>2021-07-11T07:45:58</time>
      </trkpt>
      <trkpt lat="47.94944" lon="2.08569">
        <ele>126.8</ele>
        <time>2021-07-11T07:45:59</time>
      </trkpt>
      <trkpt lat="47.94949" lon="2.08573">
        <ele>127</ele>
        <time>2021-07-11T07:46:00</time>
      </trkpt>
      <trkpt lat="47.94954" lon="2.08577">
        <ele>126.8</ele>
        <time>2021-07-11T07:46:01</time>
      </trkpt>
      <trkpt lat="47.94958" lon="2.08583">
        <ele>127</ele>
        <time>2021-07-11T07:46:02</time>
      </trkpt>
      <trkpt lat="47.94963" lon="2.08589">
        <ele>127</ele>
        <time>2021-07-11T07:46:03</time>
      </trkpt>
      <trkpt lat="47.94967" lon="2.08594">
        <ele>127.2</ele>
        <time>2021-07-11T07:46:04</time>
      </trkpt>
      <trkpt lat="47.94972" lon="2.086">
        <ele>127.2</ele>
        <time>2021-07-11T07:46:05</time>
      </trkpt>
      <trkpt lat="47.94977" lon="2.08605">
        <ele>127.2</ele>
        <time>2021-07-11T07:46:06</time>
      </trkpt>
      <trkpt lat="47.94982" lon="2.08609">
        <ele>127.2</ele>
        <time>2021-07-11T07:46:07</time>
      </trkpt>
      <trkpt lat="47.94986" lon="2.08615">
        <ele>127.4</ele>
        <time>2021-07-11T07:46:08</time>
      </trkpt>
      <trkpt lat="47.94991" lon="2.0862">
        <ele>127.4</ele>
        <time>2021-07-11T07:46:09</time>
      </trkpt>
      <trkpt lat="47.94995" lon="2.08624">
        <ele>127.2</ele>
        <time>2021-07-11T07:46:10</time>
      </trkpt>
      <trkpt lat="47.94999" lon="2.08629">
        <ele>127.2</ele>
        <time>2021-07-11T07:46:11</time>
      </trkpt>
      <trkpt lat="47.95004" lon="2.08633">
        <ele>127.2</ele>
        <time>2021-07-11T07:46:12</time>
      </trkpt>
      <trkpt lat="47.95009" lon="2.08638">
        <ele>127.2</ele>
        <time>2021-07-11T07:46:13</time>
      </trkpt>
      <trkpt lat="47.95013" lon="2.08644">
        <ele>127.2</ele>
        <time>2021-07-11T07:46:14</time>
      </trkpt>
      <trkpt lat="47.95018" lon="2.08648">
        <ele>127.2</ele>
        <time>2021-07-11T07:46:15</time>
      </trkpt>
      <trkpt lat="47.95023" lon="2.08653">
        <ele>127</ele>
        <time>2021-07-11T07:46:16</time>
      </trkpt>
      <trkpt lat="47.95028" lon="2.08658">
        <ele>127</ele>
        <time>2021-07-11T07:46:17</time>
      </trkpt>
      <trkpt lat="47.95033" lon="2.08663">
        <ele>127</ele>
        <time>2021-07-11T07:46:18</time>
      </trkpt>
      <trkpt lat="47.95038" lon="2.08668">
        <ele>127</ele>
        <time>2021-07-11T07:46:19</time>
      </trkpt>
      <trkpt lat="47.95043" lon="2.08672">
        <ele>126.8</ele>
        <time>2021-07-11T07:46:20</time>
      </trkpt>
      <trkpt lat="47.95048" lon="2.08677">
        <ele>126.8</ele>
        <time>2021-07-11T07:46:21</time>
      </trkpt>
      <trkpt lat="47.95052" lon="2.08683">
        <ele>126.8</ele>
        <time>2021-07-11T07:46:22</time>
      </trkpt>
      <trkpt lat="47.95057" lon="2.08688">
        <ele>126.8</ele>
        <time>2021-07-11T07:46:23</time>
      </trkpt>
      <trkpt lat="47.95062" lon="2.08692">
        <ele>126.6</ele>
        <time>2021-07-11T07:46:24</time>
      </trkpt>
      <trkpt lat="47.95067" lon="2.08698">
        <ele>126.6</ele>
        <time>2021-07-11T07:46:25</time>
      </trkpt>
      <trkpt lat="47.95072" lon="2.08703">
        <ele>126.6</ele>
        <time>2021-07-11T07:46:26</time>
      </trkpt>
      <trkpt lat="47.95078" lon="2.08708">
        <ele>126.6</ele>
        <time>2021-07-11T07:46:27</time>
      </trkpt>
      <trkpt lat="47.95083" lon="2.08713">
        <ele>126.4</ele>
        <time>2021-07-11T07:46:28</time>
      </trkpt>
      <trkpt lat="47.95088" lon="2.08717">
        <ele>126.4</ele>
        <time>2021-07-11T07:46:29</time>
      </trkpt>
      <trkpt lat="47.95093" lon="2.08721">
        <ele>126.4</ele>
        <time>2021-07-11T07:46:30</time>
      </trkpt>
      <trkpt lat="47.95098" lon="2.08726">
        <ele>126.6</ele>
        <time>2021-07-11T07:46:31</time>
      </trkpt>
      <trkpt lat="47.95102" lon="2.08731">
        <ele>126.6</ele>
        <time>2021-07-11T07:46:32</time>
      </trkpt>
      <trkpt lat="47.95106" lon="2.08737">
        <ele>126.6</ele>
        <time>2021-07-11T07:46:33</time>
      </trkpt>
      <trkpt lat="47.95115" lon="2.0875">
        <ele>126.8</ele>
        <time>2021-07-11T07:46:34</time>
      </trkpt>
      <trkpt lat="47.9512" lon="2.08756">
        <ele>126.6</ele>
        <time>2021-07-11T07:46:36</time>
      </trkpt>
      <trkpt lat="47.95124" lon="2.08762">
        <ele>126.6</ele>
        <time>2021-07-11T07:46:37</time>
      </trkpt>
      <trkpt lat="47.95127" lon="2.08768">
        <ele>126.6</ele>
        <time>2021-07-11T07:46:38</time>
      </trkpt>
      <trkpt lat="47.95132" lon="2.08776">
        <ele>126.6</ele>
        <time>2021-07-11T07:46:39</time>
      </trkpt>
      <trkpt lat="47.95136" lon="2.08783">
        <ele>126.6</ele>
        <time>2021-07-11T07:46:40</time>
      </trkpt>
      <trkpt lat="47.9514" lon="2.08789">
        <ele>126.6</ele>
        <time>2021-07-11T07:46:41</time>
      </trkpt>
      <trkpt lat="47.95144" lon="2.08795">
        <ele>126.4</ele>
        <time>2021-07-11T07:46:42</time>
      </trkpt>
      <trkpt lat="47.95149" lon="2.088">
        <ele>126.4</ele>
        <time>2021-07-11T07:46:43</time>
      </trkpt>
      <trkpt lat="47.95153" lon="2.08805">
        <ele>126.4</ele>
        <time>2021-07-11T07:46:44</time>
      </trkpt>
      <trkpt lat="47.95158" lon="2.08809">
        <ele>126.4</ele>
        <time>2021-07-11T07:46:45</time>
      </trkpt>
      <trkpt lat="47.95164" lon="2.08812">
        <ele>126.4</ele>
        <time>2021-07-11T07:46:46</time>
      </trkpt>
      <trkpt lat="47.95169" lon="2.08815">
        <ele>126.4</ele>
        <time>2021-07-11T07:46:47</time>
      </trkpt>
      <trkpt lat="47.95174" lon="2.08819">
        <ele>126.2</ele>
        <time>2021-07-11T07:46:48</time>
      </trkpt>
      <trkpt lat="47.9518" lon="2.08822">
        <ele>126</ele>
        <time>2021-07-11T07:46:49</time>
      </trkpt>
      <trkpt lat="47.95186" lon="2.08826">
        <ele>126</ele>
        <time>2021-07-11T07:46:50</time>
      </trkpt>
      <trkpt lat="47.95191" lon="2.0883">
        <ele>126</ele>
        <time>2021-07-11T07:46:51</time>
      </trkpt>
      <trkpt lat="47.95197" lon="2.08834">
        <ele>126</ele>
        <time>2021-07-11T07:46:52</time>
      </trkpt>
      <trkpt lat="47.95203" lon="2.08837">
        <ele>125.8</ele>
        <time>2021-07-11T07:46:53</time>
      </trkpt>
      <trkpt lat="47.95208" lon="2.08841">
        <ele>125.8</ele>
        <time>2021-07-11T07:46:54</time>
      </trkpt>
      <trkpt lat="47.95213" lon="2.08846">
        <ele>125.6</ele>
        <time>2021-07-11T07:46:55</time>
      </trkpt>
      <trkpt lat="47.95218" lon="2.0885">
        <ele>125.8</ele>
        <time>2021-07-11T07:46:56</time>
      </trkpt>
      <trkpt lat="47.95223" lon="2.08854">
        <ele>125.4</ele>
        <time>2021-07-11T07:46:57</time>
      </trkpt>
      <trkpt lat="47.95228" lon="2.08858">
        <ele>125.6</ele>
        <time>2021-07-11T07:46:58</time>
      </trkpt>
      <trkpt lat="47.95233" lon="2.08862">
        <ele>125.4</ele>
        <time>2021-07-11T07:46:59</time>
      </trkpt>
      <trkpt lat="47.95238" lon="2.08866">
        <ele>125.6</ele>
        <time>2021-07-11T07:47:00</time>
      </trkpt>
      <trkpt lat="47.95244" lon="2.0887">
        <ele>125.6</ele>
        <time>2021-07-11T07:47:01</time>
      </trkpt>
      <trkpt lat="47.95249" lon="2.08874">
        <ele>125.6</ele>
        <time>2021-07-11T07:47:02</time>
      </trkpt>
      <trkpt lat="47.95254" lon="2.08878">
        <ele>125.8</ele>
        <time>2021-07-11T07:47:03</time>
      </trkpt>
      <trkpt lat="47.95259" lon="2.08881">
        <ele>125.8</ele>
        <time>2021-07-11T07:47:04</time>
      </trkpt>
      <trkpt lat="47.95264" lon="2.08885">
        <ele>125.8</ele>
        <time>2021-07-11T07:47:05</time>
      </trkpt>
      <trkpt lat="47.9527" lon="2.08889">
        <ele>125.8</ele>
        <time>2021-07-11T07:47:06</time>
      </trkpt>
      <trkpt lat="47.95275" lon="2.08894">
        <ele>126</ele>
        <time>2021-07-11T07:47:07</time>
      </trkpt>
      <trkpt lat="47.9528" lon="2.08897">
        <ele>126</ele>
        <time>2021-07-11T07:47:08</time>
      </trkpt>
      <trkpt lat="47.95285" lon="2.08901">
        <ele>126</ele>
        <time>2021-07-11T07:47:09</time>
      </trkpt>
      <trkpt lat="47.9529" lon="2.08905">
        <ele>126.2</ele>
        <time>2021-07-11T07:47:10</time>
      </trkpt>
      <trkpt lat="47.95296" lon="2.08908">
        <ele>126.2</ele>
        <time>2021-07-11T07:47:11</time>
      </trkpt>
      <trkpt lat="47.95301" lon="2.08912">
        <ele>126.2</ele>
        <time>2021-07-11T07:47:12</time>
      </trkpt>
      <trkpt lat="47.95306" lon="2.08916">
        <ele>126.2</ele>
        <time>2021-07-11T07:47:13</time>
      </trkpt>
      <trkpt lat="47.95311" lon="2.0892">
        <ele>126.2</ele>
        <time>2021-07-11T07:47:14</time>
      </trkpt>
      <trkpt lat="47.95316" lon="2.08924">
        <ele>126.2</ele>
        <time>2021-07-11T07:47:15</time>
      </trkpt>
      <trkpt lat="47.95326" lon="2.08932">
        <ele>126.4</ele>
        <time>2021-07-11T07:47:16</time>
      </trkpt>
      <trkpt lat="47.95331" lon="2.08936">
        <ele>126.2</ele>
        <time>2021-07-11T07:47:18</time>
      </trkpt>
      <trkpt lat="47.95337" lon="2.0894">
        <ele>126.2</ele>
        <time>2021-07-11T07:47:19</time>
      </trkpt>
      <trkpt lat="47.95342" lon="2.08944">
        <ele>126.2</ele>
        <time>2021-07-11T07:47:20</time>
      </trkpt>
      <trkpt lat="47.95347" lon="2.08947">
        <ele>126.4</ele>
        <time>2021-07-11T07:47:21</time>
      </trkpt>
      <trkpt lat="47.95352" lon="2.08952">
        <ele>126.4</ele>
        <time>2021-07-11T07:47:22</time>
      </trkpt>
      <trkpt lat="47.95358" lon="2.08955">
        <ele>126.4</ele>
        <time>2021-07-11T07:47:23</time>
      </trkpt>
      <trkpt lat="47.95363" lon="2.08959">
        <ele>126.2</ele>
        <time>2021-07-11T07:47:24</time>
      </trkpt>
      <trkpt lat="47.95368" lon="2.08962">
        <ele>126.4</ele>
        <time>2021-07-11T07:47:25</time>
      </trkpt>
      <trkpt lat="47.95374" lon="2.08966">
        <ele>126.4</ele>
        <time>2021-07-11T07:47:26</time>
      </trkpt>
      <trkpt lat="47.95379" lon="2.08971">
        <ele>126.4</ele>
        <time>2021-07-11T07:47:27</time>
      </trkpt>
      <trkpt lat="47.95384" lon="2.08975">
        <ele>126.4</ele>
        <time>2021-07-11T07:47:28</time>
      </trkpt>
      <trkpt lat="47.95389" lon="2.08979">
        <ele>126.6</ele>
        <time>2021-07-11T07:47:29</time>
      </trkpt>
      <trkpt lat="47.95394" lon="2.08983">
        <ele>126.6</ele>
        <time>2021-07-11T07:47:30</time>
      </trkpt>
      <trkpt lat="47.95399" lon="2.08987">
        <ele>126.6</ele>
        <time>2021-07-11T07:47:31</time>
      </trkpt>
      <trkpt lat="47.95404" lon="2.0899">
        <ele>126.6</ele>
        <time>2021-07-11T07:47:32</time>
      </trkpt>
      <trkpt lat="47.95409" lon="2.08992">
        <ele>126.6</ele>
        <time>2021-07-11T07:47:33</time>
      </trkpt>
      <trkpt lat="47.95415" lon="2.08993">
        <ele>126.6</ele>
        <time>2021-07-11T07:47:34</time>
      </trkpt>
      <trkpt lat="47.9542" lon="2.08992">
        <ele>126.8</ele>
        <time>2021-07-11T07:47:35</time>
      </trkpt>
      <trkpt lat="47.95425" lon="2.0899">
        <ele>126.6</ele>
        <time>2021-07-11T07:47:36</time>
      </trkpt>
      <trkpt lat="47.9543" lon="2.08988">
        <ele>126.6</ele>
        <time>2021-07-11T07:47:37</time>
      </trkpt>
      <trkpt lat="47.95436" lon="2.08987">
        <ele>126.6</ele>
        <time>2021-07-11T07:47:38</time>
      </trkpt>
      <trkpt lat="47.95441" lon="2.08987">
        <ele>126.6</ele>
        <time>2021-07-11T07:47:39</time>
      </trkpt>
      <trkpt lat="47.95447" lon="2.08988">
        <ele>126.6</ele>
        <time>2021-07-11T07:47:40</time>
      </trkpt>
      <trkpt lat="47.95452" lon="2.08989">
        <ele>126.6</ele>
        <time>2021-07-11T07:47:41</time>
      </trkpt>
      <trkpt lat="47.95458" lon="2.08991">
        <ele>126.8</ele>
        <time>2021-07-11T07:47:42</time>
      </trkpt>
      <trkpt lat="47.95463" lon="2.08992">
        <ele>127</ele>
        <time>2021-07-11T07:47:43</time>
      </trkpt>
      <trkpt lat="47.95469" lon="2.08994">
        <ele>127</ele>
        <time>2021-07-11T07:47:44</time>
      </trkpt>
      <trkpt lat="47.95474" lon="2.08996">
        <ele>127.2</ele>
        <time>2021-07-11T07:47:45</time>
      </trkpt>
      <trkpt lat="47.95479" lon="2.08998">
        <ele>127.2</ele>
        <time>2021-07-11T07:47:46</time>
      </trkpt>
      <trkpt lat="47.95485" lon="2.09">
        <ele>127.2</ele>
        <time>2021-07-11T07:47:47</time>
      </trkpt>
      <trkpt lat="47.9549" lon="2.09002">
        <ele>127.4</ele>
        <time>2021-07-11T07:47:48</time>
      </trkpt>
      <trkpt lat="47.95495" lon="2.09005">
        <ele>127.4</ele>
        <time>2021-07-11T07:47:49</time>
      </trkpt>
      <trkpt lat="47.95501" lon="2.09007">
        <ele>127.4</ele>
        <time>2021-07-11T07:47:50</time>
      </trkpt>
      <trkpt lat="47.95506" lon="2.09009">
        <ele>127.6</ele>
        <time>2021-07-11T07:47:51</time>
      </trkpt>
      <trkpt lat="47.95512" lon="2.09011">
        <ele>127.6</ele>
        <time>2021-07-11T07:47:52</time>
      </trkpt>
      <trkpt lat="47.95517" lon="2.09013">
        <ele>127.6</ele>
        <time>2021-07-11T07:47:53</time>
      </trkpt>
      <trkpt lat="47.95523" lon="2.09015">
        <ele>127.6</ele>
        <time>2021-07-11T07:47:54</time>
      </trkpt>
      <trkpt lat="47.95528" lon="2.09017">
        <ele>127.8</ele>
        <time>2021-07-11T07:47:55</time>
      </trkpt>
      <trkpt lat="47.95533" lon="2.09019">
        <ele>127.8</ele>
        <time>2021-07-11T07:47:56</time>
      </trkpt>
      <trkpt lat="47.95539" lon="2.09021">
        <ele>127.8</ele>
        <time>2021-07-11T07:47:57</time>
      </trkpt>
      <trkpt lat="47.95544" lon="2.09023">
        <ele>127.8</ele>
        <time>2021-07-11T07:47:58</time>
      </trkpt>
      <trkpt lat="47.9555" lon="2.09025">
        <ele>128</ele>
        <time>2021-07-11T07:47:59</time>
      </trkpt>
      <trkpt lat="47.95555" lon="2.09027">
        <ele>128.2</ele>
        <time>2021-07-11T07:48:00</time>
      </trkpt>
      <trkpt lat="47.95561" lon="2.09028">
        <ele>128.2</ele>
        <time>2021-07-11T07:48:01</time>
      </trkpt>
      <trkpt lat="47.95566" lon="2.0903">
        <ele>128.4</ele>
        <time>2021-07-11T07:48:02</time>
      </trkpt>
      <trkpt lat="47.95571" lon="2.09032">
        <ele>128.6</ele>
        <time>2021-07-11T07:48:03</time>
      </trkpt>
      <trkpt lat="47.95576" lon="2.09033">
        <ele>128.6</ele>
        <time>2021-07-11T07:48:04</time>
      </trkpt>
      <trkpt lat="47.95582" lon="2.09035">
        <ele>128.8</ele>
        <time>2021-07-11T07:48:05</time>
      </trkpt>
      <trkpt lat="47.95587" lon="2.09036">
        <ele>129</ele>
        <time>2021-07-11T07:48:06</time>
      </trkpt>
      <trkpt lat="47.95593" lon="2.09038">
        <ele>129.2</ele>
        <time>2021-07-11T07:48:07</time>
      </trkpt>
      <trkpt lat="47.95598" lon="2.0904">
        <ele>129.2</ele>
        <time>2021-07-11T07:48:08</time>
      </trkpt>
      <trkpt lat="47.95603" lon="2.09041">
        <ele>129.4</ele>
        <time>2021-07-11T07:48:09</time>
      </trkpt>
      <trkpt lat="47.95609" lon="2.09043">
        <ele>129.4</ele>
        <time>2021-07-11T07:48:10</time>
      </trkpt>
      <trkpt lat="47.95614" lon="2.09044">
        <ele>129.4</ele>
        <time>2021-07-11T07:48:11</time>
      </trkpt>
      <trkpt lat="47.95619" lon="2.09046">
        <ele>129.4</ele>
        <time>2021-07-11T07:48:12</time>
      </trkpt>
      <trkpt lat="47.95624" lon="2.09048">
        <ele>129.4</ele>
        <time>2021-07-11T07:48:13</time>
      </trkpt>
      <trkpt lat="47.95628" lon="2.09049">
        <ele>129.4</ele>
        <time>2021-07-11T07:48:14</time>
      </trkpt>
      <trkpt lat="47.95633" lon="2.0905">
        <ele>129.2</ele>
        <time>2021-07-11T07:48:15</time>
      </trkpt>
      <trkpt lat="47.95638" lon="2.09051">
        <ele>129.2</ele>
        <time>2021-07-11T07:48:16</time>
      </trkpt>
      <trkpt lat="47.95642" lon="2.09053">
        <ele>129.2</ele>
        <time>2021-07-11T07:48:17</time>
      </trkpt>
      <trkpt lat="47.95646" lon="2.09055">
        <ele>129.2</ele>
        <time>2021-07-11T07:48:18</time>
      </trkpt>
      <trkpt lat="47.95651" lon="2.09056">
        <ele>129.2</ele>
        <time>2021-07-11T07:48:19</time>
      </trkpt>
      <trkpt lat="47.95655" lon="2.09057">
        <ele>129.2</ele>
        <time>2021-07-11T07:48:20</time>
      </trkpt>
      <trkpt lat="47.95659" lon="2.09058">
        <ele>129.2</ele>
        <time>2021-07-11T07:48:21</time>
      </trkpt>
      <trkpt lat="47.95664" lon="2.0906">
        <ele>129.2</ele>
        <time>2021-07-11T07:48:22</time>
      </trkpt>
      <trkpt lat="47.95668" lon="2.09062">
        <ele>129.4</ele>
        <time>2021-07-11T07:48:23</time>
      </trkpt>
      <trkpt lat="47.95673" lon="2.09063">
        <ele>129.4</ele>
        <time>2021-07-11T07:48:24</time>
      </trkpt>
      <trkpt lat="47.95677" lon="2.09065">
        <ele>129.4</ele>
        <time>2021-07-11T07:48:25</time>
      </trkpt>
      <trkpt lat="47.95682" lon="2.09068">
        <ele>129.4</ele>
        <time>2021-07-11T07:48:26</time>
      </trkpt>
      <trkpt lat="47.95686" lon="2.0907">
        <ele>129.4</ele>
        <time>2021-07-11T07:48:27</time>
      </trkpt>
      <trkpt lat="47.95691" lon="2.09073">
        <ele>129.4</ele>
        <time>2021-07-11T07:48:28</time>
      </trkpt>
      <trkpt lat="47.95696" lon="2.09076">
        <ele>129.4</ele>
        <time>2021-07-11T07:48:29</time>
      </trkpt>
      <trkpt lat="47.95701" lon="2.09079">
        <ele>129.4</ele>
        <time>2021-07-11T07:48:30</time>
      </trkpt>
      <trkpt lat="47.95706" lon="2.09082">
        <ele>129.4</ele>
        <time>2021-07-11T07:48:31</time>
      </trkpt>
      <trkpt lat="47.95711" lon="2.09086">
        <ele>129.4</ele>
        <time>2021-07-11T07:48:32</time>
      </trkpt>
      <trkpt lat="47.95716" lon="2.0909">
        <ele>129.4</ele>
        <time>2021-07-11T07:48:33</time>
      </trkpt>
      <trkpt lat="47.95721" lon="2.09094">
        <ele>129.4</ele>
        <time>2021-07-11T07:48:34</time>
      </trkpt>
      <trkpt lat="47.95726" lon="2.09098">
        <ele>129.6</ele>
        <time>2021-07-11T07:48:35</time>
      </trkpt>
      <trkpt lat="47.95731" lon="2.09102">
        <ele>129.6</ele>
        <time>2021-07-11T07:48:36</time>
      </trkpt>
      <trkpt lat="47.95736" lon="2.09106">
        <ele>129.6</ele>
        <time>2021-07-11T07:48:37</time>
      </trkpt>
      <trkpt lat="47.9574" lon="2.0911">
        <ele>129.8</ele>
        <time>2021-07-11T07:48:38</time>
      </trkpt>
      <trkpt lat="47.95745" lon="2.09114">
        <ele>129.8</ele>
        <time>2021-07-11T07:48:39</time>
      </trkpt>
      <trkpt lat="47.9575" lon="2.09118">
        <ele>129.8</ele>
        <time>2021-07-11T07:48:40</time>
      </trkpt>
      <trkpt lat="47.95755" lon="2.09121">
        <ele>129.8</ele>
        <time>2021-07-11T07:48:41</time>
      </trkpt>
      <trkpt lat="47.9576" lon="2.09125">
        <ele>129.8</ele>
        <time>2021-07-11T07:48:42</time>
      </trkpt>
      <trkpt lat="47.95764" lon="2.09129">
        <ele>129.8</ele>
        <time>2021-07-11T07:48:43</time>
      </trkpt>
      <trkpt lat="47.95769" lon="2.09133">
        <ele>129.8</ele>
        <time>2021-07-11T07:48:44</time>
      </trkpt>
      <trkpt lat="47.95774" lon="2.09136">
        <ele>129.8</ele>
        <time>2021-07-11T07:48:45</time>
      </trkpt>
      <trkpt lat="47.95779" lon="2.0914">
        <ele>129.8</ele>
        <time>2021-07-11T07:48:46</time>
      </trkpt>
      <trkpt lat="47.95784" lon="2.09144">
        <ele>129.8</ele>
        <time>2021-07-11T07:48:47</time>
      </trkpt>
      <trkpt lat="47.95789" lon="2.09147">
        <ele>129.8</ele>
        <time>2021-07-11T07:48:48</time>
      </trkpt>
      <trkpt lat="47.95794" lon="2.09151">
        <ele>129.8</ele>
        <time>2021-07-11T07:48:49</time>
      </trkpt>
      <trkpt lat="47.95799" lon="2.09154">
        <ele>129.8</ele>
        <time>2021-07-11T07:48:50</time>
      </trkpt>
      <trkpt lat="47.95803" lon="2.09158">
        <ele>130</ele>
        <time>2021-07-11T07:48:51</time>
      </trkpt>
      <trkpt lat="47.95807" lon="2.09161">
        <ele>130</ele>
        <time>2021-07-11T07:48:52</time>
      </trkpt>
      <trkpt lat="47.95812" lon="2.09163">
        <ele>130</ele>
        <time>2021-07-11T07:48:53</time>
      </trkpt>
      <trkpt lat="47.95817" lon="2.09166">
        <ele>130.2</ele>
        <time>2021-07-11T07:48:54</time>
      </trkpt>
      <trkpt lat="47.95821" lon="2.09168">
        <ele>130.2</ele>
        <time>2021-07-11T07:48:55</time>
      </trkpt>
      <trkpt lat="47.95823" lon="2.0917">
        <ele>130.2</ele>
        <time>2021-07-11T07:48:56</time>
      </trkpt>
      <trkpt lat="47.95827" lon="2.09172">
        <ele>130.2</ele>
        <time>2021-07-11T07:48:57</time>
      </trkpt>
      <trkpt lat="47.95831" lon="2.09175">
        <ele>130.4</ele>
        <time>2021-07-11T07:48:58</time>
      </trkpt>
      <trkpt lat="47.95835" lon="2.09178">
        <ele>130.4</ele>
        <time>2021-07-11T07:48:59</time>
      </trkpt>
      <trkpt lat="47.9584" lon="2.0918">
        <ele>130.4</ele>
        <time>2021-07-11T07:49:00</time>
      </trkpt>
      <trkpt lat="47.95843" lon="2.09181">
        <ele>130.4</ele>
        <time>2021-07-11T07:49:01</time>
      </trkpt>
      <trkpt lat="47.95847" lon="2.09183">
        <ele>130.4</ele>
        <time>2021-07-11T07:49:02</time>
      </trkpt>
      <trkpt lat="47.95851" lon="2.09186">
        <ele>130.4</ele>
        <time>2021-07-11T07:49:03</time>
      </trkpt>
      <trkpt lat="47.95855" lon="2.09187">
        <ele>130.6</ele>
        <time>2021-07-11T07:49:04</time>
      </trkpt>
      <trkpt lat="47.95859" lon="2.09189">
        <ele>130.6</ele>
        <time>2021-07-11T07:49:05</time>
      </trkpt>
      <trkpt lat="47.95863" lon="2.09192">
        <ele>130.6</ele>
        <time>2021-07-11T07:49:06</time>
      </trkpt>
      <trkpt lat="47.95867" lon="2.09194">
        <ele>130.8</ele>
        <time>2021-07-11T07:49:07</time>
      </trkpt>
      <trkpt lat="47.95871" lon="2.09197">
        <ele>130.8</ele>
        <time>2021-07-11T07:49:08</time>
      </trkpt>
      <trkpt lat="47.95876" lon="2.09199">
        <ele>130.8</ele>
        <time>2021-07-11T07:49:09</time>
      </trkpt>
      <trkpt lat="47.95881" lon="2.09203">
        <ele>131</ele>
        <time>2021-07-11T07:49:10</time>
      </trkpt>
      <trkpt lat="47.95887" lon="2.09208">
        <ele>131.2</ele>
        <time>2021-07-11T07:49:11</time>
      </trkpt>
      <trkpt lat="47.95892" lon="2.09214">
        <ele>131.2</ele>
        <time>2021-07-11T07:49:12</time>
      </trkpt>
      <trkpt lat="47.95899" lon="2.09218">
        <ele>131.2</ele>
        <time>2021-07-11T07:49:13</time>
      </trkpt>
      <trkpt lat="47.95906" lon="2.0922">
        <ele>131.2</ele>
        <time>2021-07-11T07:49:14</time>
      </trkpt>
      <trkpt lat="47.95913" lon="2.09223">
        <ele>131.4</ele>
        <time>2021-07-11T07:49:15</time>
      </trkpt>
      <trkpt lat="47.9592" lon="2.09224">
        <ele>131.6</ele>
        <time>2021-07-11T07:49:16</time>
      </trkpt>
      <trkpt lat="47.95928" lon="2.09224">
        <ele>131.6</ele>
        <time>2021-07-11T07:49:17</time>
      </trkpt>
      <trkpt lat="47.95936" lon="2.09223">
        <ele>131.6</ele>
        <time>2021-07-11T07:49:18</time>
      </trkpt>
      <trkpt lat="47.95943" lon="2.09223">
        <ele>131.8</ele>
        <time>2021-07-11T07:49:19</time>
      </trkpt>
      <trkpt lat="47.95949" lon="2.09223">
        <ele>131.8</ele>
        <time>2021-07-11T07:49:20</time>
      </trkpt>
      <trkpt lat="47.95955" lon="2.09222">
        <ele>131.8</ele>
        <time>2021-07-11T07:49:21</time>
      </trkpt>
      <trkpt lat="47.95961" lon="2.09221">
        <ele>131.8</ele>
        <time>2021-07-11T07:49:22</time>
      </trkpt>
      <trkpt lat="47.95967" lon="2.09221">
        <ele>131.8</ele>
        <time>2021-07-11T07:49:23</time>
      </trkpt>
      <trkpt lat="47.95973" lon="2.0922">
        <ele>132</ele>
        <time>2021-07-11T07:49:24</time>
      </trkpt>
      <trkpt lat="47.95979" lon="2.0922">
        <ele>132</ele>
        <time>2021-07-11T07:49:25</time>
      </trkpt>
      <trkpt lat="47.95985" lon="2.09219">
        <ele>132</ele>
        <time>2021-07-11T07:49:26</time>
      </trkpt>
      <trkpt lat="47.95992" lon="2.09218">
        <ele>132</ele>
        <time>2021-07-11T07:49:27</time>
      </trkpt>
      <trkpt lat="47.95998" lon="2.09216">
        <ele>132</ele>
        <time>2021-07-11T07:49:28</time>
      </trkpt>
      <trkpt lat="47.96004" lon="2.09216">
        <ele>132</ele>
        <time>2021-07-11T07:49:29</time>
      </trkpt>
      <trkpt lat="47.96011" lon="2.09215">
        <ele>132</ele>
        <time>2021-07-11T07:49:30</time>
      </trkpt>
      <trkpt lat="47.96017" lon="2.09214">
        <ele>132.2</ele>
        <time>2021-07-11T07:49:31</time>
      </trkpt>
      <trkpt lat="47.96023" lon="2.09214">
        <ele>132.2</ele>
        <time>2021-07-11T07:49:32</time>
      </trkpt>
      <trkpt lat="47.96028" lon="2.09213">
        <ele>132.2</ele>
        <time>2021-07-11T07:49:33</time>
      </trkpt>
      <trkpt lat="47.96033" lon="2.09213">
        <ele>132.2</ele>
        <time>2021-07-11T07:49:34</time>
      </trkpt>
      <trkpt lat="47.96038" lon="2.09212">
        <ele>132.4</ele>
        <time>2021-07-11T07:49:35</time>
      </trkpt>
      <trkpt lat="47.96043" lon="2.09211">
        <ele>132.2</ele>
        <time>2021-07-11T07:49:36</time>
      </trkpt>
      <trkpt lat="47.96048" lon="2.09211">
        <ele>132.2</ele>
        <time>2021-07-11T07:49:37</time>
      </trkpt>
      <trkpt lat="47.96058" lon="2.09208">
        <ele>132.2</ele>
        <time>2021-07-11T07:49:38</time>
      </trkpt>
      <trkpt lat="47.96063" lon="2.09207">
        <ele>132</ele>
        <time>2021-07-11T07:49:40</time>
      </trkpt>
      <trkpt lat="47.96068" lon="2.09207">
        <ele>132</ele>
        <time>2021-07-11T07:49:41</time>
      </trkpt>
      <trkpt lat="47.96073" lon="2.09207">
        <ele>132</ele>
        <time>2021-07-11T07:49:42</time>
      </trkpt>
      <trkpt lat="47.96079" lon="2.09206">
        <ele>132</ele>
        <time>2021-07-11T07:49:43</time>
      </trkpt>
      <trkpt lat="47.96084" lon="2.09206">
        <ele>132.2</ele>
        <time>2021-07-11T07:49:44</time>
      </trkpt>
      <trkpt lat="47.96089" lon="2.09206">
        <ele>132.2</ele>
        <time>2021-07-11T07:49:45</time>
      </trkpt>
      <trkpt lat="47.96094" lon="2.09207">
        <ele>132.2</ele>
        <time>2021-07-11T07:49:46</time>
      </trkpt>
      <trkpt lat="47.96099" lon="2.09207">
        <ele>132.2</ele>
        <time>2021-07-11T07:49:47</time>
      </trkpt>
      <trkpt lat="47.96104" lon="2.09207">
        <ele>132.4</ele>
        <time>2021-07-11T07:49:48</time>
      </trkpt>
      <trkpt lat="47.96109" lon="2.09206">
        <ele>132.4</ele>
        <time>2021-07-11T07:49:49</time>
      </trkpt>
      <trkpt lat="47.96114" lon="2.09205">
        <ele>132.4</ele>
        <time>2021-07-11T07:49:50</time>
      </trkpt>
      <trkpt lat="47.96119" lon="2.09204">
        <ele>132.4</ele>
        <time>2021-07-11T07:49:51</time>
      </trkpt>
      <trkpt lat="47.96124" lon="2.09203">
        <ele>132.4</ele>
        <time>2021-07-11T07:49:52</time>
      </trkpt>
      <trkpt lat="47.96129" lon="2.09203">
        <ele>132.4</ele>
        <time>2021-07-11T07:49:53</time>
      </trkpt>
      <trkpt lat="47.96135" lon="2.09202">
        <ele>132.4</ele>
        <time>2021-07-11T07:49:54</time>
      </trkpt>
      <trkpt lat="47.9614" lon="2.09201">
        <ele>132.4</ele>
        <time>2021-07-11T07:49:55</time>
      </trkpt>
      <trkpt lat="47.96145" lon="2.09199">
        <ele>132.4</ele>
        <time>2021-07-11T07:49:56</time>
      </trkpt>
      <trkpt lat="47.96151" lon="2.09198">
        <ele>132.4</ele>
        <time>2021-07-11T07:49:57</time>
      </trkpt>
      <trkpt lat="47.96155" lon="2.09197">
        <ele>132.4</ele>
        <time>2021-07-11T07:49:58</time>
      </trkpt>
      <trkpt lat="47.96161" lon="2.09196">
        <ele>132.4</ele>
        <time>2021-07-11T07:49:59</time>
      </trkpt>
      <trkpt lat="47.96166" lon="2.09197">
        <ele>132.4</ele>
        <time>2021-07-11T07:50:00</time>
      </trkpt>
      <trkpt lat="47.96172" lon="2.09197">
        <ele>132.4</ele>
        <time>2021-07-11T07:50:01</time>
      </trkpt>
      <trkpt lat="47.96178" lon="2.09197">
        <ele>132.4</ele>
        <time>2021-07-11T07:50:02</time>
      </trkpt>
      <trkpt lat="47.96184" lon="2.09196">
        <ele>132.4</ele>
        <time>2021-07-11T07:50:03</time>
      </trkpt>
      <trkpt lat="47.9619" lon="2.09194">
        <ele>132.4</ele>
        <time>2021-07-11T07:50:04</time>
      </trkpt>
      <trkpt lat="47.96196" lon="2.09194">
        <ele>132.4</ele>
        <time>2021-07-11T07:50:05</time>
      </trkpt>
      <trkpt lat="47.96203" lon="2.09196">
        <ele>132.4</ele>
        <time>2021-07-11T07:50:06</time>
      </trkpt>
      <trkpt lat="47.96209" lon="2.09197">
        <ele>132.2</ele>
        <time>2021-07-11T07:50:07</time>
      </trkpt>
      <trkpt lat="47.96215" lon="2.09197">
        <ele>132.4</ele>
        <time>2021-07-11T07:50:08</time>
      </trkpt>
      <trkpt lat="47.96221" lon="2.09197">
        <ele>132.4</ele>
        <time>2021-07-11T07:50:09</time>
      </trkpt>
      <trkpt lat="47.96227" lon="2.09197">
        <ele>132.4</ele>
        <time>2021-07-11T07:50:10</time>
      </trkpt>
      <trkpt lat="47.96233" lon="2.09196">
        <ele>132.4</ele>
        <time>2021-07-11T07:50:11</time>
      </trkpt>
      <trkpt lat="47.96239" lon="2.09195">
        <ele>132.6</ele>
        <time>2021-07-11T07:50:12</time>
      </trkpt>
      <trkpt lat="47.96245" lon="2.09194">
        <ele>132.6</ele>
        <time>2021-07-11T07:50:13</time>
      </trkpt>
      <trkpt lat="47.9625" lon="2.09193">
        <ele>132.6</ele>
        <time>2021-07-11T07:50:14</time>
      </trkpt>
      <trkpt lat="47.96256" lon="2.09193">
        <ele>132.6</ele>
        <time>2021-07-11T07:50:15</time>
      </trkpt>
      <trkpt lat="47.96262" lon="2.09193">
        <ele>132.6</ele>
        <time>2021-07-11T07:50:16</time>
      </trkpt>
      <trkpt lat="47.96268" lon="2.09192">
        <ele>132.6</ele>
        <time>2021-07-11T07:50:17</time>
      </trkpt>
      <trkpt lat="47.96273" lon="2.09191">
        <ele>132.6</ele>
        <time>2021-07-11T07:50:18</time>
      </trkpt>
      <trkpt lat="47.96279" lon="2.09191">
        <ele>132.6</ele>
        <time>2021-07-11T07:50:19</time>
      </trkpt>
      <trkpt lat="47.96285" lon="2.0919">
        <ele>132.6</ele>
        <time>2021-07-11T07:50:20</time>
      </trkpt>
      <trkpt lat="47.96291" lon="2.0919">
        <ele>132.6</ele>
        <time>2021-07-11T07:50:21</time>
      </trkpt>
      <trkpt lat="47.96297" lon="2.09189">
        <ele>132.6</ele>
        <time>2021-07-11T07:50:22</time>
      </trkpt>
      <trkpt lat="47.96303" lon="2.09188">
        <ele>132.6</ele>
        <time>2021-07-11T07:50:23</time>
      </trkpt>
      <trkpt lat="47.96309" lon="2.09188">
        <ele>132.4</ele>
        <time>2021-07-11T07:50:24</time>
      </trkpt>
      <trkpt lat="47.96315" lon="2.09188">
        <ele>132.4</ele>
        <time>2021-07-11T07:50:25</time>
      </trkpt>
      <trkpt lat="47.96322" lon="2.09187">
        <ele>132.2</ele>
        <time>2021-07-11T07:50:26</time>
      </trkpt>
      <trkpt lat="47.96328" lon="2.09186">
        <ele>132.2</ele>
        <time>2021-07-11T07:50:27</time>
      </trkpt>
      <trkpt lat="47.96334" lon="2.09186">
        <ele>132.2</ele>
        <time>2021-07-11T07:50:28</time>
      </trkpt>
      <trkpt lat="47.96341" lon="2.09185">
        <ele>132.2</ele>
        <time>2021-07-11T07:50:29</time>
      </trkpt>
      <trkpt lat="47.96347" lon="2.09185">
        <ele>132</ele>
        <time>2021-07-11T07:50:30</time>
      </trkpt>
      <trkpt lat="47.96354" lon="2.09184">
        <ele>131.8</ele>
        <time>2021-07-11T07:50:31</time>
      </trkpt>
      <trkpt lat="47.9636" lon="2.09184">
        <ele>131.8</ele>
        <time>2021-07-11T07:50:32</time>
      </trkpt>
      <trkpt lat="47.96367" lon="2.09183">
        <ele>131.6</ele>
        <time>2021-07-11T07:50:33</time>
      </trkpt>
      <trkpt lat="47.96374" lon="2.09183">
        <ele>131.6</ele>
        <time>2021-07-11T07:50:34</time>
      </trkpt>
      <trkpt lat="47.96381" lon="2.09182">
        <ele>131.4</ele>
        <time>2021-07-11T07:50:35</time>
      </trkpt>
      <trkpt lat="47.96387" lon="2.09181">
        <ele>131.4</ele>
        <time>2021-07-11T07:50:36</time>
      </trkpt>
      <trkpt lat="47.96394" lon="2.0918">
        <ele>131.4</ele>
        <time>2021-07-11T07:50:37</time>
      </trkpt>
      <trkpt lat="47.96401" lon="2.0918">
        <ele>131.6</ele>
        <time>2021-07-11T07:50:38</time>
      </trkpt>
      <trkpt lat="47.96407" lon="2.09179">
        <ele>131.8</ele>
        <time>2021-07-11T07:50:39</time>
      </trkpt>
      <trkpt lat="47.96414" lon="2.09178">
        <ele>131.8</ele>
        <time>2021-07-11T07:50:40</time>
      </trkpt>
      <trkpt lat="47.9642" lon="2.09178">
        <ele>132</ele>
        <time>2021-07-11T07:50:41</time>
      </trkpt>
      <trkpt lat="47.96427" lon="2.09178">
        <ele>132.2</ele>
        <time>2021-07-11T07:50:42</time>
      </trkpt>
      <trkpt lat="47.96433" lon="2.09178">
        <ele>132.2</ele>
        <time>2021-07-11T07:50:43</time>
      </trkpt>
      <trkpt lat="47.9644" lon="2.09177">
        <ele>132.2</ele>
        <time>2021-07-11T07:50:44</time>
      </trkpt>
      <trkpt lat="47.96447" lon="2.09176">
        <ele>132.2</ele>
        <time>2021-07-11T07:50:45</time>
      </trkpt>
      <trkpt lat="47.96453" lon="2.09175">
        <ele>132.2</ele>
        <time>2021-07-11T07:50:46</time>
      </trkpt>
      <trkpt lat="47.9646" lon="2.09174">
        <ele>132.2</ele>
        <time>2021-07-11T07:50:47</time>
      </trkpt>
      <trkpt lat="47.96466" lon="2.09173">
        <ele>132.2</ele>
        <time>2021-07-11T07:50:48</time>
      </trkpt>
      <trkpt lat="47.96473" lon="2.09173">
        <ele>132.2</ele>
        <time>2021-07-11T07:50:49</time>
      </trkpt>
      <trkpt lat="47.9648" lon="2.09172">
        <ele>132.2</ele>
        <time>2021-07-11T07:50:50</time>
      </trkpt>
      <trkpt lat="47.96486" lon="2.09172">
        <ele>132</ele>
        <time>2021-07-11T07:50:51</time>
      </trkpt>
      <trkpt lat="47.96493" lon="2.09172">
        <ele>132.2</ele>
        <time>2021-07-11T07:50:52</time>
      </trkpt>
      <trkpt lat="47.96499" lon="2.09172">
        <ele>132</ele>
        <time>2021-07-11T07:50:53</time>
      </trkpt>
      <trkpt lat="47.96505" lon="2.0917">
        <ele>132</ele>
        <time>2021-07-11T07:50:54</time>
      </trkpt>
      <trkpt lat="47.96512" lon="2.09169">
        <ele>132</ele>
        <time>2021-07-11T07:50:55</time>
      </trkpt>
      <trkpt lat="47.96518" lon="2.09169">
        <ele>132</ele>
        <time>2021-07-11T07:50:56</time>
      </trkpt>
      <trkpt lat="47.96525" lon="2.09168">
        <ele>132</ele>
        <time>2021-07-11T07:50:57</time>
      </trkpt>
      <trkpt lat="47.96532" lon="2.09167">
        <ele>131.8</ele>
        <time>2021-07-11T07:50:58</time>
      </trkpt>
      <trkpt lat="47.96538" lon="2.09166">
        <ele>131.8</ele>
        <time>2021-07-11T07:50:59</time>
      </trkpt>
      <trkpt lat="47.96545" lon="2.09165">
        <ele>132</ele>
        <time>2021-07-11T07:51:00</time>
      </trkpt>
      <trkpt lat="47.96552" lon="2.09164">
        <ele>131.8</ele>
        <time>2021-07-11T07:51:01</time>
      </trkpt>
      <trkpt lat="47.96559" lon="2.09163">
        <ele>131.8</ele>
        <time>2021-07-11T07:51:02</time>
      </trkpt>
      <trkpt lat="47.96566" lon="2.09162">
        <ele>131.8</ele>
        <time>2021-07-11T07:51:03</time>
      </trkpt>
      <trkpt lat="47.96573" lon="2.09162">
        <ele>131.8</ele>
        <time>2021-07-11T07:51:04</time>
      </trkpt>
      <trkpt lat="47.9658" lon="2.09161">
        <ele>132</ele>
        <time>2021-07-11T07:51:05</time>
      </trkpt>
      <trkpt lat="47.96586" lon="2.09161">
        <ele>132</ele>
        <time>2021-07-11T07:51:06</time>
      </trkpt>
      <trkpt lat="47.96593" lon="2.0916">
        <ele>132</ele>
        <time>2021-07-11T07:51:07</time>
      </trkpt>
      <trkpt lat="47.966" lon="2.09159">
        <ele>132</ele>
        <time>2021-07-11T07:51:08</time>
      </trkpt>
      <trkpt lat="47.96606" lon="2.09158">
        <ele>132.2</ele>
        <time>2021-07-11T07:51:09</time>
      </trkpt>
      <trkpt lat="47.96612" lon="2.09157">
        <ele>132.2</ele>
        <time>2021-07-11T07:51:10</time>
      </trkpt>
      <trkpt lat="47.96618" lon="2.09156">
        <ele>132.2</ele>
        <time>2021-07-11T07:51:11</time>
      </trkpt>
      <trkpt lat="47.96624" lon="2.09155">
        <ele>132.2</ele>
        <time>2021-07-11T07:51:12</time>
      </trkpt>
      <trkpt lat="47.9663" lon="2.09155">
        <ele>132.2</ele>
        <time>2021-07-11T07:51:13</time>
      </trkpt>
      <trkpt lat="47.96636" lon="2.09155">
        <ele>132.2</ele>
        <time>2021-07-11T07:51:14</time>
      </trkpt>
      <trkpt lat="47.96642" lon="2.09154">
        <ele>132</ele>
        <time>2021-07-11T07:51:15</time>
      </trkpt>
      <trkpt lat="47.96648" lon="2.09153">
        <ele>132</ele>
        <time>2021-07-11T07:51:16</time>
      </trkpt>
      <trkpt lat="47.96654" lon="2.09153">
        <ele>132</ele>
        <time>2021-07-11T07:51:17</time>
      </trkpt>
      <trkpt lat="47.96661" lon="2.09153">
        <ele>132</ele>
        <time>2021-07-11T07:51:18</time>
      </trkpt>
      <trkpt lat="47.96667" lon="2.09152">
        <ele>132</ele>
        <time>2021-07-11T07:51:19</time>
      </trkpt>
      <trkpt lat="47.96673" lon="2.09151">
        <ele>132</ele>
        <time>2021-07-11T07:51:20</time>
      </trkpt>
      <trkpt lat="47.96679" lon="2.09149">
        <ele>131.8</ele>
        <time>2021-07-11T07:51:21</time>
      </trkpt>
      <trkpt lat="47.96685" lon="2.09148">
        <ele>131.8</ele>
        <time>2021-07-11T07:51:22</time>
      </trkpt>
      <trkpt lat="47.96691" lon="2.09148">
        <ele>131.8</ele>
        <time>2021-07-11T07:51:23</time>
      </trkpt>
      <trkpt lat="47.96696" lon="2.09148">
        <ele>131.6</ele>
        <time>2021-07-11T07:51:24</time>
      </trkpt>
      <trkpt lat="47.96701" lon="2.09148">
        <ele>131.6</ele>
        <time>2021-07-11T07:51:25</time>
      </trkpt>
      <trkpt lat="47.96707" lon="2.09147">
        <ele>131.4</ele>
        <time>2021-07-11T07:51:26</time>
      </trkpt>
      <trkpt lat="47.96712" lon="2.09146">
        <ele>131.2</ele>
        <time>2021-07-11T07:51:27</time>
      </trkpt>
      <trkpt lat="47.96719" lon="2.09146">
        <ele>131</ele>
        <time>2021-07-11T07:51:28</time>
      </trkpt>
      <trkpt lat="47.96725" lon="2.09146">
        <ele>130.8</ele>
        <time>2021-07-11T07:51:29</time>
      </trkpt>
      <trkpt lat="47.96731" lon="2.09146">
        <ele>130.8</ele>
        <time>2021-07-11T07:51:30</time>
      </trkpt>
      <trkpt lat="47.96738" lon="2.09145">
        <ele>130.8</ele>
        <time>2021-07-11T07:51:31</time>
      </trkpt>
      <trkpt lat="47.96745" lon="2.09144">
        <ele>130.8</ele>
        <time>2021-07-11T07:51:32</time>
      </trkpt>
      <trkpt lat="47.96752" lon="2.09144">
        <ele>130.8</ele>
        <time>2021-07-11T07:51:33</time>
      </trkpt>
      <trkpt lat="47.96759" lon="2.09143">
        <ele>131</ele>
        <time>2021-07-11T07:51:34</time>
      </trkpt>
      <trkpt lat="47.96766" lon="2.09143">
        <ele>131.2</ele>
        <time>2021-07-11T07:51:35</time>
      </trkpt>
      <trkpt lat="47.96774" lon="2.09141">
        <ele>131.2</ele>
        <time>2021-07-11T07:51:36</time>
      </trkpt>
      <trkpt lat="47.9678" lon="2.09139">
        <ele>131.4</ele>
        <time>2021-07-11T07:51:37</time>
      </trkpt>
      <trkpt lat="47.96787" lon="2.09139">
        <ele>131.4</ele>
        <time>2021-07-11T07:51:38</time>
      </trkpt>
      <trkpt lat="47.96801" lon="2.09139">
        <ele>131.6</ele>
        <time>2021-07-11T07:51:39</time>
      </trkpt>
      <trkpt lat="47.96807" lon="2.09137">
        <ele>131.6</ele>
        <time>2021-07-11T07:51:41</time>
      </trkpt>
      <trkpt lat="47.96813" lon="2.09136">
        <ele>131.6</ele>
        <time>2021-07-11T07:51:42</time>
      </trkpt>
      <trkpt lat="47.96819" lon="2.09135">
        <ele>131.6</ele>
        <time>2021-07-11T07:51:43</time>
      </trkpt>
      <trkpt lat="47.96825" lon="2.09134">
        <ele>131.4</ele>
        <time>2021-07-11T07:51:44</time>
      </trkpt>
      <trkpt lat="47.96831" lon="2.09135">
        <ele>131.4</ele>
        <time>2021-07-11T07:51:45</time>
      </trkpt>
      <trkpt lat="47.96837" lon="2.09134">
        <ele>131.4</ele>
        <time>2021-07-11T07:51:46</time>
      </trkpt>
      <trkpt lat="47.96843" lon="2.09133">
        <ele>131.4</ele>
        <time>2021-07-11T07:51:47</time>
      </trkpt>
      <trkpt lat="47.96849" lon="2.09132">
        <ele>131.4</ele>
        <time>2021-07-11T07:51:48</time>
      </trkpt>
      <trkpt lat="47.96855" lon="2.09131">
        <ele>131.4</ele>
        <time>2021-07-11T07:51:49</time>
      </trkpt>
      <trkpt lat="47.9686" lon="2.09131">
        <ele>131.4</ele>
        <time>2021-07-11T07:51:50</time>
      </trkpt>
      <trkpt lat="47.96865" lon="2.09131">
        <ele>131.4</ele>
        <time>2021-07-11T07:51:51</time>
      </trkpt>
      <trkpt lat="47.9687" lon="2.0913">
        <ele>131.4</ele>
        <time>2021-07-11T07:51:52</time>
      </trkpt>
      <trkpt lat="47.96873" lon="2.09129">
        <ele>131.6</ele>
        <time>2021-07-11T07:51:53</time>
      </trkpt>
      <trkpt lat="47.96877" lon="2.09126">
        <ele>131.8</ele>
        <time>2021-07-11T07:51:54</time>
      </trkpt>
      <trkpt lat="47.96882" lon="2.09123">
        <ele>131.6</ele>
        <time>2021-07-11T07:51:55</time>
      </trkpt>
      <trkpt lat="47.96885" lon="2.09121">
        <ele>131.8</ele>
        <time>2021-07-11T07:51:56</time>
      </trkpt>
      <trkpt lat="47.96888" lon="2.0912">
        <ele>132.2</ele>
        <time>2021-07-11T07:51:57</time>
      </trkpt>
      <trkpt lat="47.9689" lon="2.09118">
        <ele>132.2</ele>
        <time>2021-07-11T07:51:58</time>
      </trkpt>
      <trkpt lat="47.96893" lon="2.09118">
        <ele>132.4</ele>
        <time>2021-07-11T07:51:59</time>
      </trkpt>
      <trkpt lat="47.96896" lon="2.09116">
        <ele>132.4</ele>
        <time>2021-07-11T07:52:00</time>
      </trkpt>
      <trkpt lat="47.96899" lon="2.09115">
        <ele>132.4</ele>
        <time>2021-07-11T07:52:01</time>
      </trkpt>
      <trkpt lat="47.96902" lon="2.09114">
        <ele>132.4</ele>
        <time>2021-07-11T07:52:02</time>
      </trkpt>
      <trkpt lat="47.96906" lon="2.09111">
        <ele>132.6</ele>
        <time>2021-07-11T07:52:03</time>
      </trkpt>
      <trkpt lat="47.96909" lon="2.09109">
        <ele>132.6</ele>
        <time>2021-07-11T07:52:04</time>
      </trkpt>
      <trkpt lat="47.96912" lon="2.09106">
        <ele>132.6</ele>
        <time>2021-07-11T07:52:05</time>
      </trkpt>
      <trkpt lat="47.96915" lon="2.09102">
        <ele>132.6</ele>
        <time>2021-07-11T07:52:06</time>
      </trkpt>
      <trkpt lat="47.96917" lon="2.09099">
        <ele>132.6</ele>
        <time>2021-07-11T07:52:07</time>
      </trkpt>
      <trkpt lat="47.96919" lon="2.09096">
        <ele>132.4</ele>
        <time>2021-07-11T07:52:08</time>
      </trkpt>
      <trkpt lat="47.96921" lon="2.09091">
        <ele>132.6</ele>
        <time>2021-07-11T07:52:09</time>
      </trkpt>
      <trkpt lat="47.96921" lon="2.09087">
        <ele>132.6</ele>
        <time>2021-07-11T07:52:10</time>
      </trkpt>
      <trkpt lat="47.96919" lon="2.09082">
        <ele>132.4</ele>
        <time>2021-07-11T07:52:11</time>
      </trkpt>
      <trkpt lat="47.96917" lon="2.09079">
        <ele>132.4</ele>
        <time>2021-07-11T07:52:12</time>
      </trkpt>
      <trkpt lat="47.96914" lon="2.09079">
        <ele>132.4</ele>
        <time>2021-07-11T07:52:13</time>
      </trkpt>
      <trkpt lat="47.9691" lon="2.09077">
        <ele>132.2</ele>
        <time>2021-07-11T07:52:14</time>
      </trkpt>
      <trkpt lat="47.96908" lon="2.09073">
        <ele>132.4</ele>
        <time>2021-07-11T07:52:15</time>
      </trkpt>
      <trkpt lat="47.96907" lon="2.09068">
        <ele>132.4</ele>
        <time>2021-07-11T07:52:16</time>
      </trkpt>
      <trkpt lat="47.96907" lon="2.09064">
        <ele>132.6</ele>
        <time>2021-07-11T07:52:17</time>
      </trkpt>
      <trkpt lat="47.96909" lon="2.09061">
        <ele>132.6</ele>
        <time>2021-07-11T07:52:18</time>
      </trkpt>
      <trkpt lat="47.96911" lon="2.09059">
        <ele>132.6</ele>
        <time>2021-07-11T07:52:19</time>
      </trkpt>
      <trkpt lat="47.96914" lon="2.09057">
        <ele>132.6</ele>
        <time>2021-07-11T07:52:20</time>
      </trkpt>
      <trkpt lat="47.96916" lon="2.09055">
        <ele>132.8</ele>
        <time>2021-07-11T07:52:21</time>
      </trkpt>
      <trkpt lat="47.96919" lon="2.09054">
        <ele>132.8</ele>
        <time>2021-07-11T07:52:22</time>
      </trkpt>
      <trkpt lat="47.96921" lon="2.09052">
        <ele>132.8</ele>
        <time>2021-07-11T07:52:23</time>
      </trkpt>
      <trkpt lat="47.96924" lon="2.09051">
        <ele>132.8</ele>
        <time>2021-07-11T07:52:24</time>
      </trkpt>
      <trkpt lat="47.96927" lon="2.09049">
        <ele>132.8</ele>
        <time>2021-07-11T07:52:25</time>
      </trkpt>
      <trkpt lat="47.9693" lon="2.09045">
        <ele>132.8</ele>
        <time>2021-07-11T07:52:26</time>
      </trkpt>
      <trkpt lat="47.96932" lon="2.09041">
        <ele>133</ele>
        <time>2021-07-11T07:52:27</time>
      </trkpt>
      <trkpt lat="47.96932" lon="2.09036">
        <ele>133.2</ele>
        <time>2021-07-11T07:52:28</time>
      </trkpt>
      <trkpt lat="47.96933" lon="2.09031">
        <ele>133.2</ele>
        <time>2021-07-11T07:52:29</time>
      </trkpt>
      <trkpt lat="47.96934" lon="2.09025">
        <ele>133.4</ele>
        <time>2021-07-11T07:52:30</time>
      </trkpt>
      <trkpt lat="47.96935" lon="2.0902">
        <ele>133.4</ele>
        <time>2021-07-11T07:52:31</time>
      </trkpt>
      <trkpt lat="47.96937" lon="2.09015">
        <ele>133.6</ele>
        <time>2021-07-11T07:52:32</time>
      </trkpt>
      <trkpt lat="47.96938" lon="2.09009">
        <ele>133.8</ele>
        <time>2021-07-11T07:52:33</time>
      </trkpt>
      <trkpt lat="47.9694" lon="2.09004">
        <ele>133.8</ele>
        <time>2021-07-11T07:52:34</time>
      </trkpt>
      <trkpt lat="47.96941" lon="2.08999">
        <ele>134</ele>
        <time>2021-07-11T07:52:35</time>
      </trkpt>
      <trkpt lat="47.96943" lon="2.08994">
        <ele>134.2</ele>
        <time>2021-07-11T07:52:36</time>
      </trkpt>
      <trkpt lat="47.96944" lon="2.08989">
        <ele>134.2</ele>
        <time>2021-07-11T07:52:37</time>
      </trkpt>
      <trkpt lat="47.96945" lon="2.08984">
        <ele>134.4</ele>
        <time>2021-07-11T07:52:38</time>
      </trkpt>
      <trkpt lat="47.96946" lon="2.08979">
        <ele>134.6</ele>
        <time>2021-07-11T07:52:39</time>
      </trkpt>
      <trkpt lat="47.96947" lon="2.08975">
        <ele>134.6</ele>
        <time>2021-07-11T07:52:40</time>
      </trkpt>
      <trkpt lat="47.96948" lon="2.08971">
        <ele>134.6</ele>
        <time>2021-07-11T07:52:41</time>
      </trkpt>
      <trkpt lat="47.96949" lon="2.08967">
        <ele>134.6</ele>
        <time>2021-07-11T07:52:42</time>
      </trkpt>
      <trkpt lat="47.9695" lon="2.08963">
        <ele>134.8</ele>
        <time>2021-07-11T07:52:43</time>
      </trkpt>
      <trkpt lat="47.9695" lon="2.08959">
        <ele>135</ele>
        <time>2021-07-11T07:52:44</time>
      </trkpt>
      <trkpt lat="47.96951" lon="2.08954">
        <ele>135</ele>
        <time>2021-07-11T07:52:45</time>
      </trkpt>
      <trkpt lat="47.96952" lon="2.08949">
        <ele>135.2</ele>
        <time>2021-07-11T07:52:46</time>
      </trkpt>
      <trkpt lat="47.96953" lon="2.08944">
        <ele>135.2</ele>
        <time>2021-07-11T07:52:47</time>
      </trkpt>
      <trkpt lat="47.96953" lon="2.08939">
        <ele>135.4</ele>
        <time>2021-07-11T07:52:48</time>
      </trkpt>
      <trkpt lat="47.96953" lon="2.08933">
        <ele>135.6</ele>
        <time>2021-07-11T07:52:49</time>
      </trkpt>
      <trkpt lat="47.96953" lon="2.08928">
        <ele>135.6</ele>
        <time>2021-07-11T07:52:50</time>
      </trkpt>
      <trkpt lat="47.96952" lon="2.08922">
        <ele>135.8</ele>
        <time>2021-07-11T07:52:51</time>
      </trkpt>
      <trkpt lat="47.96952" lon="2.08917">
        <ele>136</ele>
        <time>2021-07-11T07:52:52</time>
      </trkpt>
      <trkpt lat="47.96951" lon="2.08911">
        <ele>136</ele>
        <time>2021-07-11T07:52:53</time>
      </trkpt>
      <trkpt lat="47.9695" lon="2.08905">
        <ele>136.2</ele>
        <time>2021-07-11T07:52:54</time>
      </trkpt>
      <trkpt lat="47.96949" lon="2.08899">
        <ele>136.2</ele>
        <time>2021-07-11T07:52:55</time>
      </trkpt>
      <trkpt lat="47.96948" lon="2.08894">
        <ele>136.2</ele>
        <time>2021-07-11T07:52:56</time>
      </trkpt>
      <trkpt lat="47.96946" lon="2.0889">
        <ele>136.2</ele>
        <time>2021-07-11T07:52:57</time>
      </trkpt>
      <trkpt lat="47.96943" lon="2.08885">
        <ele>136</ele>
        <time>2021-07-11T07:52:58</time>
      </trkpt>
      <trkpt lat="47.96941" lon="2.08881">
        <ele>135.8</ele>
        <time>2021-07-11T07:52:59</time>
      </trkpt>
      <trkpt lat="47.96938" lon="2.08877">
        <ele>135.8</ele>
        <time>2021-07-11T07:53:00</time>
      </trkpt>
      <trkpt lat="47.96935" lon="2.08874">
        <ele>135.6</ele>
        <time>2021-07-11T07:53:01</time>
      </trkpt>
      <trkpt lat="47.96932" lon="2.0887">
        <ele>135.6</ele>
        <time>2021-07-11T07:53:02</time>
      </trkpt>
      <trkpt lat="47.96929" lon="2.08867">
        <ele>135.6</ele>
        <time>2021-07-11T07:53:03</time>
      </trkpt>
      <trkpt lat="47.96925" lon="2.08864">
        <ele>135.4</ele>
        <time>2021-07-11T07:53:04</time>
      </trkpt>
      <trkpt lat="47.96922" lon="2.0886">
        <ele>135.4</ele>
        <time>2021-07-11T07:53:05</time>
      </trkpt>
      <trkpt lat="47.96919" lon="2.08857">
        <ele>135.2</ele>
        <time>2021-07-11T07:53:06</time>
      </trkpt>
      <trkpt lat="47.96915" lon="2.08854">
        <ele>135.2</ele>
        <time>2021-07-11T07:53:07</time>
      </trkpt>
      <trkpt lat="47.96912" lon="2.08851">
        <ele>135</ele>
        <time>2021-07-11T07:53:08</time>
      </trkpt>
      <trkpt lat="47.96908" lon="2.08848">
        <ele>135</ele>
        <time>2021-07-11T07:53:09</time>
      </trkpt>
      <trkpt lat="47.96905" lon="2.08845">
        <ele>135</ele>
        <time>2021-07-11T07:53:10</time>
      </trkpt>
      <trkpt lat="47.96901" lon="2.08842">
        <ele>135</ele>
        <time>2021-07-11T07:53:11</time>
      </trkpt>
      <trkpt lat="47.96897" lon="2.0884">
        <ele>135</ele>
        <time>2021-07-11T07:53:12</time>
      </trkpt>
      <trkpt lat="47.96893" lon="2.08838">
        <ele>134.8</ele>
        <time>2021-07-11T07:53:13</time>
      </trkpt>
      <trkpt lat="47.96889" lon="2.08836">
        <ele>134.8</ele>
        <time>2021-07-11T07:53:14</time>
      </trkpt>
      <trkpt lat="47.96884" lon="2.08835">
        <ele>134.8</ele>
        <time>2021-07-11T07:53:15</time>
      </trkpt>
      <trkpt lat="47.9688" lon="2.08834">
        <ele>134.6</ele>
        <time>2021-07-11T07:53:16</time>
      </trkpt>
      <trkpt lat="47.96878" lon="2.08829">
        <ele>134.6</ele>
        <time>2021-07-11T07:54:51</time>
      </trkpt>
      <trkpt lat="47.96879" lon="2.08825">
        <ele>134.6</ele>
        <time>2021-07-11T07:54:52</time>
      </trkpt>
      <trkpt lat="47.9688" lon="2.08821">
        <ele>134.6</ele>
        <time>2021-07-11T07:54:53</time>
      </trkpt>
      <trkpt lat="47.9688" lon="2.08815">
        <ele>134.6</ele>
        <time>2021-07-11T07:54:54</time>
      </trkpt>
      <trkpt lat="47.96879" lon="2.08811">
        <ele>134.6</ele>
        <time>2021-07-11T07:54:55</time>
      </trkpt>
      <trkpt lat="47.96878" lon="2.08807">
        <ele>134.6</ele>
        <time>2021-07-11T07:54:56</time>
      </trkpt>
      <trkpt lat="47.96876" lon="2.08802">
        <ele>134.6</ele>
        <time>2021-07-11T07:54:57</time>
      </trkpt>
      <trkpt lat="47.96874" lon="2.08798">
        <ele>134.4</ele>
        <time>2021-07-11T07:54:58</time>
      </trkpt>
      <trkpt lat="47.96873" lon="2.08794">
        <ele>134.4</ele>
        <time>2021-07-11T07:54:59</time>
      </trkpt>
      <trkpt lat="47.96872" lon="2.08788">
        <ele>134.2</ele>
        <time>2021-07-11T07:55:00</time>
      </trkpt>
      <trkpt lat="47.96871" lon="2.08782">
        <ele>134.2</ele>
        <time>2021-07-11T07:55:01</time>
      </trkpt>
      <trkpt lat="47.96871" lon="2.08777">
        <ele>134.2</ele>
        <time>2021-07-11T07:55:02</time>
      </trkpt>
      <trkpt lat="47.96871" lon="2.08773">
        <ele>134</ele>
        <time>2021-07-11T07:55:03</time>
      </trkpt>
      <trkpt lat="47.96872" lon="2.08767">
        <ele>134</ele>
        <time>2021-07-11T07:55:04</time>
      </trkpt>
      <trkpt lat="47.96871" lon="2.08763">
        <ele>133.8</ele>
        <time>2021-07-11T07:55:05</time>
      </trkpt>
      <trkpt lat="47.96871" lon="2.08758">
        <ele>133.8</ele>
        <time>2021-07-11T07:55:06</time>
      </trkpt>
      <trkpt lat="47.96873" lon="2.0875">
        <ele>133.6</ele>
        <time>2021-07-11T07:55:07</time>
      </trkpt>
      <trkpt lat="47.96872" lon="2.08745">
        <ele>133.4</ele>
        <time>2021-07-11T07:55:08</time>
      </trkpt>
      <trkpt lat="47.96871" lon="2.08732">
        <ele>133.4</ele>
        <time>2021-07-11T07:55:09</time>
      </trkpt>
      <trkpt lat="47.96871" lon="2.08726">
        <ele>133.2</ele>
        <time>2021-07-11T07:55:11</time>
      </trkpt>
      <trkpt lat="47.96871" lon="2.08719">
        <ele>133</ele>
        <time>2021-07-11T07:55:12</time>
      </trkpt>
      <trkpt lat="47.96871" lon="2.0871">
        <ele>133.2</ele>
        <time>2021-07-11T07:55:13</time>
      </trkpt>
      <trkpt lat="47.96871" lon="2.08704">
        <ele>133.2</ele>
        <time>2021-07-11T07:55:14</time>
      </trkpt>
      <trkpt lat="47.96871" lon="2.08697">
        <ele>133</ele>
        <time>2021-07-11T07:55:15</time>
      </trkpt>
      <trkpt lat="47.9687" lon="2.08691">
        <ele>133</ele>
        <time>2021-07-11T07:55:16</time>
      </trkpt>
      <trkpt lat="47.96871" lon="2.08685">
        <ele>133.2</ele>
        <time>2021-07-11T07:55:17</time>
      </trkpt>
      <trkpt lat="47.9687" lon="2.08678">
        <ele>133.2</ele>
        <time>2021-07-11T07:55:18</time>
      </trkpt>
      <trkpt lat="47.9687" lon="2.08672">
        <ele>133.2</ele>
        <time>2021-07-11T07:55:19</time>
      </trkpt>
      <trkpt lat="47.9687" lon="2.08666">
        <ele>133.2</ele>
        <time>2021-07-11T07:55:20</time>
      </trkpt>
      <trkpt lat="47.9687" lon="2.08659">
        <ele>133.4</ele>
        <time>2021-07-11T07:55:21</time>
      </trkpt>
      <trkpt lat="47.96869" lon="2.08653">
        <ele>133.4</ele>
        <time>2021-07-11T07:55:22</time>
      </trkpt>
      <trkpt lat="47.96869" lon="2.08645">
        <ele>133.4</ele>
        <time>2021-07-11T07:55:23</time>
      </trkpt>
      <trkpt lat="47.96868" lon="2.0864">
        <ele>133.6</ele>
        <time>2021-07-11T07:55:24</time>
      </trkpt>
      <trkpt lat="47.96869" lon="2.08633">
        <ele>133.6</ele>
        <time>2021-07-11T07:55:25</time>
      </trkpt>
      <trkpt lat="47.96868" lon="2.08628">
        <ele>133.8</ele>
        <time>2021-07-11T07:55:26</time>
      </trkpt>
      <trkpt lat="47.96868" lon="2.08623">
        <ele>134</ele>
        <time>2021-07-11T07:55:27</time>
      </trkpt>
      <trkpt lat="47.96868" lon="2.08618">
        <ele>134.2</ele>
        <time>2021-07-11T07:55:28</time>
      </trkpt>
      <trkpt lat="47.96868" lon="2.08611">
        <ele>134.2</ele>
        <time>2021-07-11T07:55:29</time>
      </trkpt>
      <trkpt lat="47.96868" lon="2.08605">
        <ele>134.4</ele>
        <time>2021-07-11T07:55:30</time>
      </trkpt>
      <trkpt lat="47.96868" lon="2.08599">
        <ele>134.6</ele>
        <time>2021-07-11T07:55:31</time>
      </trkpt>
      <trkpt lat="47.96869" lon="2.08593">
        <ele>134.8</ele>
        <time>2021-07-11T07:55:32</time>
      </trkpt>
      <trkpt lat="47.9687" lon="2.08589">
        <ele>135</ele>
        <time>2021-07-11T07:55:33</time>
      </trkpt>
      <trkpt lat="47.96871" lon="2.08582">
        <ele>135.2</ele>
        <time>2021-07-11T07:55:34</time>
      </trkpt>
      <trkpt lat="47.9687" lon="2.08575">
        <ele>135.2</ele>
        <time>2021-07-11T07:55:35</time>
      </trkpt>
      <trkpt lat="47.9687" lon="2.08569">
        <ele>135.4</ele>
        <time>2021-07-11T07:55:36</time>
      </trkpt>
      <trkpt lat="47.9687" lon="2.08561">
        <ele>135.6</ele>
        <time>2021-07-11T07:55:37</time>
      </trkpt>
      <trkpt lat="47.9687" lon="2.08556">
        <ele>135.8</ele>
        <time>2021-07-11T07:55:38</time>
      </trkpt>
      <trkpt lat="47.9687" lon="2.08548">
        <ele>136</ele>
        <time>2021-07-11T07:55:39</time>
      </trkpt>
      <trkpt lat="47.96869" lon="2.0854">
        <ele>136</ele>
        <time>2021-07-11T07:55:40</time>
      </trkpt>
      <trkpt lat="47.96869" lon="2.08533">
        <ele>136.4</ele>
        <time>2021-07-11T07:55:41</time>
      </trkpt>
      <trkpt lat="47.9687" lon="2.08527">
        <ele>136.4</ele>
        <time>2021-07-11T07:55:42</time>
      </trkpt>
      <trkpt lat="47.9687" lon="2.08521">
        <ele>136.8</ele>
        <time>2021-07-11T07:55:43</time>
      </trkpt>
      <trkpt lat="47.96868" lon="2.08515">
        <ele>137</ele>
        <time>2021-07-11T07:55:44</time>
      </trkpt>
      <trkpt lat="47.96866" lon="2.08511">
        <ele>137</ele>
        <time>2021-07-11T07:55:45</time>
      </trkpt>
      <trkpt lat="47.96864" lon="2.08507">
        <ele>136.8</ele>
        <time>2021-07-11T07:55:46</time>
      </trkpt>
      <trkpt lat="47.96859" lon="2.08503">
        <ele>136.8</ele>
        <time>2021-07-11T07:55:47</time>
      </trkpt>
      <trkpt lat="47.96853" lon="2.08502">
        <ele>136.6</ele>
        <time>2021-07-11T07:55:48</time>
      </trkpt>
      <trkpt lat="47.96848" lon="2.08499">
        <ele>136.4</ele>
        <time>2021-07-11T07:55:49</time>
      </trkpt>
      <trkpt lat="47.96841" lon="2.08495">
        <ele>136.2</ele>
        <time>2021-07-11T07:55:50</time>
      </trkpt>
      <trkpt lat="47.96836" lon="2.08495">
        <ele>136</ele>
        <time>2021-07-11T07:55:51</time>
      </trkpt>
      <trkpt lat="47.9683" lon="2.08494">
        <ele>135.8</ele>
        <time>2021-07-11T07:55:52</time>
      </trkpt>
      <trkpt lat="47.96825" lon="2.08494">
        <ele>135.8</ele>
        <time>2021-07-11T07:55:53</time>
      </trkpt>
      <trkpt lat="47.9682" lon="2.08495">
        <ele>135.6</ele>
        <time>2021-07-11T07:55:54</time>
      </trkpt>
      <trkpt lat="47.96815" lon="2.08495">
        <ele>135.4</ele>
        <time>2021-07-11T07:55:55</time>
      </trkpt>
      <trkpt lat="47.96811" lon="2.08496">
        <ele>135.2</ele>
        <time>2021-07-11T07:55:56</time>
      </trkpt>
      <trkpt lat="47.96805" lon="2.08498">
        <ele>135.2</ele>
        <time>2021-07-11T07:55:57</time>
      </trkpt>
      <trkpt lat="47.968" lon="2.08498">
        <ele>135</ele>
        <time>2021-07-11T07:55:58</time>
      </trkpt>
      <trkpt lat="47.96794" lon="2.08499">
        <ele>135</ele>
        <time>2021-07-11T07:55:59</time>
      </trkpt>
      <trkpt lat="47.96789" lon="2.08499">
        <ele>134.8</ele>
        <time>2021-07-11T07:56:00</time>
      </trkpt>
      <trkpt lat="47.96777" lon="2.08502">
        <ele>134.6</ele>
        <time>2021-07-11T07:56:01</time>
      </trkpt>
      <trkpt lat="47.96772" lon="2.08502">
        <ele>134.4</ele>
        <time>2021-07-11T07:56:03</time>
      </trkpt>
      <trkpt lat="47.96766" lon="2.08502">
        <ele>134.4</ele>
        <time>2021-07-11T07:56:04</time>
      </trkpt>
      <trkpt lat="47.9676" lon="2.08505">
        <ele>134.2</ele>
        <time>2021-07-11T07:56:05</time>
      </trkpt>
      <trkpt lat="47.96754" lon="2.08506">
        <ele>134</ele>
        <time>2021-07-11T07:56:06</time>
      </trkpt>
      <trkpt lat="47.96748" lon="2.08507">
        <ele>134</ele>
        <time>2021-07-11T07:56:07</time>
      </trkpt>
      <trkpt lat="47.96741" lon="2.08506">
        <ele>134</ele>
        <time>2021-07-11T07:56:08</time>
      </trkpt>
      <trkpt lat="47.96736" lon="2.08506">
        <ele>134</ele>
        <time>2021-07-11T07:56:09</time>
      </trkpt>
      <trkpt lat="47.96731" lon="2.08507">
        <ele>133.6</ele>
        <time>2021-07-11T07:56:10</time>
      </trkpt>
      <trkpt lat="47.96726" lon="2.08506">
        <ele>133.4</ele>
        <time>2021-07-11T07:56:11</time>
      </trkpt>
      <trkpt lat="47.96721" lon="2.08505">
        <ele>133.4</ele>
        <time>2021-07-11T07:56:12</time>
      </trkpt>
      <trkpt lat="47.96714" lon="2.08504">
        <ele>133.4</ele>
        <time>2021-07-11T07:56:13</time>
      </trkpt>
      <trkpt lat="47.96708" lon="2.08503">
        <ele>133.2</ele>
        <time>2021-07-11T07:56:14</time>
      </trkpt>
      <trkpt lat="47.96701" lon="2.08503">
        <ele>133.2</ele>
        <time>2021-07-11T07:56:15</time>
      </trkpt>
      <trkpt lat="47.96697" lon="2.08502">
        <ele>133</ele>
        <time>2021-07-11T07:56:16</time>
      </trkpt>
      <trkpt lat="47.96692" lon="2.085">
        <ele>133</ele>
        <time>2021-07-11T07:56:17</time>
      </trkpt>
      <trkpt lat="47.96686" lon="2.085">
        <ele>133</ele>
        <time>2021-07-11T07:56:18</time>
      </trkpt>
      <trkpt lat="47.9668" lon="2.08501">
        <ele>132.8</ele>
        <time>2021-07-11T07:56:19</time>
      </trkpt>
      <trkpt lat="47.96675" lon="2.08501">
        <ele>132.6</ele>
        <time>2021-07-11T07:56:20</time>
      </trkpt>
      <trkpt lat="47.96671" lon="2.08499">
        <ele>132.4</ele>
        <time>2021-07-11T07:56:21</time>
      </trkpt>
      <trkpt lat="47.96665" lon="2.08499">
        <ele>132.4</ele>
        <time>2021-07-11T07:56:22</time>
      </trkpt>
      <trkpt lat="47.96658" lon="2.08498">
        <ele>132</ele>
        <time>2021-07-11T07:56:23</time>
      </trkpt>
      <trkpt lat="47.9665" lon="2.08497">
        <ele>132</ele>
        <time>2021-07-11T07:56:24</time>
      </trkpt>
      <trkpt lat="47.96642" lon="2.08497">
        <ele>131.8</ele>
        <time>2021-07-11T07:56:25</time>
      </trkpt>
      <trkpt lat="47.96635" lon="2.08497">
        <ele>131.8</ele>
        <time>2021-07-11T07:56:26</time>
      </trkpt>
      <trkpt lat="47.96627" lon="2.08498">
        <ele>131.6</ele>
        <time>2021-07-11T07:56:27</time>
      </trkpt>
      <trkpt lat="47.96619" lon="2.08498">
        <ele>131.4</ele>
        <time>2021-07-11T07:56:28</time>
      </trkpt>
      <trkpt lat="47.96612" lon="2.08499">
        <ele>131.2</ele>
        <time>2021-07-11T07:56:29</time>
      </trkpt>
      <trkpt lat="47.96603" lon="2.08499">
        <ele>131</ele>
        <time>2021-07-11T07:56:30</time>
      </trkpt>
      <trkpt lat="47.96594" lon="2.08499">
        <ele>130.8</ele>
        <time>2021-07-11T07:56:31</time>
      </trkpt>
      <trkpt lat="47.96587" lon="2.085">
        <ele>130.8</ele>
        <time>2021-07-11T07:56:32</time>
      </trkpt>
      <trkpt lat="47.9658" lon="2.08502">
        <ele>130.6</ele>
        <time>2021-07-11T07:56:33</time>
      </trkpt>
      <trkpt lat="47.96573" lon="2.08503">
        <ele>130.6</ele>
        <time>2021-07-11T07:56:34</time>
      </trkpt>
      <trkpt lat="47.96567" lon="2.08504">
        <ele>130.4</ele>
        <time>2021-07-11T07:56:35</time>
      </trkpt>
      <trkpt lat="47.9656" lon="2.08505">
        <ele>130.4</ele>
        <time>2021-07-11T07:56:36</time>
      </trkpt>
      <trkpt lat="47.96554" lon="2.08507">
        <ele>130.2</ele>
        <time>2021-07-11T07:56:37</time>
      </trkpt>
      <trkpt lat="47.96548" lon="2.08507">
        <ele>130</ele>
        <time>2021-07-11T07:56:38</time>
      </trkpt>
      <trkpt lat="47.96542" lon="2.08508">
        <ele>130.2</ele>
        <time>2021-07-11T07:56:39</time>
      </trkpt>
      <trkpt lat="47.96536" lon="2.08508">
        <ele>130</ele>
        <time>2021-07-11T07:56:40</time>
      </trkpt>
      <trkpt lat="47.96531" lon="2.08509">
        <ele>130</ele>
        <time>2021-07-11T07:56:41</time>
      </trkpt>
      <trkpt lat="47.96525" lon="2.08509">
        <ele>129.8</ele>
        <time>2021-07-11T07:56:42</time>
      </trkpt>
      <trkpt lat="47.96519" lon="2.08509">
        <ele>129.8</ele>
        <time>2021-07-11T07:56:43</time>
      </trkpt>
      <trkpt lat="47.96514" lon="2.08509">
        <ele>129.8</ele>
        <time>2021-07-11T07:56:44</time>
      </trkpt>
      <trkpt lat="47.96508" lon="2.08509">
        <ele>129.8</ele>
        <time>2021-07-11T07:56:45</time>
      </trkpt>
      <trkpt lat="47.96501" lon="2.0851">
        <ele>129.8</ele>
        <time>2021-07-11T07:56:46</time>
      </trkpt>
      <trkpt lat="47.96496" lon="2.08511">
        <ele>129.8</ele>
        <time>2021-07-11T07:56:47</time>
      </trkpt>
      <trkpt lat="47.9649" lon="2.08512">
        <ele>129.8</ele>
        <time>2021-07-11T07:56:48</time>
      </trkpt>
      <trkpt lat="47.96485" lon="2.08512">
        <ele>129.6</ele>
        <time>2021-07-11T07:56:49</time>
      </trkpt>
      <trkpt lat="47.96479" lon="2.08513">
        <ele>129.6</ele>
        <time>2021-07-11T07:56:50</time>
      </trkpt>
      <trkpt lat="47.96474" lon="2.08514">
        <ele>129.6</ele>
        <time>2021-07-11T07:56:51</time>
      </trkpt>
      <trkpt lat="47.96469" lon="2.08514">
        <ele>129.4</ele>
        <time>2021-07-11T07:56:52</time>
      </trkpt>
      <trkpt lat="47.96465" lon="2.08513">
        <ele>129.2</ele>
        <time>2021-07-11T07:56:53</time>
      </trkpt>
      <trkpt lat="47.96461" lon="2.08512">
        <ele>129.2</ele>
        <time>2021-07-11T07:56:54</time>
      </trkpt>
      <trkpt lat="47.96458" lon="2.08511">
        <ele>129</ele>
        <time>2021-07-11T07:56:55</time>
      </trkpt>
      <trkpt lat="47.96456" lon="2.0851">
        <ele>129.2</ele>
        <time>2021-07-11T07:56:56</time>
      </trkpt>
      <trkpt lat="47.96453" lon="2.0851">
        <ele>129.2</ele>
        <time>2021-07-11T07:56:57</time>
      </trkpt>
      <trkpt lat="47.96452" lon="2.0851">
        <ele>129.2</ele>
        <time>2021-07-11T07:56:58</time>
      </trkpt>
      <trkpt lat="47.96451" lon="2.08511">
        <ele>129.2</ele>
        <time>2021-07-11T07:56:59</time>
      </trkpt>
      <trkpt lat="47.96451" lon="2.0851">
        <ele>129.2</ele>
        <time>2021-07-11T07:57:00</time>
      </trkpt>
      <trkpt lat="47.96451" lon="2.0851">
        <ele>129.2</ele>
        <time>2021-07-11T07:57:01</time>
      </trkpt>
      <trkpt lat="47.9645" lon="2.0851">
        <ele>129</ele>
        <time>2021-07-11T07:57:02</time>
      </trkpt>
      <trkpt lat="47.9645" lon="2.0851">
        <ele>129</ele>
        <time>2021-07-11T07:57:03</time>
      </trkpt>
      <trkpt lat="47.9645" lon="2.0851">
        <ele>129</ele>
        <time>2021-07-11T07:57:04</time>
      </trkpt>
      <trkpt lat="47.9645" lon="2.0851">
        <ele>129</ele>
        <time>2021-07-11T07:57:05</time>
      </trkpt>
      <trkpt lat="47.96449" lon="2.0851">
        <ele>129.2</ele>
        <time>2021-07-11T07:57:06</time>
      </trkpt>
      <trkpt lat="47.96411" lon="2.08514">
        <ele>128.6</ele>
        <time>2021-07-11T07:58:23</time>
      </trkpt>
      <trkpt lat="47.96409" lon="2.08514">
        <ele>128.6</ele>
        <time>2021-07-11T07:58:24</time>
      </trkpt>
      <trkpt lat="47.96406" lon="2.08514">
        <ele>128.4</ele>
        <time>2021-07-11T07:58:25</time>
      </trkpt>
      <trkpt lat="47.96402" lon="2.08513">
        <ele>128.4</ele>
        <time>2021-07-11T07:58:26</time>
      </trkpt>
      <trkpt lat="47.96397" lon="2.08513">
        <ele>128.4</ele>
        <time>2021-07-11T07:58:27</time>
      </trkpt>
      <trkpt lat="47.96393" lon="2.08514">
        <ele>128.2</ele>
        <time>2021-07-11T07:58:28</time>
      </trkpt>
      <trkpt lat="47.9639" lon="2.08513">
        <ele>128.2</ele>
        <time>2021-07-11T07:58:29</time>
      </trkpt>
      <trkpt lat="47.96386" lon="2.08514">
        <ele>128</ele>
        <time>2021-07-11T07:58:30</time>
      </trkpt>
      <trkpt lat="47.96383" lon="2.08515">
        <ele>127.8</ele>
        <time>2021-07-11T07:58:31</time>
      </trkpt>
      <trkpt lat="47.96381" lon="2.08515">
        <ele>127.8</ele>
        <time>2021-07-11T07:58:32</time>
      </trkpt>
      <trkpt lat="47.96377" lon="2.08515">
        <ele>127.6</ele>
        <time>2021-07-11T07:58:33</time>
      </trkpt>
      <trkpt lat="47.96372" lon="2.08513">
        <ele>127.4</ele>
        <time>2021-07-11T07:58:34</time>
      </trkpt>
      <trkpt lat="47.96367" lon="2.08514">
        <ele>127.4</ele>
        <time>2021-07-11T07:58:35</time>
      </trkpt>
      <trkpt lat="47.96363" lon="2.08514">
        <ele>127.4</ele>
        <time>2021-07-11T07:58:36</time>
      </trkpt>
      <trkpt lat="47.96359" lon="2.08514">
        <ele>127.2</ele>
        <time>2021-07-11T07:58:37</time>
      </trkpt>
      <trkpt lat="47.96355" lon="2.08513">
        <ele>127.2</ele>
        <time>2021-07-11T07:58:38</time>
      </trkpt>
      <trkpt lat="47.96352" lon="2.08514">
        <ele>127.2</ele>
        <time>2021-07-11T07:58:39</time>
      </trkpt>
      <trkpt lat="47.96348" lon="2.08515">
        <ele>127.2</ele>
        <time>2021-07-11T07:58:40</time>
      </trkpt>
      <trkpt lat="47.96345" lon="2.08515">
        <ele>127.2</ele>
        <time>2021-07-11T07:58:41</time>
      </trkpt>
      <trkpt lat="47.96341" lon="2.08516">
        <ele>127.2</ele>
        <time>2021-07-11T07:58:42</time>
      </trkpt>
      <trkpt lat="47.96336" lon="2.08517">
        <ele>127.2</ele>
        <time>2021-07-11T07:58:43</time>
      </trkpt>
      <trkpt lat="47.96332" lon="2.08519">
        <ele>127</ele>
        <time>2021-07-11T07:58:44</time>
      </trkpt>
      <trkpt lat="47.96327" lon="2.08519">
        <ele>127</ele>
        <time>2021-07-11T07:58:45</time>
      </trkpt>
      <trkpt lat="47.96323" lon="2.08519">
        <ele>127</ele>
        <time>2021-07-11T07:58:46</time>
      </trkpt>
      <trkpt lat="47.96319" lon="2.08518">
        <ele>126.8</ele>
        <time>2021-07-11T07:58:47</time>
      </trkpt>
      <trkpt lat="47.96313" lon="2.08521">
        <ele>126.8</ele>
        <time>2021-07-11T07:58:48</time>
      </trkpt>
      <trkpt lat="47.96309" lon="2.08522">
        <ele>126.8</ele>
        <time>2021-07-11T07:58:49</time>
      </trkpt>
      <trkpt lat="47.96305" lon="2.08524">
        <ele>126.8</ele>
        <time>2021-07-11T07:58:50</time>
      </trkpt>
      <trkpt lat="47.96301" lon="2.08526">
        <ele>126.8</ele>
        <time>2021-07-11T07:58:51</time>
      </trkpt>
      <trkpt lat="47.96296" lon="2.08527">
        <ele>126.8</ele>
        <time>2021-07-11T07:58:52</time>
      </trkpt>
      <trkpt lat="47.96292" lon="2.08528">
        <ele>126.8</ele>
        <time>2021-07-11T07:58:53</time>
      </trkpt>
      <trkpt lat="47.96287" lon="2.08529">
        <ele>126.8</ele>
        <time>2021-07-11T07:58:54</time>
      </trkpt>
      <trkpt lat="47.96283" lon="2.08529">
        <ele>126.8</ele>
        <time>2021-07-11T07:58:55</time>
      </trkpt>
      <trkpt lat="47.9628" lon="2.0853">
        <ele>126.8</ele>
        <time>2021-07-11T07:58:56</time>
      </trkpt>
      <trkpt lat="47.96276" lon="2.0853">
        <ele>126.8</ele>
        <time>2021-07-11T07:58:57</time>
      </trkpt>
      <trkpt lat="47.96272" lon="2.08531">
        <ele>126.8</ele>
        <time>2021-07-11T07:58:58</time>
      </trkpt>
      <trkpt lat="47.96269" lon="2.0853">
        <ele>126.6</ele>
        <time>2021-07-11T07:58:59</time>
      </trkpt>
      <trkpt lat="47.96266" lon="2.08529">
        <ele>126.4</ele>
        <time>2021-07-11T07:59:00</time>
      </trkpt>
      <trkpt lat="47.96262" lon="2.08528">
        <ele>126.2</ele>
        <time>2021-07-11T07:59:01</time>
      </trkpt>
      <trkpt lat="47.96258" lon="2.08527">
        <ele>126.2</ele>
        <time>2021-07-11T07:59:02</time>
      </trkpt>
      <trkpt lat="47.96254" lon="2.08525">
        <ele>126</ele>
        <time>2021-07-11T07:59:03</time>
      </trkpt>
      <trkpt lat="47.96252" lon="2.08525">
        <ele>125.8</ele>
        <time>2021-07-11T07:59:04</time>
      </trkpt>
      <trkpt lat="47.96248" lon="2.08525">
        <ele>125.6</ele>
        <time>2021-07-11T07:59:05</time>
      </trkpt>
      <trkpt lat="47.96245" lon="2.08526">
        <ele>125.4</ele>
        <time>2021-07-11T07:59:06</time>
      </trkpt>
      <trkpt lat="47.9624" lon="2.08527">
        <ele>125.2</ele>
        <time>2021-07-11T07:59:07</time>
      </trkpt>
      <trkpt lat="47.96235" lon="2.08529">
        <ele>125</ele>
        <time>2021-07-11T07:59:08</time>
      </trkpt>
      <trkpt lat="47.96231" lon="2.08527">
        <ele>124.8</ele>
        <time>2021-07-11T07:59:09</time>
      </trkpt>
      <trkpt lat="47.96228" lon="2.08527">
        <ele>124.8</ele>
        <time>2021-07-11T07:59:10</time>
      </trkpt>
      <trkpt lat="47.96223" lon="2.08528">
        <ele>124.4</ele>
        <time>2021-07-11T07:59:11</time>
      </trkpt>
      <trkpt lat="47.96219" lon="2.08528">
        <ele>124.4</ele>
        <time>2021-07-11T07:59:12</time>
      </trkpt>
      <trkpt lat="47.96216" lon="2.08527">
        <ele>124.2</ele>
        <time>2021-07-11T07:59:13</time>
      </trkpt>
      <trkpt lat="47.96212" lon="2.08529">
        <ele>124.2</ele>
        <time>2021-07-11T07:59:14</time>
      </trkpt>
      <trkpt lat="47.9621" lon="2.08529">
        <ele>124</ele>
        <time>2021-07-11T07:59:15</time>
      </trkpt>
      <trkpt lat="47.96208" lon="2.0853">
        <ele>124</ele>
        <time>2021-07-11T07:59:16</time>
      </trkpt>
      <trkpt lat="47.96207" lon="2.08531">
        <ele>124</ele>
        <time>2021-07-11T07:59:17</time>
      </trkpt>
      <trkpt lat="47.96206" lon="2.08531">
        <ele>124</ele>
        <time>2021-07-11T07:59:18</time>
      </trkpt>
      <trkpt lat="47.96205" lon="2.08532">
        <ele>124</ele>
        <time>2021-07-11T07:59:19</time>
      </trkpt>
      <trkpt lat="47.96204" lon="2.08532">
        <ele>124</ele>
        <time>2021-07-11T07:59:20</time>
      </trkpt>
      <trkpt lat="47.96204" lon="2.08532">
        <ele>124</ele>
        <time>2021-07-11T07:59:21</time>
      </trkpt>
      <trkpt lat="47.96202" lon="2.08533">
        <ele>124</ele>
        <time>2021-07-11T07:59:22</time>
      </trkpt>
      <trkpt lat="47.96202" lon="2.08533">
        <ele>124</ele>
        <time>2021-07-11T07:59:23</time>
      </trkpt>
      <trkpt lat="47.96165" lon="2.08542">
        <ele>125</ele>
        <time>2021-07-11T07:59:55</time>
      </trkpt>
      <trkpt lat="47.9616" lon="2.08543">
        <ele>125</ele>
        <time>2021-07-11T07:59:56</time>
      </trkpt>
      <trkpt lat="47.96157" lon="2.08544">
        <ele>125.2</ele>
        <time>2021-07-11T07:59:57</time>
      </trkpt>
      <trkpt lat="47.96155" lon="2.08543">
        <ele>125.2</ele>
        <time>2021-07-11T07:59:59</time>
      </trkpt>
      <trkpt lat="47.96152" lon="2.08544">
        <ele>125.4</ele>
        <time>2021-07-11T08:00:00</time>
      </trkpt>
      <trkpt lat="47.96149" lon="2.08545">
        <ele>125.6</ele>
        <time>2021-07-11T08:00:01</time>
      </trkpt>
      <trkpt lat="47.96146" lon="2.08545">
        <ele>125.6</ele>
        <time>2021-07-11T08:00:02</time>
      </trkpt>
      <trkpt lat="47.96143" lon="2.08546">
        <ele>125.8</ele>
        <time>2021-07-11T08:00:03</time>
      </trkpt>
      <trkpt lat="47.9614" lon="2.08546">
        <ele>125.8</ele>
        <time>2021-07-11T08:00:04</time>
      </trkpt>
      <trkpt lat="47.96137" lon="2.08546">
        <ele>126</ele>
        <time>2021-07-11T08:00:05</time>
      </trkpt>
      <trkpt lat="47.96135" lon="2.08547">
        <ele>126</ele>
        <time>2021-07-11T08:00:06</time>
      </trkpt>
      <trkpt lat="47.96132" lon="2.08547">
        <ele>126.2</ele>
        <time>2021-07-11T08:00:07</time>
      </trkpt>
      <trkpt lat="47.96129" lon="2.08547">
        <ele>126.2</ele>
        <time>2021-07-11T08:00:08</time>
      </trkpt>
      <trkpt lat="47.96126" lon="2.08547">
        <ele>126.4</ele>
        <time>2021-07-11T08:00:09</time>
      </trkpt>
      <trkpt lat="47.96122" lon="2.08547">
        <ele>126.4</ele>
        <time>2021-07-11T08:00:10</time>
      </trkpt>
      <trkpt lat="47.96119" lon="2.08547">
        <ele>126.6</ele>
        <time>2021-07-11T08:00:11</time>
      </trkpt>
      <trkpt lat="47.96116" lon="2.08548">
        <ele>126.6</ele>
        <time>2021-07-11T08:00:12</time>
      </trkpt>
      <trkpt lat="47.96113" lon="2.08547">
        <ele>126.6</ele>
        <time>2021-07-11T08:00:13</time>
      </trkpt>
      <trkpt lat="47.96109" lon="2.08547">
        <ele>126.8</ele>
        <time>2021-07-11T08:00:14</time>
      </trkpt>
      <trkpt lat="47.96106" lon="2.08547">
        <ele>126.8</ele>
        <time>2021-07-11T08:00:15</time>
      </trkpt>
      <trkpt lat="47.96102" lon="2.08548">
        <ele>126.8</ele>
        <time>2021-07-11T08:00:16</time>
      </trkpt>
      <trkpt lat="47.96099" lon="2.08548">
        <ele>126.8</ele>
        <time>2021-07-11T08:00:17</time>
      </trkpt>
      <trkpt lat="47.96096" lon="2.08548">
        <ele>126.8</ele>
        <time>2021-07-11T08:00:18</time>
      </trkpt>
      <trkpt lat="47.96092" lon="2.08548">
        <ele>126.8</ele>
        <time>2021-07-11T08:00:19</time>
      </trkpt>
      <trkpt lat="47.96089" lon="2.08549">
        <ele>127</ele>
        <time>2021-07-11T08:00:20</time>
      </trkpt>
      <trkpt lat="47.96086" lon="2.08549">
        <ele>127</ele>
        <time>2021-07-11T08:00:21</time>
      </trkpt>
      <trkpt lat="47.96082" lon="2.0855">
        <ele>127</ele>
        <time>2021-07-11T08:00:22</time>
      </trkpt>
      <trkpt lat="47.96079" lon="2.0855">
        <ele>127</ele>
        <time>2021-07-11T08:00:23</time>
      </trkpt>
      <trkpt lat="47.96076" lon="2.0855">
        <ele>127</ele>
        <time>2021-07-11T08:00:24</time>
      </trkpt>
      <trkpt lat="47.96073" lon="2.0855">
        <ele>127</ele>
        <time>2021-07-11T08:00:25</time>
      </trkpt>
      <trkpt lat="47.96069" lon="2.0855">
        <ele>127.2</ele>
        <time>2021-07-11T08:00:26</time>
      </trkpt>
      <trkpt lat="47.96066" lon="2.08551">
        <ele>127.2</ele>
        <time>2021-07-11T08:00:27</time>
      </trkpt>
      <trkpt lat="47.96062" lon="2.08551">
        <ele>127.2</ele>
        <time>2021-07-11T08:00:28</time>
      </trkpt>
      <trkpt lat="47.96059" lon="2.08552">
        <ele>127.2</ele>
        <time>2021-07-11T08:00:29</time>
      </trkpt>
      <trkpt lat="47.96055" lon="2.08552">
        <ele>127.2</ele>
        <time>2021-07-11T08:00:30</time>
      </trkpt>
      <trkpt lat="47.96047" lon="2.08553">
        <ele>127.4</ele>
        <time>2021-07-11T08:00:31</time>
      </trkpt>
      <trkpt lat="47.96044" lon="2.08553">
        <ele>127.4</ele>
        <time>2021-07-11T08:00:33</time>
      </trkpt>
      <trkpt lat="47.9604" lon="2.08554">
        <ele>127.4</ele>
        <time>2021-07-11T08:00:34</time>
      </trkpt>
      <trkpt lat="47.96037" lon="2.08554">
        <ele>127.6</ele>
        <time>2021-07-11T08:00:35</time>
      </trkpt>
      <trkpt lat="47.96033" lon="2.08554">
        <ele>127.6</ele>
        <time>2021-07-11T08:00:36</time>
      </trkpt>
      <trkpt lat="47.96029" lon="2.08555">
        <ele>127.6</ele>
        <time>2021-07-11T08:00:37</time>
      </trkpt>
      <trkpt lat="47.96026" lon="2.08556">
        <ele>127.6</ele>
        <time>2021-07-11T08:00:38</time>
      </trkpt>
      <trkpt lat="47.96022" lon="2.08556">
        <ele>127.6</ele>
        <time>2021-07-11T08:00:39</time>
      </trkpt>
      <trkpt lat="47.96018" lon="2.08557">
        <ele>127.4</ele>
        <time>2021-07-11T08:00:40</time>
      </trkpt>
      <trkpt lat="47.96014" lon="2.08559">
        <ele>127.6</ele>
        <time>2021-07-11T08:00:41</time>
      </trkpt>
      <trkpt lat="47.96011" lon="2.0856">
        <ele>127.6</ele>
        <time>2021-07-11T08:00:42</time>
      </trkpt>
      <trkpt lat="47.96007" lon="2.08561">
        <ele>127.6</ele>
        <time>2021-07-11T08:00:43</time>
      </trkpt>
      <trkpt lat="47.96003" lon="2.08561">
        <ele>127.8</ele>
        <time>2021-07-11T08:00:44</time>
      </trkpt>
      <trkpt lat="47.95999" lon="2.08561">
        <ele>127.8</ele>
        <time>2021-07-11T08:00:45</time>
      </trkpt>
      <trkpt lat="47.95995" lon="2.08561">
        <ele>127.8</ele>
        <time>2021-07-11T08:00:46</time>
      </trkpt>
      <trkpt lat="47.95992" lon="2.08562">
        <ele>128</ele>
        <time>2021-07-11T08:00:47</time>
      </trkpt>
      <trkpt lat="47.95988" lon="2.08561">
        <ele>128</ele>
        <time>2021-07-11T08:00:48</time>
      </trkpt>
      <trkpt lat="47.95985" lon="2.08561">
        <ele>128</ele>
        <time>2021-07-11T08:00:49</time>
      </trkpt>
      <trkpt lat="47.95981" lon="2.08562">
        <ele>128.2</ele>
        <time>2021-07-11T08:00:50</time>
      </trkpt>
      <trkpt lat="47.95978" lon="2.08562">
        <ele>128.2</ele>
        <time>2021-07-11T08:00:51</time>
      </trkpt>
      <trkpt lat="47.95974" lon="2.08562">
        <ele>128.2</ele>
        <time>2021-07-11T08:00:52</time>
      </trkpt>
      <trkpt lat="47.95971" lon="2.08562">
        <ele>128.2</ele>
        <time>2021-07-11T08:00:53</time>
      </trkpt>
      <trkpt lat="47.95968" lon="2.08562">
        <ele>128.4</ele>
        <time>2021-07-11T08:00:54</time>
      </trkpt>
      <trkpt lat="47.95965" lon="2.08563">
        <ele>128.4</ele>
        <time>2021-07-11T08:00:55</time>
      </trkpt>
      <trkpt lat="47.95962" lon="2.08564">
        <ele>128.4</ele>
        <time>2021-07-11T08:00:56</time>
      </trkpt>
      <trkpt lat="47.95961" lon="2.08567">
        <ele>128.4</ele>
        <time>2021-07-11T08:00:57</time>
      </trkpt>
      <trkpt lat="47.9596" lon="2.08571">
        <ele>128.2</ele>
        <time>2021-07-11T08:00:58</time>
      </trkpt>
      <trkpt lat="47.9596" lon="2.08575">
        <ele>128.2</ele>
        <time>2021-07-11T08:00:59</time>
      </trkpt>
      <trkpt lat="47.95959" lon="2.0858">
        <ele>128.2</ele>
        <time>2021-07-11T08:01:00</time>
      </trkpt>
      <trkpt lat="47.95959" lon="2.08585">
        <ele>128.2</ele>
        <time>2021-07-11T08:01:01</time>
      </trkpt>
      <trkpt lat="47.95959" lon="2.0859">
        <ele>128</ele>
        <time>2021-07-11T08:01:02</time>
      </trkpt>
      <trkpt lat="47.9596" lon="2.08595">
        <ele>128</ele>
        <time>2021-07-11T08:01:03</time>
      </trkpt>
      <trkpt lat="47.9596" lon="2.08601">
        <ele>128.2</ele>
        <time>2021-07-11T08:01:04</time>
      </trkpt>
      <trkpt lat="47.9596" lon="2.08607">
        <ele>128</ele>
        <time>2021-07-11T08:01:05</time>
      </trkpt>
      <trkpt lat="47.9596" lon="2.08612">
        <ele>128</ele>
        <time>2021-07-11T08:01:06</time>
      </trkpt>
      <trkpt lat="47.95961" lon="2.08617">
        <ele>128</ele>
        <time>2021-07-11T08:01:07</time>
      </trkpt>
      <trkpt lat="47.95961" lon="2.0862">
        <ele>128</ele>
        <time>2021-07-11T08:01:08</time>
      </trkpt>
      <trkpt lat="47.95961" lon="2.08623">
        <ele>127.8</ele>
        <time>2021-07-11T08:01:09</time>
      </trkpt>
      <trkpt lat="47.95961" lon="2.08624">
        <ele>127.8</ele>
        <time>2021-07-11T08:01:10</time>
      </trkpt>
      <trkpt lat="47.95961" lon="2.08623">
        <ele>127.8</ele>
        <time>2021-07-11T08:01:11</time>
      </trkpt>
      <trkpt lat="47.95961" lon="2.08624">
        <ele>128</ele>
        <time>2021-07-11T08:01:12</time>
      </trkpt>
      <trkpt lat="47.9596" lon="2.08623">
        <ele>128.2</ele>
        <time>2021-07-11T08:01:13</time>
      </trkpt>
      <trkpt lat="47.9596" lon="2.08622">
        <ele>128</ele>
        <time>2021-07-11T08:01:14</time>
      </trkpt>
      <trkpt lat="47.9596" lon="2.08622">
        <ele>127.8</ele>
        <time>2021-07-11T08:01:15</time>
      </trkpt>
      <trkpt lat="47.9596" lon="2.08621">
        <ele>127.8</ele>
        <time>2021-07-11T08:01:16</time>
      </trkpt>
      <trkpt lat="47.9596" lon="2.0862">
        <ele>127.8</ele>
        <time>2021-07-11T08:01:17</time>
      </trkpt>
      <trkpt lat="47.95958" lon="2.08582">
        <ele>128.2</ele>
        <time>2021-07-11T08:01:35</time>
      </trkpt>
      <trkpt lat="47.95958" lon="2.08573">
        <ele>128.2</ele>
        <time>2021-07-11T08:01:36</time>
      </trkpt>
      <trkpt lat="47.95958" lon="2.08569">
        <ele>128.4</ele>
        <time>2021-07-11T08:01:37</time>
      </trkpt>
      <trkpt lat="47.95957" lon="2.08567">
        <ele>128.4</ele>
        <time>2021-07-11T08:01:39</time>
      </trkpt>
      <trkpt lat="47.95957" lon="2.08564">
        <ele>128.4</ele>
        <time>2021-07-11T08:01:40</time>
      </trkpt>
      <trkpt lat="47.95956" lon="2.08561">
        <ele>128.4</ele>
        <time>2021-07-11T08:01:41</time>
      </trkpt>
      <trkpt lat="47.95956" lon="2.08558">
        <ele>128.4</ele>
        <time>2021-07-11T08:01:42</time>
      </trkpt>
      <trkpt lat="47.95955" lon="2.08554">
        <ele>128.4</ele>
        <time>2021-07-11T08:01:43</time>
      </trkpt>
      <trkpt lat="47.95955" lon="2.08549">
        <ele>128.4</ele>
        <time>2021-07-11T08:01:44</time>
      </trkpt>
      <trkpt lat="47.95955" lon="2.08546">
        <ele>128.4</ele>
        <time>2021-07-11T08:01:45</time>
      </trkpt>
      <trkpt lat="47.95954" lon="2.08542">
        <ele>128.4</ele>
        <time>2021-07-11T08:01:46</time>
      </trkpt>
      <trkpt lat="47.95954" lon="2.08538">
        <ele>128.4</ele>
        <time>2021-07-11T08:01:47</time>
      </trkpt>
      <trkpt lat="47.95954" lon="2.08535">
        <ele>128.6</ele>
        <time>2021-07-11T08:01:48</time>
      </trkpt>
      <trkpt lat="47.95955" lon="2.08532">
        <ele>128.6</ele>
        <time>2021-07-11T08:01:49</time>
      </trkpt>
      <trkpt lat="47.95955" lon="2.08529">
        <ele>128.6</ele>
        <time>2021-07-11T08:01:50</time>
      </trkpt>
      <trkpt lat="47.95954" lon="2.08526">
        <ele>128.4</ele>
        <time>2021-07-11T08:01:51</time>
      </trkpt>
      <trkpt lat="47.95953" lon="2.08522">
        <ele>128.6</ele>
        <time>2021-07-11T08:01:52</time>
      </trkpt>
      <trkpt lat="47.95953" lon="2.08518">
        <ele>128.4</ele>
        <time>2021-07-11T08:01:53</time>
      </trkpt>
      <trkpt lat="47.95954" lon="2.08514">
        <ele>128.4</ele>
        <time>2021-07-11T08:01:54</time>
      </trkpt>
      <trkpt lat="47.95955" lon="2.08509">
        <ele>128.4</ele>
        <time>2021-07-11T08:01:55</time>
      </trkpt>
      <trkpt lat="47.95955" lon="2.08505">
        <ele>128.4</ele>
        <time>2021-07-11T08:01:56</time>
      </trkpt>
      <trkpt lat="47.95955" lon="2.08502">
        <ele>128.2</ele>
        <time>2021-07-11T08:01:57</time>
      </trkpt>
      <trkpt lat="47.95955" lon="2.08496">
        <ele>128.2</ele>
        <time>2021-07-11T08:01:58</time>
      </trkpt>
      <trkpt lat="47.95955" lon="2.08491">
        <ele>128.2</ele>
        <time>2021-07-11T08:01:59</time>
      </trkpt>
      <trkpt lat="47.95954" lon="2.08486">
        <ele>128.2</ele>
        <time>2021-07-11T08:02:00</time>
      </trkpt>
      <trkpt lat="47.95953" lon="2.0848">
        <ele>128.2</ele>
        <time>2021-07-11T08:02:01</time>
      </trkpt>
      <trkpt lat="47.95954" lon="2.08474">
        <ele>128.2</ele>
        <time>2021-07-11T08:02:02</time>
      </trkpt>
      <trkpt lat="47.95954" lon="2.08467">
        <ele>128</ele>
        <time>2021-07-11T08:02:03</time>
      </trkpt>
      <trkpt lat="47.95954" lon="2.08462">
        <ele>128</ele>
        <time>2021-07-11T08:02:04</time>
      </trkpt>
      <trkpt lat="47.95955" lon="2.08459">
        <ele>128</ele>
        <time>2021-07-11T08:02:05</time>
      </trkpt>
      <trkpt lat="47.95955" lon="2.08455">
        <ele>128</ele>
        <time>2021-07-11T08:02:06</time>
      </trkpt>
      <trkpt lat="47.95955" lon="2.08451">
        <ele>128</ele>
        <time>2021-07-11T08:02:07</time>
      </trkpt>
      <trkpt lat="47.95955" lon="2.08445">
        <ele>128.2</ele>
        <time>2021-07-11T08:02:08</time>
      </trkpt>
      <trkpt lat="47.95954" lon="2.0844">
        <ele>128.2</ele>
        <time>2021-07-11T08:02:09</time>
      </trkpt>
      <trkpt lat="47.95955" lon="2.08434">
        <ele>128.2</ele>
        <time>2021-07-11T08:02:10</time>
      </trkpt>
      <trkpt lat="47.95956" lon="2.08429">
        <ele>128.2</ele>
        <time>2021-07-11T08:02:11</time>
      </trkpt>
      <trkpt lat="47.95956" lon="2.08424">
        <ele>128</ele>
        <time>2021-07-11T08:02:12</time>
      </trkpt>
      <trkpt lat="47.95958" lon="2.0842">
        <ele>128</ele>
        <time>2021-07-11T08:02:13</time>
      </trkpt>
      <trkpt lat="47.95958" lon="2.08417">
        <ele>128</ele>
        <time>2021-07-11T08:02:14</time>
      </trkpt>
      <trkpt lat="47.95958" lon="2.08412">
        <ele>128</ele>
        <time>2021-07-11T08:02:15</time>
      </trkpt>
      <trkpt lat="47.95959" lon="2.08407">
        <ele>128</ele>
        <time>2021-07-11T08:02:16</time>
      </trkpt>
      <trkpt lat="47.95958" lon="2.08401">
        <ele>128</ele>
        <time>2021-07-11T08:02:17</time>
      </trkpt>
      <trkpt lat="47.9596" lon="2.08391">
        <ele>128</ele>
        <time>2021-07-11T08:02:18</time>
      </trkpt>
      <trkpt lat="47.9596" lon="2.08384">
        <ele>128</ele>
        <time>2021-07-11T08:02:19</time>
      </trkpt>
      <trkpt lat="47.95959" lon="2.08378">
        <ele>127.8</ele>
        <time>2021-07-11T08:02:20</time>
      </trkpt>
      <trkpt lat="47.95959" lon="2.08371">
        <ele>127.8</ele>
        <time>2021-07-11T08:02:21</time>
      </trkpt>
      <trkpt lat="47.95959" lon="2.08364">
        <ele>127.8</ele>
        <time>2021-07-11T08:02:22</time>
      </trkpt>
      <trkpt lat="47.95959" lon="2.08357">
        <ele>127.8</ele>
        <time>2021-07-11T08:02:23</time>
      </trkpt>
      <trkpt lat="47.95958" lon="2.08351">
        <ele>127.6</ele>
        <time>2021-07-11T08:02:24</time>
      </trkpt>
      <trkpt lat="47.95958" lon="2.08343">
        <ele>127.6</ele>
        <time>2021-07-11T08:02:25</time>
      </trkpt>
      <trkpt lat="47.95958" lon="2.08337">
        <ele>127.4</ele>
        <time>2021-07-11T08:02:26</time>
      </trkpt>
      <trkpt lat="47.95958" lon="2.08331">
        <ele>127.4</ele>
        <time>2021-07-11T08:02:27</time>
      </trkpt>
      <trkpt lat="47.95956" lon="2.08322">
        <ele>127.4</ele>
        <time>2021-07-11T08:02:28</time>
      </trkpt>
      <trkpt lat="47.95955" lon="2.08312">
        <ele>127.2</ele>
        <time>2021-07-11T08:02:29</time>
      </trkpt>
      <trkpt lat="47.95955" lon="2.08306">
        <ele>127.2</ele>
        <time>2021-07-11T08:02:30</time>
      </trkpt>
      <trkpt lat="47.95954" lon="2.08297">
        <ele>127.2</ele>
        <time>2021-07-11T08:02:31</time>
      </trkpt>
      <trkpt lat="47.95954" lon="2.08292">
        <ele>127.2</ele>
        <time>2021-07-11T08:02:32</time>
      </trkpt>
      <trkpt lat="47.95953" lon="2.08286">
        <ele>127</ele>
        <time>2021-07-11T08:02:33</time>
      </trkpt>
      <trkpt lat="47.95953" lon="2.08281">
        <ele>127</ele>
        <time>2021-07-11T08:02:34</time>
      </trkpt>
      <trkpt lat="47.95953" lon="2.08276">
        <ele>126.8</ele>
        <time>2021-07-11T08:02:35</time>
      </trkpt>
      <trkpt lat="47.95952" lon="2.0827">
        <ele>126.8</ele>
        <time>2021-07-11T08:02:36</time>
      </trkpt>
      <trkpt lat="47.95951" lon="2.08262">
        <ele>126.8</ele>
        <time>2021-07-11T08:02:37</time>
      </trkpt>
      <trkpt lat="47.9595" lon="2.08253">
        <ele>126.8</ele>
        <time>2021-07-11T08:02:38</time>
      </trkpt>
      <trkpt lat="47.95949" lon="2.08244">
        <ele>126.6</ele>
        <time>2021-07-11T08:02:39</time>
      </trkpt>
      <trkpt lat="47.95948" lon="2.08235">
        <ele>126.4</ele>
        <time>2021-07-11T08:02:40</time>
      </trkpt>
      <trkpt lat="47.95946" lon="2.08227">
        <ele>126.4</ele>
        <time>2021-07-11T08:02:41</time>
      </trkpt>
      <trkpt lat="47.95945" lon="2.08218">
        <ele>126.4</ele>
        <time>2021-07-11T08:02:42</time>
      </trkpt>
      <trkpt lat="47.95943" lon="2.0821">
        <ele>126.2</ele>
        <time>2021-07-11T08:02:43</time>
      </trkpt>
      <trkpt lat="47.95942" lon="2.08201">
        <ele>126.2</ele>
        <time>2021-07-11T08:02:44</time>
      </trkpt>
      <trkpt lat="47.95942" lon="2.08192">
        <ele>126</ele>
        <time>2021-07-11T08:02:45</time>
      </trkpt>
      <trkpt lat="47.95942" lon="2.08186">
        <ele>126</ele>
        <time>2021-07-11T08:02:46</time>
      </trkpt>
      <trkpt lat="47.95941" lon="2.0818">
        <ele>125.8</ele>
        <time>2021-07-11T08:02:47</time>
      </trkpt>
      <trkpt lat="47.95941" lon="2.08175">
        <ele>125.8</ele>
        <time>2021-07-11T08:02:48</time>
      </trkpt>
      <trkpt lat="47.9594" lon="2.08169">
        <ele>125.8</ele>
        <time>2021-07-11T08:02:49</time>
      </trkpt>
      <trkpt lat="47.9594" lon="2.08165">
        <ele>125.8</ele>
        <time>2021-07-11T08:02:50</time>
      </trkpt>
      <trkpt lat="47.9594" lon="2.08158">
        <ele>125.6</ele>
        <time>2021-07-11T08:02:51</time>
      </trkpt>
      <trkpt lat="47.9594" lon="2.08153">
        <ele>125.4</ele>
        <time>2021-07-11T08:02:52</time>
      </trkpt>
      <trkpt lat="47.95939" lon="2.08146">
        <ele>125.2</ele>
        <time>2021-07-11T08:02:53</time>
      </trkpt>
      <trkpt lat="47.95939" lon="2.0814">
        <ele>125.2</ele>
        <time>2021-07-11T08:02:54</time>
      </trkpt>
      <trkpt lat="47.95939" lon="2.08135">
        <ele>125.2</ele>
        <time>2021-07-11T08:02:55</time>
      </trkpt>
      <trkpt lat="47.9594" lon="2.0813">
        <ele>125</ele>
        <time>2021-07-11T08:02:56</time>
      </trkpt>
      <trkpt lat="47.9594" lon="2.08126">
        <ele>125</ele>
        <time>2021-07-11T08:02:57</time>
      </trkpt>
      <trkpt lat="47.95938" lon="2.0812">
        <ele>124.8</ele>
        <time>2021-07-11T08:02:58</time>
      </trkpt>
      <trkpt lat="47.95937" lon="2.08113">
        <ele>124.6</ele>
        <time>2021-07-11T08:02:59</time>
      </trkpt>
      <trkpt lat="47.95937" lon="2.08106">
        <ele>124.6</ele>
        <time>2021-07-11T08:03:00</time>
      </trkpt>
      <trkpt lat="47.95937" lon="2.08099">
        <ele>124.6</ele>
        <time>2021-07-11T08:03:01</time>
      </trkpt>
      <trkpt lat="47.95938" lon="2.08094">
        <ele>124.6</ele>
        <time>2021-07-11T08:03:02</time>
      </trkpt>
      <trkpt lat="47.95938" lon="2.08087">
        <ele>124.4</ele>
        <time>2021-07-11T08:03:03</time>
      </trkpt>
      <trkpt lat="47.95937" lon="2.08079">
        <ele>124.4</ele>
        <time>2021-07-11T08:03:04</time>
      </trkpt>
      <trkpt lat="47.95937" lon="2.08071">
        <ele>124.4</ele>
        <time>2021-07-11T08:03:05</time>
      </trkpt>
      <trkpt lat="47.95937" lon="2.08062">
        <ele>124.2</ele>
        <time>2021-07-11T08:03:06</time>
      </trkpt>
      <trkpt lat="47.95937" lon="2.08053">
        <ele>124</ele>
        <time>2021-07-11T08:03:07</time>
      </trkpt>
      <trkpt lat="47.95937" lon="2.08046">
        <ele>124</ele>
        <time>2021-07-11T08:03:08</time>
      </trkpt>
      <trkpt lat="47.95938" lon="2.08028">
        <ele>124</ele>
        <time>2021-07-11T08:03:09</time>
      </trkpt>
      <trkpt lat="47.95938" lon="2.08019">
        <ele>123.4</ele>
        <time>2021-07-11T08:03:11</time>
      </trkpt>
      <trkpt lat="47.95937" lon="2.08009">
        <ele>123</ele>
        <time>2021-07-11T08:03:12</time>
      </trkpt>
      <trkpt lat="47.95936" lon="2.08">
        <ele>122.8</ele>
        <time>2021-07-11T08:03:13</time>
      </trkpt>
      <trkpt lat="47.95937" lon="2.07991">
        <ele>122.8</ele>
        <time>2021-07-11T08:03:14</time>
      </trkpt>
      <trkpt lat="47.95937" lon="2.07984">
        <ele>122.8</ele>
        <time>2021-07-11T08:03:15</time>
      </trkpt>
      <trkpt lat="47.95938" lon="2.07975">
        <ele>123</ele>
        <time>2021-07-11T08:03:16</time>
      </trkpt>
      <trkpt lat="47.95938" lon="2.07968">
        <ele>123</ele>
        <time>2021-07-11T08:03:17</time>
      </trkpt>
      <trkpt lat="47.95938" lon="2.0796">
        <ele>123</ele>
        <time>2021-07-11T08:03:18</time>
      </trkpt>
      <trkpt lat="47.95939" lon="2.07952">
        <ele>123</ele>
        <time>2021-07-11T08:03:19</time>
      </trkpt>
      <trkpt lat="47.9594" lon="2.07943">
        <ele>123</ele>
        <time>2021-07-11T08:03:20</time>
      </trkpt>
      <trkpt lat="47.95939" lon="2.07934">
        <ele>123.2</ele>
        <time>2021-07-11T08:03:21</time>
      </trkpt>
      <trkpt lat="47.95939" lon="2.07927">
        <ele>123.2</ele>
        <time>2021-07-11T08:03:22</time>
      </trkpt>
      <trkpt lat="47.9594" lon="2.07917">
        <ele>123.4</ele>
        <time>2021-07-11T08:03:23</time>
      </trkpt>
      <trkpt lat="47.9594" lon="2.07912">
        <ele>123.4</ele>
        <time>2021-07-11T08:03:25</time>
      </trkpt>
      <trkpt lat="47.95941" lon="2.07907">
        <ele>123.6</ele>
        <time>2021-07-11T08:03:26</time>
      </trkpt>
      <trkpt lat="47.95941" lon="2.079">
        <ele>123.6</ele>
        <time>2021-07-11T08:03:27</time>
      </trkpt>
      <trkpt lat="47.95939" lon="2.07882">
        <ele>123.6</ele>
        <time>2021-07-11T08:03:28</time>
      </trkpt>
      <trkpt lat="47.95938" lon="2.07873">
        <ele>123.8</ele>
        <time>2021-07-11T08:03:29</time>
      </trkpt>
      <trkpt lat="47.95937" lon="2.07866">
        <ele>123.8</ele>
        <time>2021-07-11T08:03:30</time>
      </trkpt>
      <trkpt lat="47.95936" lon="2.07858">
        <ele>123.8</ele>
        <time>2021-07-11T08:03:32</time>
      </trkpt>
      <trkpt lat="47.95936" lon="2.07852">
        <ele>123.8</ele>
        <time>2021-07-11T08:03:33</time>
      </trkpt>
      <trkpt lat="47.95937" lon="2.07845">
        <ele>123.8</ele>
        <time>2021-07-11T08:03:34</time>
      </trkpt>
      <trkpt lat="47.95936" lon="2.07836">
        <ele>124</ele>
        <time>2021-07-11T08:03:35</time>
      </trkpt>
      <trkpt lat="47.95935" lon="2.07828">
        <ele>124</ele>
        <time>2021-07-11T08:03:36</time>
      </trkpt>
      <trkpt lat="47.95934" lon="2.0782">
        <ele>123.8</ele>
        <time>2021-07-11T08:03:37</time>
      </trkpt>
      <trkpt lat="47.95935" lon="2.07803">
        <ele>123.8</ele>
        <time>2021-07-11T08:03:38</time>
      </trkpt>
      <trkpt lat="47.95936" lon="2.07794">
        <ele>123.8</ele>
        <time>2021-07-11T08:03:39</time>
      </trkpt>
      <trkpt lat="47.95935" lon="2.07786">
        <ele>123.8</ele>
        <time>2021-07-11T08:03:41</time>
      </trkpt>
      <trkpt lat="47.95935" lon="2.0778">
        <ele>124</ele>
        <time>2021-07-11T08:03:42</time>
      </trkpt>
      <trkpt lat="47.95933" lon="2.07765">
        <ele>124.2</ele>
        <time>2021-07-11T08:03:43</time>
      </trkpt>
      <trkpt lat="47.95932" lon="2.07757">
        <ele>124.2</ele>
        <time>2021-07-11T08:03:44</time>
      </trkpt>
      <trkpt lat="47.95931" lon="2.07749">
        <ele>124.2</ele>
        <time>2021-07-11T08:03:45</time>
      </trkpt>
      <trkpt lat="47.9593" lon="2.07734">
        <ele>124.2</ele>
        <time>2021-07-11T08:03:47</time>
      </trkpt>
      <trkpt lat="47.95929" lon="2.07726">
        <ele>124.4</ele>
        <time>2021-07-11T08:03:48</time>
      </trkpt>
      <trkpt lat="47.9593" lon="2.07719">
        <ele>124.6</ele>
        <time>2021-07-11T08:03:50</time>
      </trkpt>
      <trkpt lat="47.9593" lon="2.07711">
        <ele>124.6</ele>
        <time>2021-07-11T08:03:51</time>
      </trkpt>
      <trkpt lat="47.95929" lon="2.07697">
        <ele>124.8</ele>
        <time>2021-07-11T08:03:52</time>
      </trkpt>
      <trkpt lat="47.95928" lon="2.07689">
        <ele>125</ele>
        <time>2021-07-11T08:03:53</time>
      </trkpt>
      <trkpt lat="47.95929" lon="2.07681">
        <ele>125</ele>
        <time>2021-07-11T08:03:54</time>
      </trkpt>
      <trkpt lat="47.95929" lon="2.07674">
        <ele>125.2</ele>
        <time>2021-07-11T08:03:55</time>
      </trkpt>
      <trkpt lat="47.95928" lon="2.07666">
        <ele>125.4</ele>
        <time>2021-07-11T08:03:57</time>
      </trkpt>
      <trkpt lat="47.95927" lon="2.07654">
        <ele>125.6</ele>
        <time>2021-07-11T08:03:58</time>
      </trkpt>
      <trkpt lat="47.95926" lon="2.07647">
        <ele>125.6</ele>
        <time>2021-07-11T08:03:59</time>
      </trkpt>
      <trkpt lat="47.95924" lon="2.0763">
        <ele>125.8</ele>
        <time>2021-07-11T08:04:01</time>
      </trkpt>
      <trkpt lat="47.95922" lon="2.07621">
        <ele>126</ele>
        <time>2021-07-11T08:04:02</time>
      </trkpt>
      <trkpt lat="47.95922" lon="2.07613">
        <ele>126</ele>
        <time>2021-07-11T08:04:03</time>
      </trkpt>
      <trkpt lat="47.95921" lon="2.07606">
        <ele>126</ele>
        <time>2021-07-11T08:04:04</time>
      </trkpt>
      <trkpt lat="47.95921" lon="2.07598">
        <ele>126</ele>
        <time>2021-07-11T08:04:05</time>
      </trkpt>
      <trkpt lat="47.95921" lon="2.07591">
        <ele>126.2</ele>
        <time>2021-07-11T08:04:06</time>
      </trkpt>
      <trkpt lat="47.95921" lon="2.07584">
        <ele>126.4</ele>
        <time>2021-07-11T08:04:07</time>
      </trkpt>
      <trkpt lat="47.95919" lon="2.07578">
        <ele>126.4</ele>
        <time>2021-07-11T08:04:08</time>
      </trkpt>
      <trkpt lat="47.95919" lon="2.07573">
        <ele>126.4</ele>
        <time>2021-07-11T08:04:09</time>
      </trkpt>
      <trkpt lat="47.95919" lon="2.07568">
        <ele>126.6</ele>
        <time>2021-07-11T08:04:10</time>
      </trkpt>
      <trkpt lat="47.9592" lon="2.0756">
        <ele>126.6</ele>
        <time>2021-07-11T08:04:11</time>
      </trkpt>
      <trkpt lat="47.95919" lon="2.07552">
        <ele>126.8</ele>
        <time>2021-07-11T08:04:12</time>
      </trkpt>
      <trkpt lat="47.95917" lon="2.07541">
        <ele>126.8</ele>
        <time>2021-07-11T08:04:13</time>
      </trkpt>
      <trkpt lat="47.95917" lon="2.07534">
        <ele>127</ele>
        <time>2021-07-11T08:04:14</time>
      </trkpt>
      <trkpt lat="47.95916" lon="2.07527">
        <ele>127.2</ele>
        <time>2021-07-11T08:04:15</time>
      </trkpt>
      <trkpt lat="47.95914" lon="2.07522">
        <ele>127.4</ele>
        <time>2021-07-11T08:04:16</time>
      </trkpt>
      <trkpt lat="47.9591" lon="2.07517">
        <ele>127.4</ele>
        <time>2021-07-11T08:04:17</time>
      </trkpt>
      <trkpt lat="47.95906" lon="2.07513">
        <ele>127.4</ele>
        <time>2021-07-11T08:04:18</time>
      </trkpt>
      <trkpt lat="47.95903" lon="2.0751">
        <ele>127.6</ele>
        <time>2021-07-11T08:04:19</time>
      </trkpt>
      <trkpt lat="47.959" lon="2.07507">
        <ele>127.6</ele>
        <time>2021-07-11T08:04:20</time>
      </trkpt>
      <trkpt lat="47.95896" lon="2.07504">
        <ele>127.4</ele>
        <time>2021-07-11T08:04:21</time>
      </trkpt>
      <trkpt lat="47.95893" lon="2.07501">
        <ele>127.4</ele>
        <time>2021-07-11T08:04:22</time>
      </trkpt>
      <trkpt lat="47.9589" lon="2.07495">
        <ele>127.4</ele>
        <time>2021-07-11T08:04:23</time>
      </trkpt>
      <trkpt lat="47.95885" lon="2.07489">
        <ele>127.4</ele>
        <time>2021-07-11T08:04:24</time>
      </trkpt>
      <trkpt lat="47.95881" lon="2.07486">
        <ele>127.4</ele>
        <time>2021-07-11T08:04:25</time>
      </trkpt>
      <trkpt lat="47.95876" lon="2.07482">
        <ele>127.4</ele>
        <time>2021-07-11T08:04:26</time>
      </trkpt>
      <trkpt lat="47.95872" lon="2.07479">
        <ele>127.2</ele>
        <time>2021-07-11T08:04:27</time>
      </trkpt>
      <trkpt lat="47.95868" lon="2.07477">
        <ele>127.2</ele>
        <time>2021-07-11T08:04:28</time>
      </trkpt>
      <trkpt lat="47.95863" lon="2.07474">
        <ele>127.2</ele>
        <time>2021-07-11T08:04:29</time>
      </trkpt>
      <trkpt lat="47.95858" lon="2.07472">
        <ele>127.2</ele>
        <time>2021-07-11T08:04:30</time>
      </trkpt>
      <trkpt lat="47.95851" lon="2.07468">
        <ele>127.2</ele>
        <time>2021-07-11T08:04:31</time>
      </trkpt>
      <trkpt lat="47.95846" lon="2.07463">
        <ele>127.2</ele>
        <time>2021-07-11T08:04:32</time>
      </trkpt>
      <trkpt lat="47.95842" lon="2.07457">
        <ele>127.2</ele>
        <time>2021-07-11T08:04:33</time>
      </trkpt>
      <trkpt lat="47.95839" lon="2.07454">
        <ele>127.2</ele>
        <time>2021-07-11T08:04:34</time>
      </trkpt>
      <trkpt lat="47.95834" lon="2.07451">
        <ele>127.2</ele>
        <time>2021-07-11T08:04:35</time>
      </trkpt>
      <trkpt lat="47.9583" lon="2.07446">
        <ele>127.2</ele>
        <time>2021-07-11T08:04:36</time>
      </trkpt>
      <trkpt lat="47.95825" lon="2.07444">
        <ele>127.2</ele>
        <time>2021-07-11T08:04:37</time>
      </trkpt>
      <trkpt lat="47.9582" lon="2.0744">
        <ele>127.2</ele>
        <time>2021-07-11T08:04:38</time>
      </trkpt>
      <trkpt lat="47.95813" lon="2.07435">
        <ele>127.2</ele>
        <time>2021-07-11T08:04:39</time>
      </trkpt>
      <trkpt lat="47.95808" lon="2.07431">
        <ele>127.2</ele>
        <time>2021-07-11T08:04:40</time>
      </trkpt>
      <trkpt lat="47.95804" lon="2.07426">
        <ele>127.2</ele>
        <time>2021-07-11T08:04:41</time>
      </trkpt>
      <trkpt lat="47.95797" lon="2.07422">
        <ele>127.2</ele>
        <time>2021-07-11T08:04:42</time>
      </trkpt>
      <trkpt lat="47.95791" lon="2.07419">
        <ele>127.4</ele>
        <time>2021-07-11T08:04:43</time>
      </trkpt>
      <trkpt lat="47.95784" lon="2.07415">
        <ele>127.4</ele>
        <time>2021-07-11T08:04:44</time>
      </trkpt>
      <trkpt lat="47.95778" lon="2.07411">
        <ele>127.4</ele>
        <time>2021-07-11T08:04:45</time>
      </trkpt>
      <trkpt lat="47.95771" lon="2.07409">
        <ele>127.4</ele>
        <time>2021-07-11T08:04:46</time>
      </trkpt>
      <trkpt lat="47.95766" lon="2.07408">
        <ele>127.4</ele>
        <time>2021-07-11T08:04:47</time>
      </trkpt>
      <trkpt lat="47.95761" lon="2.07407">
        <ele>127.4</ele>
        <time>2021-07-11T08:04:48</time>
      </trkpt>
      <trkpt lat="47.95756" lon="2.07406">
        <ele>127.6</ele>
        <time>2021-07-11T08:04:49</time>
      </trkpt>
      <trkpt lat="47.95751" lon="2.07404">
        <ele>127.6</ele>
        <time>2021-07-11T08:04:50</time>
      </trkpt>
      <trkpt lat="47.95747" lon="2.074">
        <ele>127.6</ele>
        <time>2021-07-11T08:04:51</time>
      </trkpt>
      <trkpt lat="47.95745" lon="2.07394">
        <ele>127.8</ele>
        <time>2021-07-11T08:04:52</time>
      </trkpt>
      <trkpt lat="47.95744" lon="2.07388">
        <ele>127.8</ele>
        <time>2021-07-11T08:04:53</time>
      </trkpt>
      <trkpt lat="47.95743" lon="2.07382">
        <ele>127.8</ele>
        <time>2021-07-11T08:04:54</time>
      </trkpt>
      <trkpt lat="47.95743" lon="2.07377">
        <ele>127.8</ele>
        <time>2021-07-11T08:04:55</time>
      </trkpt>
      <trkpt lat="47.95744" lon="2.07371">
        <ele>128</ele>
        <time>2021-07-11T08:04:56</time>
      </trkpt>
      <trkpt lat="47.95745" lon="2.07365">
        <ele>127.8</ele>
        <time>2021-07-11T08:04:57</time>
      </trkpt>
      <trkpt lat="47.95744" lon="2.07358">
        <ele>127.8</ele>
        <time>2021-07-11T08:04:58</time>
      </trkpt>
      <trkpt lat="47.95745" lon="2.07351">
        <ele>128</ele>
        <time>2021-07-11T08:04:59</time>
      </trkpt>
      <trkpt lat="47.95745" lon="2.07345">
        <ele>128</ele>
        <time>2021-07-11T08:05:00</time>
      </trkpt>
      <trkpt lat="47.95745" lon="2.07338">
        <ele>128</ele>
        <time>2021-07-11T08:05:01</time>
      </trkpt>
      <trkpt lat="47.95746" lon="2.07333">
        <ele>128</ele>
        <time>2021-07-11T08:05:02</time>
      </trkpt>
      <trkpt lat="47.95747" lon="2.07328">
        <ele>128.2</ele>
        <time>2021-07-11T08:05:03</time>
      </trkpt>
      <trkpt lat="47.95747" lon="2.07322">
        <ele>128.2</ele>
        <time>2021-07-11T08:05:04</time>
      </trkpt>
      <trkpt lat="47.95748" lon="2.07315">
        <ele>128.2</ele>
        <time>2021-07-11T08:05:05</time>
      </trkpt>
      <trkpt lat="47.95749" lon="2.0731">
        <ele>128.2</ele>
        <time>2021-07-11T08:05:06</time>
      </trkpt>
      <trkpt lat="47.9575" lon="2.07302">
        <ele>128.4</ele>
        <time>2021-07-11T08:05:07</time>
      </trkpt>
      <trkpt lat="47.95751" lon="2.07296">
        <ele>128.2</ele>
        <time>2021-07-11T08:05:08</time>
      </trkpt>
      <trkpt lat="47.95752" lon="2.0729">
        <ele>128.4</ele>
        <time>2021-07-11T08:05:09</time>
      </trkpt>
      <trkpt lat="47.95754" lon="2.07287">
        <ele>128.4</ele>
        <time>2021-07-11T08:05:10</time>
      </trkpt>
      <trkpt lat="47.95754" lon="2.0728">
        <ele>128.4</ele>
        <time>2021-07-11T08:05:11</time>
      </trkpt>
      <trkpt lat="47.95754" lon="2.07274">
        <ele>128.6</ele>
        <time>2021-07-11T08:05:12</time>
      </trkpt>
      <trkpt lat="47.95753" lon="2.07267">
        <ele>128.6</ele>
        <time>2021-07-11T08:05:13</time>
      </trkpt>
      <trkpt lat="47.95753" lon="2.07261">
        <ele>128.6</ele>
        <time>2021-07-11T08:05:14</time>
      </trkpt>
      <trkpt lat="47.95753" lon="2.07254">
        <ele>128.6</ele>
        <time>2021-07-11T08:05:15</time>
      </trkpt>
      <trkpt lat="47.95754" lon="2.07248">
        <ele>128.6</ele>
        <time>2021-07-11T08:05:16</time>
      </trkpt>
      <trkpt lat="47.95756" lon="2.07241">
        <ele>128.8</ele>
        <time>2021-07-11T08:05:17</time>
      </trkpt>
      <trkpt lat="47.95756" lon="2.07234">
        <ele>128.8</ele>
        <time>2021-07-11T08:05:18</time>
      </trkpt>
      <trkpt lat="47.95758" lon="2.07227">
        <ele>128.8</ele>
        <time>2021-07-11T08:05:19</time>
      </trkpt>
      <trkpt lat="47.9576" lon="2.07219">
        <ele>128.8</ele>
        <time>2021-07-11T08:05:20</time>
      </trkpt>
      <trkpt lat="47.95762" lon="2.0721">
        <ele>128.8</ele>
        <time>2021-07-11T08:05:21</time>
      </trkpt>
      <trkpt lat="47.95766" lon="2.07202">
        <ele>128.8</ele>
        <time>2021-07-11T08:05:22</time>
      </trkpt>
      <trkpt lat="47.95769" lon="2.07196">
        <ele>129</ele>
        <time>2021-07-11T08:05:23</time>
      </trkpt>
      <trkpt lat="47.95772" lon="2.07188">
        <ele>129</ele>
        <time>2021-07-11T08:05:24</time>
      </trkpt>
      <trkpt lat="47.95776" lon="2.07183">
        <ele>129</ele>
        <time>2021-07-11T08:05:25</time>
      </trkpt>
      <trkpt lat="47.95778" lon="2.07177">
        <ele>129.2</ele>
        <time>2021-07-11T08:05:26</time>
      </trkpt>
      <trkpt lat="47.95782" lon="2.07171">
        <ele>129.2</ele>
        <time>2021-07-11T08:05:27</time>
      </trkpt>
      <trkpt lat="47.95785" lon="2.07165">
        <ele>129.4</ele>
        <time>2021-07-11T08:05:28</time>
      </trkpt>
      <trkpt lat="47.95788" lon="2.0716">
        <ele>129.4</ele>
        <time>2021-07-11T08:05:29</time>
      </trkpt>
      <trkpt lat="47.95792" lon="2.07154">
        <ele>129.4</ele>
        <time>2021-07-11T08:05:30</time>
      </trkpt>
      <trkpt lat="47.95796" lon="2.07149">
        <ele>129.6</ele>
        <time>2021-07-11T08:05:31</time>
      </trkpt>
      <trkpt lat="47.95799" lon="2.07144">
        <ele>129.6</ele>
        <time>2021-07-11T08:05:32</time>
      </trkpt>
      <trkpt lat="47.95803" lon="2.07139">
        <ele>129.6</ele>
        <time>2021-07-11T08:05:33</time>
      </trkpt>
      <trkpt lat="47.95807" lon="2.07135">
        <ele>129.6</ele>
        <time>2021-07-11T08:05:34</time>
      </trkpt>
      <trkpt lat="47.95811" lon="2.07131">
        <ele>129.4</ele>
        <time>2021-07-11T08:05:35</time>
      </trkpt>
      <trkpt lat="47.95814" lon="2.07128">
        <ele>129.6</ele>
        <time>2021-07-11T08:05:36</time>
      </trkpt>
      <trkpt lat="47.95817" lon="2.07124">
        <ele>129.6</ele>
        <time>2021-07-11T08:05:37</time>
      </trkpt>
      <trkpt lat="47.9582" lon="2.0712">
        <ele>129.6</ele>
        <time>2021-07-11T08:05:38</time>
      </trkpt>
      <trkpt lat="47.95822" lon="2.07116">
        <ele>129.8</ele>
        <time>2021-07-11T08:05:39</time>
      </trkpt>
      <trkpt lat="47.95822" lon="2.07112">
        <ele>129.8</ele>
        <time>2021-07-11T08:05:40</time>
      </trkpt>
      <trkpt lat="47.9582" lon="2.07108">
        <ele>130</ele>
        <time>2021-07-11T08:05:41</time>
      </trkpt>
      <trkpt lat="47.95817" lon="2.07104">
        <ele>130</ele>
        <time>2021-07-11T08:05:42</time>
      </trkpt>
      <trkpt lat="47.95815" lon="2.071">
        <ele>130.2</ele>
        <time>2021-07-11T08:05:43</time>
      </trkpt>
      <trkpt lat="47.95812" lon="2.07095">
        <ele>130.2</ele>
        <time>2021-07-11T08:05:44</time>
      </trkpt>
      <trkpt lat="47.95809" lon="2.0709">
        <ele>130</ele>
        <time>2021-07-11T08:05:45</time>
      </trkpt>
      <trkpt lat="47.95806" lon="2.07086">
        <ele>130</ele>
        <time>2021-07-11T08:05:46</time>
      </trkpt>
      <trkpt lat="47.95804" lon="2.0708">
        <ele>130</ele>
        <time>2021-07-11T08:05:47</time>
      </trkpt>
      <trkpt lat="47.95801" lon="2.07075">
        <ele>129.8</ele>
        <time>2021-07-11T08:05:48</time>
      </trkpt>
      <trkpt lat="47.95798" lon="2.0707">
        <ele>130</ele>
        <time>2021-07-11T08:05:49</time>
      </trkpt>
      <trkpt lat="47.95796" lon="2.07066">
        <ele>129.8</ele>
        <time>2021-07-11T08:05:50</time>
      </trkpt>
      <trkpt lat="47.95793" lon="2.07061">
        <ele>130</ele>
        <time>2021-07-11T08:05:51</time>
      </trkpt>
      <trkpt lat="47.95791" lon="2.07057">
        <ele>130</ele>
        <time>2021-07-11T08:05:52</time>
      </trkpt>
      <trkpt lat="47.95788" lon="2.07054">
        <ele>130</ele>
        <time>2021-07-11T08:05:53</time>
      </trkpt>
      <trkpt lat="47.95785" lon="2.0705">
        <ele>130</ele>
        <time>2021-07-11T08:05:54</time>
      </trkpt>
      <trkpt lat="47.95782" lon="2.07047">
        <ele>129.8</ele>
        <time>2021-07-11T08:05:55</time>
      </trkpt>
      <trkpt lat="47.95779" lon="2.07042">
        <ele>130</ele>
        <time>2021-07-11T08:05:56</time>
      </trkpt>
      <trkpt lat="47.95776" lon="2.07037">
        <ele>130</ele>
        <time>2021-07-11T08:05:57</time>
      </trkpt>
      <trkpt lat="47.95773" lon="2.07032">
        <ele>130</ele>
        <time>2021-07-11T08:05:58</time>
      </trkpt>
      <trkpt lat="47.95768" lon="2.07027">
        <ele>130</ele>
        <time>2021-07-11T08:05:59</time>
      </trkpt>
      <trkpt lat="47.95765" lon="2.07024">
        <ele>130</ele>
        <time>2021-07-11T08:06:00</time>
      </trkpt>
      <trkpt lat="47.95761" lon="2.07021">
        <ele>130</ele>
        <time>2021-07-11T08:06:01</time>
      </trkpt>
      <trkpt lat="47.95758" lon="2.07017">
        <ele>130</ele>
        <time>2021-07-11T08:06:02</time>
      </trkpt>
      <trkpt lat="47.95754" lon="2.07014">
        <ele>130</ele>
        <time>2021-07-11T08:06:03</time>
      </trkpt>
      <trkpt lat="47.95751" lon="2.0701">
        <ele>129.8</ele>
        <time>2021-07-11T08:06:04</time>
      </trkpt>
      <trkpt lat="47.95747" lon="2.07007">
        <ele>130</ele>
        <time>2021-07-11T08:06:05</time>
      </trkpt>
      <trkpt lat="47.95743" lon="2.07003">
        <ele>129.8</ele>
        <time>2021-07-11T08:06:06</time>
      </trkpt>
      <trkpt lat="47.95739" lon="2.07">
        <ele>130</ele>
        <time>2021-07-11T08:06:07</time>
      </trkpt>
      <trkpt lat="47.95736" lon="2.06996">
        <ele>129.8</ele>
        <time>2021-07-11T08:06:08</time>
      </trkpt>
      <trkpt lat="47.95732" lon="2.06993">
        <ele>130</ele>
        <time>2021-07-11T08:06:09</time>
      </trkpt>
      <trkpt lat="47.95728" lon="2.06989">
        <ele>129.8</ele>
        <time>2021-07-11T08:06:10</time>
      </trkpt>
      <trkpt lat="47.95725" lon="2.06985">
        <ele>129.8</ele>
        <time>2021-07-11T08:06:11</time>
      </trkpt>
      <trkpt lat="47.95721" lon="2.06981">
        <ele>129.8</ele>
        <time>2021-07-11T08:06:12</time>
      </trkpt>
      <trkpt lat="47.95717" lon="2.06977">
        <ele>129.8</ele>
        <time>2021-07-11T08:06:13</time>
      </trkpt>
      <trkpt lat="47.95713" lon="2.06973">
        <ele>129.6</ele>
        <time>2021-07-11T08:06:14</time>
      </trkpt>
      <trkpt lat="47.95709" lon="2.06969">
        <ele>129.6</ele>
        <time>2021-07-11T08:06:15</time>
      </trkpt>
      <trkpt lat="47.95706" lon="2.06966">
        <ele>129.6</ele>
        <time>2021-07-11T08:06:16</time>
      </trkpt>
      <trkpt lat="47.95702" lon="2.06962">
        <ele>129.6</ele>
        <time>2021-07-11T08:06:17</time>
      </trkpt>
      <trkpt lat="47.95699" lon="2.06958">
        <ele>129.6</ele>
        <time>2021-07-11T08:06:18</time>
      </trkpt>
      <trkpt lat="47.95696" lon="2.06954">
        <ele>129.6</ele>
        <time>2021-07-11T08:06:19</time>
      </trkpt>
      <trkpt lat="47.95693" lon="2.0695">
        <ele>129.4</ele>
        <time>2021-07-11T08:06:20</time>
      </trkpt>
      <trkpt lat="47.9569" lon="2.06946">
        <ele>129.4</ele>
        <time>2021-07-11T08:06:21</time>
      </trkpt>
      <trkpt lat="47.95687" lon="2.06941">
        <ele>129.2</ele>
        <time>2021-07-11T08:06:22</time>
      </trkpt>
      <trkpt lat="47.95683" lon="2.06936">
        <ele>129.2</ele>
        <time>2021-07-11T08:06:23</time>
      </trkpt>
      <trkpt lat="47.9568" lon="2.06931">
        <ele>129.2</ele>
        <time>2021-07-11T08:06:24</time>
      </trkpt>
      <trkpt lat="47.95677" lon="2.06925">
        <ele>129.2</ele>
        <time>2021-07-11T08:06:25</time>
      </trkpt>
      <trkpt lat="47.95674" lon="2.06919">
        <ele>129</ele>
        <time>2021-07-11T08:06:26</time>
      </trkpt>
      <trkpt lat="47.95671" lon="2.06912">
        <ele>129</ele>
        <time>2021-07-11T08:06:27</time>
      </trkpt>
      <trkpt lat="47.95668" lon="2.06906">
        <ele>129</ele>
        <time>2021-07-11T08:06:28</time>
      </trkpt>
      <trkpt lat="47.95665" lon="2.06899">
        <ele>128.8</ele>
        <time>2021-07-11T08:06:29</time>
      </trkpt>
      <trkpt lat="47.95661" lon="2.06893">
        <ele>128.8</ele>
        <time>2021-07-11T08:06:30</time>
      </trkpt>
      <trkpt lat="47.95658" lon="2.06887">
        <ele>128.8</ele>
        <time>2021-07-11T08:06:31</time>
      </trkpt>
      <trkpt lat="47.95655" lon="2.06882">
        <ele>128.8</ele>
        <time>2021-07-11T08:06:32</time>
      </trkpt>
      <trkpt lat="47.95651" lon="2.06876">
        <ele>129</ele>
        <time>2021-07-11T08:06:33</time>
      </trkpt>
      <trkpt lat="47.95647" lon="2.06871">
        <ele>129</ele>
        <time>2021-07-11T08:06:34</time>
      </trkpt>
      <trkpt lat="47.95643" lon="2.06866">
        <ele>129</ele>
        <time>2021-07-11T08:06:35</time>
      </trkpt>
      <trkpt lat="47.95639" lon="2.06862">
        <ele>129</ele>
        <time>2021-07-11T08:06:36</time>
      </trkpt>
      <trkpt lat="47.95635" lon="2.06858">
        <ele>129</ele>
        <time>2021-07-11T08:06:37</time>
      </trkpt>
      <trkpt lat="47.95631" lon="2.06854">
        <ele>129</ele>
        <time>2021-07-11T08:06:38</time>
      </trkpt>
      <trkpt lat="47.95627" lon="2.06851">
        <ele>129</ele>
        <time>2021-07-11T08:06:39</time>
      </trkpt>
      <trkpt lat="47.95622" lon="2.06848">
        <ele>129.2</ele>
        <time>2021-07-11T08:06:40</time>
      </trkpt>
      <trkpt lat="47.95618" lon="2.06846">
        <ele>129.2</ele>
        <time>2021-07-11T08:06:41</time>
      </trkpt>
      <trkpt lat="47.95614" lon="2.06843">
        <ele>129.4</ele>
        <time>2021-07-11T08:06:42</time>
      </trkpt>
      <trkpt lat="47.95609" lon="2.0684">
        <ele>129.6</ele>
        <time>2021-07-11T08:06:43</time>
      </trkpt>
      <trkpt lat="47.95605" lon="2.06838">
        <ele>129.8</ele>
        <time>2021-07-11T08:06:44</time>
      </trkpt>
      <trkpt lat="47.95601" lon="2.06834">
        <ele>130</ele>
        <time>2021-07-11T08:06:45</time>
      </trkpt>
      <trkpt lat="47.95597" lon="2.06831">
        <ele>130.2</ele>
        <time>2021-07-11T08:06:46</time>
      </trkpt>
      <trkpt lat="47.95593" lon="2.06829">
        <ele>130.2</ele>
        <time>2021-07-11T08:06:47</time>
      </trkpt>
      <trkpt lat="47.95589" lon="2.06826">
        <ele>130.4</ele>
        <time>2021-07-11T08:06:48</time>
      </trkpt>
      <trkpt lat="47.95585" lon="2.06823">
        <ele>130.6</ele>
        <time>2021-07-11T08:06:49</time>
      </trkpt>
      <trkpt lat="47.95581" lon="2.0682">
        <ele>130.6</ele>
        <time>2021-07-11T08:06:50</time>
      </trkpt>
      <trkpt lat="47.95577" lon="2.06818">
        <ele>130.6</ele>
        <time>2021-07-11T08:06:51</time>
      </trkpt>
      <trkpt lat="47.95574" lon="2.06817">
        <ele>130.6</ele>
        <time>2021-07-11T08:06:52</time>
      </trkpt>
      <trkpt lat="47.95571" lon="2.06815">
        <ele>130.6</ele>
        <time>2021-07-11T08:06:53</time>
      </trkpt>
      <trkpt lat="47.95568" lon="2.06815">
        <ele>130.6</ele>
        <time>2021-07-11T08:06:54</time>
      </trkpt>
      <trkpt lat="47.95565" lon="2.06813">
        <ele>130.8</ele>
        <time>2021-07-11T08:06:55</time>
      </trkpt>
      <trkpt lat="47.95562" lon="2.0681">
        <ele>130.8</ele>
        <time>2021-07-11T08:06:56</time>
      </trkpt>
      <trkpt lat="47.95559" lon="2.06807">
        <ele>130.6</ele>
        <time>2021-07-11T08:06:57</time>
      </trkpt>
      <trkpt lat="47.95555" lon="2.06804">
        <ele>130.6</ele>
        <time>2021-07-11T08:06:58</time>
      </trkpt>
      <trkpt lat="47.95552" lon="2.068">
        <ele>130.4</ele>
        <time>2021-07-11T08:06:59</time>
      </trkpt>
      <trkpt lat="47.95548" lon="2.06797">
        <ele>130.2</ele>
        <time>2021-07-11T08:07:00</time>
      </trkpt>
      <trkpt lat="47.95543" lon="2.06794">
        <ele>130.2</ele>
        <time>2021-07-11T08:07:01</time>
      </trkpt>
      <trkpt lat="47.95539" lon="2.0679">
        <ele>130.2</ele>
        <time>2021-07-11T08:07:02</time>
      </trkpt>
      <trkpt lat="47.95535" lon="2.06786">
        <ele>130</ele>
        <time>2021-07-11T08:07:03</time>
      </trkpt>
      <trkpt lat="47.9553" lon="2.06783">
        <ele>130</ele>
        <time>2021-07-11T08:07:04</time>
      </trkpt>
      <trkpt lat="47.95525" lon="2.06779">
        <ele>129.8</ele>
        <time>2021-07-11T08:07:05</time>
      </trkpt>
      <trkpt lat="47.9552" lon="2.06775">
        <ele>129.8</ele>
        <time>2021-07-11T08:07:06</time>
      </trkpt>
      <trkpt lat="47.95516" lon="2.06771">
        <ele>129.8</ele>
        <time>2021-07-11T08:07:07</time>
      </trkpt>
      <trkpt lat="47.95511" lon="2.06767">
        <ele>129.6</ele>
        <time>2021-07-11T08:07:08</time>
      </trkpt>
      <trkpt lat="47.95507" lon="2.06763">
        <ele>129.2</ele>
        <time>2021-07-11T08:07:09</time>
      </trkpt>
      <trkpt lat="47.95502" lon="2.06759">
        <ele>129.6</ele>
        <time>2021-07-11T08:07:10</time>
      </trkpt>
      <trkpt lat="47.95498" lon="2.06755">
        <ele>129.6</ele>
        <time>2021-07-11T08:07:11</time>
      </trkpt>
      <trkpt lat="47.95493" lon="2.06751">
        <ele>129.4</ele>
        <time>2021-07-11T08:07:12</time>
      </trkpt>
      <trkpt lat="47.95488" lon="2.06748">
        <ele>129.4</ele>
        <time>2021-07-11T08:07:13</time>
      </trkpt>
      <trkpt lat="47.95483" lon="2.06745">
        <ele>129.2</ele>
        <time>2021-07-11T08:07:14</time>
      </trkpt>
      <trkpt lat="47.95479" lon="2.06741">
        <ele>129.2</ele>
        <time>2021-07-11T08:07:15</time>
      </trkpt>
      <trkpt lat="47.95473" lon="2.06739">
        <ele>129.2</ele>
        <time>2021-07-11T08:07:16</time>
      </trkpt>
      <trkpt lat="47.95468" lon="2.06736">
        <ele>129</ele>
        <time>2021-07-11T08:07:17</time>
      </trkpt>
      <trkpt lat="47.95463" lon="2.06734">
        <ele>129</ele>
        <time>2021-07-11T08:07:18</time>
      </trkpt>
      <trkpt lat="47.95458" lon="2.06731">
        <ele>128.8</ele>
        <time>2021-07-11T08:07:19</time>
      </trkpt>
      <trkpt lat="47.95453" lon="2.06729">
        <ele>128.8</ele>
        <time>2021-07-11T08:07:20</time>
      </trkpt>
      <trkpt lat="47.95447" lon="2.06726">
        <ele>128.6</ele>
        <time>2021-07-11T08:07:21</time>
      </trkpt>
      <trkpt lat="47.95442" lon="2.06724">
        <ele>128.6</ele>
        <time>2021-07-11T08:07:22</time>
      </trkpt>
      <trkpt lat="47.95437" lon="2.06721">
        <ele>128.4</ele>
        <time>2021-07-11T08:07:23</time>
      </trkpt>
      <trkpt lat="47.95431" lon="2.06719">
        <ele>128.4</ele>
        <time>2021-07-11T08:07:24</time>
      </trkpt>
      <trkpt lat="47.95426" lon="2.06717">
        <ele>128.4</ele>
        <time>2021-07-11T08:07:25</time>
      </trkpt>
      <trkpt lat="47.9542" lon="2.06714">
        <ele>128.4</ele>
        <time>2021-07-11T08:07:26</time>
      </trkpt>
      <trkpt lat="47.95415" lon="2.06712">
        <ele>128.2</ele>
        <time>2021-07-11T08:07:27</time>
      </trkpt>
      <trkpt lat="47.9541" lon="2.06709">
        <ele>128.4</ele>
        <time>2021-07-11T08:07:28</time>
      </trkpt>
      <trkpt lat="47.95404" lon="2.06706">
        <ele>128.2</ele>
        <time>2021-07-11T08:07:29</time>
      </trkpt>
      <trkpt lat="47.95399" lon="2.06703">
        <ele>128.2</ele>
        <time>2021-07-11T08:07:30</time>
      </trkpt>
      <trkpt lat="47.95394" lon="2.067">
        <ele>128.2</ele>
        <time>2021-07-11T08:07:31</time>
      </trkpt>
      <trkpt lat="47.95389" lon="2.06697">
        <ele>128.2</ele>
        <time>2021-07-11T08:07:32</time>
      </trkpt>
      <trkpt lat="47.95384" lon="2.06693">
        <ele>128.4</ele>
        <time>2021-07-11T08:07:33</time>
      </trkpt>
      <trkpt lat="47.95379" lon="2.0669">
        <ele>128.4</ele>
        <time>2021-07-11T08:07:34</time>
      </trkpt>
      <trkpt lat="47.95374" lon="2.06686">
        <ele>128.6</ele>
        <time>2021-07-11T08:07:35</time>
      </trkpt>
      <trkpt lat="47.95369" lon="2.06681">
        <ele>128.4</ele>
        <time>2021-07-11T08:07:36</time>
      </trkpt>
      <trkpt lat="47.95365" lon="2.06677">
        <ele>128.4</ele>
        <time>2021-07-11T08:07:37</time>
      </trkpt>
      <trkpt lat="47.9536" lon="2.06672">
        <ele>128.4</ele>
        <time>2021-07-11T08:07:38</time>
      </trkpt>
      <trkpt lat="47.95356" lon="2.06667">
        <ele>128.4</ele>
        <time>2021-07-11T08:07:39</time>
      </trkpt>
      <trkpt lat="47.95351" lon="2.06662">
        <ele>128.4</ele>
        <time>2021-07-11T08:07:40</time>
      </trkpt>
      <trkpt lat="47.95347" lon="2.06657">
        <ele>128.4</ele>
        <time>2021-07-11T08:07:41</time>
      </trkpt>
      <trkpt lat="47.95343" lon="2.06652">
        <ele>128.4</ele>
        <time>2021-07-11T08:07:42</time>
      </trkpt>
      <trkpt lat="47.95339" lon="2.06647">
        <ele>128.2</ele>
        <time>2021-07-11T08:07:43</time>
      </trkpt>
      <trkpt lat="47.95336" lon="2.06641">
        <ele>128.2</ele>
        <time>2021-07-11T08:07:44</time>
      </trkpt>
      <trkpt lat="47.95332" lon="2.06636">
        <ele>128.2</ele>
        <time>2021-07-11T08:07:45</time>
      </trkpt>
      <trkpt lat="47.95328" lon="2.0663">
        <ele>128.2</ele>
        <time>2021-07-11T08:07:46</time>
      </trkpt>
      <trkpt lat="47.95325" lon="2.06625">
        <ele>128.2</ele>
        <time>2021-07-11T08:07:47</time>
      </trkpt>
      <trkpt lat="47.95321" lon="2.06621">
        <ele>128</ele>
        <time>2021-07-11T08:07:48</time>
      </trkpt>
      <trkpt lat="47.95318" lon="2.06617">
        <ele>128</ele>
        <time>2021-07-11T08:07:49</time>
      </trkpt>
      <trkpt lat="47.95315" lon="2.06613">
        <ele>127.8</ele>
        <time>2021-07-11T08:07:50</time>
      </trkpt>
      <trkpt lat="47.95313" lon="2.06611">
        <ele>127.8</ele>
        <time>2021-07-11T08:07:51</time>
      </trkpt>
      <trkpt lat="47.9531" lon="2.0661">
        <ele>127.6</ele>
        <time>2021-07-11T08:07:52</time>
      </trkpt>
      <trkpt lat="47.95308" lon="2.06612">
        <ele>127.6</ele>
        <time>2021-07-11T08:07:53</time>
      </trkpt>
      <trkpt lat="47.95305" lon="2.06615">
        <ele>127.6</ele>
        <time>2021-07-11T08:07:54</time>
      </trkpt>
      <trkpt lat="47.95303" lon="2.06619">
        <ele>127.4</ele>
        <time>2021-07-11T08:07:55</time>
      </trkpt>
      <trkpt lat="47.95301" lon="2.06624">
        <ele>127.4</ele>
        <time>2021-07-11T08:07:56</time>
      </trkpt>
      <trkpt lat="47.95299" lon="2.0663">
        <ele>127.2</ele>
        <time>2021-07-11T08:07:57</time>
      </trkpt>
      <trkpt lat="47.95297" lon="2.06636">
        <ele>127.2</ele>
        <time>2021-07-11T08:07:58</time>
      </trkpt>
      <trkpt lat="47.95295" lon="2.06643">
        <ele>127</ele>
        <time>2021-07-11T08:07:59</time>
      </trkpt>
      <trkpt lat="47.95293" lon="2.0665">
        <ele>127</ele>
        <time>2021-07-11T08:08:00</time>
      </trkpt>
      <trkpt lat="47.9529" lon="2.06657">
        <ele>126.8</ele>
        <time>2021-07-11T08:08:01</time>
      </trkpt>
      <trkpt lat="47.95288" lon="2.06664">
        <ele>126.8</ele>
        <time>2021-07-11T08:08:02</time>
      </trkpt>
      <trkpt lat="47.95285" lon="2.06672">
        <ele>126.6</ele>
        <time>2021-07-11T08:08:03</time>
      </trkpt>
      <trkpt lat="47.95282" lon="2.0668">
        <ele>126.6</ele>
        <time>2021-07-11T08:08:04</time>
      </trkpt>
      <trkpt lat="47.9528" lon="2.06688">
        <ele>126.4</ele>
        <time>2021-07-11T08:08:05</time>
      </trkpt>
      <trkpt lat="47.95276" lon="2.06696">
        <ele>126.4</ele>
        <time>2021-07-11T08:08:06</time>
      </trkpt>
      <trkpt lat="47.95273" lon="2.06705">
        <ele>126.2</ele>
        <time>2021-07-11T08:08:07</time>
      </trkpt>
      <trkpt lat="47.9527" lon="2.06714">
        <ele>126</ele>
        <time>2021-07-11T08:08:08</time>
      </trkpt>
      <trkpt lat="47.95267" lon="2.06722">
        <ele>125.6</ele>
        <time>2021-07-11T08:08:09</time>
      </trkpt>
      <trkpt lat="47.95264" lon="2.06731">
        <ele>125.4</ele>
        <time>2021-07-11T08:08:10</time>
      </trkpt>
      <trkpt lat="47.95261" lon="2.0674">
        <ele>125.4</ele>
        <time>2021-07-11T08:08:11</time>
      </trkpt>
      <trkpt lat="47.95258" lon="2.06749">
        <ele>125.2</ele>
        <time>2021-07-11T08:08:12</time>
      </trkpt>
      <trkpt lat="47.95255" lon="2.06757">
        <ele>125.2</ele>
        <time>2021-07-11T08:08:13</time>
      </trkpt>
      <trkpt lat="47.95252" lon="2.06766">
        <ele>125</ele>
        <time>2021-07-11T08:08:14</time>
      </trkpt>
      <trkpt lat="47.95249" lon="2.06775">
        <ele>124.8</ele>
        <time>2021-07-11T08:08:15</time>
      </trkpt>
      <trkpt lat="47.95247" lon="2.06783">
        <ele>124.8</ele>
        <time>2021-07-11T08:08:16</time>
      </trkpt>
      <trkpt lat="47.95244" lon="2.06791">
        <ele>124.4</ele>
        <time>2021-07-11T08:08:17</time>
      </trkpt>
      <trkpt lat="47.95242" lon="2.06796">
        <ele>124.4</ele>
        <time>2021-07-11T08:08:18</time>
      </trkpt>
      <trkpt lat="47.95238" lon="2.06798">
        <ele>124.2</ele>
        <time>2021-07-11T08:08:19</time>
      </trkpt>
      <trkpt lat="47.95235" lon="2.06798">
        <ele>124.2</ele>
        <time>2021-07-11T08:08:20</time>
      </trkpt>
      <trkpt lat="47.95231" lon="2.06796">
        <ele>124</ele>
        <time>2021-07-11T08:08:21</time>
      </trkpt>
      <trkpt lat="47.95228" lon="2.06793">
        <ele>123.8</ele>
        <time>2021-07-11T08:08:22</time>
      </trkpt>
      <trkpt lat="47.95224" lon="2.0679">
        <ele>123.6</ele>
        <time>2021-07-11T08:08:23</time>
      </trkpt>
      <trkpt lat="47.95221" lon="2.06788">
        <ele>123.6</ele>
        <time>2021-07-11T08:08:24</time>
      </trkpt>
      <trkpt lat="47.95217" lon="2.06785">
        <ele>123.4</ele>
        <time>2021-07-11T08:08:25</time>
      </trkpt>
      <trkpt lat="47.95213" lon="2.06781">
        <ele>123.4</ele>
        <time>2021-07-11T08:08:26</time>
      </trkpt>
      <trkpt lat="47.95208" lon="2.06778">
        <ele>123.2</ele>
        <time>2021-07-11T08:08:27</time>
      </trkpt>
      <trkpt lat="47.95204" lon="2.06775">
        <ele>123.2</ele>
        <time>2021-07-11T08:08:28</time>
      </trkpt>
      <trkpt lat="47.952" lon="2.06772">
        <ele>123.2</ele>
        <time>2021-07-11T08:08:29</time>
      </trkpt>
      <trkpt lat="47.95196" lon="2.06769">
        <ele>123</ele>
        <time>2021-07-11T08:08:30</time>
      </trkpt>
      <trkpt lat="47.95192" lon="2.06766">
        <ele>123</ele>
        <time>2021-07-11T08:08:31</time>
      </trkpt>
      <trkpt lat="47.95187" lon="2.06763">
        <ele>123</ele>
        <time>2021-07-11T08:08:32</time>
      </trkpt>
      <trkpt lat="47.95183" lon="2.0676">
        <ele>123</ele>
        <time>2021-07-11T08:08:33</time>
      </trkpt>
      <trkpt lat="47.95179" lon="2.06757">
        <ele>123</ele>
        <time>2021-07-11T08:08:34</time>
      </trkpt>
      <trkpt lat="47.95175" lon="2.06754">
        <ele>123</ele>
        <time>2021-07-11T08:08:35</time>
      </trkpt>
      <trkpt lat="47.9517" lon="2.06751">
        <ele>123</ele>
        <time>2021-07-11T08:08:36</time>
      </trkpt>
      <trkpt lat="47.95166" lon="2.06748">
        <ele>122.8</ele>
        <time>2021-07-11T08:08:37</time>
      </trkpt>
      <trkpt lat="47.95162" lon="2.06745">
        <ele>122.8</ele>
        <time>2021-07-11T08:08:38</time>
      </trkpt>
      <trkpt lat="47.95158" lon="2.06743">
        <ele>122.8</ele>
        <time>2021-07-11T08:08:39</time>
      </trkpt>
      <trkpt lat="47.95154" lon="2.0674">
        <ele>122.8</ele>
        <time>2021-07-11T08:08:40</time>
      </trkpt>
      <trkpt lat="47.95149" lon="2.06737">
        <ele>122.6</ele>
        <time>2021-07-11T08:08:41</time>
      </trkpt>
      <trkpt lat="47.95145" lon="2.06734">
        <ele>122.4</ele>
        <time>2021-07-11T08:08:42</time>
      </trkpt>
      <trkpt lat="47.95141" lon="2.06731">
        <ele>122.6</ele>
        <time>2021-07-11T08:08:43</time>
      </trkpt>
      <trkpt lat="47.95136" lon="2.06728">
        <ele>122.4</ele>
        <time>2021-07-11T08:08:44</time>
      </trkpt>
      <trkpt lat="47.95132" lon="2.06725">
        <ele>122.2</ele>
        <time>2021-07-11T08:08:45</time>
      </trkpt>
      <trkpt lat="47.95128" lon="2.06721">
        <ele>122.4</ele>
        <time>2021-07-11T08:08:46</time>
      </trkpt>
      <trkpt lat="47.95124" lon="2.06718">
        <ele>122.2</ele>
        <time>2021-07-11T08:08:47</time>
      </trkpt>
      <trkpt lat="47.9512" lon="2.06714">
        <ele>122.4</ele>
        <time>2021-07-11T08:08:48</time>
      </trkpt>
      <trkpt lat="47.95116" lon="2.06711">
        <ele>122.2</ele>
        <time>2021-07-11T08:08:49</time>
      </trkpt>
      <trkpt lat="47.95111" lon="2.06708">
        <ele>122.2</ele>
        <time>2021-07-11T08:08:50</time>
      </trkpt>
      <trkpt lat="47.95107" lon="2.06705">
        <ele>122.2</ele>
        <time>2021-07-11T08:08:51</time>
      </trkpt>
      <trkpt lat="47.95102" lon="2.06701">
        <ele>122.2</ele>
        <time>2021-07-11T08:08:52</time>
      </trkpt>
      <trkpt lat="47.95098" lon="2.06698">
        <ele>122</ele>
        <time>2021-07-11T08:08:53</time>
      </trkpt>
      <trkpt lat="47.95093" lon="2.06695">
        <ele>122</ele>
        <time>2021-07-11T08:08:54</time>
      </trkpt>
      <trkpt lat="47.95089" lon="2.06692">
        <ele>122</ele>
        <time>2021-07-11T08:08:55</time>
      </trkpt>
      <trkpt lat="47.95084" lon="2.06689">
        <ele>122</ele>
        <time>2021-07-11T08:08:56</time>
      </trkpt>
      <trkpt lat="47.95079" lon="2.06685">
        <ele>121.8</ele>
        <time>2021-07-11T08:08:57</time>
      </trkpt>
      <trkpt lat="47.95075" lon="2.06682">
        <ele>121.8</ele>
        <time>2021-07-11T08:08:58</time>
      </trkpt>
      <trkpt lat="47.9507" lon="2.06678">
        <ele>121.6</ele>
        <time>2021-07-11T08:08:59</time>
      </trkpt>
      <trkpt lat="47.95066" lon="2.06675">
        <ele>121.6</ele>
        <time>2021-07-11T08:09:00</time>
      </trkpt>
      <trkpt lat="47.95061" lon="2.06671">
        <ele>121.4</ele>
        <time>2021-07-11T08:09:01</time>
      </trkpt>
      <trkpt lat="47.95057" lon="2.06668">
        <ele>121.4</ele>
        <time>2021-07-11T08:09:02</time>
      </trkpt>
      <trkpt lat="47.95053" lon="2.06664">
        <ele>121.4</ele>
        <time>2021-07-11T08:09:03</time>
      </trkpt>
      <trkpt lat="47.95049" lon="2.06659">
        <ele>121.4</ele>
        <time>2021-07-11T08:09:04</time>
      </trkpt>
      <trkpt lat="47.95045" lon="2.06655">
        <ele>121.4</ele>
        <time>2021-07-11T08:09:05</time>
      </trkpt>
      <trkpt lat="47.95042" lon="2.0665">
        <ele>121.4</ele>
        <time>2021-07-11T08:09:06</time>
      </trkpt>
      <trkpt lat="47.95038" lon="2.06645">
        <ele>121.4</ele>
        <time>2021-07-11T08:09:07</time>
      </trkpt>
      <trkpt lat="47.95035" lon="2.06641">
        <ele>121</ele>
        <time>2021-07-11T08:09:08</time>
      </trkpt>
      <trkpt lat="47.95032" lon="2.06636">
        <ele>121</ele>
        <time>2021-07-11T08:09:09</time>
      </trkpt>
      <trkpt lat="47.95029" lon="2.06632">
        <ele>121</ele>
        <time>2021-07-11T08:09:10</time>
      </trkpt>
      <trkpt lat="47.95025" lon="2.06627">
        <ele>120.8</ele>
        <time>2021-07-11T08:09:11</time>
      </trkpt>
      <trkpt lat="47.95021" lon="2.06624">
        <ele>120.8</ele>
        <time>2021-07-11T08:09:12</time>
      </trkpt>
      <trkpt lat="47.95017" lon="2.0662">
        <ele>120.8</ele>
        <time>2021-07-11T08:09:13</time>
      </trkpt>
      <trkpt lat="47.95012" lon="2.06616">
        <ele>120.6</ele>
        <time>2021-07-11T08:09:14</time>
      </trkpt>
      <trkpt lat="47.95008" lon="2.06612">
        <ele>120.4</ele>
        <time>2021-07-11T08:09:15</time>
      </trkpt>
      <trkpt lat="47.95004" lon="2.06608">
        <ele>120.4</ele>
        <time>2021-07-11T08:09:16</time>
      </trkpt>
      <trkpt lat="47.94999" lon="2.06604">
        <ele>120.6</ele>
        <time>2021-07-11T08:09:17</time>
      </trkpt>
      <trkpt lat="47.94995" lon="2.06601">
        <ele>120.6</ele>
        <time>2021-07-11T08:09:18</time>
      </trkpt>
      <trkpt lat="47.94991" lon="2.06598">
        <ele>120.6</ele>
        <time>2021-07-11T08:09:19</time>
      </trkpt>
      <trkpt lat="47.94988" lon="2.06595">
        <ele>120.6</ele>
        <time>2021-07-11T08:09:20</time>
      </trkpt>
      <trkpt lat="47.94984" lon="2.06592">
        <ele>120.4</ele>
        <time>2021-07-11T08:09:21</time>
      </trkpt>
      <trkpt lat="47.94981" lon="2.0659">
        <ele>120.4</ele>
        <time>2021-07-11T08:09:22</time>
      </trkpt>
      <trkpt lat="47.94978" lon="2.06588">
        <ele>120.4</ele>
        <time>2021-07-11T08:09:23</time>
      </trkpt>
      <trkpt lat="47.94975" lon="2.06586">
        <ele>120.4</ele>
        <time>2021-07-11T08:09:24</time>
      </trkpt>
      <trkpt lat="47.94971" lon="2.06584">
        <ele>120.2</ele>
        <time>2021-07-11T08:09:25</time>
      </trkpt>
      <trkpt lat="47.94968" lon="2.06582">
        <ele>120</ele>
        <time>2021-07-11T08:09:26</time>
      </trkpt>
      <trkpt lat="47.94966" lon="2.06579">
        <ele>120.2</ele>
        <time>2021-07-11T08:09:27</time>
      </trkpt>
      <trkpt lat="47.94963" lon="2.06576">
        <ele>120.2</ele>
        <time>2021-07-11T08:09:28</time>
      </trkpt>
      <trkpt lat="47.94962" lon="2.06572">
        <ele>120.2</ele>
        <time>2021-07-11T08:09:29</time>
      </trkpt>
      <trkpt lat="47.9496" lon="2.06569">
        <ele>120.2</ele>
        <time>2021-07-11T08:09:30</time>
      </trkpt>
      <trkpt lat="47.94959" lon="2.06566">
        <ele>120.2</ele>
        <time>2021-07-11T08:09:31</time>
      </trkpt>
      <trkpt lat="47.94957" lon="2.06563">
        <ele>120.2</ele>
        <time>2021-07-11T08:09:32</time>
      </trkpt>
      <trkpt lat="47.94956" lon="2.06561">
        <ele>120.2</ele>
        <time>2021-07-11T08:09:33</time>
      </trkpt>
      <trkpt lat="47.94953" lon="2.06559">
        <ele>120.2</ele>
        <time>2021-07-11T08:09:34</time>
      </trkpt>
      <trkpt lat="47.94951" lon="2.06556">
        <ele>120.2</ele>
        <time>2021-07-11T08:09:35</time>
      </trkpt>
      <trkpt lat="47.94949" lon="2.06553">
        <ele>120.2</ele>
        <time>2021-07-11T08:09:36</time>
      </trkpt>
      <trkpt lat="47.94947" lon="2.0655">
        <ele>120.2</ele>
        <time>2021-07-11T08:09:37</time>
      </trkpt>
      <trkpt lat="47.94945" lon="2.06547">
        <ele>120.2</ele>
        <time>2021-07-11T08:09:38</time>
      </trkpt>
      <trkpt lat="47.94942" lon="2.06544">
        <ele>120.2</ele>
        <time>2021-07-11T08:09:39</time>
      </trkpt>
      <trkpt lat="47.9494" lon="2.06541">
        <ele>120.2</ele>
        <time>2021-07-11T08:09:40</time>
      </trkpt>
      <trkpt lat="47.94937" lon="2.06537">
        <ele>120.2</ele>
        <time>2021-07-11T08:09:42</time>
      </trkpt>
      <trkpt lat="47.94932" lon="2.06529">
        <ele>120.2</ele>
        <time>2021-07-11T08:09:43</time>
      </trkpt>
      <trkpt lat="47.94929" lon="2.06525">
        <ele>120.2</ele>
        <time>2021-07-11T08:09:44</time>
      </trkpt>
      <trkpt lat="47.94925" lon="2.06521">
        <ele>120.2</ele>
        <time>2021-07-11T08:09:45</time>
      </trkpt>
      <trkpt lat="47.94921" lon="2.06517">
        <ele>120.2</ele>
        <time>2021-07-11T08:09:46</time>
      </trkpt>
      <trkpt lat="47.94917" lon="2.06515">
        <ele>120</ele>
        <time>2021-07-11T08:09:47</time>
      </trkpt>
      <trkpt lat="47.94912" lon="2.06514">
        <ele>120</ele>
        <time>2021-07-11T08:09:48</time>
      </trkpt>
      <trkpt lat="47.94908" lon="2.06512">
        <ele>120</ele>
        <time>2021-07-11T08:09:49</time>
      </trkpt>
      <trkpt lat="47.94903" lon="2.06511">
        <ele>120</ele>
        <time>2021-07-11T08:09:50</time>
      </trkpt>
      <trkpt lat="47.94899" lon="2.0651">
        <ele>120</ele>
        <time>2021-07-11T08:09:51</time>
      </trkpt>
      <trkpt lat="47.94894" lon="2.06508">
        <ele>120</ele>
        <time>2021-07-11T08:09:52</time>
      </trkpt>
      <trkpt lat="47.94889" lon="2.06507">
        <ele>120</ele>
        <time>2021-07-11T08:09:53</time>
      </trkpt>
      <trkpt lat="47.94884" lon="2.06505">
        <ele>120</ele>
        <time>2021-07-11T08:09:54</time>
      </trkpt>
      <trkpt lat="47.94879" lon="2.06503">
        <ele>120</ele>
        <time>2021-07-11T08:09:55</time>
      </trkpt>
      <trkpt lat="47.94875" lon="2.06501">
        <ele>120.2</ele>
        <time>2021-07-11T08:09:56</time>
      </trkpt>
      <trkpt lat="47.9487" lon="2.06499">
        <ele>120.2</ele>
        <time>2021-07-11T08:09:57</time>
      </trkpt>
      <trkpt lat="47.94865" lon="2.06497">
        <ele>120.2</ele>
        <time>2021-07-11T08:09:58</time>
      </trkpt>
      <trkpt lat="47.9486" lon="2.06494">
        <ele>120.2</ele>
        <time>2021-07-11T08:09:59</time>
      </trkpt>
      <trkpt lat="47.94855" lon="2.06492">
        <ele>120.2</ele>
        <time>2021-07-11T08:10:00</time>
      </trkpt>
      <trkpt lat="47.94849" lon="2.0649">
        <ele>120.2</ele>
        <time>2021-07-11T08:10:01</time>
      </trkpt>
      <trkpt lat="47.94844" lon="2.06487">
        <ele>120.2</ele>
        <time>2021-07-11T08:10:02</time>
      </trkpt>
      <trkpt lat="47.94839" lon="2.06485">
        <ele>120</ele>
        <time>2021-07-11T08:10:03</time>
      </trkpt>
      <trkpt lat="47.94834" lon="2.06482">
        <ele>120</ele>
        <time>2021-07-11T08:10:04</time>
      </trkpt>
      <trkpt lat="47.94829" lon="2.06479">
        <ele>119.8</ele>
        <time>2021-07-11T08:10:05</time>
      </trkpt>
      <trkpt lat="47.94824" lon="2.06475">
        <ele>119.8</ele>
        <time>2021-07-11T08:10:06</time>
      </trkpt>
      <trkpt lat="47.94819" lon="2.06472">
        <ele>119.6</ele>
        <time>2021-07-11T08:10:07</time>
      </trkpt>
      <trkpt lat="47.94814" lon="2.06468">
        <ele>119.8</ele>
        <time>2021-07-11T08:10:08</time>
      </trkpt>
      <trkpt lat="47.94809" lon="2.06463">
        <ele>119.8</ele>
        <time>2021-07-11T08:10:09</time>
      </trkpt>
      <trkpt lat="47.94805" lon="2.0646">
        <ele>119.6</ele>
        <time>2021-07-11T08:10:10</time>
      </trkpt>
      <trkpt lat="47.948" lon="2.06456">
        <ele>119.6</ele>
        <time>2021-07-11T08:10:11</time>
      </trkpt>
      <trkpt lat="47.94795" lon="2.06452">
        <ele>119.6</ele>
        <time>2021-07-11T08:10:12</time>
      </trkpt>
      <trkpt lat="47.9479" lon="2.06448">
        <ele>119.6</ele>
        <time>2021-07-11T08:10:13</time>
      </trkpt>
      <trkpt lat="47.94785" lon="2.06444">
        <ele>119.4</ele>
        <time>2021-07-11T08:10:14</time>
      </trkpt>
      <trkpt lat="47.9478" lon="2.0644">
        <ele>119.4</ele>
        <time>2021-07-11T08:10:15</time>
      </trkpt>
      <trkpt lat="47.94775" lon="2.06436">
        <ele>119.4</ele>
        <time>2021-07-11T08:10:16</time>
      </trkpt>
      <trkpt lat="47.94769" lon="2.06432">
        <ele>119.4</ele>
        <time>2021-07-11T08:10:17</time>
      </trkpt>
      <trkpt lat="47.94764" lon="2.06428">
        <ele>119.2</ele>
        <time>2021-07-11T08:10:18</time>
      </trkpt>
      <trkpt lat="47.94759" lon="2.06424">
        <ele>119.2</ele>
        <time>2021-07-11T08:10:19</time>
      </trkpt>
      <trkpt lat="47.94754" lon="2.06421">
        <ele>119</ele>
        <time>2021-07-11T08:10:20</time>
      </trkpt>
      <trkpt lat="47.94749" lon="2.06417">
        <ele>119</ele>
        <time>2021-07-11T08:10:21</time>
      </trkpt>
      <trkpt lat="47.94744" lon="2.06413">
        <ele>119</ele>
        <time>2021-07-11T08:10:22</time>
      </trkpt>
      <trkpt lat="47.94738" lon="2.0641">
        <ele>119</ele>
        <time>2021-07-11T08:10:23</time>
      </trkpt>
      <trkpt lat="47.94733" lon="2.06406">
        <ele>119</ele>
        <time>2021-07-11T08:10:24</time>
      </trkpt>
      <trkpt lat="47.94728" lon="2.06402">
        <ele>118.8</ele>
        <time>2021-07-11T08:10:25</time>
      </trkpt>
      <trkpt lat="47.94723" lon="2.06399">
        <ele>118.8</ele>
        <time>2021-07-11T08:10:26</time>
      </trkpt>
      <trkpt lat="47.94718" lon="2.06395">
        <ele>118.8</ele>
        <time>2021-07-11T08:10:27</time>
      </trkpt>
      <trkpt lat="47.94713" lon="2.06391">
        <ele>118.8</ele>
        <time>2021-07-11T08:10:28</time>
      </trkpt>
      <trkpt lat="47.94708" lon="2.06387">
        <ele>119</ele>
        <time>2021-07-11T08:10:29</time>
      </trkpt>
      <trkpt lat="47.94703" lon="2.06383">
        <ele>118.8</ele>
        <time>2021-07-11T08:10:30</time>
      </trkpt>
      <trkpt lat="47.94698" lon="2.06379">
        <ele>118.6</ele>
        <time>2021-07-11T08:10:31</time>
      </trkpt>
      <trkpt lat="47.94693" lon="2.06375">
        <ele>118.6</ele>
        <time>2021-07-11T08:10:32</time>
      </trkpt>
      <trkpt lat="47.94688" lon="2.06372">
        <ele>118.6</ele>
        <time>2021-07-11T08:10:33</time>
      </trkpt>
      <trkpt lat="47.94683" lon="2.06368">
        <ele>118.8</ele>
        <time>2021-07-11T08:10:34</time>
      </trkpt>
      <trkpt lat="47.94678" lon="2.06364">
        <ele>118.8</ele>
        <time>2021-07-11T08:10:35</time>
      </trkpt>
      <trkpt lat="47.94673" lon="2.06361">
        <ele>118.8</ele>
        <time>2021-07-11T08:10:36</time>
      </trkpt>
      <trkpt lat="47.94669" lon="2.06356">
        <ele>118.8</ele>
        <time>2021-07-11T08:10:37</time>
      </trkpt>
      <trkpt lat="47.94664" lon="2.06352">
        <ele>118.6</ele>
        <time>2021-07-11T08:10:38</time>
      </trkpt>
      <trkpt lat="47.94659" lon="2.06348">
        <ele>118.6</ele>
        <time>2021-07-11T08:10:39</time>
      </trkpt>
      <trkpt lat="47.94655" lon="2.06344">
        <ele>118.6</ele>
        <time>2021-07-11T08:10:40</time>
      </trkpt>
      <trkpt lat="47.9465" lon="2.0634">
        <ele>118.4</ele>
        <time>2021-07-11T08:10:41</time>
      </trkpt>
      <trkpt lat="47.94646" lon="2.06336">
        <ele>118.6</ele>
        <time>2021-07-11T08:10:42</time>
      </trkpt>
      <trkpt lat="47.94641" lon="2.06333">
        <ele>118.6</ele>
        <time>2021-07-11T08:10:43</time>
      </trkpt>
      <trkpt lat="47.94637" lon="2.06329">
        <ele>118.6</ele>
        <time>2021-07-11T08:10:44</time>
      </trkpt>
      <trkpt lat="47.94633" lon="2.06323">
        <ele>118.6</ele>
        <time>2021-07-11T08:10:45</time>
      </trkpt>
      <trkpt lat="47.94629" lon="2.06319">
        <ele>118.6</ele>
        <time>2021-07-11T08:10:46</time>
      </trkpt>
      <trkpt lat="47.94624" lon="2.06315">
        <ele>118.4</ele>
        <time>2021-07-11T08:10:47</time>
      </trkpt>
      <trkpt lat="47.9462" lon="2.06312">
        <ele>118.4</ele>
        <time>2021-07-11T08:10:48</time>
      </trkpt>
      <trkpt lat="47.94616" lon="2.06309">
        <ele>118.2</ele>
        <time>2021-07-11T08:10:49</time>
      </trkpt>
      <trkpt lat="47.94612" lon="2.06306">
        <ele>118.2</ele>
        <time>2021-07-11T08:10:50</time>
      </trkpt>
      <trkpt lat="47.94608" lon="2.06304">
        <ele>118.2</ele>
        <time>2021-07-11T08:10:51</time>
      </trkpt>
      <trkpt lat="47.94606" lon="2.06304">
        <ele>118.2</ele>
        <time>2021-07-11T08:10:52</time>
      </trkpt>
      <trkpt lat="47.94604" lon="2.06305">
        <ele>118</ele>
        <time>2021-07-11T08:10:53</time>
      </trkpt>
      <trkpt lat="47.94602" lon="2.06306">
        <ele>118</ele>
        <time>2021-07-11T08:10:54</time>
      </trkpt>
      <trkpt lat="47.94601" lon="2.06308">
        <ele>117.8</ele>
        <time>2021-07-11T08:10:55</time>
      </trkpt>
      <trkpt lat="47.946" lon="2.0631">
        <ele>117.8</ele>
        <time>2021-07-11T08:10:56</time>
      </trkpt>
      <trkpt lat="47.946" lon="2.06312">
        <ele>117.8</ele>
        <time>2021-07-11T08:10:57</time>
      </trkpt>
      <trkpt lat="47.946" lon="2.06315">
        <ele>117.8</ele>
        <time>2021-07-11T08:10:58</time>
      </trkpt>
      <trkpt lat="47.94601" lon="2.06317">
        <ele>117.8</ele>
        <time>2021-07-11T08:10:59</time>
      </trkpt>
      <trkpt lat="47.94602" lon="2.06318">
        <ele>117.8</ele>
        <time>2021-07-11T08:11:00</time>
      </trkpt>
      <trkpt lat="47.94603" lon="2.0632">
        <ele>117.8</ele>
        <time>2021-07-11T08:11:01</time>
      </trkpt>
      <trkpt lat="47.94604" lon="2.06321">
        <ele>117.8</ele>
        <time>2021-07-11T08:11:02</time>
      </trkpt>
      <trkpt lat="47.94604" lon="2.06319">
        <ele>117.8</ele>
        <time>2021-07-11T08:11:03</time>
      </trkpt>
      <trkpt lat="47.94603" lon="2.06317">
        <ele>117.8</ele>
        <time>2021-07-11T08:11:04</time>
      </trkpt>
      <trkpt lat="47.94602" lon="2.06314">
        <ele>117.8</ele>
        <time>2021-07-11T08:11:05</time>
      </trkpt>
      <trkpt lat="47.946" lon="2.06312">
        <ele>117.8</ele>
        <time>2021-07-11T08:11:06</time>
      </trkpt>
      <trkpt lat="47.94597" lon="2.0631">
        <ele>117.8</ele>
        <time>2021-07-11T08:11:07</time>
      </trkpt>
      <trkpt lat="47.94594" lon="2.06309">
        <ele>118</ele>
        <time>2021-07-11T08:11:08</time>
      </trkpt>
      <trkpt lat="47.94591" lon="2.06309">
        <ele>117.8</ele>
        <time>2021-07-11T08:11:09</time>
      </trkpt>
      <trkpt lat="47.94588" lon="2.06312">
        <ele>117.4</ele>
        <time>2021-07-11T08:11:10</time>
      </trkpt>
      <trkpt lat="47.94585" lon="2.06316">
        <ele>117.2</ele>
        <time>2021-07-11T08:11:11</time>
      </trkpt>
      <trkpt lat="47.94582" lon="2.0632">
        <ele>117</ele>
        <time>2021-07-11T08:11:12</time>
      </trkpt>
      <trkpt lat="47.94578" lon="2.06324">
        <ele>117</ele>
        <time>2021-07-11T08:11:13</time>
      </trkpt>
      <trkpt lat="47.94575" lon="2.06328">
        <ele>117</ele>
        <time>2021-07-11T08:11:15</time>
      </trkpt>
      <trkpt lat="47.94567" lon="2.06336">
        <ele>116.8</ele>
        <time>2021-07-11T08:11:16</time>
      </trkpt>
      <trkpt lat="47.94563" lon="2.06341">
        <ele>116.8</ele>
        <time>2021-07-11T08:11:17</time>
      </trkpt>
      <trkpt lat="47.94559" lon="2.06345">
        <ele>116.6</ele>
        <time>2021-07-11T08:11:18</time>
      </trkpt>
      <trkpt lat="47.94555" lon="2.06349">
        <ele>116.6</ele>
        <time>2021-07-11T08:11:19</time>
      </trkpt>
      <trkpt lat="47.94551" lon="2.06353">
        <ele>116.6</ele>
        <time>2021-07-11T08:11:20</time>
      </trkpt>
      <trkpt lat="47.94548" lon="2.06357">
        <ele>116.4</ele>
        <time>2021-07-11T08:11:21</time>
      </trkpt>
      <trkpt lat="47.94544" lon="2.06362">
        <ele>116.4</ele>
        <time>2021-07-11T08:11:22</time>
      </trkpt>
      <trkpt lat="47.94541" lon="2.06367">
        <ele>116.4</ele>
        <time>2021-07-11T08:11:23</time>
      </trkpt>
      <trkpt lat="47.94537" lon="2.06371">
        <ele>116.4</ele>
        <time>2021-07-11T08:11:24</time>
      </trkpt>
      <trkpt lat="47.94532" lon="2.06375">
        <ele>116.2</ele>
        <time>2021-07-11T08:11:25</time>
      </trkpt>
      <trkpt lat="47.94528" lon="2.0638">
        <ele>116.2</ele>
        <time>2021-07-11T08:11:26</time>
      </trkpt>
      <trkpt lat="47.94524" lon="2.06383">
        <ele>116.2</ele>
        <time>2021-07-11T08:11:27</time>
      </trkpt>
      <trkpt lat="47.9452" lon="2.06388">
        <ele>116.2</ele>
        <time>2021-07-11T08:11:28</time>
      </trkpt>
      <trkpt lat="47.94516" lon="2.06392">
        <ele>116</ele>
        <time>2021-07-11T08:11:29</time>
      </trkpt>
      <trkpt lat="47.94512" lon="2.06397">
        <ele>116</ele>
        <time>2021-07-11T08:11:30</time>
      </trkpt>
      <trkpt lat="47.94507" lon="2.06402">
        <ele>116</ele>
        <time>2021-07-11T08:11:31</time>
      </trkpt>
      <trkpt lat="47.94503" lon="2.06407">
        <ele>116</ele>
        <time>2021-07-11T08:11:32</time>
      </trkpt>
      <trkpt lat="47.94499" lon="2.06412">
        <ele>116</ele>
        <time>2021-07-11T08:11:33</time>
      </trkpt>
      <trkpt lat="47.94494" lon="2.06416">
        <ele>116.2</ele>
        <time>2021-07-11T08:11:34</time>
      </trkpt>
      <trkpt lat="47.94489" lon="2.06421">
        <ele>116</ele>
        <time>2021-07-11T08:11:35</time>
      </trkpt>
      <trkpt lat="47.94485" lon="2.06426">
        <ele>115.8</ele>
        <time>2021-07-11T08:11:36</time>
      </trkpt>
      <trkpt lat="47.9448" lon="2.06431">
        <ele>115.8</ele>
        <time>2021-07-11T08:11:37</time>
      </trkpt>
      <trkpt lat="47.94476" lon="2.06437">
        <ele>115.6</ele>
        <time>2021-07-11T08:11:38</time>
      </trkpt>
      <trkpt lat="47.94472" lon="2.06442">
        <ele>115.6</ele>
        <time>2021-07-11T08:11:39</time>
      </trkpt>
      <trkpt lat="47.94467" lon="2.06447">
        <ele>115.6</ele>
        <time>2021-07-11T08:11:40</time>
      </trkpt>
      <trkpt lat="47.94463" lon="2.06453">
        <ele>115.6</ele>
        <time>2021-07-11T08:11:41</time>
      </trkpt>
      <trkpt lat="47.94459" lon="2.06458">
        <ele>115.6</ele>
        <time>2021-07-11T08:11:42</time>
      </trkpt>
      <trkpt lat="47.94455" lon="2.06463">
        <ele>115.8</ele>
        <time>2021-07-11T08:11:43</time>
      </trkpt>
      <trkpt lat="47.94451" lon="2.06468">
        <ele>115.8</ele>
        <time>2021-07-11T08:11:44</time>
      </trkpt>
      <trkpt lat="47.94447" lon="2.06473">
        <ele>115.8</ele>
        <time>2021-07-11T08:11:45</time>
      </trkpt>
      <trkpt lat="47.94442" lon="2.06478">
        <ele>116</ele>
        <time>2021-07-11T08:11:46</time>
      </trkpt>
      <trkpt lat="47.94438" lon="2.06483">
        <ele>116</ele>
        <time>2021-07-11T08:11:47</time>
      </trkpt>
      <trkpt lat="47.94434" lon="2.06488">
        <ele>116</ele>
        <time>2021-07-11T08:11:48</time>
      </trkpt>
      <trkpt lat="47.9443" lon="2.06492">
        <ele>116.2</ele>
        <time>2021-07-11T08:11:49</time>
      </trkpt>
      <trkpt lat="47.94426" lon="2.06497">
        <ele>116.2</ele>
        <time>2021-07-11T08:11:50</time>
      </trkpt>
      <trkpt lat="47.94422" lon="2.06502">
        <ele>116.4</ele>
        <time>2021-07-11T08:11:51</time>
      </trkpt>
      <trkpt lat="47.94417" lon="2.06507">
        <ele>116.4</ele>
        <time>2021-07-11T08:11:52</time>
      </trkpt>
      <trkpt lat="47.94413" lon="2.06512">
        <ele>116.4</ele>
        <time>2021-07-11T08:11:53</time>
      </trkpt>
      <trkpt lat="47.94409" lon="2.06517">
        <ele>116.4</ele>
        <time>2021-07-11T08:11:54</time>
      </trkpt>
      <trkpt lat="47.94405" lon="2.06522">
        <ele>116.6</ele>
        <time>2021-07-11T08:11:55</time>
      </trkpt>
      <trkpt lat="47.94401" lon="2.06526">
        <ele>116.6</ele>
        <time>2021-07-11T08:11:56</time>
      </trkpt>
      <trkpt lat="47.94397" lon="2.06531">
        <ele>116.6</ele>
        <time>2021-07-11T08:11:57</time>
      </trkpt>
      <trkpt lat="47.94393" lon="2.06536">
        <ele>116.6</ele>
        <time>2021-07-11T08:11:58</time>
      </trkpt>
      <trkpt lat="47.94388" lon="2.06541">
        <ele>116.8</ele>
        <time>2021-07-11T08:11:59</time>
      </trkpt>
      <trkpt lat="47.94384" lon="2.06546">
        <ele>117</ele>
        <time>2021-07-11T08:12:00</time>
      </trkpt>
      <trkpt lat="47.9438" lon="2.0655">
        <ele>117</ele>
        <time>2021-07-11T08:12:02</time>
      </trkpt>
      <trkpt lat="47.94372" lon="2.0656">
        <ele>117</ele>
        <time>2021-07-11T08:12:03</time>
      </trkpt>
      <trkpt lat="47.94368" lon="2.06564">
        <ele>117</ele>
        <time>2021-07-11T08:12:04</time>
      </trkpt>
      <trkpt lat="47.94364" lon="2.06568">
        <ele>117.2</ele>
        <time>2021-07-11T08:12:05</time>
      </trkpt>
      <trkpt lat="47.9436" lon="2.06573">
        <ele>117.2</ele>
        <time>2021-07-11T08:12:06</time>
      </trkpt>
      <trkpt lat="47.94356" lon="2.06578">
        <ele>117</ele>
        <time>2021-07-11T08:12:07</time>
      </trkpt>
      <trkpt lat="47.94353" lon="2.06584">
        <ele>117</ele>
        <time>2021-07-11T08:12:08</time>
      </trkpt>
      <trkpt lat="47.94349" lon="2.06589">
        <ele>117.2</ele>
        <time>2021-07-11T08:12:09</time>
      </trkpt>
      <trkpt lat="47.94347" lon="2.06595">
        <ele>117.4</ele>
        <time>2021-07-11T08:12:10</time>
      </trkpt>
      <trkpt lat="47.94344" lon="2.066">
        <ele>117.2</ele>
        <time>2021-07-11T08:12:11</time>
      </trkpt>
      <trkpt lat="47.94342" lon="2.06606">
        <ele>117.2</ele>
        <time>2021-07-11T08:12:12</time>
      </trkpt>
      <trkpt lat="47.9434" lon="2.06612">
        <ele>117</ele>
        <time>2021-07-11T08:12:13</time>
      </trkpt>
      <trkpt lat="47.94339" lon="2.06618">
        <ele>117.2</ele>
        <time>2021-07-11T08:12:14</time>
      </trkpt>
      <trkpt lat="47.94338" lon="2.06623">
        <ele>117.4</ele>
        <time>2021-07-11T08:12:15</time>
      </trkpt>
      <trkpt lat="47.94337" lon="2.06629">
        <ele>117.4</ele>
        <time>2021-07-11T08:12:16</time>
      </trkpt>
      <trkpt lat="47.94336" lon="2.06635">
        <ele>117.4</ele>
        <time>2021-07-11T08:12:17</time>
      </trkpt>
      <trkpt lat="47.94334" lon="2.06641">
        <ele>117.2</ele>
        <time>2021-07-11T08:12:18</time>
      </trkpt>
      <trkpt lat="47.94332" lon="2.06647">
        <ele>117.4</ele>
        <time>2021-07-11T08:12:19</time>
      </trkpt>
      <trkpt lat="47.9433" lon="2.06652">
        <ele>117.6</ele>
        <time>2021-07-11T08:12:20</time>
      </trkpt>
      <trkpt lat="47.94329" lon="2.06658">
        <ele>117.6</ele>
        <time>2021-07-11T08:12:21</time>
      </trkpt>
      <trkpt lat="47.94327" lon="2.06663">
        <ele>117.6</ele>
        <time>2021-07-11T08:12:22</time>
      </trkpt>
      <trkpt lat="47.94324" lon="2.06668">
        <ele>117.8</ele>
        <time>2021-07-11T08:12:23</time>
      </trkpt>
      <trkpt lat="47.94323" lon="2.06674">
        <ele>118</ele>
        <time>2021-07-11T08:12:24</time>
      </trkpt>
      <trkpt lat="47.94321" lon="2.06679">
        <ele>118</ele>
        <time>2021-07-11T08:12:25</time>
      </trkpt>
      <trkpt lat="47.94318" lon="2.06684">
        <ele>118</ele>
        <time>2021-07-11T08:12:26</time>
      </trkpt>
      <trkpt lat="47.94316" lon="2.0669">
        <ele>118.2</ele>
        <time>2021-07-11T08:12:27</time>
      </trkpt>
      <trkpt lat="47.94314" lon="2.06695">
        <ele>118.2</ele>
        <time>2021-07-11T08:12:28</time>
      </trkpt>
      <trkpt lat="47.94312" lon="2.067">
        <ele>118.4</ele>
        <time>2021-07-11T08:12:29</time>
      </trkpt>
      <trkpt lat="47.9431" lon="2.06705">
        <ele>118.6</ele>
        <time>2021-07-11T08:12:30</time>
      </trkpt>
      <trkpt lat="47.9431" lon="2.06709">
        <ele>118.6</ele>
        <time>2021-07-11T08:12:31</time>
      </trkpt>
      <trkpt lat="47.9431" lon="2.06715">
        <ele>118.8</ele>
        <time>2021-07-11T08:12:32</time>
      </trkpt>
      <trkpt lat="47.94308" lon="2.06719">
        <ele>118.8</ele>
        <time>2021-07-11T08:12:33</time>
      </trkpt>
      <trkpt lat="47.94307" lon="2.06724">
        <ele>118.8</ele>
        <time>2021-07-11T08:12:34</time>
      </trkpt>
      <trkpt lat="47.94306" lon="2.06728">
        <ele>118.8</ele>
        <time>2021-07-11T08:12:35</time>
      </trkpt>
      <trkpt lat="47.94303" lon="2.06733">
        <ele>119</ele>
        <time>2021-07-11T08:12:36</time>
      </trkpt>
      <trkpt lat="47.94301" lon="2.06736">
        <ele>119.2</ele>
        <time>2021-07-11T08:12:37</time>
      </trkpt>
      <trkpt lat="47.943" lon="2.06738">
        <ele>119.4</ele>
        <time>2021-07-11T08:12:38</time>
      </trkpt>
      <trkpt lat="47.94298" lon="2.06742">
        <ele>119.6</ele>
        <time>2021-07-11T08:12:39</time>
      </trkpt>
      <trkpt lat="47.94297" lon="2.06745">
        <ele>119.8</ele>
        <time>2021-07-11T08:12:40</time>
      </trkpt>
      <trkpt lat="47.94295" lon="2.06749">
        <ele>119.8</ele>
        <time>2021-07-11T08:12:41</time>
      </trkpt>
      <trkpt lat="47.94292" lon="2.06752">
        <ele>119.8</ele>
        <time>2021-07-11T08:12:42</time>
      </trkpt>
      <trkpt lat="47.9429" lon="2.06755">
        <ele>120</ele>
        <time>2021-07-11T08:12:43</time>
      </trkpt>
      <trkpt lat="47.94288" lon="2.06758">
        <ele>119.8</ele>
        <time>2021-07-11T08:12:44</time>
      </trkpt>
      <trkpt lat="47.94285" lon="2.06762">
        <ele>120</ele>
        <time>2021-07-11T08:12:45</time>
      </trkpt>
      <trkpt lat="47.94283" lon="2.06765">
        <ele>120</ele>
        <time>2021-07-11T08:12:46</time>
      </trkpt>
      <trkpt lat="47.9428" lon="2.06769">
        <ele>119.8</ele>
        <time>2021-07-11T08:12:47</time>
      </trkpt>
      <trkpt lat="47.94277" lon="2.06773">
        <ele>119.8</ele>
        <time>2021-07-11T08:12:48</time>
      </trkpt>
      <trkpt lat="47.94274" lon="2.06777">
        <ele>119.8</ele>
        <time>2021-07-11T08:12:49</time>
      </trkpt>
      <trkpt lat="47.94271" lon="2.06782">
        <ele>119.8</ele>
        <time>2021-07-11T08:12:50</time>
      </trkpt>
      <trkpt lat="47.94266" lon="2.06786">
        <ele>119.6</ele>
        <time>2021-07-11T08:12:51</time>
      </trkpt>
      <trkpt lat="47.94263" lon="2.06791">
        <ele>119.6</ele>
        <time>2021-07-11T08:12:52</time>
      </trkpt>
      <trkpt lat="47.94259" lon="2.06797">
        <ele>119.6</ele>
        <time>2021-07-11T08:12:53</time>
      </trkpt>
      <trkpt lat="47.94256" lon="2.06801">
        <ele>119.6</ele>
        <time>2021-07-11T08:12:54</time>
      </trkpt>
      <trkpt lat="47.94252" lon="2.06806">
        <ele>119.8</ele>
        <time>2021-07-11T08:12:55</time>
      </trkpt>
      <trkpt lat="47.94249" lon="2.06812">
        <ele>119.8</ele>
        <time>2021-07-11T08:12:56</time>
      </trkpt>
      <trkpt lat="47.94245" lon="2.06817">
        <ele>119.8</ele>
        <time>2021-07-11T08:12:57</time>
      </trkpt>
      <trkpt lat="47.94242" lon="2.06822">
        <ele>119.8</ele>
        <time>2021-07-11T08:12:58</time>
      </trkpt>
      <trkpt lat="47.94239" lon="2.06827">
        <ele>119.8</ele>
        <time>2021-07-11T08:12:59</time>
      </trkpt>
      <trkpt lat="47.94236" lon="2.06832">
        <ele>119.6</ele>
        <time>2021-07-11T08:13:00</time>
      </trkpt>
      <trkpt lat="47.94232" lon="2.06836">
        <ele>119.6</ele>
        <time>2021-07-11T08:13:01</time>
      </trkpt>
      <trkpt lat="47.94229" lon="2.0684">
        <ele>119.6</ele>
        <time>2021-07-11T08:13:02</time>
      </trkpt>
      <trkpt lat="47.94226" lon="2.06843">
        <ele>119.8</ele>
        <time>2021-07-11T08:13:03</time>
      </trkpt>
      <trkpt lat="47.94222" lon="2.06846">
        <ele>119.8</ele>
        <time>2021-07-11T08:13:04</time>
      </trkpt>
      <trkpt lat="47.94219" lon="2.0685">
        <ele>119.8</ele>
        <time>2021-07-11T08:13:05</time>
      </trkpt>
      <trkpt lat="47.94216" lon="2.06854">
        <ele>120</ele>
        <time>2021-07-11T08:13:06</time>
      </trkpt>
      <trkpt lat="47.94212" lon="2.06858">
        <ele>120</ele>
        <time>2021-07-11T08:13:07</time>
      </trkpt>
      <trkpt lat="47.94209" lon="2.06862">
        <ele>120.2</ele>
        <time>2021-07-11T08:13:08</time>
      </trkpt>
      <trkpt lat="47.94206" lon="2.06865">
        <ele>120.2</ele>
        <time>2021-07-11T08:13:09</time>
      </trkpt>
      <trkpt lat="47.94203" lon="2.06868">
        <ele>120.4</ele>
        <time>2021-07-11T08:13:10</time>
      </trkpt>
      <trkpt lat="47.942" lon="2.06872">
        <ele>120.4</ele>
        <time>2021-07-11T08:13:11</time>
      </trkpt>
      <trkpt lat="47.94196" lon="2.06875">
        <ele>120.6</ele>
        <time>2021-07-11T08:13:12</time>
      </trkpt>
      <trkpt lat="47.94193" lon="2.06879">
        <ele>120.6</ele>
        <time>2021-07-11T08:13:13</time>
      </trkpt>
      <trkpt lat="47.9419" lon="2.06882">
        <ele>120.6</ele>
        <time>2021-07-11T08:13:14</time>
      </trkpt>
      <trkpt lat="47.94187" lon="2.06885">
        <ele>120.8</ele>
        <time>2021-07-11T08:13:15</time>
      </trkpt>
      <trkpt lat="47.94185" lon="2.06889">
        <ele>120.8</ele>
        <time>2021-07-11T08:13:16</time>
      </trkpt>
      <trkpt lat="47.94183" lon="2.06891">
        <ele>120.8</ele>
        <time>2021-07-11T08:13:17</time>
      </trkpt>
      <trkpt lat="47.94181" lon="2.06894">
        <ele>121</ele>
        <time>2021-07-11T08:13:18</time>
      </trkpt>
      <trkpt lat="47.94179" lon="2.06897">
        <ele>121</ele>
        <time>2021-07-11T08:13:19</time>
      </trkpt>
      <trkpt lat="47.94177" lon="2.069">
        <ele>121</ele>
        <time>2021-07-11T08:13:20</time>
      </trkpt>
      <trkpt lat="47.94174" lon="2.06902">
        <ele>121</ele>
        <time>2021-07-11T08:13:21</time>
      </trkpt>
      <trkpt lat="47.94172" lon="2.06904">
        <ele>121</ele>
        <time>2021-07-11T08:13:22</time>
      </trkpt>
      <trkpt lat="47.9417" lon="2.06905">
        <ele>121</ele>
        <time>2021-07-11T08:13:23</time>
      </trkpt>
      <trkpt lat="47.94168" lon="2.06906">
        <ele>121.2</ele>
        <time>2021-07-11T08:13:24</time>
      </trkpt>
      <trkpt lat="47.94166" lon="2.06907">
        <ele>121.2</ele>
        <time>2021-07-11T08:13:25</time>
      </trkpt>
      <trkpt lat="47.94164" lon="2.06908">
        <ele>121.2</ele>
        <time>2021-07-11T08:13:26</time>
      </trkpt>
      <trkpt lat="47.94161" lon="2.06911">
        <ele>121.2</ele>
        <time>2021-07-11T08:13:27</time>
      </trkpt>
      <trkpt lat="47.9416" lon="2.06912">
        <ele>121.4</ele>
        <time>2021-07-11T08:13:28</time>
      </trkpt>
      <trkpt lat="47.94158" lon="2.06912">
        <ele>121.4</ele>
        <time>2021-07-11T08:13:29</time>
      </trkpt>
      <trkpt lat="47.94155" lon="2.06913">
        <ele>121.4</ele>
        <time>2021-07-11T08:13:30</time>
      </trkpt>
      <trkpt lat="47.94152" lon="2.06916">
        <ele>121.6</ele>
        <time>2021-07-11T08:13:31</time>
      </trkpt>
      <trkpt lat="47.9415" lon="2.06918">
        <ele>121.8</ele>
        <time>2021-07-11T08:13:32</time>
      </trkpt>
      <trkpt lat="47.94147" lon="2.06921">
        <ele>121.8</ele>
        <time>2021-07-11T08:13:33</time>
      </trkpt>
      <trkpt lat="47.94145" lon="2.06924">
        <ele>121.8</ele>
        <time>2021-07-11T08:13:34</time>
      </trkpt>
      <trkpt lat="47.94142" lon="2.06928">
        <ele>121.8</ele>
        <time>2021-07-11T08:13:35</time>
      </trkpt>
      <trkpt lat="47.94139" lon="2.0693">
        <ele>122</ele>
        <time>2021-07-11T08:13:36</time>
      </trkpt>
      <trkpt lat="47.94139" lon="2.06931">
        <ele>122</ele>
        <time>2021-07-11T08:13:37</time>
      </trkpt>
      <trkpt lat="47.94138" lon="2.06931">
        <ele>122</ele>
        <time>2021-07-11T08:13:38</time>
      </trkpt>
      <trkpt lat="47.94138" lon="2.06932">
        <ele>122</ele>
        <time>2021-07-11T08:13:39</time>
      </trkpt>
      <trkpt lat="47.94136" lon="2.06934">
        <ele>122</ele>
        <time>2021-07-11T08:13:40</time>
      </trkpt>
      <trkpt lat="47.94135" lon="2.06935">
        <ele>122</ele>
        <time>2021-07-11T08:13:41</time>
      </trkpt>
      <trkpt lat="47.94135" lon="2.06936">
        <ele>122</ele>
        <time>2021-07-11T08:13:42</time>
      </trkpt>
      <trkpt lat="47.94135" lon="2.06936">
        <ele>122</ele>
        <time>2021-07-11T08:13:43</time>
      </trkpt>
      <trkpt lat="47.94135" lon="2.06936">
        <ele>122</ele>
        <time>2021-07-11T08:13:44</time>
      </trkpt>
      <trkpt lat="47.94111" lon="2.06935">
        <ele>122.8</ele>
        <time>2021-07-11T08:14:13</time>
      </trkpt>
      <trkpt lat="47.94109" lon="2.06934">
        <ele>122.8</ele>
        <time>2021-07-11T08:14:14</time>
      </trkpt>
      <trkpt lat="47.94107" lon="2.06933">
        <ele>123</ele>
        <time>2021-07-11T08:14:15</time>
      </trkpt>
      <trkpt lat="47.94101" lon="2.06935">
        <ele>123.2</ele>
        <time>2021-07-11T08:14:17</time>
      </trkpt>
      <trkpt lat="47.94099" lon="2.06935">
        <ele>123.2</ele>
        <time>2021-07-11T08:14:18</time>
      </trkpt>
      <trkpt lat="47.94096" lon="2.06934">
        <ele>123.2</ele>
        <time>2021-07-11T08:14:19</time>
      </trkpt>
      <trkpt lat="47.94094" lon="2.06934">
        <ele>123.4</ele>
        <time>2021-07-11T08:14:20</time>
      </trkpt>
      <trkpt lat="47.9409" lon="2.06934">
        <ele>123.4</ele>
        <time>2021-07-11T08:14:21</time>
      </trkpt>
      <trkpt lat="47.94088" lon="2.06934">
        <ele>123.6</ele>
        <time>2021-07-11T08:14:22</time>
      </trkpt>
      <trkpt lat="47.94085" lon="2.06934">
        <ele>123.6</ele>
        <time>2021-07-11T08:14:23</time>
      </trkpt>
      <trkpt lat="47.94082" lon="2.06933">
        <ele>123.8</ele>
        <time>2021-07-11T08:14:24</time>
      </trkpt>
      <trkpt lat="47.94079" lon="2.06933">
        <ele>123.8</ele>
        <time>2021-07-11T08:14:25</time>
      </trkpt>
      <trkpt lat="47.94077" lon="2.06934">
        <ele>124</ele>
        <time>2021-07-11T08:14:26</time>
      </trkpt>
      <trkpt lat="47.94074" lon="2.06932">
        <ele>124</ele>
        <time>2021-07-11T08:14:27</time>
      </trkpt>
      <trkpt lat="47.9407" lon="2.06931">
        <ele>124.2</ele>
        <time>2021-07-11T08:14:28</time>
      </trkpt>
      <trkpt lat="47.94066" lon="2.06931">
        <ele>124.2</ele>
        <time>2021-07-11T08:14:29</time>
      </trkpt>
      <trkpt lat="47.94062" lon="2.06931">
        <ele>124.4</ele>
        <time>2021-07-11T08:14:30</time>
      </trkpt>
      <trkpt lat="47.94058" lon="2.06929">
        <ele>124.4</ele>
        <time>2021-07-11T08:14:31</time>
      </trkpt>
      <trkpt lat="47.94054" lon="2.06928">
        <ele>124.4</ele>
        <time>2021-07-11T08:14:32</time>
      </trkpt>
      <trkpt lat="47.9405" lon="2.06926">
        <ele>124.2</ele>
        <time>2021-07-11T08:14:33</time>
      </trkpt>
      <trkpt lat="47.94045" lon="2.06927">
        <ele>124.2</ele>
        <time>2021-07-11T08:14:34</time>
      </trkpt>
      <trkpt lat="47.94041" lon="2.06928">
        <ele>124.2</ele>
        <time>2021-07-11T08:14:35</time>
      </trkpt>
      <trkpt lat="47.94036" lon="2.06928">
        <ele>124</ele>
        <time>2021-07-11T08:14:36</time>
      </trkpt>
      <trkpt lat="47.94031" lon="2.06929">
        <ele>124</ele>
        <time>2021-07-11T08:14:37</time>
      </trkpt>
      <trkpt lat="47.94027" lon="2.06928">
        <ele>123.8</ele>
        <time>2021-07-11T08:14:38</time>
      </trkpt>
      <trkpt lat="47.94022" lon="2.06929">
        <ele>123.6</ele>
        <time>2021-07-11T08:14:39</time>
      </trkpt>
      <trkpt lat="47.94018" lon="2.06928">
        <ele>123.4</ele>
        <time>2021-07-11T08:14:40</time>
      </trkpt>
      <trkpt lat="47.94015" lon="2.0693">
        <ele>123.2</ele>
        <time>2021-07-11T08:14:41</time>
      </trkpt>
      <trkpt lat="47.9401" lon="2.06928">
        <ele>123</ele>
        <time>2021-07-11T08:14:42</time>
      </trkpt>
      <trkpt lat="47.94005" lon="2.06927">
        <ele>122.8</ele>
        <time>2021-07-11T08:14:43</time>
      </trkpt>
      <trkpt lat="47.94001" lon="2.06923">
        <ele>122.6</ele>
        <time>2021-07-11T08:14:44</time>
      </trkpt>
      <trkpt lat="47.93997" lon="2.0692">
        <ele>122.4</ele>
        <time>2021-07-11T08:14:45</time>
      </trkpt>
      <trkpt lat="47.93994" lon="2.06916">
        <ele>122.2</ele>
        <time>2021-07-11T08:14:46</time>
      </trkpt>
      <trkpt lat="47.93989" lon="2.06913">
        <ele>122.2</ele>
        <time>2021-07-11T08:14:47</time>
      </trkpt>
      <trkpt lat="47.93985" lon="2.0691">
        <ele>122</ele>
        <time>2021-07-11T08:14:48</time>
      </trkpt>
      <trkpt lat="47.93982" lon="2.06907">
        <ele>121.8</ele>
        <time>2021-07-11T08:14:49</time>
      </trkpt>
      <trkpt lat="47.93979" lon="2.06906">
        <ele>121.6</ele>
        <time>2021-07-11T08:14:50</time>
      </trkpt>
      <trkpt lat="47.93973" lon="2.06905">
        <ele>121.6</ele>
        <time>2021-07-11T08:14:51</time>
      </trkpt>
      <trkpt lat="47.93965" lon="2.06904">
        <ele>121.4</ele>
        <time>2021-07-11T08:14:52</time>
      </trkpt>
      <trkpt lat="47.9396" lon="2.06904">
        <ele>121.4</ele>
        <time>2021-07-11T08:14:53</time>
      </trkpt>
      <trkpt lat="47.93955" lon="2.06903">
        <ele>121.4</ele>
        <time>2021-07-11T08:14:54</time>
      </trkpt>
      <trkpt lat="47.93945" lon="2.069">
        <ele>121.2</ele>
        <time>2021-07-11T08:14:55</time>
      </trkpt>
      <trkpt lat="47.93937" lon="2.06902">
        <ele>121.2</ele>
        <time>2021-07-11T08:14:56</time>
      </trkpt>
      <trkpt lat="47.93933" lon="2.06905">
        <ele>121</ele>
        <time>2021-07-11T08:14:57</time>
      </trkpt>
      <trkpt lat="47.93931" lon="2.06909">
        <ele>121.2</ele>
        <time>2021-07-11T08:14:58</time>
      </trkpt>
      <trkpt lat="47.93927" lon="2.06913">
        <ele>121.2</ele>
        <time>2021-07-11T08:14:59</time>
      </trkpt>
      <trkpt lat="47.93926" lon="2.06918">
        <ele>121.2</ele>
        <time>2021-07-11T08:15:00</time>
      </trkpt>
      <trkpt lat="47.93924" lon="2.06924">
        <ele>121.2</ele>
        <time>2021-07-11T08:15:01</time>
      </trkpt>
      <trkpt lat="47.93923" lon="2.0693">
        <ele>121.4</ele>
        <time>2021-07-11T08:15:02</time>
      </trkpt>
      <trkpt lat="47.9392" lon="2.06934">
        <ele>121.4</ele>
        <time>2021-07-11T08:15:03</time>
      </trkpt>
      <trkpt lat="47.93918" lon="2.0694">
        <ele>121.6</ele>
        <time>2021-07-11T08:15:04</time>
      </trkpt>
      <trkpt lat="47.93916" lon="2.06946">
        <ele>121.6</ele>
        <time>2021-07-11T08:15:05</time>
      </trkpt>
      <trkpt lat="47.93915" lon="2.06952">
        <ele>121.6</ele>
        <time>2021-07-11T08:15:06</time>
      </trkpt>
      <trkpt lat="47.93914" lon="2.06959">
        <ele>121.6</ele>
        <time>2021-07-11T08:15:07</time>
      </trkpt>
      <trkpt lat="47.93913" lon="2.06965">
        <ele>121.8</ele>
        <time>2021-07-11T08:15:08</time>
      </trkpt>
      <trkpt lat="47.93913" lon="2.0697">
        <ele>121.8</ele>
        <time>2021-07-11T08:15:09</time>
      </trkpt>
      <trkpt lat="47.93913" lon="2.06976">
        <ele>122</ele>
        <time>2021-07-11T08:15:10</time>
      </trkpt>
      <trkpt lat="47.93913" lon="2.06982">
        <ele>122</ele>
        <time>2021-07-11T08:15:11</time>
      </trkpt>
      <trkpt lat="47.93912" lon="2.06988">
        <ele>122</ele>
        <time>2021-07-11T08:15:12</time>
      </trkpt>
      <trkpt lat="47.93912" lon="2.06995">
        <ele>122.2</ele>
        <time>2021-07-11T08:15:13</time>
      </trkpt>
      <trkpt lat="47.93911" lon="2.07001">
        <ele>122.2</ele>
        <time>2021-07-11T08:15:14</time>
      </trkpt>
      <trkpt lat="47.9391" lon="2.07007">
        <ele>122.4</ele>
        <time>2021-07-11T08:15:15</time>
      </trkpt>
      <trkpt lat="47.9391" lon="2.07013">
        <ele>122.6</ele>
        <time>2021-07-11T08:15:16</time>
      </trkpt>
      <trkpt lat="47.93909" lon="2.07019">
        <ele>122.6</ele>
        <time>2021-07-11T08:15:17</time>
      </trkpt>
      <trkpt lat="47.93909" lon="2.07026">
        <ele>122.6</ele>
        <time>2021-07-11T08:15:18</time>
      </trkpt>
      <trkpt lat="47.93908" lon="2.07032">
        <ele>122.6</ele>
        <time>2021-07-11T08:15:19</time>
      </trkpt>
      <trkpt lat="47.93906" lon="2.07038">
        <ele>122.8</ele>
        <time>2021-07-11T08:15:20</time>
      </trkpt>
      <trkpt lat="47.93905" lon="2.07044">
        <ele>122.8</ele>
        <time>2021-07-11T08:15:21</time>
      </trkpt>
      <trkpt lat="47.93904" lon="2.07051">
        <ele>122.8</ele>
        <time>2021-07-11T08:15:22</time>
      </trkpt>
      <trkpt lat="47.93904" lon="2.07057">
        <ele>122.8</ele>
        <time>2021-07-11T08:15:23</time>
      </trkpt>
      <trkpt lat="47.93903" lon="2.07065">
        <ele>123</ele>
        <time>2021-07-11T08:15:24</time>
      </trkpt>
      <trkpt lat="47.93902" lon="2.07072">
        <ele>123</ele>
        <time>2021-07-11T08:15:25</time>
      </trkpt>
      <trkpt lat="47.93902" lon="2.07079">
        <ele>123</ele>
        <time>2021-07-11T08:15:26</time>
      </trkpt>
      <trkpt lat="47.93902" lon="2.07086">
        <ele>123</ele>
        <time>2021-07-11T08:15:27</time>
      </trkpt>
      <trkpt lat="47.93901" lon="2.07092">
        <ele>123.2</ele>
        <time>2021-07-11T08:15:28</time>
      </trkpt>
      <trkpt lat="47.939" lon="2.07099">
        <ele>123.2</ele>
        <time>2021-07-11T08:15:29</time>
      </trkpt>
      <trkpt lat="47.939" lon="2.07106">
        <ele>123.2</ele>
        <time>2021-07-11T08:15:30</time>
      </trkpt>
      <trkpt lat="47.93899" lon="2.07113">
        <ele>123.4</ele>
        <time>2021-07-11T08:15:31</time>
      </trkpt>
      <trkpt lat="47.93898" lon="2.0712">
        <ele>123.4</ele>
        <time>2021-07-11T08:15:32</time>
      </trkpt>
      <trkpt lat="47.93898" lon="2.07128">
        <ele>123.4</ele>
        <time>2021-07-11T08:15:33</time>
      </trkpt>
      <trkpt lat="47.93897" lon="2.07135">
        <ele>123.6</ele>
        <time>2021-07-11T08:15:34</time>
      </trkpt>
      <trkpt lat="47.93897" lon="2.07143">
        <ele>123.6</ele>
        <time>2021-07-11T08:15:35</time>
      </trkpt>
      <trkpt lat="47.93897" lon="2.0715">
        <ele>123.8</ele>
        <time>2021-07-11T08:15:36</time>
      </trkpt>
      <trkpt lat="47.93896" lon="2.07157">
        <ele>124</ele>
        <time>2021-07-11T08:15:37</time>
      </trkpt>
      <trkpt lat="47.93895" lon="2.07164">
        <ele>124.2</ele>
        <time>2021-07-11T08:15:38</time>
      </trkpt>
      <trkpt lat="47.93894" lon="2.07172">
        <ele>124.2</ele>
        <time>2021-07-11T08:15:39</time>
      </trkpt>
      <trkpt lat="47.93894" lon="2.07179">
        <ele>124.4</ele>
        <time>2021-07-11T08:15:40</time>
      </trkpt>
      <trkpt lat="47.93893" lon="2.07186">
        <ele>124.4</ele>
        <time>2021-07-11T08:15:41</time>
      </trkpt>
      <trkpt lat="47.93893" lon="2.07194">
        <ele>124.6</ele>
        <time>2021-07-11T08:15:42</time>
      </trkpt>
      <trkpt lat="47.93892" lon="2.07201">
        <ele>124.8</ele>
        <time>2021-07-11T08:15:43</time>
      </trkpt>
      <trkpt lat="47.93891" lon="2.07208">
        <ele>125</ele>
        <time>2021-07-11T08:15:44</time>
      </trkpt>
      <trkpt lat="47.9389" lon="2.07215">
        <ele>125</ele>
        <time>2021-07-11T08:15:45</time>
      </trkpt>
      <trkpt lat="47.93889" lon="2.07223">
        <ele>125.2</ele>
        <time>2021-07-11T08:15:46</time>
      </trkpt>
      <trkpt lat="47.93889" lon="2.0723">
        <ele>125.4</ele>
        <time>2021-07-11T08:15:47</time>
      </trkpt>
      <trkpt lat="47.93888" lon="2.07237">
        <ele>125.4</ele>
        <time>2021-07-11T08:15:48</time>
      </trkpt>
      <trkpt lat="47.93888" lon="2.07245">
        <ele>125.6</ele>
        <time>2021-07-11T08:15:49</time>
      </trkpt>
      <trkpt lat="47.93888" lon="2.07252">
        <ele>125.4</ele>
        <time>2021-07-11T08:15:50</time>
      </trkpt>
      <trkpt lat="47.93888" lon="2.0726">
        <ele>125.4</ele>
        <time>2021-07-11T08:15:51</time>
      </trkpt>
      <trkpt lat="47.93889" lon="2.07267">
        <ele>125.4</ele>
        <time>2021-07-11T08:15:52</time>
      </trkpt>
      <trkpt lat="47.93888" lon="2.07274">
        <ele>125.6</ele>
        <time>2021-07-11T08:15:53</time>
      </trkpt>
      <trkpt lat="47.93887" lon="2.07281">
        <ele>125.6</ele>
        <time>2021-07-11T08:15:54</time>
      </trkpt>
      <trkpt lat="47.93887" lon="2.07288">
        <ele>125.6</ele>
        <time>2021-07-11T08:15:55</time>
      </trkpt>
      <trkpt lat="47.93886" lon="2.07294">
        <ele>125.8</ele>
        <time>2021-07-11T08:15:56</time>
      </trkpt>
      <trkpt lat="47.93885" lon="2.07301">
        <ele>125.8</ele>
        <time>2021-07-11T08:15:57</time>
      </trkpt>
      <trkpt lat="47.93885" lon="2.07308">
        <ele>125.8</ele>
        <time>2021-07-11T08:15:58</time>
      </trkpt>
      <trkpt lat="47.93883" lon="2.07314">
        <ele>125.8</ele>
        <time>2021-07-11T08:15:59</time>
      </trkpt>
      <trkpt lat="47.93882" lon="2.07322">
        <ele>125.8</ele>
        <time>2021-07-11T08:16:00</time>
      </trkpt>
      <trkpt lat="47.93881" lon="2.07329">
        <ele>126</ele>
        <time>2021-07-11T08:16:01</time>
      </trkpt>
      <trkpt lat="47.93881" lon="2.07335">
        <ele>126.2</ele>
        <time>2021-07-11T08:16:02</time>
      </trkpt>
      <trkpt lat="47.93881" lon="2.07343">
        <ele>126.2</ele>
        <time>2021-07-11T08:16:03</time>
      </trkpt>
      <trkpt lat="47.9388" lon="2.0735">
        <ele>126.2</ele>
        <time>2021-07-11T08:16:04</time>
      </trkpt>
      <trkpt lat="47.9388" lon="2.07357">
        <ele>126.2</ele>
        <time>2021-07-11T08:16:05</time>
      </trkpt>
      <trkpt lat="47.9388" lon="2.07364">
        <ele>126.4</ele>
        <time>2021-07-11T08:16:06</time>
      </trkpt>
      <trkpt lat="47.93881" lon="2.07371">
        <ele>126.6</ele>
        <time>2021-07-11T08:16:07</time>
      </trkpt>
      <trkpt lat="47.93881" lon="2.07378">
        <ele>126.6</ele>
        <time>2021-07-11T08:16:08</time>
      </trkpt>
      <trkpt lat="47.93882" lon="2.07385">
        <ele>126.6</ele>
        <time>2021-07-11T08:16:09</time>
      </trkpt>
      <trkpt lat="47.93882" lon="2.07389">
        <ele>126.8</ele>
        <time>2021-07-11T08:16:10</time>
      </trkpt>
      <trkpt lat="47.93883" lon="2.07393">
        <ele>127</ele>
        <time>2021-07-11T08:16:11</time>
      </trkpt>
      <trkpt lat="47.93883" lon="2.07399">
        <ele>127</ele>
        <time>2021-07-11T08:16:12</time>
      </trkpt>
      <trkpt lat="47.93882" lon="2.07405">
        <ele>127.2</ele>
        <time>2021-07-11T08:16:13</time>
      </trkpt>
      <trkpt lat="47.93883" lon="2.07413">
        <ele>127.2</ele>
        <time>2021-07-11T08:16:14</time>
      </trkpt>
      <trkpt lat="47.93883" lon="2.07419">
        <ele>127.2</ele>
        <time>2021-07-11T08:16:15</time>
      </trkpt>
      <trkpt lat="47.93884" lon="2.07424">
        <ele>127.4</ele>
        <time>2021-07-11T08:16:16</time>
      </trkpt>
      <trkpt lat="47.93884" lon="2.07431">
        <ele>127.4</ele>
        <time>2021-07-11T08:16:17</time>
      </trkpt>
      <trkpt lat="47.93884" lon="2.07438">
        <ele>127.6</ele>
        <time>2021-07-11T08:16:18</time>
      </trkpt>
      <trkpt lat="47.93883" lon="2.07445">
        <ele>127.6</ele>
        <time>2021-07-11T08:16:19</time>
      </trkpt>
      <trkpt lat="47.93883" lon="2.07452">
        <ele>127.6</ele>
        <time>2021-07-11T08:16:20</time>
      </trkpt>
      <trkpt lat="47.93881" lon="2.07459">
        <ele>127.8</ele>
        <time>2021-07-11T08:16:21</time>
      </trkpt>
      <trkpt lat="47.9388" lon="2.07466">
        <ele>128</ele>
        <time>2021-07-11T08:16:22</time>
      </trkpt>
      <trkpt lat="47.93878" lon="2.07472">
        <ele>128</ele>
        <time>2021-07-11T08:16:23</time>
      </trkpt>
      <trkpt lat="47.93878" lon="2.07479">
        <ele>128.2</ele>
        <time>2021-07-11T08:16:24</time>
      </trkpt>
      <trkpt lat="47.93877" lon="2.07486">
        <ele>128.2</ele>
        <time>2021-07-11T08:16:25</time>
      </trkpt>
      <trkpt lat="47.93876" lon="2.07491">
        <ele>128.4</ele>
        <time>2021-07-11T08:16:26</time>
      </trkpt>
      <trkpt lat="47.93875" lon="2.07497">
        <ele>128.6</ele>
        <time>2021-07-11T08:16:27</time>
      </trkpt>
      <trkpt lat="47.93874" lon="2.07505">
        <ele>128.6</ele>
        <time>2021-07-11T08:16:28</time>
      </trkpt>
      <trkpt lat="47.93871" lon="2.07515">
        <ele>128.8</ele>
        <time>2021-07-11T08:16:29</time>
      </trkpt>
      <trkpt lat="47.93869" lon="2.07524">
        <ele>128.8</ele>
        <time>2021-07-11T08:16:30</time>
      </trkpt>
      <trkpt lat="47.93868" lon="2.07533">
        <ele>129</ele>
        <time>2021-07-11T08:16:31</time>
      </trkpt>
      <trkpt lat="47.93867" lon="2.07541">
        <ele>129</ele>
        <time>2021-07-11T08:16:32</time>
      </trkpt>
      <trkpt lat="47.93865" lon="2.07551">
        <ele>129</ele>
        <time>2021-07-11T08:16:33</time>
      </trkpt>
      <trkpt lat="47.93864" lon="2.0756">
        <ele>129.2</ele>
        <time>2021-07-11T08:16:34</time>
      </trkpt>
      <trkpt lat="47.93865" lon="2.07571">
        <ele>129.2</ele>
        <time>2021-07-11T08:16:35</time>
      </trkpt>
      <trkpt lat="47.93865" lon="2.07579">
        <ele>129.4</ele>
        <time>2021-07-11T08:16:36</time>
      </trkpt>
      <trkpt lat="47.93866" lon="2.0759">
        <ele>129.4</ele>
        <time>2021-07-11T08:16:37</time>
      </trkpt>
      <trkpt lat="47.93863" lon="2.07596">
        <ele>129.8</ele>
        <time>2021-07-11T08:16:38</time>
      </trkpt>
      <trkpt lat="47.93862" lon="2.076">
        <ele>130</ele>
        <time>2021-07-11T08:16:39</time>
      </trkpt>
      <trkpt lat="47.93859" lon="2.076">
        <ele>130</ele>
        <time>2021-07-11T08:16:40</time>
      </trkpt>
      <trkpt lat="47.93856" lon="2.07598">
        <ele>130</ele>
        <time>2021-07-11T08:16:41</time>
      </trkpt>
      <trkpt lat="47.93853" lon="2.07597">
        <ele>130</ele>
        <time>2021-07-11T08:16:42</time>
      </trkpt>
      <trkpt lat="47.9385" lon="2.07596">
        <ele>129.8</ele>
        <time>2021-07-11T08:16:43</time>
      </trkpt>
      <trkpt lat="47.93847" lon="2.07594">
        <ele>129.8</ele>
        <time>2021-07-11T08:16:44</time>
      </trkpt>
      <trkpt lat="47.93845" lon="2.07593">
        <ele>129.8</ele>
        <time>2021-07-11T08:16:45</time>
      </trkpt>
      <trkpt lat="47.93841" lon="2.07592">
        <ele>130</ele>
        <time>2021-07-11T08:16:46</time>
      </trkpt>
      <trkpt lat="47.93838" lon="2.07591">
        <ele>130</ele>
        <time>2021-07-11T08:16:48</time>
      </trkpt>
      <trkpt lat="47.9383" lon="2.07586">
        <ele>130</ele>
        <time>2021-07-11T08:16:49</time>
      </trkpt>
      <trkpt lat="47.93827" lon="2.07583">
        <ele>129.8</ele>
        <time>2021-07-11T08:16:50</time>
      </trkpt>
      <trkpt lat="47.93824" lon="2.07581">
        <ele>129.8</ele>
        <time>2021-07-11T08:16:51</time>
      </trkpt>
      <trkpt lat="47.93821" lon="2.07579">
        <ele>130</ele>
        <time>2021-07-11T08:16:52</time>
      </trkpt>
      <trkpt lat="47.93818" lon="2.07577">
        <ele>129.8</ele>
        <time>2021-07-11T08:16:53</time>
      </trkpt>
      <trkpt lat="47.93815" lon="2.07575">
        <ele>129.8</ele>
        <time>2021-07-11T08:16:54</time>
      </trkpt>
      <trkpt lat="47.93812" lon="2.07573">
        <ele>129.8</ele>
        <time>2021-07-11T08:16:55</time>
      </trkpt>
      <trkpt lat="47.9381" lon="2.07571">
        <ele>129.8</ele>
        <time>2021-07-11T08:16:56</time>
      </trkpt>
      <trkpt lat="47.93808" lon="2.07568">
        <ele>130</ele>
        <time>2021-07-11T08:16:57</time>
      </trkpt>
      <trkpt lat="47.93806" lon="2.07566">
        <ele>130</ele>
        <time>2021-07-11T08:16:58</time>
      </trkpt>
      <trkpt lat="47.93805" lon="2.07565">
        <ele>129.8</ele>
        <time>2021-07-11T08:16:59</time>
      </trkpt>
      <trkpt lat="47.93805" lon="2.07565">
        <ele>130</ele>
        <time>2021-07-11T08:17:00</time>
      </trkpt>
      <trkpt lat="47.93805" lon="2.07565">
        <ele>130</ele>
        <time>2021-07-11T08:17:01</time>
      </trkpt>
      <trkpt lat="47.93805" lon="2.07565">
        <ele>130</ele>
        <time>2021-07-11T08:17:02</time>
      </trkpt>
      <trkpt lat="47.93805" lon="2.07565">
        <ele>129.8</ele>
        <time>2021-07-11T08:17:03</time>
      </trkpt>
      <trkpt lat="47.93805" lon="2.07565">
        <ele>129.8</ele>
        <time>2021-07-11T08:17:04</time>
      </trkpt>
      <trkpt lat="47.93805" lon="2.07565">
        <ele>129.8</ele>
        <time>2021-07-11T08:17:05</time>
      </trkpt>
      <trkpt lat="47.93805" lon="2.07566">
        <ele>130</ele>
        <time>2021-07-11T08:17:06</time>
      </trkpt>
      <trkpt lat="47.93786" lon="2.0755">
        <ele>130.2</ele>
        <time>2021-07-11T08:17:36</time>
      </trkpt>
      <trkpt lat="47.93783" lon="2.07547">
        <ele>130.2</ele>
        <time>2021-07-11T08:17:37</time>
      </trkpt>
      <trkpt lat="47.93779" lon="2.07545">
        <ele>130.2</ele>
        <time>2021-07-11T08:17:38</time>
      </trkpt>
      <trkpt lat="47.93776" lon="2.07542">
        <ele>130.2</ele>
        <time>2021-07-11T08:17:39</time>
      </trkpt>
      <trkpt lat="47.93773" lon="2.0754">
        <ele>130.4</ele>
        <time>2021-07-11T08:17:40</time>
      </trkpt>
      <trkpt lat="47.9377" lon="2.07537">
        <ele>130.2</ele>
        <time>2021-07-11T08:17:41</time>
      </trkpt>
      <trkpt lat="47.93766" lon="2.07534">
        <ele>130.2</ele>
        <time>2021-07-11T08:17:42</time>
      </trkpt>
      <trkpt lat="47.93762" lon="2.07531">
        <ele>130.2</ele>
        <time>2021-07-11T08:17:43</time>
      </trkpt>
      <trkpt lat="47.93759" lon="2.07528">
        <ele>130.4</ele>
        <time>2021-07-11T08:17:44</time>
      </trkpt>
      <trkpt lat="47.93755" lon="2.07525">
        <ele>130.2</ele>
        <time>2021-07-11T08:17:45</time>
      </trkpt>
      <trkpt lat="47.93751" lon="2.07521">
        <ele>130.2</ele>
        <time>2021-07-11T08:17:46</time>
      </trkpt>
      <trkpt lat="47.93747" lon="2.07517">
        <ele>130.4</ele>
        <time>2021-07-11T08:17:47</time>
      </trkpt>
      <trkpt lat="47.93743" lon="2.07514">
        <ele>130.4</ele>
        <time>2021-07-11T08:17:48</time>
      </trkpt>
      <trkpt lat="47.93739" lon="2.0751">
        <ele>130.2</ele>
        <time>2021-07-11T08:17:49</time>
      </trkpt>
      <trkpt lat="47.93735" lon="2.07507">
        <ele>130.2</ele>
        <time>2021-07-11T08:17:50</time>
      </trkpt>
      <trkpt lat="47.9373" lon="2.07503">
        <ele>130.2</ele>
        <time>2021-07-11T08:17:51</time>
      </trkpt>
      <trkpt lat="47.93726" lon="2.07499">
        <ele>130</ele>
        <time>2021-07-11T08:17:52</time>
      </trkpt>
      <trkpt lat="47.93722" lon="2.07496">
        <ele>130</ele>
        <time>2021-07-11T08:17:53</time>
      </trkpt>
      <trkpt lat="47.93717" lon="2.07492">
        <ele>130</ele>
        <time>2021-07-11T08:17:54</time>
      </trkpt>
      <trkpt lat="47.93713" lon="2.07489">
        <ele>130</ele>
        <time>2021-07-11T08:17:55</time>
      </trkpt>
      <trkpt lat="47.9371" lon="2.07486">
        <ele>129.8</ele>
        <time>2021-07-11T08:17:56</time>
      </trkpt>
      <trkpt lat="47.93706" lon="2.07483">
        <ele>130</ele>
        <time>2021-07-11T08:17:57</time>
      </trkpt>
      <trkpt lat="47.93702" lon="2.0748">
        <ele>130</ele>
        <time>2021-07-11T08:17:58</time>
      </trkpt>
      <trkpt lat="47.93698" lon="2.07478">
        <ele>130</ele>
        <time>2021-07-11T08:17:59</time>
      </trkpt>
      <trkpt lat="47.93694" lon="2.07475">
        <ele>130</ele>
        <time>2021-07-11T08:18:00</time>
      </trkpt>
      <trkpt lat="47.93689" lon="2.07472">
        <ele>130</ele>
        <time>2021-07-11T08:18:01</time>
      </trkpt>
      <trkpt lat="47.93685" lon="2.07468">
        <ele>129.8</ele>
        <time>2021-07-11T08:18:02</time>
      </trkpt>
      <trkpt lat="47.93681" lon="2.07464">
        <ele>129.6</ele>
        <time>2021-07-11T08:18:03</time>
      </trkpt>
      <trkpt lat="47.93676" lon="2.0746">
        <ele>129.4</ele>
        <time>2021-07-11T08:18:04</time>
      </trkpt>
      <trkpt lat="47.93672" lon="2.07456">
        <ele>129.4</ele>
        <time>2021-07-11T08:18:05</time>
      </trkpt>
      <trkpt lat="47.93667" lon="2.07452">
        <ele>129.4</ele>
        <time>2021-07-11T08:18:06</time>
      </trkpt>
      <trkpt lat="47.93663" lon="2.07447">
        <ele>129.2</ele>
        <time>2021-07-11T08:18:07</time>
      </trkpt>
      <trkpt lat="47.93658" lon="2.07443">
        <ele>129.2</ele>
        <time>2021-07-11T08:18:08</time>
      </trkpt>
      <trkpt lat="47.93654" lon="2.07438">
        <ele>129.2</ele>
        <time>2021-07-11T08:18:09</time>
      </trkpt>
      <trkpt lat="47.93649" lon="2.07433">
        <ele>129.2</ele>
        <time>2021-07-11T08:18:10</time>
      </trkpt>
      <trkpt lat="47.93644" lon="2.07428">
        <ele>129.2</ele>
        <time>2021-07-11T08:18:11</time>
      </trkpt>
      <trkpt lat="47.93639" lon="2.07423">
        <ele>129</ele>
        <time>2021-07-11T08:18:12</time>
      </trkpt>
      <trkpt lat="47.93634" lon="2.07417">
        <ele>129</ele>
        <time>2021-07-11T08:18:13</time>
      </trkpt>
      <trkpt lat="47.93629" lon="2.07413">
        <ele>129</ele>
        <time>2021-07-11T08:18:14</time>
      </trkpt>
      <trkpt lat="47.93625" lon="2.07408">
        <ele>128.8</ele>
        <time>2021-07-11T08:18:15</time>
      </trkpt>
      <trkpt lat="47.9362" lon="2.07404">
        <ele>128.8</ele>
        <time>2021-07-11T08:18:16</time>
      </trkpt>
      <trkpt lat="47.93616" lon="2.07399">
        <ele>128.8</ele>
        <time>2021-07-11T08:18:17</time>
      </trkpt>
      <trkpt lat="47.93612" lon="2.07393">
        <ele>128.8</ele>
        <time>2021-07-11T08:18:18</time>
      </trkpt>
      <trkpt lat="47.93607" lon="2.07388">
        <ele>128.8</ele>
        <time>2021-07-11T08:18:19</time>
      </trkpt>
      <trkpt lat="47.93603" lon="2.07383">
        <ele>128.8</ele>
        <time>2021-07-11T08:18:20</time>
      </trkpt>
      <trkpt lat="47.93598" lon="2.07378">
        <ele>128.8</ele>
        <time>2021-07-11T08:18:21</time>
      </trkpt>
      <trkpt lat="47.93593" lon="2.07373">
        <ele>128.6</ele>
        <time>2021-07-11T08:18:22</time>
      </trkpt>
      <trkpt lat="47.93589" lon="2.07368">
        <ele>128.6</ele>
        <time>2021-07-11T08:18:23</time>
      </trkpt>
      <trkpt lat="47.93584" lon="2.07363">
        <ele>128.4</ele>
        <time>2021-07-11T08:18:24</time>
      </trkpt>
      <trkpt lat="47.93579" lon="2.07357">
        <ele>128.2</ele>
        <time>2021-07-11T08:18:25</time>
      </trkpt>
      <trkpt lat="47.93575" lon="2.07352">
        <ele>128.2</ele>
        <time>2021-07-11T08:18:26</time>
      </trkpt>
      <trkpt lat="47.9357" lon="2.07346">
        <ele>128.2</ele>
        <time>2021-07-11T08:18:27</time>
      </trkpt>
      <trkpt lat="47.93565" lon="2.07341">
        <ele>128</ele>
        <time>2021-07-11T08:18:28</time>
      </trkpt>
      <trkpt lat="47.93561" lon="2.07335">
        <ele>127.8</ele>
        <time>2021-07-11T08:18:29</time>
      </trkpt>
      <trkpt lat="47.93556" lon="2.0733">
        <ele>127.8</ele>
        <time>2021-07-11T08:18:30</time>
      </trkpt>
      <trkpt lat="47.93552" lon="2.07325">
        <ele>127.8</ele>
        <time>2021-07-11T08:18:31</time>
      </trkpt>
      <trkpt lat="47.93547" lon="2.07321">
        <ele>127.8</ele>
        <time>2021-07-11T08:18:32</time>
      </trkpt>
      <trkpt lat="47.93543" lon="2.07316">
        <ele>127.8</ele>
        <time>2021-07-11T08:18:33</time>
      </trkpt>
      <trkpt lat="47.93539" lon="2.07311">
        <ele>127.8</ele>
        <time>2021-07-11T08:18:34</time>
      </trkpt>
      <trkpt lat="47.93535" lon="2.07307">
        <ele>127.8</ele>
        <time>2021-07-11T08:18:35</time>
      </trkpt>
      <trkpt lat="47.93531" lon="2.07302">
        <ele>127.8</ele>
        <time>2021-07-11T08:18:36</time>
      </trkpt>
      <trkpt lat="47.93527" lon="2.07298">
        <ele>127.8</ele>
        <time>2021-07-11T08:18:37</time>
      </trkpt>
      <trkpt lat="47.93523" lon="2.07293">
        <ele>127.8</ele>
        <time>2021-07-11T08:18:38</time>
      </trkpt>
      <trkpt lat="47.93519" lon="2.07289">
        <ele>127.8</ele>
        <time>2021-07-11T08:18:39</time>
      </trkpt>
      <trkpt lat="47.93515" lon="2.07285">
        <ele>127.6</ele>
        <time>2021-07-11T08:18:40</time>
      </trkpt>
      <trkpt lat="47.93511" lon="2.07282">
        <ele>127.6</ele>
        <time>2021-07-11T08:18:41</time>
      </trkpt>
      <trkpt lat="47.93508" lon="2.07278">
        <ele>127.6</ele>
        <time>2021-07-11T08:18:42</time>
      </trkpt>
      <trkpt lat="47.93504" lon="2.07275">
        <ele>127.6</ele>
        <time>2021-07-11T08:18:43</time>
      </trkpt>
      <trkpt lat="47.93501" lon="2.07271">
        <ele>127.6</ele>
        <time>2021-07-11T08:18:44</time>
      </trkpt>
      <trkpt lat="47.93497" lon="2.07267">
        <ele>127.6</ele>
        <time>2021-07-11T08:18:45</time>
      </trkpt>
      <trkpt lat="47.93494" lon="2.07264">
        <ele>127.6</ele>
        <time>2021-07-11T08:18:46</time>
      </trkpt>
      <trkpt lat="47.93491" lon="2.0726">
        <ele>127.6</ele>
        <time>2021-07-11T08:18:47</time>
      </trkpt>
      <trkpt lat="47.93488" lon="2.07256">
        <ele>127.4</ele>
        <time>2021-07-11T08:18:48</time>
      </trkpt>
      <trkpt lat="47.93484" lon="2.07252">
        <ele>127.2</ele>
        <time>2021-07-11T08:18:49</time>
      </trkpt>
      <trkpt lat="47.9348" lon="2.07247">
        <ele>127.2</ele>
        <time>2021-07-11T08:18:50</time>
      </trkpt>
      <trkpt lat="47.93476" lon="2.07243">
        <ele>127</ele>
        <time>2021-07-11T08:18:51</time>
      </trkpt>
      <trkpt lat="47.93472" lon="2.0724">
        <ele>127</ele>
        <time>2021-07-11T08:18:52</time>
      </trkpt>
      <trkpt lat="47.93467" lon="2.07237">
        <ele>126.8</ele>
        <time>2021-07-11T08:18:53</time>
      </trkpt>
      <trkpt lat="47.93464" lon="2.07232">
        <ele>126.8</ele>
        <time>2021-07-11T08:18:54</time>
      </trkpt>
      <trkpt lat="47.9346" lon="2.07228">
        <ele>126.8</ele>
        <time>2021-07-11T08:18:55</time>
      </trkpt>
      <trkpt lat="47.93457" lon="2.07224">
        <ele>126.8</ele>
        <time>2021-07-11T08:18:56</time>
      </trkpt>
      <trkpt lat="47.93454" lon="2.07221">
        <ele>126.4</ele>
        <time>2021-07-11T08:18:57</time>
      </trkpt>
      <trkpt lat="47.93452" lon="2.07218">
        <ele>126.4</ele>
        <time>2021-07-11T08:18:58</time>
      </trkpt>
      <trkpt lat="47.9345" lon="2.07215">
        <ele>126.6</ele>
        <time>2021-07-11T08:18:59</time>
      </trkpt>
      <trkpt lat="47.93447" lon="2.07213">
        <ele>126.6</ele>
        <time>2021-07-11T08:19:00</time>
      </trkpt>
      <trkpt lat="47.93444" lon="2.0721">
        <ele>126.6</ele>
        <time>2021-07-11T08:19:01</time>
      </trkpt>
      <trkpt lat="47.93442" lon="2.07206">
        <ele>126.6</ele>
        <time>2021-07-11T08:19:02</time>
      </trkpt>
      <trkpt lat="47.93442" lon="2.07201">
        <ele>126.8</ele>
        <time>2021-07-11T08:19:03</time>
      </trkpt>
      <trkpt lat="47.93443" lon="2.07196">
        <ele>127</ele>
        <time>2021-07-11T08:19:04</time>
      </trkpt>
      <trkpt lat="47.93446" lon="2.07193">
        <ele>127</ele>
        <time>2021-07-11T08:19:05</time>
      </trkpt>
      <trkpt lat="47.93448" lon="2.0719">
        <ele>127.4</ele>
        <time>2021-07-11T08:19:06</time>
      </trkpt>
      <trkpt lat="47.9345" lon="2.07186">
        <ele>127.4</ele>
        <time>2021-07-11T08:19:07</time>
      </trkpt>
      <trkpt lat="47.93452" lon="2.07183">
        <ele>127.6</ele>
        <time>2021-07-11T08:19:08</time>
      </trkpt>
      <trkpt lat="47.93454" lon="2.07181">
        <ele>127.6</ele>
        <time>2021-07-11T08:19:09</time>
      </trkpt>
      <trkpt lat="47.93457" lon="2.07178">
        <ele>127.6</ele>
        <time>2021-07-11T08:19:10</time>
      </trkpt>
      <trkpt lat="47.93459" lon="2.07175">
        <ele>127.6</ele>
        <time>2021-07-11T08:19:11</time>
      </trkpt>
      <trkpt lat="47.93462" lon="2.07172">
        <ele>127.6</ele>
        <time>2021-07-11T08:19:12</time>
      </trkpt>
      <trkpt lat="47.93464" lon="2.0717">
        <ele>127.4</ele>
        <time>2021-07-11T08:19:13</time>
      </trkpt>
      <trkpt lat="47.93467" lon="2.07167">
        <ele>127.2</ele>
        <time>2021-07-11T08:19:14</time>
      </trkpt>
      <trkpt lat="47.93469" lon="2.07165">
        <ele>127.2</ele>
        <time>2021-07-11T08:19:15</time>
      </trkpt>
      <trkpt lat="47.93471" lon="2.07162">
        <ele>127.2</ele>
        <time>2021-07-11T08:19:16</time>
      </trkpt>
      <trkpt lat="47.93472" lon="2.07159">
        <ele>127</ele>
        <time>2021-07-11T08:19:17</time>
      </trkpt>
      <trkpt lat="47.93472" lon="2.07154">
        <ele>127</ele>
        <time>2021-07-11T08:19:18</time>
      </trkpt>
      <trkpt lat="47.93474" lon="2.07149">
        <ele>126.8</ele>
        <time>2021-07-11T08:19:19</time>
      </trkpt>
      <trkpt lat="47.93476" lon="2.07143">
        <ele>126.6</ele>
        <time>2021-07-11T08:19:20</time>
      </trkpt>
      <trkpt lat="47.93478" lon="2.07137">
        <ele>126.6</ele>
        <time>2021-07-11T08:19:21</time>
      </trkpt>
      <trkpt lat="47.9348" lon="2.07131">
        <ele>126.2</ele>
        <time>2021-07-11T08:19:22</time>
      </trkpt>
      <trkpt lat="47.93481" lon="2.07125">
        <ele>126</ele>
        <time>2021-07-11T08:19:23</time>
      </trkpt>
      <trkpt lat="47.93483" lon="2.07118">
        <ele>125.8</ele>
        <time>2021-07-11T08:19:24</time>
      </trkpt>
      <trkpt lat="47.93484" lon="2.07111">
        <ele>125.6</ele>
        <time>2021-07-11T08:19:25</time>
      </trkpt>
      <trkpt lat="47.93486" lon="2.07104">
        <ele>125.4</ele>
        <time>2021-07-11T08:19:26</time>
      </trkpt>
      <trkpt lat="47.93487" lon="2.07097">
        <ele>125.4</ele>
        <time>2021-07-11T08:19:27</time>
      </trkpt>
      <trkpt lat="47.93488" lon="2.0709">
        <ele>125.2</ele>
        <time>2021-07-11T08:19:28</time>
      </trkpt>
      <trkpt lat="47.9349" lon="2.07082">
        <ele>124.8</ele>
        <time>2021-07-11T08:19:29</time>
      </trkpt>
      <trkpt lat="47.93491" lon="2.07073">
        <ele>124.4</ele>
        <time>2021-07-11T08:19:30</time>
      </trkpt>
      <trkpt lat="47.93492" lon="2.07065">
        <ele>124</ele>
        <time>2021-07-11T08:19:31</time>
      </trkpt>
      <trkpt lat="47.93493" lon="2.07056">
        <ele>123.8</ele>
        <time>2021-07-11T08:19:32</time>
      </trkpt>
      <trkpt lat="47.93494" lon="2.07048">
        <ele>123.8</ele>
        <time>2021-07-11T08:19:33</time>
      </trkpt>
      <trkpt lat="47.93494" lon="2.0704">
        <ele>123.6</ele>
        <time>2021-07-11T08:19:34</time>
      </trkpt>
      <trkpt lat="47.93495" lon="2.07031">
        <ele>123.4</ele>
        <time>2021-07-11T08:19:35</time>
      </trkpt>
      <trkpt lat="47.93494" lon="2.07022">
        <ele>123.4</ele>
        <time>2021-07-11T08:19:36</time>
      </trkpt>
      <trkpt lat="47.93495" lon="2.07014">
        <ele>123</ele>
        <time>2021-07-11T08:19:37</time>
      </trkpt>
      <trkpt lat="47.93495" lon="2.07007">
        <ele>123</ele>
        <time>2021-07-11T08:19:38</time>
      </trkpt>
      <trkpt lat="47.93495" lon="2.06999">
        <ele>122.8</ele>
        <time>2021-07-11T08:19:39</time>
      </trkpt>
      <trkpt lat="47.93495" lon="2.06992">
        <ele>122.8</ele>
        <time>2021-07-11T08:19:40</time>
      </trkpt>
      <trkpt lat="47.93495" lon="2.06986">
        <ele>122.8</ele>
        <time>2021-07-11T08:19:41</time>
      </trkpt>
      <trkpt lat="47.93495" lon="2.06979">
        <ele>122.6</ele>
        <time>2021-07-11T08:19:42</time>
      </trkpt>
      <trkpt lat="47.93495" lon="2.06973">
        <ele>122.6</ele>
        <time>2021-07-11T08:19:43</time>
      </trkpt>
      <trkpt lat="47.93496" lon="2.06967">
        <ele>122.6</ele>
        <time>2021-07-11T08:19:44</time>
      </trkpt>
      <trkpt lat="47.93496" lon="2.06959">
        <ele>122.4</ele>
        <time>2021-07-11T08:19:45</time>
      </trkpt>
      <trkpt lat="47.93497" lon="2.06952">
        <ele>122.4</ele>
        <time>2021-07-11T08:19:46</time>
      </trkpt>
      <trkpt lat="47.93497" lon="2.06944">
        <ele>122.4</ele>
        <time>2021-07-11T08:19:47</time>
      </trkpt>
      <trkpt lat="47.93498" lon="2.06936">
        <ele>122.4</ele>
        <time>2021-07-11T08:19:48</time>
      </trkpt>
      <trkpt lat="47.93498" lon="2.06928">
        <ele>122</ele>
        <time>2021-07-11T08:19:49</time>
      </trkpt>
      <trkpt lat="47.93498" lon="2.0692">
        <ele>122</ele>
        <time>2021-07-11T08:19:50</time>
      </trkpt>
      <trkpt lat="47.93499" lon="2.06911">
        <ele>121.6</ele>
        <time>2021-07-11T08:19:51</time>
      </trkpt>
      <trkpt lat="47.935" lon="2.06903">
        <ele>121.8</ele>
        <time>2021-07-11T08:19:52</time>
      </trkpt>
      <trkpt lat="47.935" lon="2.06895">
        <ele>121.6</ele>
        <time>2021-07-11T08:19:53</time>
      </trkpt>
      <trkpt lat="47.93501" lon="2.06887">
        <ele>121.8</ele>
        <time>2021-07-11T08:19:54</time>
      </trkpt>
      <trkpt lat="47.93501" lon="2.06878">
        <ele>121.6</ele>
        <time>2021-07-11T08:19:55</time>
      </trkpt>
      <trkpt lat="47.93501" lon="2.06869">
        <ele>121.4</ele>
        <time>2021-07-11T08:19:56</time>
      </trkpt>
      <trkpt lat="47.93502" lon="2.06861">
        <ele>121.4</ele>
        <time>2021-07-11T08:19:57</time>
      </trkpt>
      <trkpt lat="47.93502" lon="2.06853">
        <ele>121.4</ele>
        <time>2021-07-11T08:19:58</time>
      </trkpt>
      <trkpt lat="47.93503" lon="2.06845">
        <ele>121.2</ele>
        <time>2021-07-11T08:19:59</time>
      </trkpt>
      <trkpt lat="47.93503" lon="2.06838">
        <ele>121</ele>
        <time>2021-07-11T08:20:00</time>
      </trkpt>
      <trkpt lat="47.93504" lon="2.06831">
        <ele>120.8</ele>
        <time>2021-07-11T08:20:01</time>
      </trkpt>
      <trkpt lat="47.93504" lon="2.06824">
        <ele>121</ele>
        <time>2021-07-11T08:20:02</time>
      </trkpt>
      <trkpt lat="47.93504" lon="2.06816">
        <ele>121.2</ele>
        <time>2021-07-11T08:20:03</time>
      </trkpt>
      <trkpt lat="47.93505" lon="2.06809">
        <ele>121</ele>
        <time>2021-07-11T08:20:04</time>
      </trkpt>
      <trkpt lat="47.93505" lon="2.06802">
        <ele>121.2</ele>
        <time>2021-07-11T08:20:05</time>
      </trkpt>
      <trkpt lat="47.93505" lon="2.06795">
        <ele>121.2</ele>
        <time>2021-07-11T08:20:06</time>
      </trkpt>
      <trkpt lat="47.93505" lon="2.06788">
        <ele>121</ele>
        <time>2021-07-11T08:20:07</time>
      </trkpt>
      <trkpt lat="47.93505" lon="2.06781">
        <ele>121</ele>
        <time>2021-07-11T08:20:08</time>
      </trkpt>
      <trkpt lat="47.93506" lon="2.06775">
        <ele>121</ele>
        <time>2021-07-11T08:20:09</time>
      </trkpt>
      <trkpt lat="47.93506" lon="2.06769">
        <ele>121</ele>
        <time>2021-07-11T08:20:10</time>
      </trkpt>
      <trkpt lat="47.93506" lon="2.06763">
        <ele>121</ele>
        <time>2021-07-11T08:20:11</time>
      </trkpt>
      <trkpt lat="47.93507" lon="2.06757">
        <ele>121</ele>
        <time>2021-07-11T08:20:12</time>
      </trkpt>
      <trkpt lat="47.93507" lon="2.06751">
        <ele>121</ele>
        <time>2021-07-11T08:20:13</time>
      </trkpt>
      <trkpt lat="47.93507" lon="2.06745">
        <ele>121</ele>
        <time>2021-07-11T08:20:14</time>
      </trkpt>
      <trkpt lat="47.93507" lon="2.06739">
        <ele>121.2</ele>
        <time>2021-07-11T08:20:15</time>
      </trkpt>
      <trkpt lat="47.93508" lon="2.06733">
        <ele>121.2</ele>
        <time>2021-07-11T08:20:16</time>
      </trkpt>
      <trkpt lat="47.93508" lon="2.06727">
        <ele>121.2</ele>
        <time>2021-07-11T08:20:17</time>
      </trkpt>
      <trkpt lat="47.93508" lon="2.0672">
        <ele>121.2</ele>
        <time>2021-07-11T08:20:18</time>
      </trkpt>
      <trkpt lat="47.93508" lon="2.06714">
        <ele>121.2</ele>
        <time>2021-07-11T08:20:19</time>
      </trkpt>
      <trkpt lat="47.93508" lon="2.06707">
        <ele>121.2</ele>
        <time>2021-07-11T08:20:20</time>
      </trkpt>
      <trkpt lat="47.93508" lon="2.067">
        <ele>121.2</ele>
        <time>2021-07-11T08:20:21</time>
      </trkpt>
      <trkpt lat="47.93508" lon="2.06693">
        <ele>121.2</ele>
        <time>2021-07-11T08:20:22</time>
      </trkpt>
      <trkpt lat="47.93509" lon="2.06686">
        <ele>121.2</ele>
        <time>2021-07-11T08:20:23</time>
      </trkpt>
      <trkpt lat="47.93509" lon="2.06679">
        <ele>121</ele>
        <time>2021-07-11T08:20:24</time>
      </trkpt>
      <trkpt lat="47.93509" lon="2.06671">
        <ele>121</ele>
        <time>2021-07-11T08:20:25</time>
      </trkpt>
      <trkpt lat="47.9351" lon="2.06664">
        <ele>121</ele>
        <time>2021-07-11T08:20:26</time>
      </trkpt>
      <trkpt lat="47.9351" lon="2.06656">
        <ele>120.8</ele>
        <time>2021-07-11T08:20:27</time>
      </trkpt>
      <trkpt lat="47.93511" lon="2.06647">
        <ele>120.8</ele>
        <time>2021-07-11T08:20:28</time>
      </trkpt>
      <trkpt lat="47.93511" lon="2.06639">
        <ele>120.6</ele>
        <time>2021-07-11T08:20:29</time>
      </trkpt>
      <trkpt lat="47.93512" lon="2.06631">
        <ele>120.6</ele>
        <time>2021-07-11T08:20:30</time>
      </trkpt>
      <trkpt lat="47.93512" lon="2.06623">
        <ele>120.6</ele>
        <time>2021-07-11T08:20:31</time>
      </trkpt>
      <trkpt lat="47.93513" lon="2.06615">
        <ele>120.6</ele>
        <time>2021-07-11T08:20:32</time>
      </trkpt>
      <trkpt lat="47.93513" lon="2.06607">
        <ele>120.4</ele>
        <time>2021-07-11T08:20:33</time>
      </trkpt>
      <trkpt lat="47.93513" lon="2.06599">
        <ele>120.2</ele>
        <time>2021-07-11T08:20:34</time>
      </trkpt>
      <trkpt lat="47.93514" lon="2.06591">
        <ele>120.2</ele>
        <time>2021-07-11T08:20:35</time>
      </trkpt>
      <trkpt lat="47.93514" lon="2.06583">
        <ele>120.2</ele>
        <time>2021-07-11T08:20:36</time>
      </trkpt>
      <trkpt lat="47.93515" lon="2.06576">
        <ele>120.2</ele>
        <time>2021-07-11T08:20:37</time>
      </trkpt>
      <trkpt lat="47.93516" lon="2.06568">
        <ele>120</ele>
        <time>2021-07-11T08:20:38</time>
      </trkpt>
      <trkpt lat="47.93516" lon="2.06561">
        <ele>120</ele>
        <time>2021-07-11T08:20:39</time>
      </trkpt>
      <trkpt lat="47.93517" lon="2.06553">
        <ele>120</ele>
        <time>2021-07-11T08:20:40</time>
      </trkpt>
      <trkpt lat="47.93517" lon="2.06546">
        <ele>120</ele>
        <time>2021-07-11T08:20:41</time>
      </trkpt>
      <trkpt lat="47.93518" lon="2.06538">
        <ele>120</ele>
        <time>2021-07-11T08:20:42</time>
      </trkpt>
      <trkpt lat="47.93518" lon="2.0653">
        <ele>119.8</ele>
        <time>2021-07-11T08:20:44</time>
      </trkpt>
      <trkpt lat="47.93519" lon="2.06515">
        <ele>119.8</ele>
        <time>2021-07-11T08:20:45</time>
      </trkpt>
      <trkpt lat="47.9352" lon="2.06507">
        <ele>119.6</ele>
        <time>2021-07-11T08:20:46</time>
      </trkpt>
      <trkpt lat="47.9352" lon="2.06499">
        <ele>119.6</ele>
        <time>2021-07-11T08:20:47</time>
      </trkpt>
      <trkpt lat="47.93521" lon="2.06492">
        <ele>119.6</ele>
        <time>2021-07-11T08:20:48</time>
      </trkpt>
      <trkpt lat="47.93522" lon="2.06484">
        <ele>119.6</ele>
        <time>2021-07-11T08:20:49</time>
      </trkpt>
      <trkpt lat="47.93523" lon="2.06476">
        <ele>119.4</ele>
        <time>2021-07-11T08:20:50</time>
      </trkpt>
      <trkpt lat="47.93524" lon="2.06468">
        <ele>119.4</ele>
        <time>2021-07-11T08:20:51</time>
      </trkpt>
      <trkpt lat="47.93524" lon="2.0646">
        <ele>119.2</ele>
        <time>2021-07-11T08:20:52</time>
      </trkpt>
      <trkpt lat="47.93525" lon="2.06452">
        <ele>119</ele>
        <time>2021-07-11T08:20:53</time>
      </trkpt>
      <trkpt lat="47.93525" lon="2.06445">
        <ele>119</ele>
        <time>2021-07-11T08:20:54</time>
      </trkpt>
      <trkpt lat="47.93525" lon="2.06437">
        <ele>118.8</ele>
        <time>2021-07-11T08:20:55</time>
      </trkpt>
      <trkpt lat="47.93525" lon="2.06429">
        <ele>118.8</ele>
        <time>2021-07-11T08:20:56</time>
      </trkpt>
      <trkpt lat="47.93526" lon="2.06421">
        <ele>118.6</ele>
        <time>2021-07-11T08:20:57</time>
      </trkpt>
      <trkpt lat="47.93526" lon="2.06414">
        <ele>118.6</ele>
        <time>2021-07-11T08:20:58</time>
      </trkpt>
      <trkpt lat="47.93526" lon="2.06407">
        <ele>118.6</ele>
        <time>2021-07-11T08:20:59</time>
      </trkpt>
      <trkpt lat="47.93525" lon="2.06401">
        <ele>118.6</ele>
        <time>2021-07-11T08:21:00</time>
      </trkpt>
      <trkpt lat="47.93521" lon="2.06396">
        <ele>118.4</ele>
        <time>2021-07-11T08:21:01</time>
      </trkpt>
      <trkpt lat="47.93517" lon="2.06394">
        <ele>118.4</ele>
        <time>2021-07-11T08:21:02</time>
      </trkpt>
      <trkpt lat="47.93513" lon="2.06393">
        <ele>118.2</ele>
        <time>2021-07-11T08:21:03</time>
      </trkpt>
      <trkpt lat="47.93508" lon="2.06393">
        <ele>118.2</ele>
        <time>2021-07-11T08:21:04</time>
      </trkpt>
      <trkpt lat="47.93503" lon="2.06394">
        <ele>118.2</ele>
        <time>2021-07-11T08:21:05</time>
      </trkpt>
      <trkpt lat="47.93498" lon="2.06394">
        <ele>118.4</ele>
        <time>2021-07-11T08:21:06</time>
      </trkpt>
      <trkpt lat="47.93493" lon="2.06394">
        <ele>118.4</ele>
        <time>2021-07-11T08:21:07</time>
      </trkpt>
      <trkpt lat="47.93489" lon="2.06393">
        <ele>118.4</ele>
        <time>2021-07-11T08:21:08</time>
      </trkpt>
      <trkpt lat="47.93484" lon="2.06392">
        <ele>118.6</ele>
        <time>2021-07-11T08:21:09</time>
      </trkpt>
      <trkpt lat="47.93479" lon="2.06392">
        <ele>118.6</ele>
        <time>2021-07-11T08:21:10</time>
      </trkpt>
      <trkpt lat="47.93474" lon="2.06391">
        <ele>118.8</ele>
        <time>2021-07-11T08:21:11</time>
      </trkpt>
      <trkpt lat="47.93469" lon="2.06391">
        <ele>119</ele>
        <time>2021-07-11T08:21:12</time>
      </trkpt>
      <trkpt lat="47.93464" lon="2.06391">
        <ele>119</ele>
        <time>2021-07-11T08:21:13</time>
      </trkpt>
      <trkpt lat="47.93459" lon="2.0639">
        <ele>119</ele>
        <time>2021-07-11T08:21:14</time>
      </trkpt>
      <trkpt lat="47.93454" lon="2.06389">
        <ele>119.2</ele>
        <time>2021-07-11T08:21:15</time>
      </trkpt>
      <trkpt lat="47.93449" lon="2.06389">
        <ele>119.2</ele>
        <time>2021-07-11T08:21:16</time>
      </trkpt>
      <trkpt lat="47.93444" lon="2.06388">
        <ele>119.4</ele>
        <time>2021-07-11T08:21:17</time>
      </trkpt>
      <trkpt lat="47.93439" lon="2.06387">
        <ele>119.4</ele>
        <time>2021-07-11T08:21:18</time>
      </trkpt>
      <trkpt lat="47.93434" lon="2.06387">
        <ele>119.4</ele>
        <time>2021-07-11T08:21:19</time>
      </trkpt>
      <trkpt lat="47.93429" lon="2.06386">
        <ele>119.6</ele>
        <time>2021-07-11T08:21:20</time>
      </trkpt>
      <trkpt lat="47.93424" lon="2.06386">
        <ele>119.6</ele>
        <time>2021-07-11T08:21:21</time>
      </trkpt>
      <trkpt lat="47.93419" lon="2.06385">
        <ele>119.6</ele>
        <time>2021-07-11T08:21:22</time>
      </trkpt>
      <trkpt lat="47.93415" lon="2.06384">
        <ele>119.6</ele>
        <time>2021-07-11T08:21:23</time>
      </trkpt>
      <trkpt lat="47.9341" lon="2.06384">
        <ele>119.8</ele>
        <time>2021-07-11T08:21:24</time>
      </trkpt>
      <trkpt lat="47.93405" lon="2.06383">
        <ele>119.8</ele>
        <time>2021-07-11T08:21:25</time>
      </trkpt>
      <trkpt lat="47.934" lon="2.06383">
        <ele>120</ele>
        <time>2021-07-11T08:21:26</time>
      </trkpt>
      <trkpt lat="47.93395" lon="2.06382">
        <ele>120</ele>
        <time>2021-07-11T08:21:27</time>
      </trkpt>
      <trkpt lat="47.93391" lon="2.06382">
        <ele>120.4</ele>
        <time>2021-07-11T08:21:28</time>
      </trkpt>
      <trkpt lat="47.93386" lon="2.06381">
        <ele>120.4</ele>
        <time>2021-07-11T08:21:29</time>
      </trkpt>
      <trkpt lat="47.93381" lon="2.0638">
        <ele>120.6</ele>
        <time>2021-07-11T08:21:30</time>
      </trkpt>
      <trkpt lat="47.93377" lon="2.0638">
        <ele>120.8</ele>
        <time>2021-07-11T08:21:31</time>
      </trkpt>
      <trkpt lat="47.93372" lon="2.06379">
        <ele>121</ele>
        <time>2021-07-11T08:21:32</time>
      </trkpt>
      <trkpt lat="47.93368" lon="2.06378">
        <ele>121.2</ele>
        <time>2021-07-11T08:21:33</time>
      </trkpt>
      <trkpt lat="47.93363" lon="2.06378">
        <ele>121.6</ele>
        <time>2021-07-11T08:21:34</time>
      </trkpt>
      <trkpt lat="47.93359" lon="2.06377">
        <ele>121.8</ele>
        <time>2021-07-11T08:21:35</time>
      </trkpt>
      <trkpt lat="47.93355" lon="2.06377">
        <ele>122</ele>
        <time>2021-07-11T08:21:36</time>
      </trkpt>
      <trkpt lat="47.93351" lon="2.06376">
        <ele>122.2</ele>
        <time>2021-07-11T08:21:37</time>
      </trkpt>
      <trkpt lat="47.93346" lon="2.06375">
        <ele>122.4</ele>
        <time>2021-07-11T08:21:38</time>
      </trkpt>
      <trkpt lat="47.93342" lon="2.06375">
        <ele>122.8</ele>
        <time>2021-07-11T08:21:39</time>
      </trkpt>
      <trkpt lat="47.93338" lon="2.06374">
        <ele>123</ele>
        <time>2021-07-11T08:21:40</time>
      </trkpt>
      <trkpt lat="47.93334" lon="2.06373">
        <ele>123.2</ele>
        <time>2021-07-11T08:21:41</time>
      </trkpt>
      <trkpt lat="47.9333" lon="2.06372">
        <ele>123.2</ele>
        <time>2021-07-11T08:21:42</time>
      </trkpt>
      <trkpt lat="47.93326" lon="2.06372">
        <ele>123.2</ele>
        <time>2021-07-11T08:21:43</time>
      </trkpt>
      <trkpt lat="47.93322" lon="2.06372">
        <ele>123.4</ele>
        <time>2021-07-11T08:21:44</time>
      </trkpt>
      <trkpt lat="47.93318" lon="2.06371">
        <ele>123.6</ele>
        <time>2021-07-11T08:21:45</time>
      </trkpt>
      <trkpt lat="47.93314" lon="2.0637">
        <ele>123.6</ele>
        <time>2021-07-11T08:21:46</time>
      </trkpt>
      <trkpt lat="47.9331" lon="2.0637">
        <ele>123.6</ele>
        <time>2021-07-11T08:21:47</time>
      </trkpt>
      <trkpt lat="47.93306" lon="2.06369">
        <ele>123.8</ele>
        <time>2021-07-11T08:21:48</time>
      </trkpt>
      <trkpt lat="47.93302" lon="2.06369">
        <ele>123.8</ele>
        <time>2021-07-11T08:21:49</time>
      </trkpt>
      <trkpt lat="47.93298" lon="2.06368">
        <ele>123.8</ele>
        <time>2021-07-11T08:21:50</time>
      </trkpt>
      <trkpt lat="47.93294" lon="2.06368">
        <ele>124</ele>
        <time>2021-07-11T08:21:51</time>
      </trkpt>
      <trkpt lat="47.93289" lon="2.06367">
        <ele>124</ele>
        <time>2021-07-11T08:21:52</time>
      </trkpt>
      <trkpt lat="47.93285" lon="2.06366">
        <ele>124</ele>
        <time>2021-07-11T08:21:53</time>
      </trkpt>
      <trkpt lat="47.93281" lon="2.06366">
        <ele>124.2</ele>
        <time>2021-07-11T08:21:54</time>
      </trkpt>
      <trkpt lat="47.93277" lon="2.06365">
        <ele>124.2</ele>
        <time>2021-07-11T08:21:55</time>
      </trkpt>
      <trkpt lat="47.93273" lon="2.06364">
        <ele>124.4</ele>
        <time>2021-07-11T08:21:56</time>
      </trkpt>
      <trkpt lat="47.93269" lon="2.06364">
        <ele>124.6</ele>
        <time>2021-07-11T08:21:57</time>
      </trkpt>
      <trkpt lat="47.93264" lon="2.06364">
        <ele>124.8</ele>
        <time>2021-07-11T08:21:58</time>
      </trkpt>
      <trkpt lat="47.9326" lon="2.06363">
        <ele>124.8</ele>
        <time>2021-07-11T08:21:59</time>
      </trkpt>
      <trkpt lat="47.93256" lon="2.06362">
        <ele>125</ele>
        <time>2021-07-11T08:22:00</time>
      </trkpt>
      <trkpt lat="47.93252" lon="2.06362">
        <ele>125.2</ele>
        <time>2021-07-11T08:22:01</time>
      </trkpt>
      <trkpt lat="47.93248" lon="2.06361">
        <ele>125.2</ele>
        <time>2021-07-11T08:22:02</time>
      </trkpt>
      <trkpt lat="47.93244" lon="2.06361">
        <ele>125.2</ele>
        <time>2021-07-11T08:22:03</time>
      </trkpt>
      <trkpt lat="47.9324" lon="2.0636">
        <ele>125.4</ele>
        <time>2021-07-11T08:22:04</time>
      </trkpt>
      <trkpt lat="47.93236" lon="2.06359">
        <ele>125.4</ele>
        <time>2021-07-11T08:22:05</time>
      </trkpt>
      <trkpt lat="47.93232" lon="2.06358">
        <ele>125.6</ele>
        <time>2021-07-11T08:22:06</time>
      </trkpt>
      <trkpt lat="47.93228" lon="2.06358">
        <ele>125.8</ele>
        <time>2021-07-11T08:22:07</time>
      </trkpt>
      <trkpt lat="47.93224" lon="2.06356">
        <ele>125.8</ele>
        <time>2021-07-11T08:22:08</time>
      </trkpt>
      <trkpt lat="47.93219" lon="2.06355">
        <ele>125.8</ele>
        <time>2021-07-11T08:22:09</time>
      </trkpt>
      <trkpt lat="47.93215" lon="2.06355">
        <ele>126</ele>
        <time>2021-07-11T08:22:10</time>
      </trkpt>
      <trkpt lat="47.93211" lon="2.06354">
        <ele>126</ele>
        <time>2021-07-11T08:22:11</time>
      </trkpt>
      <trkpt lat="47.93206" lon="2.06354">
        <ele>126</ele>
        <time>2021-07-11T08:22:12</time>
      </trkpt>
      <trkpt lat="47.93202" lon="2.06353">
        <ele>126</ele>
        <time>2021-07-11T08:22:13</time>
      </trkpt>
      <trkpt lat="47.93198" lon="2.06352">
        <ele>126</ele>
        <time>2021-07-11T08:22:14</time>
      </trkpt>
      <trkpt lat="47.93193" lon="2.06351">
        <ele>126</ele>
        <time>2021-07-11T08:22:15</time>
      </trkpt>
      <trkpt lat="47.93189" lon="2.0635">
        <ele>126</ele>
        <time>2021-07-11T08:22:16</time>
      </trkpt>
      <trkpt lat="47.93184" lon="2.06349">
        <ele>126</ele>
        <time>2021-07-11T08:22:17</time>
      </trkpt>
      <trkpt lat="47.9318" lon="2.06348">
        <ele>126.2</ele>
        <time>2021-07-11T08:22:18</time>
      </trkpt>
      <trkpt lat="47.93175" lon="2.06347">
        <ele>126.2</ele>
        <time>2021-07-11T08:22:19</time>
      </trkpt>
      <trkpt lat="47.93171" lon="2.06346">
        <ele>126.4</ele>
        <time>2021-07-11T08:22:20</time>
      </trkpt>
      <trkpt lat="47.93166" lon="2.06346">
        <ele>126.6</ele>
        <time>2021-07-11T08:22:21</time>
      </trkpt>
      <trkpt lat="47.93161" lon="2.06346">
        <ele>126.6</ele>
        <time>2021-07-11T08:22:22</time>
      </trkpt>
      <trkpt lat="47.93157" lon="2.06345">
        <ele>126.6</ele>
        <time>2021-07-11T08:22:23</time>
      </trkpt>
      <trkpt lat="47.93153" lon="2.06345">
        <ele>126.8</ele>
        <time>2021-07-11T08:22:24</time>
      </trkpt>
      <trkpt lat="47.93148" lon="2.06345">
        <ele>126.6</ele>
        <time>2021-07-11T08:22:25</time>
      </trkpt>
      <trkpt lat="47.93144" lon="2.06344">
        <ele>126.8</ele>
        <time>2021-07-11T08:22:26</time>
      </trkpt>
      <trkpt lat="47.9314" lon="2.06344">
        <ele>126.8</ele>
        <time>2021-07-11T08:22:27</time>
      </trkpt>
      <trkpt lat="47.93136" lon="2.06344">
        <ele>126.8</ele>
        <time>2021-07-11T08:22:28</time>
      </trkpt>
      <trkpt lat="47.93133" lon="2.06344">
        <ele>126.8</ele>
        <time>2021-07-11T08:22:29</time>
      </trkpt>
      <trkpt lat="47.93129" lon="2.06345">
        <ele>126.8</ele>
        <time>2021-07-11T08:22:30</time>
      </trkpt>
      <trkpt lat="47.93126" lon="2.06345">
        <ele>127</ele>
        <time>2021-07-11T08:22:31</time>
      </trkpt>
      <trkpt lat="47.93123" lon="2.06345">
        <ele>127</ele>
        <time>2021-07-11T08:22:32</time>
      </trkpt>
      <trkpt lat="47.93121" lon="2.06345">
        <ele>127</ele>
        <time>2021-07-11T08:22:33</time>
      </trkpt>
      <trkpt lat="47.93117" lon="2.06345">
        <ele>127</ele>
        <time>2021-07-11T08:22:34</time>
      </trkpt>
      <trkpt lat="47.93114" lon="2.06345">
        <ele>127</ele>
        <time>2021-07-11T08:22:35</time>
      </trkpt>
      <trkpt lat="47.93111" lon="2.06345">
        <ele>127.2</ele>
        <time>2021-07-11T08:22:36</time>
      </trkpt>
      <trkpt lat="47.93107" lon="2.06345">
        <ele>127.2</ele>
        <time>2021-07-11T08:22:37</time>
      </trkpt>
      <trkpt lat="47.93103" lon="2.06344">
        <ele>127.2</ele>
        <time>2021-07-11T08:22:39</time>
      </trkpt>
      <trkpt lat="47.93095" lon="2.06343">
        <ele>127.2</ele>
        <time>2021-07-11T08:22:40</time>
      </trkpt>
      <trkpt lat="47.93092" lon="2.06343">
        <ele>127.2</ele>
        <time>2021-07-11T08:22:41</time>
      </trkpt>
      <trkpt lat="47.93089" lon="2.06343">
        <ele>127.4</ele>
        <time>2021-07-11T08:22:42</time>
      </trkpt>
      <trkpt lat="47.93087" lon="2.06343">
        <ele>127.4</ele>
        <time>2021-07-11T08:22:43</time>
      </trkpt>
      <trkpt lat="47.93085" lon="2.06342">
        <ele>127.6</ele>
        <time>2021-07-11T08:22:44</time>
      </trkpt>
      <trkpt lat="47.93083" lon="2.06341">
        <ele>127.6</ele>
        <time>2021-07-11T08:22:45</time>
      </trkpt>
      <trkpt lat="47.93082" lon="2.0634">
        <ele>127.6</ele>
        <time>2021-07-11T08:22:46</time>
      </trkpt>
      <trkpt lat="47.93081" lon="2.06338">
        <ele>127.6</ele>
        <time>2021-07-11T08:22:47</time>
      </trkpt>
      <trkpt lat="47.93081" lon="2.06335">
        <ele>127.6</ele>
        <time>2021-07-11T08:22:48</time>
      </trkpt>
      <trkpt lat="47.93081" lon="2.06334">
        <ele>127.4</ele>
        <time>2021-07-11T08:22:49</time>
      </trkpt>
      <trkpt lat="47.93081" lon="2.06334">
        <ele>127.4</ele>
        <time>2021-07-11T08:22:50</time>
      </trkpt>
      <trkpt lat="47.93081" lon="2.06334">
        <ele>127</ele>
        <time>2021-07-11T08:22:51</time>
      </trkpt>
      <trkpt lat="47.93081" lon="2.06334">
        <ele>128</ele>
        <time>2021-07-11T08:22:52</time>
      </trkpt>
      <trkpt lat="47.9308" lon="2.06333">
        <ele>127.8</ele>
        <time>2021-07-11T08:22:53</time>
      </trkpt>
      <trkpt lat="47.9308" lon="2.06333">
        <ele>126.2</ele>
        <time>2021-07-11T08:22:54</time>
      </trkpt>
      <trkpt lat="47.9308" lon="2.06333">
        <ele>125.8</ele>
        <time>2021-07-11T08:22:55</time>
      </trkpt>
      <trkpt lat="47.9308" lon="2.06333">
        <ele>125.8</ele>
        <time>2021-07-11T08:22:56</time>
      </trkpt>
      <trkpt lat="47.93086" lon="2.06288">
        <ele>126.4</ele>
        <time>2021-07-11T08:25:15</time>
      </trkpt>
      <trkpt lat="47.93088" lon="2.06282">
        <ele>126.2</ele>
        <time>2021-07-11T08:25:16</time>
      </trkpt>
      <trkpt lat="47.9309" lon="2.06277">
        <ele>126</ele>
        <time>2021-07-11T08:25:17</time>
      </trkpt>
      <trkpt lat="47.93092" lon="2.06271">
        <ele>126</ele>
        <time>2021-07-11T08:25:18</time>
      </trkpt>
      <trkpt lat="47.93095" lon="2.06263">
        <ele>125.8</ele>
        <time>2021-07-11T08:25:19</time>
      </trkpt>
      <trkpt lat="47.93097" lon="2.06256">
        <ele>125.6</ele>
        <time>2021-07-11T08:25:20</time>
      </trkpt>
      <trkpt lat="47.93099" lon="2.06248">
        <ele>125.4</ele>
        <time>2021-07-11T08:25:21</time>
      </trkpt>
      <trkpt lat="47.93101" lon="2.0624">
        <ele>125.4</ele>
        <time>2021-07-11T08:25:22</time>
      </trkpt>
      <trkpt lat="47.93103" lon="2.06232">
        <ele>125.4</ele>
        <time>2021-07-11T08:25:23</time>
      </trkpt>
      <trkpt lat="47.93106" lon="2.06224">
        <ele>125.2</ele>
        <time>2021-07-11T08:25:24</time>
      </trkpt>
      <trkpt lat="47.93108" lon="2.06216">
        <ele>125</ele>
        <time>2021-07-11T08:25:25</time>
      </trkpt>
      <trkpt lat="47.93111" lon="2.06209">
        <ele>124.8</ele>
        <time>2021-07-11T08:25:26</time>
      </trkpt>
      <trkpt lat="47.93113" lon="2.06201">
        <ele>124.6</ele>
        <time>2021-07-11T08:25:28</time>
      </trkpt>
      <trkpt lat="47.9312" lon="2.06186">
        <ele>124.4</ele>
        <time>2021-07-11T08:25:29</time>
      </trkpt>
      <trkpt lat="47.93122" lon="2.06179">
        <ele>124.4</ele>
        <time>2021-07-11T08:25:30</time>
      </trkpt>
      <trkpt lat="47.93125" lon="2.06172">
        <ele>124.2</ele>
        <time>2021-07-11T08:25:31</time>
      </trkpt>
      <trkpt lat="47.93127" lon="2.06165">
        <ele>124</ele>
        <time>2021-07-11T08:25:32</time>
      </trkpt>
      <trkpt lat="47.93129" lon="2.06157">
        <ele>124</ele>
        <time>2021-07-11T08:25:33</time>
      </trkpt>
      <trkpt lat="47.93131" lon="2.06149">
        <ele>123.8</ele>
        <time>2021-07-11T08:25:34</time>
      </trkpt>
      <trkpt lat="47.93133" lon="2.06141">
        <ele>123.8</ele>
        <time>2021-07-11T08:25:35</time>
      </trkpt>
      <trkpt lat="47.93136" lon="2.06133">
        <ele>123.6</ele>
        <time>2021-07-11T08:25:36</time>
      </trkpt>
      <trkpt lat="47.93138" lon="2.06125">
        <ele>123.6</ele>
        <time>2021-07-11T08:25:37</time>
      </trkpt>
      <trkpt lat="47.93141" lon="2.06116">
        <ele>123.2</ele>
        <time>2021-07-11T08:25:38</time>
      </trkpt>
      <trkpt lat="47.93143" lon="2.06107">
        <ele>123</ele>
        <time>2021-07-11T08:25:39</time>
      </trkpt>
      <trkpt lat="47.93146" lon="2.06097">
        <ele>122.8</ele>
        <time>2021-07-11T08:25:40</time>
      </trkpt>
      <trkpt lat="47.93149" lon="2.06088">
        <ele>122.4</ele>
        <time>2021-07-11T08:25:41</time>
      </trkpt>
      <trkpt lat="47.93152" lon="2.06078">
        <ele>122</ele>
        <time>2021-07-11T08:25:42</time>
      </trkpt>
      <trkpt lat="47.93155" lon="2.06067">
        <ele>121.6</ele>
        <time>2021-07-11T08:25:43</time>
      </trkpt>
      <trkpt lat="47.93158" lon="2.06056">
        <ele>121.2</ele>
        <time>2021-07-11T08:25:44</time>
      </trkpt>
      <trkpt lat="47.93161" lon="2.06045">
        <ele>120.8</ele>
        <time>2021-07-11T08:25:45</time>
      </trkpt>
      <trkpt lat="47.93165" lon="2.06033">
        <ele>120.4</ele>
        <time>2021-07-11T08:25:46</time>
      </trkpt>
      <trkpt lat="47.93168" lon="2.06021">
        <ele>120.2</ele>
        <time>2021-07-11T08:25:47</time>
      </trkpt>
      <trkpt lat="47.93172" lon="2.06009">
        <ele>120.2</ele>
        <time>2021-07-11T08:25:48</time>
      </trkpt>
      <trkpt lat="47.93175" lon="2.05998">
        <ele>120.2</ele>
        <time>2021-07-11T08:25:49</time>
      </trkpt>
      <trkpt lat="47.93178" lon="2.05986">
        <ele>119.8</ele>
        <time>2021-07-11T08:25:50</time>
      </trkpt>
      <trkpt lat="47.93181" lon="2.05975">
        <ele>119.6</ele>
        <time>2021-07-11T08:25:51</time>
      </trkpt>
      <trkpt lat="47.93184" lon="2.05965">
        <ele>119.6</ele>
        <time>2021-07-11T08:25:52</time>
      </trkpt>
      <trkpt lat="47.93187" lon="2.05955">
        <ele>119.6</ele>
        <time>2021-07-11T08:25:53</time>
      </trkpt>
      <trkpt lat="47.9319" lon="2.05945">
        <ele>119.6</ele>
        <time>2021-07-11T08:25:54</time>
      </trkpt>
      <trkpt lat="47.93193" lon="2.05936">
        <ele>119.6</ele>
        <time>2021-07-11T08:25:55</time>
      </trkpt>
      <trkpt lat="47.93196" lon="2.05926">
        <ele>119.6</ele>
        <time>2021-07-11T08:25:56</time>
      </trkpt>
      <trkpt lat="47.93199" lon="2.05917">
        <ele>119.8</ele>
        <time>2021-07-11T08:25:57</time>
      </trkpt>
      <trkpt lat="47.93201" lon="2.05908">
        <ele>120</ele>
        <time>2021-07-11T08:25:58</time>
      </trkpt>
      <trkpt lat="47.93204" lon="2.05899">
        <ele>120.4</ele>
        <time>2021-07-11T08:25:59</time>
      </trkpt>
      <trkpt lat="47.93206" lon="2.0589">
        <ele>120.6</ele>
        <time>2021-07-11T08:26:00</time>
      </trkpt>
      <trkpt lat="47.93208" lon="2.05882">
        <ele>120.8</ele>
        <time>2021-07-11T08:26:01</time>
      </trkpt>
      <trkpt lat="47.93211" lon="2.05874">
        <ele>121</ele>
        <time>2021-07-11T08:26:02</time>
      </trkpt>
      <trkpt lat="47.93213" lon="2.05867">
        <ele>121</ele>
        <time>2021-07-11T08:26:03</time>
      </trkpt>
      <trkpt lat="47.93216" lon="2.05859">
        <ele>121</ele>
        <time>2021-07-11T08:26:04</time>
      </trkpt>
      <trkpt lat="47.93218" lon="2.05851">
        <ele>120.8</ele>
        <time>2021-07-11T08:26:05</time>
      </trkpt>
      <trkpt lat="47.9322" lon="2.05844">
        <ele>121</ele>
        <time>2021-07-11T08:26:06</time>
      </trkpt>
      <trkpt lat="47.93222" lon="2.05836">
        <ele>121</ele>
        <time>2021-07-11T08:26:07</time>
      </trkpt>
      <trkpt lat="47.93225" lon="2.05828">
        <ele>120.8</ele>
        <time>2021-07-11T08:26:08</time>
      </trkpt>
      <trkpt lat="47.93227" lon="2.0582">
        <ele>121</ele>
        <time>2021-07-11T08:26:09</time>
      </trkpt>
      <trkpt lat="47.93229" lon="2.05812">
        <ele>121</ele>
        <time>2021-07-11T08:26:10</time>
      </trkpt>
      <trkpt lat="47.93232" lon="2.05804">
        <ele>120.8</ele>
        <time>2021-07-11T08:26:11</time>
      </trkpt>
      <trkpt lat="47.93234" lon="2.05796">
        <ele>120.8</ele>
        <time>2021-07-11T08:26:12</time>
      </trkpt>
      <trkpt lat="47.93236" lon="2.05789">
        <ele>120.8</ele>
        <time>2021-07-11T08:26:13</time>
      </trkpt>
      <trkpt lat="47.93238" lon="2.05781">
        <ele>120.6</ele>
        <time>2021-07-11T08:26:14</time>
      </trkpt>
      <trkpt lat="47.9324" lon="2.05774">
        <ele>120.8</ele>
        <time>2021-07-11T08:26:15</time>
      </trkpt>
      <trkpt lat="47.93241" lon="2.05768">
        <ele>120.8</ele>
        <time>2021-07-11T08:26:16</time>
      </trkpt>
      <trkpt lat="47.93242" lon="2.05762">
        <ele>121</ele>
        <time>2021-07-11T08:26:17</time>
      </trkpt>
      <trkpt lat="47.93241" lon="2.05756">
        <ele>121</ele>
        <time>2021-07-11T08:26:18</time>
      </trkpt>
      <trkpt lat="47.9324" lon="2.05752">
        <ele>121</ele>
        <time>2021-07-11T08:26:19</time>
      </trkpt>
      <trkpt lat="47.93237" lon="2.0575">
        <ele>121</ele>
        <time>2021-07-11T08:26:20</time>
      </trkpt>
      <trkpt lat="47.93234" lon="2.05747">
        <ele>121</ele>
        <time>2021-07-11T08:26:21</time>
      </trkpt>
      <trkpt lat="47.93231" lon="2.05743">
        <ele>121</ele>
        <time>2021-07-11T08:26:22</time>
      </trkpt>
      <trkpt lat="47.93229" lon="2.0574">
        <ele>121</ele>
        <time>2021-07-11T08:26:23</time>
      </trkpt>
      <trkpt lat="47.93226" lon="2.05736">
        <ele>121</ele>
        <time>2021-07-11T08:26:24</time>
      </trkpt>
      <trkpt lat="47.93223" lon="2.05732">
        <ele>121.2</ele>
        <time>2021-07-11T08:26:25</time>
      </trkpt>
      <trkpt lat="47.9322" lon="2.05728">
        <ele>121.4</ele>
        <time>2021-07-11T08:26:26</time>
      </trkpt>
      <trkpt lat="47.93217" lon="2.05725">
        <ele>121.4</ele>
        <time>2021-07-11T08:26:27</time>
      </trkpt>
      <trkpt lat="47.93214" lon="2.05721">
        <ele>121.6</ele>
        <time>2021-07-11T08:26:28</time>
      </trkpt>
      <trkpt lat="47.93211" lon="2.05717">
        <ele>121.6</ele>
        <time>2021-07-11T08:26:29</time>
      </trkpt>
      <trkpt lat="47.93208" lon="2.05713">
        <ele>121.6</ele>
        <time>2021-07-11T08:26:30</time>
      </trkpt>
      <trkpt lat="47.93205" lon="2.05709">
        <ele>121.6</ele>
        <time>2021-07-11T08:26:31</time>
      </trkpt>
      <trkpt lat="47.93201" lon="2.05705">
        <ele>121.4</ele>
        <time>2021-07-11T08:26:32</time>
      </trkpt>
      <trkpt lat="47.93198" lon="2.057">
        <ele>121.4</ele>
        <time>2021-07-11T08:26:33</time>
      </trkpt>
      <trkpt lat="47.93194" lon="2.05696">
        <ele>121.4</ele>
        <time>2021-07-11T08:26:34</time>
      </trkpt>
      <trkpt lat="47.93191" lon="2.05692">
        <ele>121.4</ele>
        <time>2021-07-11T08:26:35</time>
      </trkpt>
      <trkpt lat="47.93188" lon="2.05687">
        <ele>121.2</ele>
        <time>2021-07-11T08:26:36</time>
      </trkpt>
      <trkpt lat="47.93184" lon="2.05683">
        <ele>121</ele>
        <time>2021-07-11T08:26:37</time>
      </trkpt>
      <trkpt lat="47.9318" lon="2.05678">
        <ele>120.8</ele>
        <time>2021-07-11T08:26:38</time>
      </trkpt>
      <trkpt lat="47.93176" lon="2.05674">
        <ele>120.4</ele>
        <time>2021-07-11T08:26:39</time>
      </trkpt>
      <trkpt lat="47.93172" lon="2.05669">
        <ele>120.2</ele>
        <time>2021-07-11T08:26:40</time>
      </trkpt>
      <trkpt lat="47.93169" lon="2.05664">
        <ele>120</ele>
        <time>2021-07-11T08:26:41</time>
      </trkpt>
      <trkpt lat="47.93165" lon="2.05659">
        <ele>119.8</ele>
        <time>2021-07-11T08:26:42</time>
      </trkpt>
      <trkpt lat="47.93161" lon="2.05655">
        <ele>119.8</ele>
        <time>2021-07-11T08:26:43</time>
      </trkpt>
      <trkpt lat="47.93157" lon="2.0565">
        <ele>119.4</ele>
        <time>2021-07-11T08:26:44</time>
      </trkpt>
      <trkpt lat="47.93154" lon="2.05646">
        <ele>119.4</ele>
        <time>2021-07-11T08:26:45</time>
      </trkpt>
      <trkpt lat="47.93151" lon="2.05642">
        <ele>119.4</ele>
        <time>2021-07-11T08:26:46</time>
      </trkpt>
      <trkpt lat="47.93148" lon="2.05638">
        <ele>119.6</ele>
        <time>2021-07-11T08:26:47</time>
      </trkpt>
      <trkpt lat="47.93144" lon="2.05634">
        <ele>119.4</ele>
        <time>2021-07-11T08:26:48</time>
      </trkpt>
      <trkpt lat="47.93141" lon="2.0563">
        <ele>119.4</ele>
        <time>2021-07-11T08:26:49</time>
      </trkpt>
      <trkpt lat="47.93138" lon="2.05627">
        <ele>119.4</ele>
        <time>2021-07-11T08:26:50</time>
      </trkpt>
      <trkpt lat="47.93135" lon="2.05623">
        <ele>119.2</ele>
        <time>2021-07-11T08:26:51</time>
      </trkpt>
      <trkpt lat="47.93132" lon="2.05619">
        <ele>119.2</ele>
        <time>2021-07-11T08:26:52</time>
      </trkpt>
      <trkpt lat="47.93129" lon="2.05616">
        <ele>119.4</ele>
        <time>2021-07-11T08:26:53</time>
      </trkpt>
      <trkpt lat="47.93126" lon="2.05612">
        <ele>119.4</ele>
        <time>2021-07-11T08:26:54</time>
      </trkpt>
      <trkpt lat="47.93123" lon="2.05609">
        <ele>119.6</ele>
        <time>2021-07-11T08:26:55</time>
      </trkpt>
      <trkpt lat="47.9312" lon="2.05605">
        <ele>119.6</ele>
        <time>2021-07-11T08:26:56</time>
      </trkpt>
      <trkpt lat="47.93117" lon="2.05602">
        <ele>119.4</ele>
        <time>2021-07-11T08:26:57</time>
      </trkpt>
      <trkpt lat="47.93114" lon="2.05598">
        <ele>119.4</ele>
        <time>2021-07-11T08:26:58</time>
      </trkpt>
      <trkpt lat="47.93111" lon="2.05594">
        <ele>119.4</ele>
        <time>2021-07-11T08:26:59</time>
      </trkpt>
      <trkpt lat="47.93108" lon="2.05591">
        <ele>119.4</ele>
        <time>2021-07-11T08:27:00</time>
      </trkpt>
      <trkpt lat="47.93105" lon="2.05587">
        <ele>119.6</ele>
        <time>2021-07-11T08:27:02</time>
      </trkpt>
      <trkpt lat="47.931" lon="2.0558">
        <ele>119.8</ele>
        <time>2021-07-11T08:27:03</time>
      </trkpt>
      <trkpt lat="47.93097" lon="2.05576">
        <ele>119.6</ele>
        <time>2021-07-11T08:27:04</time>
      </trkpt>
      <trkpt lat="47.93094" lon="2.05571">
        <ele>119.6</ele>
        <time>2021-07-11T08:27:05</time>
      </trkpt>
      <trkpt lat="47.93091" lon="2.05568">
        <ele>119.6</ele>
        <time>2021-07-11T08:27:06</time>
      </trkpt>
      <trkpt lat="47.93088" lon="2.05564">
        <ele>119.6</ele>
        <time>2021-07-11T08:27:07</time>
      </trkpt>
      <trkpt lat="47.93084" lon="2.0556">
        <ele>120</ele>
        <time>2021-07-11T08:27:08</time>
      </trkpt>
      <trkpt lat="47.93081" lon="2.05556">
        <ele>120</ele>
        <time>2021-07-11T08:27:09</time>
      </trkpt>
      <trkpt lat="47.93078" lon="2.05552">
        <ele>120</ele>
        <time>2021-07-11T08:27:10</time>
      </trkpt>
      <trkpt lat="47.93074" lon="2.05548">
        <ele>120</ele>
        <time>2021-07-11T08:27:11</time>
      </trkpt>
      <trkpt lat="47.93071" lon="2.05544">
        <ele>120</ele>
        <time>2021-07-11T08:27:12</time>
      </trkpt>
      <trkpt lat="47.93068" lon="2.0554">
        <ele>120</ele>
        <time>2021-07-11T08:27:13</time>
      </trkpt>
      <trkpt lat="47.93064" lon="2.05536">
        <ele>120</ele>
        <time>2021-07-11T08:27:14</time>
      </trkpt>
      <trkpt lat="47.93061" lon="2.05532">
        <ele>120</ele>
        <time>2021-07-11T08:27:15</time>
      </trkpt>
      <trkpt lat="47.93057" lon="2.05528">
        <ele>120</ele>
        <time>2021-07-11T08:27:16</time>
      </trkpt>
      <trkpt lat="47.93054" lon="2.05524">
        <ele>120.2</ele>
        <time>2021-07-11T08:27:17</time>
      </trkpt>
      <trkpt lat="47.93051" lon="2.0552">
        <ele>120.2</ele>
        <time>2021-07-11T08:27:18</time>
      </trkpt>
      <trkpt lat="47.93047" lon="2.05516">
        <ele>120.2</ele>
        <time>2021-07-11T08:27:19</time>
      </trkpt>
      <trkpt lat="47.93044" lon="2.05512">
        <ele>120.2</ele>
        <time>2021-07-11T08:27:20</time>
      </trkpt>
      <trkpt lat="47.93041" lon="2.05508">
        <ele>120.2</ele>
        <time>2021-07-11T08:27:21</time>
      </trkpt>
      <trkpt lat="47.93038" lon="2.05504">
        <ele>120.2</ele>
        <time>2021-07-11T08:27:22</time>
      </trkpt>
      <trkpt lat="47.93035" lon="2.05501">
        <ele>120.2</ele>
        <time>2021-07-11T08:27:23</time>
      </trkpt>
      <trkpt lat="47.93032" lon="2.05497">
        <ele>120.2</ele>
        <time>2021-07-11T08:27:24</time>
      </trkpt>
      <trkpt lat="47.93029" lon="2.05493">
        <ele>120.4</ele>
        <time>2021-07-11T08:27:25</time>
      </trkpt>
      <trkpt lat="47.93026" lon="2.05489">
        <ele>120.2</ele>
        <time>2021-07-11T08:27:26</time>
      </trkpt>
      <trkpt lat="47.93023" lon="2.05486">
        <ele>120.4</ele>
        <time>2021-07-11T08:27:27</time>
      </trkpt>
      <trkpt lat="47.93019" lon="2.05483">
        <ele>120.2</ele>
        <time>2021-07-11T08:27:28</time>
      </trkpt>
      <trkpt lat="47.93016" lon="2.05479">
        <ele>120.2</ele>
        <time>2021-07-11T08:27:29</time>
      </trkpt>
      <trkpt lat="47.93013" lon="2.05476">
        <ele>120.2</ele>
        <time>2021-07-11T08:27:30</time>
      </trkpt>
      <trkpt lat="47.9301" lon="2.05473">
        <ele>120.4</ele>
        <time>2021-07-11T08:27:31</time>
      </trkpt>
      <trkpt lat="47.93007" lon="2.05469">
        <ele>120.4</ele>
        <time>2021-07-11T08:27:32</time>
      </trkpt>
      <trkpt lat="47.93004" lon="2.05467">
        <ele>120.4</ele>
        <time>2021-07-11T08:27:33</time>
      </trkpt>
      <trkpt lat="47.93001" lon="2.05465">
        <ele>120.2</ele>
        <time>2021-07-11T08:27:34</time>
      </trkpt>
      <trkpt lat="47.92998" lon="2.05465">
        <ele>120.4</ele>
        <time>2021-07-11T08:27:35</time>
      </trkpt>
      <trkpt lat="47.92996" lon="2.05468">
        <ele>120.4</ele>
        <time>2021-07-11T08:27:36</time>
      </trkpt>
      <trkpt lat="47.92994" lon="2.05472">
        <ele>120.4</ele>
        <time>2021-07-11T08:27:37</time>
      </trkpt>
      <trkpt lat="47.92993" lon="2.05476">
        <ele>120.6</ele>
        <time>2021-07-11T08:27:38</time>
      </trkpt>
      <trkpt lat="47.9299" lon="2.05479">
        <ele>120.6</ele>
        <time>2021-07-11T08:27:39</time>
      </trkpt>
      <trkpt lat="47.92988" lon="2.05482">
        <ele>120.8</ele>
        <time>2021-07-11T08:27:40</time>
      </trkpt>
      <trkpt lat="47.92985" lon="2.05483">
        <ele>120.8</ele>
        <time>2021-07-11T08:27:41</time>
      </trkpt>
      <trkpt lat="47.92981" lon="2.05484">
        <ele>121</ele>
        <time>2021-07-11T08:27:42</time>
      </trkpt>
      <trkpt lat="47.92979" lon="2.05483">
        <ele>121</ele>
        <time>2021-07-11T08:27:43</time>
      </trkpt>
      <trkpt lat="47.92976" lon="2.05482">
        <ele>121</ele>
        <time>2021-07-11T08:27:44</time>
      </trkpt>
      <trkpt lat="47.92973" lon="2.05481">
        <ele>121</ele>
        <time>2021-07-11T08:27:45</time>
      </trkpt>
      <trkpt lat="47.92969" lon="2.05479">
        <ele>121</ele>
        <time>2021-07-11T08:27:46</time>
      </trkpt>
      <trkpt lat="47.92966" lon="2.05478">
        <ele>121</ele>
        <time>2021-07-11T08:27:47</time>
      </trkpt>
      <trkpt lat="47.92962" lon="2.05477">
        <ele>121</ele>
        <time>2021-07-11T08:27:48</time>
      </trkpt>
      <trkpt lat="47.92958" lon="2.05476">
        <ele>121</ele>
        <time>2021-07-11T08:27:49</time>
      </trkpt>
      <trkpt lat="47.92954" lon="2.05475">
        <ele>121.2</ele>
        <time>2021-07-11T08:27:50</time>
      </trkpt>
      <trkpt lat="47.9295" lon="2.05473">
        <ele>121</ele>
        <time>2021-07-11T08:27:51</time>
      </trkpt>
      <trkpt lat="47.92946" lon="2.05471">
        <ele>121</ele>
        <time>2021-07-11T08:27:52</time>
      </trkpt>
      <trkpt lat="47.92942" lon="2.0547">
        <ele>121</ele>
        <time>2021-07-11T08:27:53</time>
      </trkpt>
      <trkpt lat="47.92938" lon="2.05468">
        <ele>121</ele>
        <time>2021-07-11T08:27:54</time>
      </trkpt>
      <trkpt lat="47.92934" lon="2.05467">
        <ele>121</ele>
        <time>2021-07-11T08:27:55</time>
      </trkpt>
      <trkpt lat="47.9293" lon="2.05466">
        <ele>121</ele>
        <time>2021-07-11T08:27:56</time>
      </trkpt>
      <trkpt lat="47.92926" lon="2.05464">
        <ele>120.6</ele>
        <time>2021-07-11T08:27:57</time>
      </trkpt>
      <trkpt lat="47.92921" lon="2.05461">
        <ele>120.6</ele>
        <time>2021-07-11T08:27:58</time>
      </trkpt>
      <trkpt lat="47.92916" lon="2.05459">
        <ele>120.4</ele>
        <time>2021-07-11T08:27:59</time>
      </trkpt>
      <trkpt lat="47.92911" lon="2.05457">
        <ele>120.4</ele>
        <time>2021-07-11T08:28:00</time>
      </trkpt>
      <trkpt lat="47.92907" lon="2.05454">
        <ele>120.2</ele>
        <time>2021-07-11T08:28:01</time>
      </trkpt>
      <trkpt lat="47.92903" lon="2.05452">
        <ele>120.2</ele>
        <time>2021-07-11T08:28:02</time>
      </trkpt>
      <trkpt lat="47.92899" lon="2.0545">
        <ele>120</ele>
        <time>2021-07-11T08:28:03</time>
      </trkpt>
      <trkpt lat="47.92895" lon="2.05448">
        <ele>120</ele>
        <time>2021-07-11T08:28:04</time>
      </trkpt>
      <trkpt lat="47.92891" lon="2.05446">
        <ele>120</ele>
        <time>2021-07-11T08:28:05</time>
      </trkpt>
      <trkpt lat="47.92886" lon="2.05443">
        <ele>120</ele>
        <time>2021-07-11T08:28:06</time>
      </trkpt>
      <trkpt lat="47.92881" lon="2.0544">
        <ele>120</ele>
        <time>2021-07-11T08:28:08</time>
      </trkpt>
      <trkpt lat="47.92872" lon="2.05436">
        <ele>120</ele>
        <time>2021-07-11T08:28:09</time>
      </trkpt>
      <trkpt lat="47.92868" lon="2.05434">
        <ele>119.8</ele>
        <time>2021-07-11T08:28:10</time>
      </trkpt>
      <trkpt lat="47.92863" lon="2.05431">
        <ele>119.8</ele>
        <time>2021-07-11T08:28:11</time>
      </trkpt>
      <trkpt lat="47.92859" lon="2.0543">
        <ele>119.8</ele>
        <time>2021-07-11T08:28:12</time>
      </trkpt>
      <trkpt lat="47.92855" lon="2.05428">
        <ele>119.8</ele>
        <time>2021-07-11T08:28:13</time>
      </trkpt>
      <trkpt lat="47.9285" lon="2.05425">
        <ele>119.8</ele>
        <time>2021-07-11T08:28:14</time>
      </trkpt>
      <trkpt lat="47.92846" lon="2.05423">
        <ele>119.6</ele>
        <time>2021-07-11T08:28:15</time>
      </trkpt>
      <trkpt lat="47.92842" lon="2.05421">
        <ele>119.6</ele>
        <time>2021-07-11T08:28:16</time>
      </trkpt>
      <trkpt lat="47.92837" lon="2.05419">
        <ele>119.6</ele>
        <time>2021-07-11T08:28:17</time>
      </trkpt>
      <trkpt lat="47.92833" lon="2.05417">
        <ele>119.6</ele>
        <time>2021-07-11T08:28:18</time>
      </trkpt>
      <trkpt lat="47.92829" lon="2.05415">
        <ele>119.6</ele>
        <time>2021-07-11T08:28:19</time>
      </trkpt>
      <trkpt lat="47.92825" lon="2.05413">
        <ele>119.8</ele>
        <time>2021-07-11T08:28:20</time>
      </trkpt>
      <trkpt lat="47.9282" lon="2.05411">
        <ele>119.6</ele>
        <time>2021-07-11T08:28:21</time>
      </trkpt>
      <trkpt lat="47.92816" lon="2.05409">
        <ele>119.6</ele>
        <time>2021-07-11T08:28:22</time>
      </trkpt>
      <trkpt lat="47.92812" lon="2.05408">
        <ele>119.6</ele>
        <time>2021-07-11T08:28:23</time>
      </trkpt>
      <trkpt lat="47.92807" lon="2.05406">
        <ele>119.6</ele>
        <time>2021-07-11T08:28:24</time>
      </trkpt>
      <trkpt lat="47.92803" lon="2.05404">
        <ele>119.6</ele>
        <time>2021-07-11T08:28:25</time>
      </trkpt>
      <trkpt lat="47.92798" lon="2.05402">
        <ele>119.6</ele>
        <time>2021-07-11T08:28:26</time>
      </trkpt>
      <trkpt lat="47.92794" lon="2.054">
        <ele>119.6</ele>
        <time>2021-07-11T08:28:27</time>
      </trkpt>
      <trkpt lat="47.9279" lon="2.05399">
        <ele>119.6</ele>
        <time>2021-07-11T08:28:28</time>
      </trkpt>
      <trkpt lat="47.92785" lon="2.05397">
        <ele>119.6</ele>
        <time>2021-07-11T08:28:29</time>
      </trkpt>
      <trkpt lat="47.92781" lon="2.05395">
        <ele>119.6</ele>
        <time>2021-07-11T08:28:30</time>
      </trkpt>
      <trkpt lat="47.92777" lon="2.05394">
        <ele>119.6</ele>
        <time>2021-07-11T08:28:31</time>
      </trkpt>
      <trkpt lat="47.92772" lon="2.05393">
        <ele>119.6</ele>
        <time>2021-07-11T08:28:32</time>
      </trkpt>
      <trkpt lat="47.92768" lon="2.05392">
        <ele>119.6</ele>
        <time>2021-07-11T08:28:33</time>
      </trkpt>
      <trkpt lat="47.92764" lon="2.0539">
        <ele>119.6</ele>
        <time>2021-07-11T08:28:34</time>
      </trkpt>
      <trkpt lat="47.92759" lon="2.05389">
        <ele>119.6</ele>
        <time>2021-07-11T08:28:35</time>
      </trkpt>
      <trkpt lat="47.92755" lon="2.05387">
        <ele>119.6</ele>
        <time>2021-07-11T08:28:36</time>
      </trkpt>
      <trkpt lat="47.92751" lon="2.05386">
        <ele>119.8</ele>
        <time>2021-07-11T08:28:37</time>
      </trkpt>
      <trkpt lat="47.92746" lon="2.05385">
        <ele>119.8</ele>
        <time>2021-07-11T08:28:38</time>
      </trkpt>
      <trkpt lat="47.92742" lon="2.05384">
        <ele>119.8</ele>
        <time>2021-07-11T08:28:39</time>
      </trkpt>
      <trkpt lat="47.92738" lon="2.05383">
        <ele>119.8</ele>
        <time>2021-07-11T08:28:40</time>
      </trkpt>
      <trkpt lat="47.92734" lon="2.05381">
        <ele>119.8</ele>
        <time>2021-07-11T08:28:41</time>
      </trkpt>
      <trkpt lat="47.9273" lon="2.0538">
        <ele>120</ele>
        <time>2021-07-11T08:28:42</time>
      </trkpt>
      <trkpt lat="47.92726" lon="2.05379">
        <ele>120</ele>
        <time>2021-07-11T08:28:43</time>
      </trkpt>
      <trkpt lat="47.92722" lon="2.05377">
        <ele>120</ele>
        <time>2021-07-11T08:28:44</time>
      </trkpt>
      <trkpt lat="47.92719" lon="2.05375">
        <ele>120</ele>
        <time>2021-07-11T08:28:45</time>
      </trkpt>
      <trkpt lat="47.92716" lon="2.05373">
        <ele>120</ele>
        <time>2021-07-11T08:28:46</time>
      </trkpt>
      <trkpt lat="47.92713" lon="2.05372">
        <ele>120</ele>
        <time>2021-07-11T08:28:47</time>
      </trkpt>
      <trkpt lat="47.9271" lon="2.05371">
        <ele>120</ele>
        <time>2021-07-11T08:28:48</time>
      </trkpt>
      <trkpt lat="47.92707" lon="2.0537">
        <ele>120</ele>
        <time>2021-07-11T08:28:49</time>
      </trkpt>
      <trkpt lat="47.92704" lon="2.05369">
        <ele>120</ele>
        <time>2021-07-11T08:28:50</time>
      </trkpt>
      <trkpt lat="47.92701" lon="2.05367">
        <ele>119.8</ele>
        <time>2021-07-11T08:28:51</time>
      </trkpt>
      <trkpt lat="47.92698" lon="2.05366">
        <ele>119.8</ele>
        <time>2021-07-11T08:28:52</time>
      </trkpt>
      <trkpt lat="47.92695" lon="2.05364">
        <ele>119.8</ele>
        <time>2021-07-11T08:28:53</time>
      </trkpt>
      <trkpt lat="47.92692" lon="2.05363">
        <ele>119.8</ele>
        <time>2021-07-11T08:28:54</time>
      </trkpt>
      <trkpt lat="47.9269" lon="2.05362">
        <ele>119.8</ele>
        <time>2021-07-11T08:28:55</time>
      </trkpt>
      <trkpt lat="47.92687" lon="2.05361">
        <ele>119.8</ele>
        <time>2021-07-11T08:28:56</time>
      </trkpt>
      <trkpt lat="47.92684" lon="2.0536">
        <ele>119.8</ele>
        <time>2021-07-11T08:28:57</time>
      </trkpt>
      <trkpt lat="47.92681" lon="2.05358">
        <ele>119.8</ele>
        <time>2021-07-11T08:28:58</time>
      </trkpt>
      <trkpt lat="47.92679" lon="2.05357">
        <ele>119.8</ele>
        <time>2021-07-11T08:28:59</time>
      </trkpt>
      <trkpt lat="47.92676" lon="2.05356">
        <ele>119.6</ele>
        <time>2021-07-11T08:29:00</time>
      </trkpt>
      <trkpt lat="47.92672" lon="2.05355">
        <ele>119.6</ele>
        <time>2021-07-11T08:29:01</time>
      </trkpt>
      <trkpt lat="47.92669" lon="2.05354">
        <ele>119.8</ele>
        <time>2021-07-11T08:29:02</time>
      </trkpt>
      <trkpt lat="47.92666" lon="2.05352">
        <ele>119.6</ele>
        <time>2021-07-11T08:29:03</time>
      </trkpt>
      <trkpt lat="47.92663" lon="2.0535">
        <ele>119.6</ele>
        <time>2021-07-11T08:29:04</time>
      </trkpt>
      <trkpt lat="47.9266" lon="2.05349">
        <ele>119.6</ele>
        <time>2021-07-11T08:29:05</time>
      </trkpt>
      <trkpt lat="47.92657" lon="2.05347">
        <ele>119.6</ele>
        <time>2021-07-11T08:29:06</time>
      </trkpt>
      <trkpt lat="47.92653" lon="2.05346">
        <ele>119.6</ele>
        <time>2021-07-11T08:29:07</time>
      </trkpt>
      <trkpt lat="47.9265" lon="2.05344">
        <ele>119.4</ele>
        <time>2021-07-11T08:29:08</time>
      </trkpt>
      <trkpt lat="47.92647" lon="2.05342">
        <ele>119.2</ele>
        <time>2021-07-11T08:29:09</time>
      </trkpt>
      <trkpt lat="47.92644" lon="2.05339">
        <ele>119.2</ele>
        <time>2021-07-11T08:29:10</time>
      </trkpt>
      <trkpt lat="47.9264" lon="2.05338">
        <ele>119.2</ele>
        <time>2021-07-11T08:29:11</time>
      </trkpt>
      <trkpt lat="47.92637" lon="2.05336">
        <ele>119.2</ele>
        <time>2021-07-11T08:29:12</time>
      </trkpt>
      <trkpt lat="47.92634" lon="2.05334">
        <ele>119.2</ele>
        <time>2021-07-11T08:29:13</time>
      </trkpt>
      <trkpt lat="47.92631" lon="2.05333">
        <ele>119</ele>
        <time>2021-07-11T08:29:14</time>
      </trkpt>
      <trkpt lat="47.92627" lon="2.05331">
        <ele>119</ele>
        <time>2021-07-11T08:29:15</time>
      </trkpt>
      <trkpt lat="47.92624" lon="2.05329">
        <ele>119</ele>
        <time>2021-07-11T08:29:16</time>
      </trkpt>
      <trkpt lat="47.92621" lon="2.05328">
        <ele>119</ele>
        <time>2021-07-11T08:29:17</time>
      </trkpt>
      <trkpt lat="47.92618" lon="2.05326">
        <ele>119</ele>
        <time>2021-07-11T08:29:18</time>
      </trkpt>
      <trkpt lat="47.92615" lon="2.05325">
        <ele>119</ele>
        <time>2021-07-11T08:29:19</time>
      </trkpt>
      <trkpt lat="47.92613" lon="2.05323">
        <ele>119</ele>
        <time>2021-07-11T08:29:20</time>
      </trkpt>
      <trkpt lat="47.9261" lon="2.05322">
        <ele>119</ele>
        <time>2021-07-11T08:29:21</time>
      </trkpt>
      <trkpt lat="47.92608" lon="2.0532">
        <ele>119</ele>
        <time>2021-07-11T08:29:22</time>
      </trkpt>
      <trkpt lat="47.92605" lon="2.05319">
        <ele>119</ele>
        <time>2021-07-11T08:29:23</time>
      </trkpt>
      <trkpt lat="47.92603" lon="2.05318">
        <ele>119</ele>
        <time>2021-07-11T08:29:24</time>
      </trkpt>
      <trkpt lat="47.92601" lon="2.05316">
        <ele>119</ele>
        <time>2021-07-11T08:29:25</time>
      </trkpt>
      <trkpt lat="47.92599" lon="2.05315">
        <ele>119</ele>
        <time>2021-07-11T08:29:26</time>
      </trkpt>
      <trkpt lat="47.92597" lon="2.05314">
        <ele>119</ele>
        <time>2021-07-11T08:29:27</time>
      </trkpt>
      <trkpt lat="47.92594" lon="2.05313">
        <ele>119</ele>
        <time>2021-07-11T08:29:28</time>
      </trkpt>
      <trkpt lat="47.92592" lon="2.05312">
        <ele>119</ele>
        <time>2021-07-11T08:29:29</time>
      </trkpt>
      <trkpt lat="47.92589" lon="2.0531">
        <ele>119</ele>
        <time>2021-07-11T08:29:30</time>
      </trkpt>
      <trkpt lat="47.92587" lon="2.05309">
        <ele>119.2</ele>
        <time>2021-07-11T08:29:31</time>
      </trkpt>
      <trkpt lat="47.92585" lon="2.05307">
        <ele>119.2</ele>
        <time>2021-07-11T08:29:32</time>
      </trkpt>
      <trkpt lat="47.92582" lon="2.05305">
        <ele>119</ele>
        <time>2021-07-11T08:29:33</time>
      </trkpt>
      <trkpt lat="47.92579" lon="2.05304">
        <ele>119</ele>
        <time>2021-07-11T08:29:34</time>
      </trkpt>
      <trkpt lat="47.92577" lon="2.05302">
        <ele>119.2</ele>
        <time>2021-07-11T08:29:35</time>
      </trkpt>
      <trkpt lat="47.92574" lon="2.05301">
        <ele>119</ele>
        <time>2021-07-11T08:29:36</time>
      </trkpt>
      <trkpt lat="47.92571" lon="2.05299">
        <ele>119</ele>
        <time>2021-07-11T08:29:37</time>
      </trkpt>
      <trkpt lat="47.92568" lon="2.05298">
        <ele>119</ele>
        <time>2021-07-11T08:29:38</time>
      </trkpt>
      <trkpt lat="47.92566" lon="2.05298">
        <ele>119</ele>
        <time>2021-07-11T08:29:39</time>
      </trkpt>
      <trkpt lat="47.92563" lon="2.05298">
        <ele>119</ele>
        <time>2021-07-11T08:29:40</time>
      </trkpt>
      <trkpt lat="47.92562" lon="2.053">
        <ele>119</ele>
        <time>2021-07-11T08:29:41</time>
      </trkpt>
      <trkpt lat="47.92561" lon="2.05303">
        <ele>119</ele>
        <time>2021-07-11T08:29:42</time>
      </trkpt>
      <trkpt lat="47.92561" lon="2.05306">
        <ele>119</ele>
        <time>2021-07-11T08:29:43</time>
      </trkpt>
      <trkpt lat="47.9256" lon="2.05308">
        <ele>119</ele>
        <time>2021-07-11T08:29:44</time>
      </trkpt>
      <trkpt lat="47.9256" lon="2.05311">
        <ele>119.2</ele>
        <time>2021-07-11T08:29:45</time>
      </trkpt>
      <trkpt lat="47.92559" lon="2.05313">
        <ele>119.2</ele>
        <time>2021-07-11T08:29:46</time>
      </trkpt>
      <trkpt lat="47.92559" lon="2.05315">
        <ele>119.2</ele>
        <time>2021-07-11T08:29:47</time>
      </trkpt>
      <trkpt lat="47.92558" lon="2.05317">
        <ele>119.4</ele>
        <time>2021-07-11T08:29:48</time>
      </trkpt>
      <trkpt lat="47.92556" lon="2.05318">
        <ele>119.4</ele>
        <time>2021-07-11T08:29:49</time>
      </trkpt>
      <trkpt lat="47.92555" lon="2.0532">
        <ele>119.4</ele>
        <time>2021-07-11T08:29:50</time>
      </trkpt>
      <trkpt lat="47.92555" lon="2.05322">
        <ele>119.4</ele>
        <time>2021-07-11T08:29:51</time>
      </trkpt>
      <trkpt lat="47.92556" lon="2.05324">
        <ele>119.4</ele>
        <time>2021-07-11T08:29:52</time>
      </trkpt>
      <trkpt lat="47.92557" lon="2.05324">
        <ele>119.4</ele>
        <time>2021-07-11T08:29:53</time>
      </trkpt>
      <trkpt lat="47.92557" lon="2.05321">
        <ele>119.4</ele>
        <time>2021-07-11T08:29:54</time>
      </trkpt>
      <trkpt lat="47.92557" lon="2.05319">
        <ele>119.4</ele>
        <time>2021-07-11T08:29:55</time>
      </trkpt>
      <trkpt lat="47.92558" lon="2.05315">
        <ele>119.4</ele>
        <time>2021-07-11T08:29:56</time>
      </trkpt>
      <trkpt lat="47.92558" lon="2.05311">
        <ele>119.4</ele>
        <time>2021-07-11T08:29:57</time>
      </trkpt>
      <trkpt lat="47.92558" lon="2.05306">
        <ele>119.4</ele>
        <time>2021-07-11T08:29:58</time>
      </trkpt>
      <trkpt lat="47.92558" lon="2.05301">
        <ele>119.2</ele>
        <time>2021-07-11T08:29:59</time>
      </trkpt>
      <trkpt lat="47.92557" lon="2.05297">
        <ele>119.2</ele>
        <time>2021-07-11T08:30:00</time>
      </trkpt>
      <trkpt lat="47.92555" lon="2.05294">
        <ele>119.2</ele>
        <time>2021-07-11T08:30:01</time>
      </trkpt>
      <trkpt lat="47.92552" lon="2.05292">
        <ele>119.2</ele>
        <time>2021-07-11T08:30:02</time>
      </trkpt>
      <trkpt lat="47.92548" lon="2.05291">
        <ele>119.4</ele>
        <time>2021-07-11T08:30:03</time>
      </trkpt>
      <trkpt lat="47.92544" lon="2.05291">
        <ele>119.4</ele>
        <time>2021-07-11T08:30:04</time>
      </trkpt>
      <trkpt lat="47.9254" lon="2.05291">
        <ele>119.6</ele>
        <time>2021-07-11T08:30:05</time>
      </trkpt>
      <trkpt lat="47.92535" lon="2.05291">
        <ele>119.6</ele>
        <time>2021-07-11T08:30:06</time>
      </trkpt>
      <trkpt lat="47.92531" lon="2.05291">
        <ele>119.8</ele>
        <time>2021-07-11T08:30:07</time>
      </trkpt>
      <trkpt lat="47.92526" lon="2.0529">
        <ele>119.8</ele>
        <time>2021-07-11T08:30:08</time>
      </trkpt>
      <trkpt lat="47.92522" lon="2.0529">
        <ele>119.6</ele>
        <time>2021-07-11T08:30:09</time>
      </trkpt>
      <trkpt lat="47.92518" lon="2.0529">
        <ele>119.8</ele>
        <time>2021-07-11T08:30:10</time>
      </trkpt>
      <trkpt lat="47.92514" lon="2.0529">
        <ele>119.8</ele>
        <time>2021-07-11T08:30:11</time>
      </trkpt>
      <trkpt lat="47.9251" lon="2.0529">
        <ele>119.8</ele>
        <time>2021-07-11T08:30:12</time>
      </trkpt>
      <trkpt lat="47.92505" lon="2.0529">
        <ele>120</ele>
        <time>2021-07-11T08:30:13</time>
      </trkpt>
      <trkpt lat="47.92501" lon="2.0529">
        <ele>120.2</ele>
        <time>2021-07-11T08:30:14</time>
      </trkpt>
      <trkpt lat="47.92497" lon="2.0529">
        <ele>120.2</ele>
        <time>2021-07-11T08:30:15</time>
      </trkpt>
      <trkpt lat="47.92493" lon="2.0529">
        <ele>120.4</ele>
        <time>2021-07-11T08:30:16</time>
      </trkpt>
      <trkpt lat="47.92488" lon="2.0529">
        <ele>120.4</ele>
        <time>2021-07-11T08:30:17</time>
      </trkpt>
      <trkpt lat="47.92485" lon="2.05291">
        <ele>120.4</ele>
        <time>2021-07-11T08:30:18</time>
      </trkpt>
      <trkpt lat="47.92481" lon="2.05291">
        <ele>120.6</ele>
        <time>2021-07-11T08:30:19</time>
      </trkpt>
      <trkpt lat="47.92477" lon="2.05291">
        <ele>120.6</ele>
        <time>2021-07-11T08:30:20</time>
      </trkpt>
      <trkpt lat="47.92474" lon="2.0529">
        <ele>120.8</ele>
        <time>2021-07-11T08:30:21</time>
      </trkpt>
      <trkpt lat="47.9247" lon="2.0529">
        <ele>120.8</ele>
        <time>2021-07-11T08:30:22</time>
      </trkpt>
      <trkpt lat="47.92466" lon="2.0529">
        <ele>121</ele>
        <time>2021-07-11T08:30:23</time>
      </trkpt>
      <trkpt lat="47.92462" lon="2.0529">
        <ele>121</ele>
        <time>2021-07-11T08:30:24</time>
      </trkpt>
      <trkpt lat="47.92458" lon="2.0529">
        <ele>121.2</ele>
        <time>2021-07-11T08:30:25</time>
      </trkpt>
      <trkpt lat="47.92454" lon="2.0529">
        <ele>121.2</ele>
        <time>2021-07-11T08:30:26</time>
      </trkpt>
      <trkpt lat="47.92449" lon="2.0529">
        <ele>121.4</ele>
        <time>2021-07-11T08:30:27</time>
      </trkpt>
      <trkpt lat="47.92446" lon="2.05293">
        <ele>121.4</ele>
        <time>2021-07-11T08:30:28</time>
      </trkpt>
      <trkpt lat="47.92442" lon="2.05297">
        <ele>121.6</ele>
        <time>2021-07-11T08:30:29</time>
      </trkpt>
      <trkpt lat="47.9244" lon="2.05303">
        <ele>121.8</ele>
        <time>2021-07-11T08:30:30</time>
      </trkpt>
      <trkpt lat="47.9244" lon="2.05309">
        <ele>121.8</ele>
        <time>2021-07-11T08:30:31</time>
      </trkpt>
      <trkpt lat="47.9244" lon="2.05315">
        <ele>122</ele>
        <time>2021-07-11T08:30:32</time>
      </trkpt>
      <trkpt lat="47.92439" lon="2.0532">
        <ele>122.2</ele>
        <time>2021-07-11T08:30:33</time>
      </trkpt>
      <trkpt lat="47.92439" lon="2.05325">
        <ele>122.2</ele>
        <time>2021-07-11T08:30:34</time>
      </trkpt>
      <trkpt lat="47.92438" lon="2.05329">
        <ele>122.4</ele>
        <time>2021-07-11T08:30:35</time>
      </trkpt>
      <trkpt lat="47.92439" lon="2.05332">
        <ele>122.4</ele>
        <time>2021-07-11T08:30:36</time>
      </trkpt>
      <trkpt lat="47.9244" lon="2.05333">
        <ele>122.4</ele>
        <time>2021-07-11T08:30:37</time>
      </trkpt>
      <trkpt lat="47.92441" lon="2.05331">
        <ele>122.4</ele>
        <time>2021-07-11T08:30:38</time>
      </trkpt>
      <trkpt lat="47.92441" lon="2.05329">
        <ele>122.2</ele>
        <time>2021-07-11T08:30:39</time>
      </trkpt>
      <trkpt lat="47.9244" lon="2.05326">
        <ele>122.4</ele>
        <time>2021-07-11T08:30:40</time>
      </trkpt>
      <trkpt lat="47.92439" lon="2.05322">
        <ele>122.2</ele>
        <time>2021-07-11T08:30:41</time>
      </trkpt>
      <trkpt lat="47.92438" lon="2.05318">
        <ele>122.2</ele>
        <time>2021-07-11T08:30:42</time>
      </trkpt>
      <trkpt lat="47.92439" lon="2.05314">
        <ele>122</ele>
        <time>2021-07-11T08:30:43</time>
      </trkpt>
      <trkpt lat="47.9244" lon="2.0531">
        <ele>122</ele>
        <time>2021-07-11T08:30:44</time>
      </trkpt>
      <trkpt lat="47.9244" lon="2.05305">
        <ele>122</ele>
        <time>2021-07-11T08:30:45</time>
      </trkpt>
      <trkpt lat="47.92441" lon="2.053">
        <ele>121.8</ele>
        <time>2021-07-11T08:30:46</time>
      </trkpt>
      <trkpt lat="47.9244" lon="2.05296">
        <ele>121.8</ele>
        <time>2021-07-11T08:30:47</time>
      </trkpt>
      <trkpt lat="47.92438" lon="2.05292">
        <ele>121.8</ele>
        <time>2021-07-11T08:30:48</time>
      </trkpt>
      <trkpt lat="47.92435" lon="2.0529">
        <ele>121.6</ele>
        <time>2021-07-11T08:30:49</time>
      </trkpt>
      <trkpt lat="47.92431" lon="2.0529">
        <ele>121.8</ele>
        <time>2021-07-11T08:30:50</time>
      </trkpt>
      <trkpt lat="47.92427" lon="2.0529">
        <ele>121.6</ele>
        <time>2021-07-11T08:30:51</time>
      </trkpt>
      <trkpt lat="47.92423" lon="2.0529">
        <ele>121.6</ele>
        <time>2021-07-11T08:30:52</time>
      </trkpt>
      <trkpt lat="47.92419" lon="2.0529">
        <ele>121.8</ele>
        <time>2021-07-11T08:30:53</time>
      </trkpt>
      <trkpt lat="47.92416" lon="2.0529">
        <ele>121.6</ele>
        <time>2021-07-11T08:30:54</time>
      </trkpt>
      <trkpt lat="47.92413" lon="2.05289">
        <ele>121.8</ele>
        <time>2021-07-11T08:30:55</time>
      </trkpt>
      <trkpt lat="47.92409" lon="2.05289">
        <ele>121.8</ele>
        <time>2021-07-11T08:30:56</time>
      </trkpt>
      <trkpt lat="47.92406" lon="2.05287">
        <ele>121.8</ele>
        <time>2021-07-11T08:30:57</time>
      </trkpt>
      <trkpt lat="47.92402" lon="2.05286">
        <ele>121.6</ele>
        <time>2021-07-11T08:30:58</time>
      </trkpt>
      <trkpt lat="47.92398" lon="2.05285">
        <ele>121.6</ele>
        <time>2021-07-11T08:30:59</time>
      </trkpt>
      <trkpt lat="47.92393" lon="2.05283">
        <ele>121.6</ele>
        <time>2021-07-11T08:31:00</time>
      </trkpt>
      <trkpt lat="47.92389" lon="2.05282">
        <ele>121.6</ele>
        <time>2021-07-11T08:31:01</time>
      </trkpt>
      <trkpt lat="47.92384" lon="2.0528">
        <ele>121.8</ele>
        <time>2021-07-11T08:31:02</time>
      </trkpt>
      <trkpt lat="47.9238" lon="2.05278">
        <ele>121.6</ele>
        <time>2021-07-11T08:31:03</time>
      </trkpt>
      <trkpt lat="47.92375" lon="2.05276">
        <ele>121.6</ele>
        <time>2021-07-11T08:31:04</time>
      </trkpt>
      <trkpt lat="47.9237" lon="2.05274">
        <ele>121.8</ele>
        <time>2021-07-11T08:31:06</time>
      </trkpt>
      <trkpt lat="47.92359" lon="2.0527">
        <ele>121.8</ele>
        <time>2021-07-11T08:31:08</time>
      </trkpt>
      <trkpt lat="47.92349" lon="2.05266">
        <ele>121.8</ele>
        <time>2021-07-11T08:31:10</time>
      </trkpt>
      <trkpt lat="47.92344" lon="2.05265">
        <ele>121.8</ele>
        <time>2021-07-11T08:31:11</time>
      </trkpt>
      <trkpt lat="47.92338" lon="2.05264">
        <ele>121.8</ele>
        <time>2021-07-11T08:31:12</time>
      </trkpt>
      <trkpt lat="47.92333" lon="2.05262">
        <ele>121.8</ele>
        <time>2021-07-11T08:31:13</time>
      </trkpt>
      <trkpt lat="47.92323" lon="2.05261">
        <ele>122</ele>
        <time>2021-07-11T08:31:15</time>
      </trkpt>
      <trkpt lat="47.92318" lon="2.05261">
        <ele>122.2</ele>
        <time>2021-07-11T08:31:16</time>
      </trkpt>
      <trkpt lat="47.92313" lon="2.0526">
        <ele>122.2</ele>
        <time>2021-07-11T08:31:17</time>
      </trkpt>
      <trkpt lat="47.92308" lon="2.05259">
        <ele>122.2</ele>
        <time>2021-07-11T08:31:18</time>
      </trkpt>
      <trkpt lat="47.92303" lon="2.05258">
        <ele>122.4</ele>
        <time>2021-07-11T08:31:19</time>
      </trkpt>
      <trkpt lat="47.92298" lon="2.05256">
        <ele>122.4</ele>
        <time>2021-07-11T08:31:20</time>
      </trkpt>
      <trkpt lat="47.92293" lon="2.05255">
        <ele>122.4</ele>
        <time>2021-07-11T08:31:21</time>
      </trkpt>
      <trkpt lat="47.92284" lon="2.05251">
        <ele>122.4</ele>
        <time>2021-07-11T08:31:23</time>
      </trkpt>
      <trkpt lat="47.92281" lon="2.05252">
        <ele>122.4</ele>
        <time>2021-07-11T08:31:24</time>
      </trkpt>
      <trkpt lat="47.92279" lon="2.05257">
        <ele>122.4</ele>
        <time>2021-07-11T08:31:25</time>
      </trkpt>
      <trkpt lat="47.92278" lon="2.05263">
        <ele>122.6</ele>
        <time>2021-07-11T08:31:26</time>
      </trkpt>
      <trkpt lat="47.92279" lon="2.05269">
        <ele>122.6</ele>
        <time>2021-07-11T08:31:27</time>
      </trkpt>
      <trkpt lat="47.92279" lon="2.05276">
        <ele>122.6</ele>
        <time>2021-07-11T08:31:28</time>
      </trkpt>
      <trkpt lat="47.9228" lon="2.05284">
        <ele>122.8</ele>
        <time>2021-07-11T08:31:29</time>
      </trkpt>
      <trkpt lat="47.9228" lon="2.05291">
        <ele>123</ele>
        <time>2021-07-11T08:31:30</time>
      </trkpt>
      <trkpt lat="47.9228" lon="2.05299">
        <ele>123.2</ele>
        <time>2021-07-11T08:31:31</time>
      </trkpt>
      <trkpt lat="47.9228" lon="2.05313">
        <ele>123.4</ele>
        <time>2021-07-11T08:31:33</time>
      </trkpt>
      <trkpt lat="47.9228" lon="2.05321">
        <ele>123.4</ele>
        <time>2021-07-11T08:31:34</time>
      </trkpt>
      <trkpt lat="47.92279" lon="2.05328">
        <ele>123.2</ele>
        <time>2021-07-11T08:31:35</time>
      </trkpt>
      <trkpt lat="47.92278" lon="2.05337">
        <ele>123.2</ele>
        <time>2021-07-11T08:31:36</time>
      </trkpt>
      <trkpt lat="47.92277" lon="2.05345">
        <ele>123</ele>
        <time>2021-07-11T08:31:37</time>
      </trkpt>
      <trkpt lat="47.92277" lon="2.05353">
        <ele>123</ele>
        <time>2021-07-11T08:31:38</time>
      </trkpt>
      <trkpt lat="47.92276" lon="2.05362">
        <ele>122.8</ele>
        <time>2021-07-11T08:31:39</time>
      </trkpt>
      <trkpt lat="47.92275" lon="2.05371">
        <ele>122.8</ele>
        <time>2021-07-11T08:31:40</time>
      </trkpt>
      <trkpt lat="47.92274" lon="2.05381">
        <ele>122.8</ele>
        <time>2021-07-11T08:31:41</time>
      </trkpt>
      <trkpt lat="47.92272" lon="2.054">
        <ele>122.6</ele>
        <time>2021-07-11T08:31:43</time>
      </trkpt>
      <trkpt lat="47.92271" lon="2.05409">
        <ele>122.4</ele>
        <time>2021-07-11T08:31:44</time>
      </trkpt>
      <trkpt lat="47.92271" lon="2.05418">
        <ele>122.4</ele>
        <time>2021-07-11T08:31:45</time>
      </trkpt>
      <trkpt lat="47.92269" lon="2.05428">
        <ele>122.4</ele>
        <time>2021-07-11T08:31:46</time>
      </trkpt>
      <trkpt lat="47.92269" lon="2.05437">
        <ele>122.4</ele>
        <time>2021-07-11T08:31:47</time>
      </trkpt>
      <trkpt lat="47.92268" lon="2.05447">
        <ele>122.4</ele>
        <time>2021-07-11T08:31:48</time>
      </trkpt>
      <trkpt lat="47.92266" lon="2.05466">
        <ele>122.4</ele>
        <time>2021-07-11T08:31:49</time>
      </trkpt>
      <trkpt lat="47.92265" lon="2.05475">
        <ele>122.2</ele>
        <time>2021-07-11T08:31:50</time>
      </trkpt>
      <trkpt lat="47.92265" lon="2.05484">
        <ele>122.2</ele>
        <time>2021-07-11T08:31:51</time>
      </trkpt>
      <trkpt lat="47.92265" lon="2.05494">
        <ele>122.2</ele>
        <time>2021-07-11T08:31:52</time>
      </trkpt>
      <trkpt lat="47.92265" lon="2.05503">
        <ele>122.2</ele>
        <time>2021-07-11T08:31:53</time>
      </trkpt>
      <trkpt lat="47.92264" lon="2.05512">
        <ele>122.2</ele>
        <time>2021-07-11T08:31:54</time>
      </trkpt>
      <trkpt lat="47.92263" lon="2.05521">
        <ele>122.2</ele>
        <time>2021-07-11T08:31:55</time>
      </trkpt>
      <trkpt lat="47.92262" lon="2.0553">
        <ele>122.2</ele>
        <time>2021-07-11T08:31:56</time>
      </trkpt>
      <trkpt lat="47.92261" lon="2.05539">
        <ele>122.4</ele>
        <time>2021-07-11T08:31:57</time>
      </trkpt>
      <trkpt lat="47.9226" lon="2.05547">
        <ele>122.4</ele>
        <time>2021-07-11T08:31:58</time>
      </trkpt>
      <trkpt lat="47.92259" lon="2.05556">
        <ele>122.4</ele>
        <time>2021-07-11T08:31:59</time>
      </trkpt>
      <trkpt lat="47.92257" lon="2.05565">
        <ele>122.4</ele>
        <time>2021-07-11T08:32:00</time>
      </trkpt>
      <trkpt lat="47.92256" lon="2.05574">
        <ele>122.4</ele>
        <time>2021-07-11T08:32:01</time>
      </trkpt>
      <trkpt lat="47.92255" lon="2.05583">
        <ele>122.4</ele>
        <time>2021-07-11T08:32:02</time>
      </trkpt>
      <trkpt lat="47.92254" lon="2.05592">
        <ele>122.4</ele>
        <time>2021-07-11T08:32:03</time>
      </trkpt>
      <trkpt lat="47.92253" lon="2.05601">
        <ele>122.4</ele>
        <time>2021-07-11T08:32:04</time>
      </trkpt>
      <trkpt lat="47.92252" lon="2.05611">
        <ele>122.4</ele>
        <time>2021-07-11T08:32:05</time>
      </trkpt>
      <trkpt lat="47.92251" lon="2.0562">
        <ele>122.6</ele>
        <time>2021-07-11T08:32:06</time>
      </trkpt>
      <trkpt lat="47.9225" lon="2.05629">
        <ele>122.4</ele>
        <time>2021-07-11T08:32:07</time>
      </trkpt>
      <trkpt lat="47.92249" lon="2.05638">
        <ele>122.6</ele>
        <time>2021-07-11T08:32:08</time>
      </trkpt>
      <trkpt lat="47.92248" lon="2.05647">
        <ele>122.4</ele>
        <time>2021-07-11T08:32:09</time>
      </trkpt>
      <trkpt lat="47.92247" lon="2.05656">
        <ele>122.4</ele>
        <time>2021-07-11T08:32:10</time>
      </trkpt>
      <trkpt lat="47.92246" lon="2.05665">
        <ele>122.6</ele>
        <time>2021-07-11T08:32:11</time>
      </trkpt>
      <trkpt lat="47.92245" lon="2.05674">
        <ele>122.4</ele>
        <time>2021-07-11T08:32:12</time>
      </trkpt>
      <trkpt lat="47.92244" lon="2.05683">
        <ele>122.4</ele>
        <time>2021-07-11T08:32:13</time>
      </trkpt>
      <trkpt lat="47.92242" lon="2.05692">
        <ele>122.2</ele>
        <time>2021-07-11T08:32:14</time>
      </trkpt>
      <trkpt lat="47.92241" lon="2.05701">
        <ele>122.2</ele>
        <time>2021-07-11T08:32:15</time>
      </trkpt>
      <trkpt lat="47.92239" lon="2.0571">
        <ele>122.2</ele>
        <time>2021-07-11T08:32:16</time>
      </trkpt>
      <trkpt lat="47.92237" lon="2.05719">
        <ele>122.2</ele>
        <time>2021-07-11T08:32:17</time>
      </trkpt>
      <trkpt lat="47.92235" lon="2.05728">
        <ele>122</ele>
        <time>2021-07-11T08:32:18</time>
      </trkpt>
      <trkpt lat="47.92233" lon="2.05738">
        <ele>122</ele>
        <time>2021-07-11T08:32:19</time>
      </trkpt>
      <trkpt lat="47.92231" lon="2.05747">
        <ele>122</ele>
        <time>2021-07-11T08:32:20</time>
      </trkpt>
      <trkpt lat="47.92229" lon="2.05757">
        <ele>121.8</ele>
        <time>2021-07-11T08:32:21</time>
      </trkpt>
      <trkpt lat="47.92227" lon="2.05766">
        <ele>121.8</ele>
        <time>2021-07-11T08:32:22</time>
      </trkpt>
      <trkpt lat="47.92225" lon="2.05776">
        <ele>121.8</ele>
        <time>2021-07-11T08:32:23</time>
      </trkpt>
      <trkpt lat="47.92223" lon="2.05785">
        <ele>121.8</ele>
        <time>2021-07-11T08:32:24</time>
      </trkpt>
      <trkpt lat="47.9222" lon="2.05795">
        <ele>122</ele>
        <time>2021-07-11T08:32:25</time>
      </trkpt>
      <trkpt lat="47.92218" lon="2.05804">
        <ele>122</ele>
        <time>2021-07-11T08:32:26</time>
      </trkpt>
      <trkpt lat="47.92216" lon="2.05813">
        <ele>122.2</ele>
        <time>2021-07-11T08:32:27</time>
      </trkpt>
      <trkpt lat="47.92214" lon="2.05823">
        <ele>122.2</ele>
        <time>2021-07-11T08:32:28</time>
      </trkpt>
      <trkpt lat="47.92212" lon="2.05832">
        <ele>122.2</ele>
        <time>2021-07-11T08:32:29</time>
      </trkpt>
      <trkpt lat="47.9221" lon="2.05841">
        <ele>122.4</ele>
        <time>2021-07-11T08:32:30</time>
      </trkpt>
      <trkpt lat="47.92208" lon="2.0585">
        <ele>122.4</ele>
        <time>2021-07-11T08:32:31</time>
      </trkpt>
      <trkpt lat="47.92206" lon="2.05859">
        <ele>122.4</ele>
        <time>2021-07-11T08:32:32</time>
      </trkpt>
      <trkpt lat="47.92204" lon="2.05867">
        <ele>122.4</ele>
        <time>2021-07-11T08:32:33</time>
      </trkpt>
      <trkpt lat="47.92202" lon="2.05876">
        <ele>122.2</ele>
        <time>2021-07-11T08:32:34</time>
      </trkpt>
      <trkpt lat="47.92199" lon="2.05886">
        <ele>122.2</ele>
        <time>2021-07-11T08:32:35</time>
      </trkpt>
      <trkpt lat="47.92197" lon="2.05895">
        <ele>122</ele>
        <time>2021-07-11T08:32:36</time>
      </trkpt>
      <trkpt lat="47.92195" lon="2.05904">
        <ele>122</ele>
        <time>2021-07-11T08:32:37</time>
      </trkpt>
      <trkpt lat="47.92193" lon="2.05913">
        <ele>121.8</ele>
        <time>2021-07-11T08:32:38</time>
      </trkpt>
      <trkpt lat="47.92191" lon="2.05922">
        <ele>121.8</ele>
        <time>2021-07-11T08:32:39</time>
      </trkpt>
      <trkpt lat="47.92189" lon="2.05931">
        <ele>121.8</ele>
        <time>2021-07-11T08:32:40</time>
      </trkpt>
      <trkpt lat="47.92187" lon="2.0594">
        <ele>121.6</ele>
        <time>2021-07-11T08:32:41</time>
      </trkpt>
      <trkpt lat="47.92185" lon="2.0595">
        <ele>121.4</ele>
        <time>2021-07-11T08:32:42</time>
      </trkpt>
      <trkpt lat="47.92183" lon="2.05959">
        <ele>121.2</ele>
        <time>2021-07-11T08:32:43</time>
      </trkpt>
      <trkpt lat="47.9218" lon="2.05968">
        <ele>121.2</ele>
        <time>2021-07-11T08:32:44</time>
      </trkpt>
      <trkpt lat="47.92176" lon="2.05976">
        <ele>121</ele>
        <time>2021-07-11T08:32:45</time>
      </trkpt>
      <trkpt lat="47.92172" lon="2.05985">
        <ele>121</ele>
        <time>2021-07-11T08:32:46</time>
      </trkpt>
      <trkpt lat="47.92169" lon="2.05993">
        <ele>120.8</ele>
        <time>2021-07-11T08:32:47</time>
      </trkpt>
      <trkpt lat="47.92166" lon="2.06002">
        <ele>120.8</ele>
        <time>2021-07-11T08:32:48</time>
      </trkpt>
      <trkpt lat="47.92164" lon="2.0601">
        <ele>120.6</ele>
        <time>2021-07-11T08:32:49</time>
      </trkpt>
      <trkpt lat="47.92162" lon="2.06018">
        <ele>120.6</ele>
        <time>2021-07-11T08:32:50</time>
      </trkpt>
      <trkpt lat="47.92158" lon="2.06025">
        <ele>120.4</ele>
        <time>2021-07-11T08:32:51</time>
      </trkpt>
      <trkpt lat="47.92154" lon="2.06032">
        <ele>120.4</ele>
        <time>2021-07-11T08:32:52</time>
      </trkpt>
      <trkpt lat="47.92151" lon="2.06037">
        <ele>120.2</ele>
        <time>2021-07-11T08:32:53</time>
      </trkpt>
      <trkpt lat="47.92148" lon="2.06044">
        <ele>120</ele>
        <time>2021-07-11T08:32:54</time>
      </trkpt>
      <trkpt lat="47.92145" lon="2.06052">
        <ele>120</ele>
        <time>2021-07-11T08:32:55</time>
      </trkpt>
      <trkpt lat="47.92142" lon="2.0606">
        <ele>119.8</ele>
        <time>2021-07-11T08:32:56</time>
      </trkpt>
      <trkpt lat="47.92139" lon="2.06068">
        <ele>119.8</ele>
        <time>2021-07-11T08:32:57</time>
      </trkpt>
      <trkpt lat="47.92137" lon="2.06076">
        <ele>119.8</ele>
        <time>2021-07-11T08:32:58</time>
      </trkpt>
      <trkpt lat="47.92136" lon="2.06082">
        <ele>119.6</ele>
        <time>2021-07-11T08:32:59</time>
      </trkpt>
      <trkpt lat="47.92135" lon="2.06091">
        <ele>119.6</ele>
        <time>2021-07-11T08:33:00</time>
      </trkpt>
      <trkpt lat="47.92132" lon="2.061">
        <ele>119.4</ele>
        <time>2021-07-11T08:33:01</time>
      </trkpt>
      <trkpt lat="47.92131" lon="2.06107">
        <ele>119.4</ele>
        <time>2021-07-11T08:33:02</time>
      </trkpt>
      <trkpt lat="47.9213" lon="2.06116">
        <ele>119.4</ele>
        <time>2021-07-11T08:33:03</time>
      </trkpt>
      <trkpt lat="47.92127" lon="2.06127">
        <ele>119.4</ele>
        <time>2021-07-11T08:33:04</time>
      </trkpt>
      <trkpt lat="47.92124" lon="2.06136">
        <ele>119.2</ele>
        <time>2021-07-11T08:33:05</time>
      </trkpt>
      <trkpt lat="47.92121" lon="2.06144">
        <ele>119.2</ele>
        <time>2021-07-11T08:33:06</time>
      </trkpt>
      <trkpt lat="47.9212" lon="2.06152">
        <ele>119.4</ele>
        <time>2021-07-11T08:33:07</time>
      </trkpt>
      <trkpt lat="47.92117" lon="2.06162">
        <ele>119.4</ele>
        <time>2021-07-11T08:33:08</time>
      </trkpt>
      <trkpt lat="47.92117" lon="2.0617">
        <ele>119.4</ele>
        <time>2021-07-11T08:33:09</time>
      </trkpt>
      <trkpt lat="47.92116" lon="2.06177">
        <ele>119.4</ele>
        <time>2021-07-11T08:33:10</time>
      </trkpt>
      <trkpt lat="47.92116" lon="2.06185">
        <ele>119.4</ele>
        <time>2021-07-11T08:33:11</time>
      </trkpt>
      <trkpt lat="47.92117" lon="2.06193">
        <ele>119.6</ele>
        <time>2021-07-11T08:33:12</time>
      </trkpt>
      <trkpt lat="47.92117" lon="2.06202">
        <ele>119.6</ele>
        <time>2021-07-11T08:33:13</time>
      </trkpt>
      <trkpt lat="47.92116" lon="2.06213">
        <ele>119.6</ele>
        <time>2021-07-11T08:33:14</time>
      </trkpt>
      <trkpt lat="47.92112" lon="2.06226">
        <ele>119.8</ele>
        <time>2021-07-11T08:33:15</time>
      </trkpt>
      <trkpt lat="47.92111" lon="2.06235">
        <ele>119.8</ele>
        <time>2021-07-11T08:33:16</time>
      </trkpt>
      <trkpt lat="47.9211" lon="2.06245">
        <ele>120</ele>
        <time>2021-07-11T08:33:17</time>
      </trkpt>
      <trkpt lat="47.92109" lon="2.06257">
        <ele>120</ele>
        <time>2021-07-11T08:33:18</time>
      </trkpt>
      <trkpt lat="47.92108" lon="2.06266">
        <ele>120</ele>
        <time>2021-07-11T08:33:19</time>
      </trkpt>
      <trkpt lat="47.92107" lon="2.06274">
        <ele>120.2</ele>
        <time>2021-07-11T08:33:20</time>
      </trkpt>
      <trkpt lat="47.92106" lon="2.06283">
        <ele>120.2</ele>
        <time>2021-07-11T08:33:21</time>
      </trkpt>
      <trkpt lat="47.92105" lon="2.06291">
        <ele>120.2</ele>
        <time>2021-07-11T08:33:22</time>
      </trkpt>
      <trkpt lat="47.92103" lon="2.06299">
        <ele>120.2</ele>
        <time>2021-07-11T08:33:23</time>
      </trkpt>
      <trkpt lat="47.92101" lon="2.06307">
        <ele>120</ele>
        <time>2021-07-11T08:33:24</time>
      </trkpt>
      <trkpt lat="47.921" lon="2.06314">
        <ele>120</ele>
        <time>2021-07-11T08:33:25</time>
      </trkpt>
      <trkpt lat="47.92101" lon="2.06322">
        <ele>119.8</ele>
        <time>2021-07-11T08:33:26</time>
      </trkpt>
      <trkpt lat="47.92101" lon="2.06331">
        <ele>119.6</ele>
        <time>2021-07-11T08:33:27</time>
      </trkpt>
      <trkpt lat="47.92101" lon="2.0634">
        <ele>119.6</ele>
        <time>2021-07-11T08:33:28</time>
      </trkpt>
      <trkpt lat="47.92102" lon="2.0635">
        <ele>119.4</ele>
        <time>2021-07-11T08:33:29</time>
      </trkpt>
      <trkpt lat="47.92101" lon="2.06359">
        <ele>119.4</ele>
        <time>2021-07-11T08:33:30</time>
      </trkpt>
      <trkpt lat="47.921" lon="2.06368">
        <ele>119.4</ele>
        <time>2021-07-11T08:33:31</time>
      </trkpt>
      <trkpt lat="47.92098" lon="2.06376">
        <ele>119.4</ele>
        <time>2021-07-11T08:33:32</time>
      </trkpt>
      <trkpt lat="47.92094" lon="2.06383">
        <ele>119.4</ele>
        <time>2021-07-11T08:33:33</time>
      </trkpt>
      <trkpt lat="47.92091" lon="2.06388">
        <ele>119.4</ele>
        <time>2021-07-11T08:33:34</time>
      </trkpt>
      <trkpt lat="47.92089" lon="2.06393">
        <ele>119.4</ele>
        <time>2021-07-11T08:33:35</time>
      </trkpt>
      <trkpt lat="47.92086" lon="2.06396">
        <ele>119.6</ele>
        <time>2021-07-11T08:33:36</time>
      </trkpt>
      <trkpt lat="47.92083" lon="2.06398">
        <ele>119.4</ele>
        <time>2021-07-11T08:33:37</time>
      </trkpt>
      <trkpt lat="47.9208" lon="2.06401">
        <ele>119.6</ele>
        <time>2021-07-11T08:33:38</time>
      </trkpt>
      <trkpt lat="47.92077" lon="2.06404">
        <ele>119.6</ele>
        <time>2021-07-11T08:33:39</time>
      </trkpt>
      <trkpt lat="47.92074" lon="2.06405">
        <ele>119.6</ele>
        <time>2021-07-11T08:33:40</time>
      </trkpt>
      <trkpt lat="47.92073" lon="2.06406">
        <ele>119.6</ele>
        <time>2021-07-11T08:33:41</time>
      </trkpt>
      <trkpt lat="47.92069" lon="2.06409">
        <ele>119.6</ele>
        <time>2021-07-11T08:33:42</time>
      </trkpt>
      <trkpt lat="47.92065" lon="2.06411">
        <ele>119.6</ele>
        <time>2021-07-11T08:33:43</time>
      </trkpt>
      <trkpt lat="47.92061" lon="2.06413">
        <ele>119.6</ele>
        <time>2021-07-11T08:33:44</time>
      </trkpt>
      <trkpt lat="47.92057" lon="2.06415">
        <ele>119.8</ele>
        <time>2021-07-11T08:33:45</time>
      </trkpt>
      <trkpt lat="47.92054" lon="2.06416">
        <ele>119.6</ele>
        <time>2021-07-11T08:33:46</time>
      </trkpt>
      <trkpt lat="47.92051" lon="2.06417">
        <ele>119.6</ele>
        <time>2021-07-11T08:33:47</time>
      </trkpt>
      <trkpt lat="47.92046" lon="2.0642">
        <ele>119.6</ele>
        <time>2021-07-11T08:33:48</time>
      </trkpt>
      <trkpt lat="47.92042" lon="2.06422">
        <ele>119.6</ele>
        <time>2021-07-11T08:33:49</time>
      </trkpt>
      <trkpt lat="47.92038" lon="2.06424">
        <ele>119.4</ele>
        <time>2021-07-11T08:33:50</time>
      </trkpt>
      <trkpt lat="47.92034" lon="2.06428">
        <ele>119.2</ele>
        <time>2021-07-11T08:33:51</time>
      </trkpt>
      <trkpt lat="47.9203" lon="2.06434">
        <ele>119.2</ele>
        <time>2021-07-11T08:33:52</time>
      </trkpt>
      <trkpt lat="47.92026" lon="2.06441">
        <ele>119.4</ele>
        <time>2021-07-11T08:33:53</time>
      </trkpt>
      <trkpt lat="47.9202" lon="2.06452">
        <ele>119.4</ele>
        <time>2021-07-11T08:33:54</time>
      </trkpt>
      <trkpt lat="47.92016" lon="2.06459">
        <ele>119.4</ele>
        <time>2021-07-11T08:33:55</time>
      </trkpt>
      <trkpt lat="47.92013" lon="2.06465">
        <ele>119.6</ele>
        <time>2021-07-11T08:33:56</time>
      </trkpt>
      <trkpt lat="47.92009" lon="2.06472">
        <ele>119.6</ele>
        <time>2021-07-11T08:33:57</time>
      </trkpt>
      <trkpt lat="47.92007" lon="2.0648">
        <ele>119.8</ele>
        <time>2021-07-11T08:33:58</time>
      </trkpt>
      <trkpt lat="47.92003" lon="2.06487">
        <ele>120</ele>
        <time>2021-07-11T08:33:59</time>
      </trkpt>
      <trkpt lat="47.91999" lon="2.06493">
        <ele>120</ele>
        <time>2021-07-11T08:34:00</time>
      </trkpt>
      <trkpt lat="47.91996" lon="2.06501">
        <ele>120</ele>
        <time>2021-07-11T08:34:01</time>
      </trkpt>
      <trkpt lat="47.91994" lon="2.06507">
        <ele>120</ele>
        <time>2021-07-11T08:34:02</time>
      </trkpt>
      <trkpt lat="47.91989" lon="2.06512">
        <ele>120.2</ele>
        <time>2021-07-11T08:34:03</time>
      </trkpt>
      <trkpt lat="47.91985" lon="2.06518">
        <ele>120.4</ele>
        <time>2021-07-11T08:34:04</time>
      </trkpt>
      <trkpt lat="47.91982" lon="2.06524">
        <ele>120.4</ele>
        <time>2021-07-11T08:34:05</time>
      </trkpt>
      <trkpt lat="47.91979" lon="2.06529">
        <ele>120.4</ele>
        <time>2021-07-11T08:34:06</time>
      </trkpt>
      <trkpt lat="47.91977" lon="2.06534">
        <ele>120.6</ele>
        <time>2021-07-11T08:34:07</time>
      </trkpt>
      <trkpt lat="47.91973" lon="2.0654">
        <ele>120.6</ele>
        <time>2021-07-11T08:34:08</time>
      </trkpt>
      <trkpt lat="47.9197" lon="2.06546">
        <ele>120.4</ele>
        <time>2021-07-11T08:34:10</time>
      </trkpt>
      <trkpt lat="47.91962" lon="2.06558">
        <ele>120.6</ele>
        <time>2021-07-11T08:34:11</time>
      </trkpt>
      <trkpt lat="47.91959" lon="2.06562">
        <ele>120.8</ele>
        <time>2021-07-11T08:34:12</time>
      </trkpt>
      <trkpt lat="47.91955" lon="2.06568">
        <ele>120.8</ele>
        <time>2021-07-11T08:34:13</time>
      </trkpt>
      <trkpt lat="47.91951" lon="2.06573">
        <ele>120.8</ele>
        <time>2021-07-11T08:34:14</time>
      </trkpt>
      <trkpt lat="47.91946" lon="2.06579">
        <ele>120.8</ele>
        <time>2021-07-11T08:34:15</time>
      </trkpt>
      <trkpt lat="47.91941" lon="2.06585">
        <ele>121</ele>
        <time>2021-07-11T08:34:16</time>
      </trkpt>
      <trkpt lat="47.91937" lon="2.06589">
        <ele>121</ele>
        <time>2021-07-11T08:34:17</time>
      </trkpt>
      <trkpt lat="47.91933" lon="2.0659">
        <ele>121</ele>
        <time>2021-07-11T08:34:18</time>
      </trkpt>
      <trkpt lat="47.91929" lon="2.06594">
        <ele>121</ele>
        <time>2021-07-11T08:34:19</time>
      </trkpt>
      <trkpt lat="47.91924" lon="2.06599">
        <ele>121</ele>
        <time>2021-07-11T08:34:20</time>
      </trkpt>
      <trkpt lat="47.91919" lon="2.06603">
        <ele>121.2</ele>
        <time>2021-07-11T08:34:21</time>
      </trkpt>
      <trkpt lat="47.91915" lon="2.06606">
        <ele>121.2</ele>
        <time>2021-07-11T08:34:22</time>
      </trkpt>
      <trkpt lat="47.91907" lon="2.06614">
        <ele>121.2</ele>
        <time>2021-07-11T08:34:23</time>
      </trkpt>
      <trkpt lat="47.919" lon="2.06621">
        <ele>121.4</ele>
        <time>2021-07-11T08:34:24</time>
      </trkpt>
      <trkpt lat="47.91893" lon="2.06625">
        <ele>121.2</ele>
        <time>2021-07-11T08:34:25</time>
      </trkpt>
      <trkpt lat="47.91888" lon="2.06628">
        <ele>121.4</ele>
        <time>2021-07-11T08:34:26</time>
      </trkpt>
      <trkpt lat="47.91882" lon="2.0663">
        <ele>121.4</ele>
        <time>2021-07-11T08:34:27</time>
      </trkpt>
      <trkpt lat="47.91877" lon="2.06632">
        <ele>121.4</ele>
        <time>2021-07-11T08:34:28</time>
      </trkpt>
      <trkpt lat="47.91871" lon="2.06634">
        <ele>121.6</ele>
        <time>2021-07-11T08:34:29</time>
      </trkpt>
      <trkpt lat="47.91865" lon="2.06637">
        <ele>121.6</ele>
        <time>2021-07-11T08:34:30</time>
      </trkpt>
      <trkpt lat="47.91859" lon="2.06639">
        <ele>121.6</ele>
        <time>2021-07-11T08:34:31</time>
      </trkpt>
      <trkpt lat="47.91853" lon="2.06643">
        <ele>121.8</ele>
        <time>2021-07-11T08:34:32</time>
      </trkpt>
      <trkpt lat="47.91847" lon="2.06645">
        <ele>121.6</ele>
        <time>2021-07-11T08:34:33</time>
      </trkpt>
      <trkpt lat="47.91841" lon="2.06647">
        <ele>121.6</ele>
        <time>2021-07-11T08:34:34</time>
      </trkpt>
      <trkpt lat="47.91836" lon="2.06649">
        <ele>121.6</ele>
        <time>2021-07-11T08:34:35</time>
      </trkpt>
      <trkpt lat="47.9183" lon="2.06651">
        <ele>121.6</ele>
        <time>2021-07-11T08:34:36</time>
      </trkpt>
      <trkpt lat="47.91824" lon="2.06654">
        <ele>121.6</ele>
        <time>2021-07-11T08:34:37</time>
      </trkpt>
      <trkpt lat="47.91819" lon="2.06656">
        <ele>121.6</ele>
        <time>2021-07-11T08:34:38</time>
      </trkpt>
      <trkpt lat="47.91814" lon="2.06659">
        <ele>121.6</ele>
        <time>2021-07-11T08:34:39</time>
      </trkpt>
      <trkpt lat="47.91808" lon="2.06661">
        <ele>121.6</ele>
        <time>2021-07-11T08:34:40</time>
      </trkpt>
      <trkpt lat="47.91803" lon="2.06664">
        <ele>121.6</ele>
        <time>2021-07-11T08:34:41</time>
      </trkpt>
      <trkpt lat="47.91797" lon="2.06666">
        <ele>121.6</ele>
        <time>2021-07-11T08:34:42</time>
      </trkpt>
      <trkpt lat="47.91791" lon="2.06668">
        <ele>121.6</ele>
        <time>2021-07-11T08:34:43</time>
      </trkpt>
      <trkpt lat="47.91786" lon="2.0667">
        <ele>121.6</ele>
        <time>2021-07-11T08:34:44</time>
      </trkpt>
      <trkpt lat="47.9178" lon="2.06673">
        <ele>121.6</ele>
        <time>2021-07-11T08:34:45</time>
      </trkpt>
      <trkpt lat="47.91774" lon="2.06676">
        <ele>121.6</ele>
        <time>2021-07-11T08:34:46</time>
      </trkpt>
      <trkpt lat="47.91769" lon="2.06678">
        <ele>121.6</ele>
        <time>2021-07-11T08:34:47</time>
      </trkpt>
      <trkpt lat="47.91763" lon="2.06681">
        <ele>121.6</ele>
        <time>2021-07-11T08:34:48</time>
      </trkpt>
      <trkpt lat="47.91758" lon="2.06683">
        <ele>121.4</ele>
        <time>2021-07-11T08:34:49</time>
      </trkpt>
      <trkpt lat="47.91752" lon="2.06686">
        <ele>121.6</ele>
        <time>2021-07-11T08:34:50</time>
      </trkpt>
      <trkpt lat="47.91748" lon="2.06688">
        <ele>121.6</ele>
        <time>2021-07-11T08:34:51</time>
      </trkpt>
      <trkpt lat="47.91743" lon="2.06689">
        <ele>121.8</ele>
        <time>2021-07-11T08:34:53</time>
      </trkpt>
      <trkpt lat="47.91739" lon="2.06691">
        <ele>121.6</ele>
        <time>2021-07-11T08:34:54</time>
      </trkpt>
      <trkpt lat="47.91736" lon="2.06693">
        <ele>121.6</ele>
        <time>2021-07-11T08:34:55</time>
      </trkpt>
      <trkpt lat="47.91731" lon="2.06705">
        <ele>121.8</ele>
        <time>2021-07-11T08:34:56</time>
      </trkpt>
      <trkpt lat="47.9173" lon="2.06711">
        <ele>121.6</ele>
        <time>2021-07-11T08:34:58</time>
      </trkpt>
      <trkpt lat="47.91729" lon="2.06719">
        <ele>121.8</ele>
        <time>2021-07-11T08:34:59</time>
      </trkpt>
      <trkpt lat="47.91728" lon="2.06741">
        <ele>121.8</ele>
        <time>2021-07-11T08:36:00</time>
      </trkpt>
      <trkpt lat="47.91727" lon="2.06748">
        <ele>122</ele>
        <time>2021-07-11T08:36:01</time>
      </trkpt>
      <trkpt lat="47.91726" lon="2.06755">
        <ele>122</ele>
        <time>2021-07-11T08:36:02</time>
      </trkpt>
      <trkpt lat="47.91725" lon="2.06762">
        <ele>122</ele>
        <time>2021-07-11T08:36:03</time>
      </trkpt>
      <trkpt lat="47.91724" lon="2.0677">
        <ele>122.2</ele>
        <time>2021-07-11T08:36:04</time>
      </trkpt>
      <trkpt lat="47.91723" lon="2.0678">
        <ele>122.2</ele>
        <time>2021-07-11T08:36:05</time>
      </trkpt>
      <trkpt lat="47.91722" lon="2.06788">
        <ele>122.2</ele>
        <time>2021-07-11T08:36:06</time>
      </trkpt>
      <trkpt lat="47.91722" lon="2.06797">
        <ele>122.4</ele>
        <time>2021-07-11T08:36:07</time>
      </trkpt>
      <trkpt lat="47.91723" lon="2.06803">
        <ele>122.4</ele>
        <time>2021-07-11T08:36:08</time>
      </trkpt>
      <trkpt lat="47.91722" lon="2.06811">
        <ele>122.6</ele>
        <time>2021-07-11T08:36:09</time>
      </trkpt>
      <trkpt lat="47.91721" lon="2.06819">
        <ele>122.6</ele>
        <time>2021-07-11T08:36:10</time>
      </trkpt>
      <trkpt lat="47.91719" lon="2.06826">
        <ele>122.6</ele>
        <time>2021-07-11T08:36:11</time>
      </trkpt>
      <trkpt lat="47.91717" lon="2.06834">
        <ele>122.6</ele>
        <time>2021-07-11T08:36:12</time>
      </trkpt>
      <trkpt lat="47.91715" lon="2.06842">
        <ele>122.8</ele>
        <time>2021-07-11T08:36:13</time>
      </trkpt>
      <trkpt lat="47.91712" lon="2.06849">
        <ele>122.8</ele>
        <time>2021-07-11T08:36:14</time>
      </trkpt>
      <trkpt lat="47.9171" lon="2.06853">
        <ele>122.8</ele>
        <time>2021-07-11T08:36:15</time>
      </trkpt>
      <trkpt lat="47.91706" lon="2.06856">
        <ele>122.8</ele>
        <time>2021-07-11T08:36:16</time>
      </trkpt>
      <trkpt lat="47.917" lon="2.06858">
        <ele>122.8</ele>
        <time>2021-07-11T08:36:17</time>
      </trkpt>
      <trkpt lat="47.91697" lon="2.0686">
        <ele>122.8</ele>
        <time>2021-07-11T08:36:18</time>
      </trkpt>
      <trkpt lat="47.91692" lon="2.06862">
        <ele>122.8</ele>
        <time>2021-07-11T08:36:19</time>
      </trkpt>
      <trkpt lat="47.91687" lon="2.06864">
        <ele>122.8</ele>
        <time>2021-07-11T08:36:20</time>
      </trkpt>
      <trkpt lat="47.91683" lon="2.06867">
        <ele>122.8</ele>
        <time>2021-07-11T08:36:21</time>
      </trkpt>
      <trkpt lat="47.91679" lon="2.06869">
        <ele>123</ele>
        <time>2021-07-11T08:36:22</time>
      </trkpt>
      <trkpt lat="47.91674" lon="2.06872">
        <ele>122.8</ele>
        <time>2021-07-11T08:36:23</time>
      </trkpt>
      <trkpt lat="47.9167" lon="2.06874">
        <ele>122.8</ele>
        <time>2021-07-11T08:36:24</time>
      </trkpt>
      <trkpt lat="47.91665" lon="2.06876">
        <ele>122.8</ele>
        <time>2021-07-11T08:36:25</time>
      </trkpt>
      <trkpt lat="47.91661" lon="2.06878">
        <ele>123</ele>
        <time>2021-07-11T08:36:26</time>
      </trkpt>
      <trkpt lat="47.91656" lon="2.06879">
        <ele>123</ele>
        <time>2021-07-11T08:36:27</time>
      </trkpt>
      <trkpt lat="47.91651" lon="2.06882">
        <ele>123</ele>
        <time>2021-07-11T08:36:28</time>
      </trkpt>
      <trkpt lat="47.91646" lon="2.06885">
        <ele>123</ele>
        <time>2021-07-11T08:36:29</time>
      </trkpt>
      <trkpt lat="47.91642" lon="2.06888">
        <ele>123</ele>
        <time>2021-07-11T08:36:30</time>
      </trkpt>
      <trkpt lat="47.91637" lon="2.06891">
        <ele>123</ele>
        <time>2021-07-11T08:36:31</time>
      </trkpt>
      <trkpt lat="47.91632" lon="2.06894">
        <ele>123</ele>
        <time>2021-07-11T08:36:32</time>
      </trkpt>
      <trkpt lat="47.91627" lon="2.06897">
        <ele>123</ele>
        <time>2021-07-11T08:36:33</time>
      </trkpt>
      <trkpt lat="47.91622" lon="2.06899">
        <ele>123</ele>
        <time>2021-07-11T08:36:34</time>
      </trkpt>
      <trkpt lat="47.91616" lon="2.06902">
        <ele>123.2</ele>
        <time>2021-07-11T08:36:35</time>
      </trkpt>
      <trkpt lat="47.91611" lon="2.06905">
        <ele>123.2</ele>
        <time>2021-07-11T08:36:36</time>
      </trkpt>
      <trkpt lat="47.91606" lon="2.06907">
        <ele>123.2</ele>
        <time>2021-07-11T08:36:37</time>
      </trkpt>
      <trkpt lat="47.91601" lon="2.06909">
        <ele>123.2</ele>
        <time>2021-07-11T08:36:38</time>
      </trkpt>
      <trkpt lat="47.91596" lon="2.06911">
        <ele>123.2</ele>
        <time>2021-07-11T08:36:39</time>
      </trkpt>
      <trkpt lat="47.91591" lon="2.06914">
        <ele>123.2</ele>
        <time>2021-07-11T08:36:40</time>
      </trkpt>
      <trkpt lat="47.91585" lon="2.06916">
        <ele>123.2</ele>
        <time>2021-07-11T08:36:41</time>
      </trkpt>
      <trkpt lat="47.9158" lon="2.06918">
        <ele>123.2</ele>
        <time>2021-07-11T08:36:42</time>
      </trkpt>
      <trkpt lat="47.91575" lon="2.06919">
        <ele>123.2</ele>
        <time>2021-07-11T08:36:43</time>
      </trkpt>
      <trkpt lat="47.91569" lon="2.06921">
        <ele>123</ele>
        <time>2021-07-11T08:36:44</time>
      </trkpt>
      <trkpt lat="47.91564" lon="2.06923">
        <ele>123</ele>
        <time>2021-07-11T08:36:45</time>
      </trkpt>
      <trkpt lat="47.91558" lon="2.06926">
        <ele>123</ele>
        <time>2021-07-11T08:36:46</time>
      </trkpt>
      <trkpt lat="47.91552" lon="2.06929">
        <ele>123</ele>
        <time>2021-07-11T08:36:47</time>
      </trkpt>
      <trkpt lat="47.91547" lon="2.06932">
        <ele>123</ele>
        <time>2021-07-11T08:36:48</time>
      </trkpt>
      <trkpt lat="47.91541" lon="2.06936">
        <ele>123</ele>
        <time>2021-07-11T08:36:49</time>
      </trkpt>
      <trkpt lat="47.91535" lon="2.06938">
        <ele>122.8</ele>
        <time>2021-07-11T08:36:50</time>
      </trkpt>
      <trkpt lat="47.91529" lon="2.0694">
        <ele>122.8</ele>
        <time>2021-07-11T08:36:51</time>
      </trkpt>
      <trkpt lat="47.91523" lon="2.06941">
        <ele>122.6</ele>
        <time>2021-07-11T08:36:52</time>
      </trkpt>
      <trkpt lat="47.91517" lon="2.06943">
        <ele>122.6</ele>
        <time>2021-07-11T08:36:53</time>
      </trkpt>
      <trkpt lat="47.91511" lon="2.06945">
        <ele>122.6</ele>
        <time>2021-07-11T08:36:54</time>
      </trkpt>
      <trkpt lat="47.91506" lon="2.06946">
        <ele>122.6</ele>
        <time>2021-07-11T08:36:55</time>
      </trkpt>
      <trkpt lat="47.915" lon="2.06947">
        <ele>122.6</ele>
        <time>2021-07-11T08:36:56</time>
      </trkpt>
      <trkpt lat="47.91495" lon="2.06949">
        <ele>122.4</ele>
        <time>2021-07-11T08:36:57</time>
      </trkpt>
      <trkpt lat="47.91488" lon="2.06952">
        <ele>122.2</ele>
        <time>2021-07-11T08:36:58</time>
      </trkpt>
      <trkpt lat="47.91482" lon="2.06956">
        <ele>121.8</ele>
        <time>2021-07-11T08:36:59</time>
      </trkpt>
      <trkpt lat="47.91475" lon="2.06961">
        <ele>121.8</ele>
        <time>2021-07-11T08:37:00</time>
      </trkpt>
      <trkpt lat="47.91469" lon="2.06967">
        <ele>121.8</ele>
        <time>2021-07-11T08:37:01</time>
      </trkpt>
      <trkpt lat="47.91463" lon="2.06973">
        <ele>121.8</ele>
        <time>2021-07-11T08:37:02</time>
      </trkpt>
      <trkpt lat="47.91457" lon="2.06978">
        <ele>121.6</ele>
        <time>2021-07-11T08:37:03</time>
      </trkpt>
      <trkpt lat="47.91451" lon="2.06983">
        <ele>121.6</ele>
        <time>2021-07-11T08:37:04</time>
      </trkpt>
      <trkpt lat="47.91445" lon="2.06988">
        <ele>121.6</ele>
        <time>2021-07-11T08:37:05</time>
      </trkpt>
      <trkpt lat="47.91439" lon="2.06992">
        <ele>121.6</ele>
        <time>2021-07-11T08:37:06</time>
      </trkpt>
      <trkpt lat="47.91433" lon="2.06996">
        <ele>121.6</ele>
        <time>2021-07-11T08:37:07</time>
      </trkpt>
      <trkpt lat="47.91427" lon="2.07">
        <ele>121.6</ele>
        <time>2021-07-11T08:37:08</time>
      </trkpt>
      <trkpt lat="47.91421" lon="2.07005">
        <ele>121.6</ele>
        <time>2021-07-11T08:37:09</time>
      </trkpt>
      <trkpt lat="47.91415" lon="2.0701">
        <ele>121.6</ele>
        <time>2021-07-11T08:37:10</time>
      </trkpt>
      <trkpt lat="47.9141" lon="2.07016">
        <ele>121.6</ele>
        <time>2021-07-11T08:37:11</time>
      </trkpt>
      <trkpt lat="47.91404" lon="2.07021">
        <ele>121.4</ele>
        <time>2021-07-11T08:37:12</time>
      </trkpt>
      <trkpt lat="47.91398" lon="2.07027">
        <ele>121.4</ele>
        <time>2021-07-11T08:37:13</time>
      </trkpt>
      <trkpt lat="47.91393" lon="2.07032">
        <ele>121.2</ele>
        <time>2021-07-11T08:37:14</time>
      </trkpt>
      <trkpt lat="47.91388" lon="2.07038">
        <ele>121.2</ele>
        <time>2021-07-11T08:37:15</time>
      </trkpt>
      <trkpt lat="47.91383" lon="2.07043">
        <ele>121.2</ele>
        <time>2021-07-11T08:37:16</time>
      </trkpt>
      <trkpt lat="47.91378" lon="2.07047">
        <ele>121.2</ele>
        <time>2021-07-11T08:37:17</time>
      </trkpt>
      <trkpt lat="47.91372" lon="2.07051">
        <ele>121.2</ele>
        <time>2021-07-11T08:37:18</time>
      </trkpt>
      <trkpt lat="47.91367" lon="2.07056">
        <ele>121.2</ele>
        <time>2021-07-11T08:37:19</time>
      </trkpt>
      <trkpt lat="47.91362" lon="2.0706">
        <ele>121.2</ele>
        <time>2021-07-11T08:37:20</time>
      </trkpt>
      <trkpt lat="47.91356" lon="2.07065">
        <ele>121.2</ele>
        <time>2021-07-11T08:37:21</time>
      </trkpt>
      <trkpt lat="47.91351" lon="2.07068">
        <ele>121.2</ele>
        <time>2021-07-11T08:37:22</time>
      </trkpt>
      <trkpt lat="47.91345" lon="2.0707">
        <ele>121.2</ele>
        <time>2021-07-11T08:37:23</time>
      </trkpt>
      <trkpt lat="47.9134" lon="2.0707">
        <ele>121.4</ele>
        <time>2021-07-11T08:37:24</time>
      </trkpt>
      <trkpt lat="47.91334" lon="2.0707">
        <ele>121.4</ele>
        <time>2021-07-11T08:37:25</time>
      </trkpt>
      <trkpt lat="47.91328" lon="2.07069">
        <ele>121.4</ele>
        <time>2021-07-11T08:37:26</time>
      </trkpt>
      <trkpt lat="47.91322" lon="2.07068">
        <ele>121.4</ele>
        <time>2021-07-11T08:37:27</time>
      </trkpt>
      <trkpt lat="47.91316" lon="2.07066">
        <ele>121.2</ele>
        <time>2021-07-11T08:37:28</time>
      </trkpt>
      <trkpt lat="47.9131" lon="2.07064">
        <ele>121.2</ele>
        <time>2021-07-11T08:37:29</time>
      </trkpt>
      <trkpt lat="47.91305" lon="2.07063">
        <ele>121.2</ele>
        <time>2021-07-11T08:37:30</time>
      </trkpt>
      <trkpt lat="47.913" lon="2.07061">
        <ele>121.2</ele>
        <time>2021-07-11T08:37:31</time>
      </trkpt>
      <trkpt lat="47.91295" lon="2.0706">
        <ele>121.2</ele>
        <time>2021-07-11T08:37:32</time>
      </trkpt>
      <trkpt lat="47.9129" lon="2.0706">
        <ele>121.2</ele>
        <time>2021-07-11T08:37:33</time>
      </trkpt>
      <trkpt lat="47.91285" lon="2.0706">
        <ele>121.2</ele>
        <time>2021-07-11T08:37:34</time>
      </trkpt>
      <trkpt lat="47.9128" lon="2.07059">
        <ele>121.2</ele>
        <time>2021-07-11T08:37:35</time>
      </trkpt>
      <trkpt lat="47.91274" lon="2.07059">
        <ele>121</ele>
        <time>2021-07-11T08:37:36</time>
      </trkpt>
      <trkpt lat="47.91269" lon="2.07057">
        <ele>121</ele>
        <time>2021-07-11T08:37:37</time>
      </trkpt>
      <trkpt lat="47.91263" lon="2.07054">
        <ele>121.2</ele>
        <time>2021-07-11T08:37:38</time>
      </trkpt>
      <trkpt lat="47.91259" lon="2.07053">
        <ele>121</ele>
        <time>2021-07-11T08:37:39</time>
      </trkpt>
      <trkpt lat="47.91254" lon="2.07051">
        <ele>121.2</ele>
        <time>2021-07-11T08:37:40</time>
      </trkpt>
      <trkpt lat="47.9125" lon="2.07049">
        <ele>121.2</ele>
        <time>2021-07-11T08:37:41</time>
      </trkpt>
      <trkpt lat="47.91246" lon="2.07048">
        <ele>121.2</ele>
        <time>2021-07-11T08:37:42</time>
      </trkpt>
      <trkpt lat="47.91242" lon="2.07047">
        <ele>121</ele>
        <time>2021-07-11T08:37:43</time>
      </trkpt>
      <trkpt lat="47.91237" lon="2.07045">
        <ele>121.2</ele>
        <time>2021-07-11T08:37:44</time>
      </trkpt>
      <trkpt lat="47.91234" lon="2.07045">
        <ele>121.2</ele>
        <time>2021-07-11T08:37:45</time>
      </trkpt>
      <trkpt lat="47.9123" lon="2.07045">
        <ele>121.2</ele>
        <time>2021-07-11T08:37:46</time>
      </trkpt>
      <trkpt lat="47.91226" lon="2.07046">
        <ele>121.2</ele>
        <time>2021-07-11T08:37:47</time>
      </trkpt>
      <trkpt lat="47.91222" lon="2.07046">
        <ele>121.2</ele>
        <time>2021-07-11T08:37:48</time>
      </trkpt>
      <trkpt lat="47.91218" lon="2.07047">
        <ele>121.2</ele>
        <time>2021-07-11T08:37:49</time>
      </trkpt>
      <trkpt lat="47.91214" lon="2.07048">
        <ele>121.2</ele>
        <time>2021-07-11T08:37:50</time>
      </trkpt>
      <trkpt lat="47.9121" lon="2.07049">
        <ele>121.2</ele>
        <time>2021-07-11T08:37:51</time>
      </trkpt>
      <trkpt lat="47.91207" lon="2.07052">
        <ele>121.2</ele>
        <time>2021-07-11T08:37:52</time>
      </trkpt>
      <trkpt lat="47.91205" lon="2.07055">
        <ele>121.2</ele>
        <time>2021-07-11T08:37:53</time>
      </trkpt>
      <trkpt lat="47.91204" lon="2.07058">
        <ele>121.2</ele>
        <time>2021-07-11T08:37:54</time>
      </trkpt>
      <trkpt lat="47.91204" lon="2.07063">
        <ele>121.2</ele>
        <time>2021-07-11T08:37:55</time>
      </trkpt>
      <trkpt lat="47.91204" lon="2.07066">
        <ele>121.2</ele>
        <time>2021-07-11T08:37:56</time>
      </trkpt>
      <trkpt lat="47.91204" lon="2.07069">
        <ele>121.2</ele>
        <time>2021-07-11T08:37:57</time>
      </trkpt>
      <trkpt lat="47.91204" lon="2.07073">
        <ele>121.2</ele>
        <time>2021-07-11T08:37:58</time>
      </trkpt>
      <trkpt lat="47.91204" lon="2.07077">
        <ele>121.2</ele>
        <time>2021-07-11T08:37:59</time>
      </trkpt>
      <trkpt lat="47.91203" lon="2.07081">
        <ele>121.2</ele>
        <time>2021-07-11T08:38:00</time>
      </trkpt>
      <trkpt lat="47.91203" lon="2.07085">
        <ele>121.2</ele>
        <time>2021-07-11T08:38:01</time>
      </trkpt>
      <trkpt lat="47.91203" lon="2.07089">
        <ele>121.2</ele>
        <time>2021-07-11T08:38:02</time>
      </trkpt>
      <trkpt lat="47.91203" lon="2.07093">
        <ele>121.2</ele>
        <time>2021-07-11T08:38:03</time>
      </trkpt>
      <trkpt lat="47.91203" lon="2.07096">
        <ele>121.2</ele>
        <time>2021-07-11T08:38:04</time>
      </trkpt>
      <trkpt lat="47.91203" lon="2.07099">
        <ele>121.2</ele>
        <time>2021-07-11T08:38:05</time>
      </trkpt>
      <trkpt lat="47.91203" lon="2.07102">
        <ele>121.2</ele>
        <time>2021-07-11T08:38:06</time>
      </trkpt>
      <trkpt lat="47.91202" lon="2.07104">
        <ele>121.2</ele>
        <time>2021-07-11T08:38:07</time>
      </trkpt>
      <trkpt lat="47.91203" lon="2.07105">
        <ele>121.2</ele>
        <time>2021-07-11T08:38:08</time>
      </trkpt>
      <trkpt lat="47.91203" lon="2.07106">
        <ele>121.2</ele>
        <time>2021-07-11T08:38:09</time>
      </trkpt>
      <trkpt lat="47.91203" lon="2.07106">
        <ele>121.4</ele>
        <time>2021-07-11T08:38:10</time>
      </trkpt>
      <trkpt lat="47.91203" lon="2.07106">
        <ele>121.2</ele>
        <time>2021-07-11T08:38:11</time>
      </trkpt>
      <trkpt lat="47.91203" lon="2.07106">
        <ele>121</ele>
        <time>2021-07-11T08:38:12</time>
      </trkpt>
      <trkpt lat="47.91203" lon="2.07106">
        <ele>121</ele>
        <time>2021-07-11T08:38:13</time>
      </trkpt>
      <trkpt lat="47.91203" lon="2.07106">
        <ele>121</ele>
        <time>2021-07-11T08:38:14</time>
      </trkpt>
      <trkpt lat="47.91203" lon="2.07106">
        <ele>121.2</ele>
        <time>2021-07-11T08:38:15</time>
      </trkpt>
      <trkpt lat="47.91204" lon="2.07141">
        <ele>121.2</ele>
        <time>2021-07-11T08:38:57</time>
      </trkpt>
      <trkpt lat="47.91205" lon="2.07147">
        <ele>121</ele>
        <time>2021-07-11T08:38:58</time>
      </trkpt>
      <trkpt lat="47.91205" lon="2.07152">
        <ele>121</ele>
        <time>2021-07-11T08:38:59</time>
      </trkpt>
      <trkpt lat="47.91206" lon="2.07158">
        <ele>121.2</ele>
        <time>2021-07-11T08:39:00</time>
      </trkpt>
      <trkpt lat="47.91206" lon="2.07164">
        <ele>121.2</ele>
        <time>2021-07-11T08:39:01</time>
      </trkpt>
      <trkpt lat="47.91207" lon="2.0717">
        <ele>121.2</ele>
        <time>2021-07-11T08:39:02</time>
      </trkpt>
      <trkpt lat="47.91207" lon="2.07176">
        <ele>121.2</ele>
        <time>2021-07-11T08:39:03</time>
      </trkpt>
      <trkpt lat="47.91208" lon="2.07183">
        <ele>121.2</ele>
        <time>2021-07-11T08:39:04</time>
      </trkpt>
      <trkpt lat="47.91208" lon="2.07189">
        <ele>121.2</ele>
        <time>2021-07-11T08:39:05</time>
      </trkpt>
      <trkpt lat="47.91208" lon="2.07195">
        <ele>121.2</ele>
        <time>2021-07-11T08:39:06</time>
      </trkpt>
      <trkpt lat="47.91209" lon="2.072">
        <ele>121.2</ele>
        <time>2021-07-11T08:39:07</time>
      </trkpt>
      <trkpt lat="47.91208" lon="2.07206">
        <ele>121.2</ele>
        <time>2021-07-11T08:39:08</time>
      </trkpt>
      <trkpt lat="47.91207" lon="2.0721">
        <ele>121.4</ele>
        <time>2021-07-11T08:39:09</time>
      </trkpt>
      <trkpt lat="47.91205" lon="2.07214">
        <ele>121.4</ele>
        <time>2021-07-11T08:39:10</time>
      </trkpt>
      <trkpt lat="47.91202" lon="2.07215">
        <ele>121.4</ele>
        <time>2021-07-11T08:39:11</time>
      </trkpt>
      <trkpt lat="47.91199" lon="2.07215">
        <ele>121.4</ele>
        <time>2021-07-11T08:39:12</time>
      </trkpt>
      <trkpt lat="47.91195" lon="2.07214">
        <ele>121.2</ele>
        <time>2021-07-11T08:39:13</time>
      </trkpt>
      <trkpt lat="47.91191" lon="2.07212">
        <ele>121.2</ele>
        <time>2021-07-11T08:39:14</time>
      </trkpt>
      <trkpt lat="47.91187" lon="2.07211">
        <ele>121.2</ele>
        <time>2021-07-11T08:39:15</time>
      </trkpt>
      <trkpt lat="47.91183" lon="2.07209">
        <ele>121</ele>
        <time>2021-07-11T08:39:16</time>
      </trkpt>
      <trkpt lat="47.91179" lon="2.07207">
        <ele>121</ele>
        <time>2021-07-11T08:39:17</time>
      </trkpt>
      <trkpt lat="47.91174" lon="2.07205">
        <ele>121</ele>
        <time>2021-07-11T08:39:18</time>
      </trkpt>
      <trkpt lat="47.9117" lon="2.07203">
        <ele>120.8</ele>
        <time>2021-07-11T08:39:19</time>
      </trkpt>
      <trkpt lat="47.91165" lon="2.07202">
        <ele>120.8</ele>
        <time>2021-07-11T08:39:20</time>
      </trkpt>
      <trkpt lat="47.91161" lon="2.072">
        <ele>120.8</ele>
        <time>2021-07-11T08:39:21</time>
      </trkpt>
      <trkpt lat="47.91156" lon="2.07199">
        <ele>120.6</ele>
        <time>2021-07-11T08:39:22</time>
      </trkpt>
      <trkpt lat="47.91151" lon="2.07197">
        <ele>120.6</ele>
        <time>2021-07-11T08:39:23</time>
      </trkpt>
      <trkpt lat="47.91146" lon="2.07195">
        <ele>120.4</ele>
        <time>2021-07-11T08:39:24</time>
      </trkpt>
      <trkpt lat="47.91141" lon="2.07194">
        <ele>120.4</ele>
        <time>2021-07-11T08:39:25</time>
      </trkpt>
      <trkpt lat="47.91136" lon="2.07191">
        <ele>120.2</ele>
        <time>2021-07-11T08:39:26</time>
      </trkpt>
      <trkpt lat="47.9113" lon="2.0719">
        <ele>120</ele>
        <time>2021-07-11T08:39:27</time>
      </trkpt>
      <trkpt lat="47.91125" lon="2.07188">
        <ele>120</ele>
        <time>2021-07-11T08:39:28</time>
      </trkpt>
      <trkpt lat="47.9112" lon="2.07187">
        <ele>120.2</ele>
        <time>2021-07-11T08:39:29</time>
      </trkpt>
      <trkpt lat="47.91114" lon="2.07185">
        <ele>120.2</ele>
        <time>2021-07-11T08:39:30</time>
      </trkpt>
      <trkpt lat="47.91109" lon="2.07183">
        <ele>120</ele>
        <time>2021-07-11T08:39:31</time>
      </trkpt>
      <trkpt lat="47.91104" lon="2.07181">
        <ele>120</ele>
        <time>2021-07-11T08:39:32</time>
      </trkpt>
      <trkpt lat="47.91098" lon="2.07179">
        <ele>120</ele>
        <time>2021-07-11T08:39:33</time>
      </trkpt>
      <trkpt lat="47.91093" lon="2.07177">
        <ele>120</ele>
        <time>2021-07-11T08:39:34</time>
      </trkpt>
      <trkpt lat="47.91088" lon="2.07175">
        <ele>119.8</ele>
        <time>2021-07-11T08:39:35</time>
      </trkpt>
      <trkpt lat="47.91082" lon="2.07173">
        <ele>119.6</ele>
        <time>2021-07-11T08:39:36</time>
      </trkpt>
      <trkpt lat="47.91077" lon="2.07171">
        <ele>119.8</ele>
        <time>2021-07-11T08:39:37</time>
      </trkpt>
      <trkpt lat="47.91072" lon="2.07169">
        <ele>119.6</ele>
        <time>2021-07-11T08:39:38</time>
      </trkpt>
      <trkpt lat="47.91067" lon="2.07167">
        <ele>119.6</ele>
        <time>2021-07-11T08:39:39</time>
      </trkpt>
      <trkpt lat="47.91062" lon="2.07165">
        <ele>119.4</ele>
        <time>2021-07-11T08:39:40</time>
      </trkpt>
      <trkpt lat="47.91056" lon="2.07163">
        <ele>119.4</ele>
        <time>2021-07-11T08:39:41</time>
      </trkpt>
      <trkpt lat="47.91051" lon="2.07162">
        <ele>119.4</ele>
        <time>2021-07-11T08:39:42</time>
      </trkpt>
      <trkpt lat="47.91046" lon="2.0716">
        <ele>119.4</ele>
        <time>2021-07-11T08:39:43</time>
      </trkpt>
      <trkpt lat="47.91041" lon="2.07158">
        <ele>119.4</ele>
        <time>2021-07-11T08:39:44</time>
      </trkpt>
      <trkpt lat="47.91036" lon="2.07157">
        <ele>119.4</ele>
        <time>2021-07-11T08:39:45</time>
      </trkpt>
      <trkpt lat="47.91031" lon="2.07156">
        <ele>119.4</ele>
        <time>2021-07-11T08:39:46</time>
      </trkpt>
      <trkpt lat="47.91026" lon="2.07154">
        <ele>119.4</ele>
        <time>2021-07-11T08:39:47</time>
      </trkpt>
      <trkpt lat="47.91021" lon="2.07152">
        <ele>119.2</ele>
        <time>2021-07-11T08:39:48</time>
      </trkpt>
      <trkpt lat="47.91016" lon="2.0715">
        <ele>119.2</ele>
        <time>2021-07-11T08:39:49</time>
      </trkpt>
      <trkpt lat="47.9101" lon="2.07148">
        <ele>119.2</ele>
        <time>2021-07-11T08:39:50</time>
      </trkpt>
      <trkpt lat="47.91006" lon="2.07147">
        <ele>119.2</ele>
        <time>2021-07-11T08:39:51</time>
      </trkpt>
      <trkpt lat="47.91001" lon="2.07148">
        <ele>119</ele>
        <time>2021-07-11T08:39:52</time>
      </trkpt>
      <trkpt lat="47.90997" lon="2.07152">
        <ele>119</ele>
        <time>2021-07-11T08:39:53</time>
      </trkpt>
      <trkpt lat="47.90995" lon="2.07156">
        <ele>119</ele>
        <time>2021-07-11T08:39:54</time>
      </trkpt>
      <trkpt lat="47.90996" lon="2.07162">
        <ele>119</ele>
        <time>2021-07-11T08:39:55</time>
      </trkpt>
      <trkpt lat="47.90996" lon="2.07169">
        <ele>119</ele>
        <time>2021-07-11T08:39:56</time>
      </trkpt>
      <trkpt lat="47.90997" lon="2.07175">
        <ele>119</ele>
        <time>2021-07-11T08:39:57</time>
      </trkpt>
      <trkpt lat="47.90998" lon="2.07181">
        <ele>119</ele>
        <time>2021-07-11T08:39:58</time>
      </trkpt>
      <trkpt lat="47.90999" lon="2.07188">
        <ele>119</ele>
        <time>2021-07-11T08:39:59</time>
      </trkpt>
      <trkpt lat="47.91" lon="2.07195">
        <ele>119.2</ele>
        <time>2021-07-11T08:40:00</time>
      </trkpt>
      <trkpt lat="47.91001" lon="2.07202">
        <ele>119</ele>
        <time>2021-07-11T08:40:01</time>
      </trkpt>
      <trkpt lat="47.91002" lon="2.0721">
        <ele>119.2</ele>
        <time>2021-07-11T08:40:02</time>
      </trkpt>
      <trkpt lat="47.91003" lon="2.07217">
        <ele>119.2</ele>
        <time>2021-07-11T08:40:03</time>
      </trkpt>
      <trkpt lat="47.91004" lon="2.07225">
        <ele>119.2</ele>
        <time>2021-07-11T08:40:04</time>
      </trkpt>
      <trkpt lat="47.91005" lon="2.07232">
        <ele>119.2</ele>
        <time>2021-07-11T08:40:05</time>
      </trkpt>
      <trkpt lat="47.91006" lon="2.0724">
        <ele>119.2</ele>
        <time>2021-07-11T08:40:06</time>
      </trkpt>
      <trkpt lat="47.91007" lon="2.07248">
        <ele>119.2</ele>
        <time>2021-07-11T08:40:07</time>
      </trkpt>
      <trkpt lat="47.91008" lon="2.07256">
        <ele>119.4</ele>
        <time>2021-07-11T08:40:08</time>
      </trkpt>
      <trkpt lat="47.91009" lon="2.07263">
        <ele>119.4</ele>
        <time>2021-07-11T08:40:09</time>
      </trkpt>
      <trkpt lat="47.91009" lon="2.07271">
        <ele>119.4</ele>
        <time>2021-07-11T08:40:10</time>
      </trkpt>
      <trkpt lat="47.9101" lon="2.07279">
        <ele>119.4</ele>
        <time>2021-07-11T08:40:11</time>
      </trkpt>
      <trkpt lat="47.91011" lon="2.07288">
        <ele>119.4</ele>
        <time>2021-07-11T08:40:12</time>
      </trkpt>
      <trkpt lat="47.91011" lon="2.07296">
        <ele>119.4</ele>
        <time>2021-07-11T08:40:13</time>
      </trkpt>
      <trkpt lat="47.91012" lon="2.07304">
        <ele>119.4</ele>
        <time>2021-07-11T08:40:14</time>
      </trkpt>
      <trkpt lat="47.91012" lon="2.07312">
        <ele>119.4</ele>
        <time>2021-07-11T08:40:15</time>
      </trkpt>
      <trkpt lat="47.91012" lon="2.07319">
        <ele>119.4</ele>
        <time>2021-07-11T08:40:16</time>
      </trkpt>
      <trkpt lat="47.91012" lon="2.07327">
        <ele>119.4</ele>
        <time>2021-07-11T08:40:17</time>
      </trkpt>
      <trkpt lat="47.91012" lon="2.07335">
        <ele>119.4</ele>
        <time>2021-07-11T08:40:18</time>
      </trkpt>
      <trkpt lat="47.91012" lon="2.07343">
        <ele>119.4</ele>
        <time>2021-07-11T08:40:19</time>
      </trkpt>
      <trkpt lat="47.91012" lon="2.07351">
        <ele>119.4</ele>
        <time>2021-07-11T08:40:20</time>
      </trkpt>
      <trkpt lat="47.91011" lon="2.07359">
        <ele>119.6</ele>
        <time>2021-07-11T08:40:21</time>
      </trkpt>
      <trkpt lat="47.91011" lon="2.07367">
        <ele>119.6</ele>
        <time>2021-07-11T08:40:22</time>
      </trkpt>
      <trkpt lat="47.91011" lon="2.07374">
        <ele>119.6</ele>
        <time>2021-07-11T08:40:23</time>
      </trkpt>
      <trkpt lat="47.9101" lon="2.07382">
        <ele>119.6</ele>
        <time>2021-07-11T08:40:24</time>
      </trkpt>
      <trkpt lat="47.9101" lon="2.0739">
        <ele>119.6</ele>
        <time>2021-07-11T08:40:25</time>
      </trkpt>
      <trkpt lat="47.9101" lon="2.07398">
        <ele>119.6</ele>
        <time>2021-07-11T08:40:26</time>
      </trkpt>
      <trkpt lat="47.9101" lon="2.07406">
        <ele>119.8</ele>
        <time>2021-07-11T08:40:27</time>
      </trkpt>
      <trkpt lat="47.91009" lon="2.07413">
        <ele>119.8</ele>
        <time>2021-07-11T08:40:28</time>
      </trkpt>
      <trkpt lat="47.91009" lon="2.07421">
        <ele>119.8</ele>
        <time>2021-07-11T08:40:29</time>
      </trkpt>
      <trkpt lat="47.91009" lon="2.07429">
        <ele>120</ele>
        <time>2021-07-11T08:40:30</time>
      </trkpt>
      <trkpt lat="47.91009" lon="2.07436">
        <ele>119.8</ele>
        <time>2021-07-11T08:40:31</time>
      </trkpt>
      <trkpt lat="47.91008" lon="2.07444">
        <ele>119.8</ele>
        <time>2021-07-11T08:40:32</time>
      </trkpt>
      <trkpt lat="47.91008" lon="2.07452">
        <ele>119.8</ele>
        <time>2021-07-11T08:40:33</time>
      </trkpt>
      <trkpt lat="47.91008" lon="2.07461">
        <ele>120</ele>
        <time>2021-07-11T08:40:34</time>
      </trkpt>
      <trkpt lat="47.91008" lon="2.07469">
        <ele>120</ele>
        <time>2021-07-11T08:40:35</time>
      </trkpt>
      <trkpt lat="47.91008" lon="2.07477">
        <ele>120</ele>
        <time>2021-07-11T08:40:36</time>
      </trkpt>
      <trkpt lat="47.91007" lon="2.07485">
        <ele>120.2</ele>
        <time>2021-07-11T08:40:37</time>
      </trkpt>
      <trkpt lat="47.91007" lon="2.07493">
        <ele>120.2</ele>
        <time>2021-07-11T08:40:38</time>
      </trkpt>
      <trkpt lat="47.91007" lon="2.07501">
        <ele>120.2</ele>
        <time>2021-07-11T08:40:39</time>
      </trkpt>
      <trkpt lat="47.91007" lon="2.0751">
        <ele>120.2</ele>
        <time>2021-07-11T08:40:40</time>
      </trkpt>
      <trkpt lat="47.91007" lon="2.07518">
        <ele>120.2</ele>
        <time>2021-07-11T08:40:41</time>
      </trkpt>
      <trkpt lat="47.91006" lon="2.07526">
        <ele>120.4</ele>
        <time>2021-07-11T08:40:42</time>
      </trkpt>
      <trkpt lat="47.91006" lon="2.07535">
        <ele>120.2</ele>
        <time>2021-07-11T08:40:43</time>
      </trkpt>
      <trkpt lat="47.91006" lon="2.07543">
        <ele>120.2</ele>
        <time>2021-07-11T08:40:44</time>
      </trkpt>
      <trkpt lat="47.91006" lon="2.07552">
        <ele>120.2</ele>
        <time>2021-07-11T08:40:45</time>
      </trkpt>
      <trkpt lat="47.91006" lon="2.0756">
        <ele>120</ele>
        <time>2021-07-11T08:40:46</time>
      </trkpt>
      <trkpt lat="47.91006" lon="2.07569">
        <ele>120</ele>
        <time>2021-07-11T08:40:47</time>
      </trkpt>
      <trkpt lat="47.91005" lon="2.07577">
        <ele>119.8</ele>
        <time>2021-07-11T08:40:48</time>
      </trkpt>
      <trkpt lat="47.91005" lon="2.07585">
        <ele>119.8</ele>
        <time>2021-07-11T08:40:49</time>
      </trkpt>
      <trkpt lat="47.91005" lon="2.07593">
        <ele>119.8</ele>
        <time>2021-07-11T08:40:50</time>
      </trkpt>
      <trkpt lat="47.91005" lon="2.076">
        <ele>119.8</ele>
        <time>2021-07-11T08:40:51</time>
      </trkpt>
      <trkpt lat="47.91004" lon="2.07608">
        <ele>119.6</ele>
        <time>2021-07-11T08:40:52</time>
      </trkpt>
      <trkpt lat="47.91004" lon="2.07615">
        <ele>119.8</ele>
        <time>2021-07-11T08:40:53</time>
      </trkpt>
      <trkpt lat="47.91004" lon="2.07622">
        <ele>119.8</ele>
        <time>2021-07-11T08:40:54</time>
      </trkpt>
      <trkpt lat="47.91003" lon="2.07629">
        <ele>119.8</ele>
        <time>2021-07-11T08:40:55</time>
      </trkpt>
      <trkpt lat="47.91003" lon="2.07636">
        <ele>119.8</ele>
        <time>2021-07-11T08:40:56</time>
      </trkpt>
      <trkpt lat="47.91002" lon="2.07643">
        <ele>119.8</ele>
        <time>2021-07-11T08:40:57</time>
      </trkpt>
      <trkpt lat="47.91002" lon="2.07651">
        <ele>119.8</ele>
        <time>2021-07-11T08:40:58</time>
      </trkpt>
      <trkpt lat="47.91001" lon="2.07658">
        <ele>119.8</ele>
        <time>2021-07-11T08:40:59</time>
      </trkpt>
      <trkpt lat="47.91001" lon="2.07666">
        <ele>119.8</ele>
        <time>2021-07-11T08:41:00</time>
      </trkpt>
      <trkpt lat="47.91" lon="2.07673">
        <ele>119.8</ele>
        <time>2021-07-11T08:41:01</time>
      </trkpt>
      <trkpt lat="47.91" lon="2.07681">
        <ele>119.8</ele>
        <time>2021-07-11T08:41:02</time>
      </trkpt>
      <trkpt lat="47.90999" lon="2.07689">
        <ele>119.8</ele>
        <time>2021-07-11T08:41:03</time>
      </trkpt>
      <trkpt lat="47.90999" lon="2.07697">
        <ele>119.8</ele>
        <time>2021-07-11T08:41:04</time>
      </trkpt>
      <trkpt lat="47.90998" lon="2.07705">
        <ele>119.8</ele>
        <time>2021-07-11T08:41:05</time>
      </trkpt>
      <trkpt lat="47.90997" lon="2.07713">
        <ele>119.8</ele>
        <time>2021-07-11T08:41:06</time>
      </trkpt>
      <trkpt lat="47.90996" lon="2.07721">
        <ele>119.8</ele>
        <time>2021-07-11T08:41:07</time>
      </trkpt>
      <trkpt lat="47.90996" lon="2.07729">
        <ele>119.8</ele>
        <time>2021-07-11T08:41:08</time>
      </trkpt>
      <trkpt lat="47.90995" lon="2.07737">
        <ele>120</ele>
        <time>2021-07-11T08:41:09</time>
      </trkpt>
      <trkpt lat="47.90994" lon="2.07746">
        <ele>119.8</ele>
        <time>2021-07-11T08:41:10</time>
      </trkpt>
      <trkpt lat="47.90994" lon="2.07754">
        <ele>119.8</ele>
        <time>2021-07-11T08:41:11</time>
      </trkpt>
      <trkpt lat="47.90993" lon="2.07762">
        <ele>119.6</ele>
        <time>2021-07-11T08:41:12</time>
      </trkpt>
      <trkpt lat="47.90992" lon="2.07771">
        <ele>119.8</ele>
        <time>2021-07-11T08:41:13</time>
      </trkpt>
      <trkpt lat="47.90992" lon="2.07778">
        <ele>119.6</ele>
        <time>2021-07-11T08:41:14</time>
      </trkpt>
      <trkpt lat="47.90991" lon="2.07786">
        <ele>119.6</ele>
        <time>2021-07-11T08:41:15</time>
      </trkpt>
      <trkpt lat="47.9099" lon="2.07794">
        <ele>119.8</ele>
        <time>2021-07-11T08:41:16</time>
      </trkpt>
      <trkpt lat="47.90989" lon="2.07802">
        <ele>119.8</ele>
        <time>2021-07-11T08:41:17</time>
      </trkpt>
      <trkpt lat="47.90989" lon="2.07809">
        <ele>119.8</ele>
        <time>2021-07-11T08:41:18</time>
      </trkpt>
      <trkpt lat="47.90989" lon="2.07816">
        <ele>119.8</ele>
        <time>2021-07-11T08:41:19</time>
      </trkpt>
      <trkpt lat="47.90989" lon="2.07824">
        <ele>119.8</ele>
        <time>2021-07-11T08:41:20</time>
      </trkpt>
      <trkpt lat="47.90989" lon="2.07832">
        <ele>119.8</ele>
        <time>2021-07-11T08:41:21</time>
      </trkpt>
      <trkpt lat="47.90988" lon="2.0784">
        <ele>119.8</ele>
        <time>2021-07-11T08:41:22</time>
      </trkpt>
      <trkpt lat="47.90987" lon="2.07848">
        <ele>119.6</ele>
        <time>2021-07-11T08:41:23</time>
      </trkpt>
      <trkpt lat="47.90986" lon="2.07856">
        <ele>119.8</ele>
        <time>2021-07-11T08:41:24</time>
      </trkpt>
      <trkpt lat="47.90985" lon="2.07864">
        <ele>119.8</ele>
        <time>2021-07-11T08:41:25</time>
      </trkpt>
      <trkpt lat="47.90985" lon="2.07873">
        <ele>119.8</ele>
        <time>2021-07-11T08:41:26</time>
      </trkpt>
      <trkpt lat="47.90986" lon="2.07882">
        <ele>119.8</ele>
        <time>2021-07-11T08:41:27</time>
      </trkpt>
      <trkpt lat="47.90986" lon="2.0789">
        <ele>119.8</ele>
        <time>2021-07-11T08:41:28</time>
      </trkpt>
      <trkpt lat="47.90987" lon="2.07899">
        <ele>119.6</ele>
        <time>2021-07-11T08:41:29</time>
      </trkpt>
      <trkpt lat="47.90988" lon="2.07907">
        <ele>119.4</ele>
        <time>2021-07-11T08:41:30</time>
      </trkpt>
      <trkpt lat="47.90989" lon="2.07916">
        <ele>119.6</ele>
        <time>2021-07-11T08:41:31</time>
      </trkpt>
      <trkpt lat="47.90991" lon="2.07924">
        <ele>119.4</ele>
        <time>2021-07-11T08:41:32</time>
      </trkpt>
      <trkpt lat="47.90993" lon="2.07933">
        <ele>119.6</ele>
        <time>2021-07-11T08:41:33</time>
      </trkpt>
      <trkpt lat="47.90995" lon="2.07941">
        <ele>119.4</ele>
        <time>2021-07-11T08:41:34</time>
      </trkpt>
      <trkpt lat="47.90996" lon="2.0795">
        <ele>119.4</ele>
        <time>2021-07-11T08:41:35</time>
      </trkpt>
      <trkpt lat="47.90998" lon="2.07958">
        <ele>119.6</ele>
        <time>2021-07-11T08:41:36</time>
      </trkpt>
      <trkpt lat="47.91001" lon="2.07975">
        <ele>119.6</ele>
        <time>2021-07-11T08:41:38</time>
      </trkpt>
      <trkpt lat="47.91004" lon="2.07993">
        <ele>119.4</ele>
        <time>2021-07-11T08:41:40</time>
      </trkpt>
      <trkpt lat="47.91006" lon="2.08003">
        <ele>119.4</ele>
        <time>2021-07-11T08:41:41</time>
      </trkpt>
      <trkpt lat="47.91008" lon="2.08012">
        <ele>119.4</ele>
        <time>2021-07-11T08:41:42</time>
      </trkpt>
      <trkpt lat="47.91009" lon="2.08021">
        <ele>119.4</ele>
        <time>2021-07-11T08:41:43</time>
      </trkpt>
      <trkpt lat="47.91012" lon="2.0803">
        <ele>119.4</ele>
        <time>2021-07-11T08:41:44</time>
      </trkpt>
      <trkpt lat="47.91014" lon="2.0804">
        <ele>119.4</ele>
        <time>2021-07-11T08:41:45</time>
      </trkpt>
      <trkpt lat="47.91017" lon="2.08048">
        <ele>119.4</ele>
        <time>2021-07-11T08:41:46</time>
      </trkpt>
      <trkpt lat="47.9102" lon="2.08057">
        <ele>119.2</ele>
        <time>2021-07-11T08:41:47</time>
      </trkpt>
      <trkpt lat="47.91023" lon="2.08066">
        <ele>119.2</ele>
        <time>2021-07-11T08:41:48</time>
      </trkpt>
      <trkpt lat="47.91026" lon="2.08074">
        <ele>119.2</ele>
        <time>2021-07-11T08:41:49</time>
      </trkpt>
      <trkpt lat="47.9103" lon="2.08082">
        <ele>119.2</ele>
        <time>2021-07-11T08:41:50</time>
      </trkpt>
      <trkpt lat="47.91033" lon="2.0809">
        <ele>119.2</ele>
        <time>2021-07-11T08:41:51</time>
      </trkpt>
      <trkpt lat="47.91037" lon="2.08098">
        <ele>119</ele>
        <time>2021-07-11T08:41:52</time>
      </trkpt>
      <trkpt lat="47.91041" lon="2.08106">
        <ele>119</ele>
        <time>2021-07-11T08:41:53</time>
      </trkpt>
      <trkpt lat="47.91044" lon="2.08114">
        <ele>119</ele>
        <time>2021-07-11T08:41:54</time>
      </trkpt>
      <trkpt lat="47.91047" lon="2.08121">
        <ele>119</ele>
        <time>2021-07-11T08:41:55</time>
      </trkpt>
      <trkpt lat="47.9105" lon="2.0813">
        <ele>119</ele>
        <time>2021-07-11T08:41:56</time>
      </trkpt>
      <trkpt lat="47.91053" lon="2.08138">
        <ele>119</ele>
        <time>2021-07-11T08:41:57</time>
      </trkpt>
      <trkpt lat="47.91055" lon="2.08147">
        <ele>119</ele>
        <time>2021-07-11T08:41:58</time>
      </trkpt>
      <trkpt lat="47.91057" lon="2.08156">
        <ele>119</ele>
        <time>2021-07-11T08:41:59</time>
      </trkpt>
      <trkpt lat="47.91058" lon="2.08165">
        <ele>119</ele>
        <time>2021-07-11T08:42:00</time>
      </trkpt>
      <trkpt lat="47.9106" lon="2.08174">
        <ele>119.2</ele>
        <time>2021-07-11T08:42:01</time>
      </trkpt>
      <trkpt lat="47.91061" lon="2.08183">
        <ele>119.2</ele>
        <time>2021-07-11T08:42:02</time>
      </trkpt>
      <trkpt lat="47.91062" lon="2.08192">
        <ele>119.2</ele>
        <time>2021-07-11T08:42:03</time>
      </trkpt>
      <trkpt lat="47.91063" lon="2.08201">
        <ele>119.2</ele>
        <time>2021-07-11T08:42:04</time>
      </trkpt>
      <trkpt lat="47.91064" lon="2.0821">
        <ele>119.2</ele>
        <time>2021-07-11T08:42:05</time>
      </trkpt>
      <trkpt lat="47.91066" lon="2.08219">
        <ele>119.2</ele>
        <time>2021-07-11T08:42:06</time>
      </trkpt>
      <trkpt lat="47.91067" lon="2.08227">
        <ele>119.2</ele>
        <time>2021-07-11T08:42:07</time>
      </trkpt>
      <trkpt lat="47.91068" lon="2.08236">
        <ele>119.2</ele>
        <time>2021-07-11T08:42:08</time>
      </trkpt>
      <trkpt lat="47.91068" lon="2.08245">
        <ele>119.2</ele>
        <time>2021-07-11T08:42:09</time>
      </trkpt>
      <trkpt lat="47.91069" lon="2.08253">
        <ele>119.2</ele>
        <time>2021-07-11T08:42:10</time>
      </trkpt>
      <trkpt lat="47.9107" lon="2.08262">
        <ele>119.2</ele>
        <time>2021-07-11T08:42:11</time>
      </trkpt>
      <trkpt lat="47.91071" lon="2.08271">
        <ele>119.2</ele>
        <time>2021-07-11T08:42:12</time>
      </trkpt>
      <trkpt lat="47.91073" lon="2.08279">
        <ele>119.2</ele>
        <time>2021-07-11T08:42:13</time>
      </trkpt>
      <trkpt lat="47.91073" lon="2.08288">
        <ele>119.2</ele>
        <time>2021-07-11T08:42:14</time>
      </trkpt>
      <trkpt lat="47.91074" lon="2.08297">
        <ele>119.2</ele>
        <time>2021-07-11T08:42:15</time>
      </trkpt>
      <trkpt lat="47.91075" lon="2.08305">
        <ele>119.2</ele>
        <time>2021-07-11T08:42:16</time>
      </trkpt>
      <trkpt lat="47.91075" lon="2.08313">
        <ele>119.2</ele>
        <time>2021-07-11T08:42:17</time>
      </trkpt>
      <trkpt lat="47.91076" lon="2.08322">
        <ele>119.2</ele>
        <time>2021-07-11T08:42:18</time>
      </trkpt>
      <trkpt lat="47.91076" lon="2.08331">
        <ele>119.2</ele>
        <time>2021-07-11T08:42:19</time>
      </trkpt>
      <trkpt lat="47.91076" lon="2.0834">
        <ele>119.4</ele>
        <time>2021-07-11T08:42:20</time>
      </trkpt>
      <trkpt lat="47.91076" lon="2.08349">
        <ele>119.2</ele>
        <time>2021-07-11T08:42:21</time>
      </trkpt>
      <trkpt lat="47.91076" lon="2.08357">
        <ele>119.2</ele>
        <time>2021-07-11T08:42:22</time>
      </trkpt>
      <trkpt lat="47.91076" lon="2.08366">
        <ele>119.2</ele>
        <time>2021-07-11T08:42:23</time>
      </trkpt>
      <trkpt lat="47.91077" lon="2.08375">
        <ele>119.2</ele>
        <time>2021-07-11T08:42:24</time>
      </trkpt>
      <trkpt lat="47.91077" lon="2.08384">
        <ele>119.2</ele>
        <time>2021-07-11T08:42:25</time>
      </trkpt>
      <trkpt lat="47.91076" lon="2.08392">
        <ele>119.2</ele>
        <time>2021-07-11T08:42:26</time>
      </trkpt>
      <trkpt lat="47.91073" lon="2.084">
        <ele>119.2</ele>
        <time>2021-07-11T08:42:27</time>
      </trkpt>
      <trkpt lat="47.91176" lon="2.08842">
        <ele>112.4</ele>
      </trkpt>
      <trkpt lat="47.91198" lon="2.0891">
        <ele>109.9</ele>
      </trkpt>
      <trkpt lat="47.91261" lon="2.09386">
        <ele>103.9</ele>
      </trkpt>
      <trkpt lat="47.91242" lon="2.09547">
        <ele>105.6</ele>
      </trkpt>
      <trkpt lat="47.91296" lon="2.0975">
        <ele>106</ele>
      </trkpt>
      <trkpt lat="47.91296" lon="2.09877">
        <ele>105</ele>
      </trkpt>
      <trkpt lat="47.91287" lon="2.10025">
        <ele>102.4</ele>
      </trkpt>
      <trkpt lat="47.91445" lon="2.10117">
        <ele>103.8</ele>
      </trkpt>
      <trkpt lat="47.91491" lon="2.10179">
        <ele>104.2</ele>
      </trkpt>
      <trkpt lat="47.91543" lon="2.10205">
        <ele>104.8</ele>
      </trkpt>
      <trkpt lat="47.91529" lon="2.10267">
        <ele>104</ele>
      </trkpt>
      <trkpt lat="47.91437" lon="2.1033">
        <ele>102.2</ele>
      </trkpt>
      <trkpt lat="47.91298" lon="2.10385">
        <ele>103.9</ele>
      </trkpt>
      <trkpt lat="47.91149" lon="2.10499">
        <ele>105</ele>
      </trkpt>
      <trkpt lat="47.91052" lon="2.10412">
        <ele>104.7</ele>
      </trkpt>
      <trkpt lat="47.90908" lon="2.10644">
        <ele>104.3</ele>
      </trkpt>
      <trkpt lat="47.90784" lon="2.10888">
        <ele>107</ele>
      </trkpt>
      <trkpt lat="47.90721" lon="2.10974">
        <ele>109.1</ele>
      </trkpt>
      <trkpt lat="47.90534" lon="2.11056">
        <ele>106.8</ele>
      </trkpt>
      <trkpt lat="47.90413" lon="2.11159">
        <ele>106.7</ele>
      </trkpt>
      <trkpt lat="47.90399" lon="2.11485">
        <ele>104.3</ele>
      </trkpt>
      <trkpt lat="47.90433" lon="2.11725">
        <ele>105</ele>
      </trkpt>
      <trkpt lat="47.90001" lon="2.11758">
        <ele>115</ele>
      </trkpt>
      <trkpt lat="47.89759" lon="2.11687">
        <ele>114.2</ele>
      </trkpt>
      <trkpt lat="47.89689" lon="2.1164">
        <ele>113.2</ele>
      </trkpt>
      <trkpt lat="47.89618" lon="2.1164">
        <ele>115</ele>
      </trkpt>
      <trkpt lat="47.89545" lon="2.11636">
        <ele>115.9</ele>
      </trkpt>
      <trkpt lat="47.8942" lon="2.11544">
        <ele>116</ele>
      </trkpt>
      <trkpt lat="47.89286" lon="2.11466">
        <ele>116.6</ele>
      </trkpt>
      <trkpt lat="47.89084" lon="2.11549">
        <ele>117</ele>
      </trkpt>
      <trkpt lat="47.88701" lon="2.11755">
        <ele>117</ele>
      </trkpt>
      <trkpt lat="47.88146" lon="2.11922">
        <ele>116</ele>
      </trkpt>
      <trkpt lat="47.88008" lon="2.11961">
        <ele>114.8</ele>
      </trkpt>
      <trkpt lat="47.88002" lon="2.11982">
        <ele>114.9</ele>
      </trkpt>
      <trkpt lat="47.87895" lon="2.1212">
        <ele>113.9</ele>
      </trkpt>
      <trkpt lat="47.87582" lon="2.1233">
        <ele>109.4</ele>
      </trkpt>
      <trkpt lat="47.87544" lon="2.12304">
        <ele>111.1</ele>
      </trkpt>
      <trkpt lat="47.87524" lon="2.12342">
        <ele>108.8</ele>
      </trkpt>
      <trkpt lat="47.87508" lon="2.12365">
        <ele>108</ele>
      </trkpt>
      <trkpt lat="47.87457" lon="2.12378">
        <ele>108</ele>
      </trkpt>
      <trkpt lat="47.87447" lon="2.12375">
        <ele>108</ele>
      </trkpt>
      <trkpt lat="47.87423" lon="2.12559">
        <ele>114.3</ele>
      </trkpt>
      <trkpt lat="47.87383" lon="2.1274">
        <ele>116</ele>
      </trkpt>
      <trkpt lat="47.87256" lon="2.12686">
        <ele>114</ele>
      </trkpt>
    </trkseg>
  </trk>
</gpx>